<?xml version='1.0' encoding='UTF-8'?><gpx version="1.1" creator="JPX - https://github.com/jenetics/jpx" xmlns="http://www.topografix.com/GPX/1/1"><trk><trkseg><trkpt lat="45.7061455" lon="9.0282814"><ele>304.0</ele><time>2026-04-22T14:03:12.983Z</time></trkpt><trkpt lat="45.7061364" lon="9.0284063"><ele>304.0</ele><time>2026-04-22T14:03:14.983Z</time></trkpt><trkpt lat="45.7060795" lon="9.0285043"><ele>304.0</ele><time>2026-04-22T14:03:16.982Z</time></trkpt><trkpt lat="45.7060228" lon="9.0285833"><ele>304.0</ele><time>2026-04-22T14:03:18.983Z</time></trkpt><trkpt lat="45.7059873" lon="9.0286759"><ele>304.0</ele><time>2026-04-22T14:03:20.984Z</time></trkpt><trkpt lat="45.7059721" lon="9.0288057"><ele>304.0</ele><time>2026-04-22T14:03:22.983Z</time></trkpt><trkpt lat="45.7059585" lon="9.0289048"><ele>304.1428571428571</ele><time>2026-04-22T14:03:24.982Z</time></trkpt><trkpt lat="45.7059388" lon="9.0290022"><ele>304.28571428571433</ele><time>2026-04-22T14:03:26.983Z</time></trkpt><trkpt lat="45.7059225" lon="9.0290945"><ele>304.42857142857144</ele><time>2026-04-22T14:03:29.983Z</time></trkpt><trkpt lat="45.7059171" lon="9.0291895"><ele>304.57142857142856</ele><time>2026-04-22T14:03:36.982Z</time></trkpt><trkpt lat="45.7059047" lon="9.0292816"><ele>304.71428571428567</ele><time>2026-04-22T14:03:40.982Z</time></trkpt><trkpt lat="45.7059573" lon="9.0293657"><ele>304.8571428571429</ele><time>2026-04-22T14:03:47.982Z</time></trkpt><trkpt lat="45.7060175" lon="9.0294521"><ele>305.0</ele><time>2026-04-22T14:03:50.981Z</time></trkpt><trkpt lat="45.7060093" lon="9.0295418"><ele>305.0</ele><time>2026-04-22T14:04:00.982Z</time></trkpt><trkpt lat="45.7059135" lon="9.0296289"><ele>305.0</ele><time>2026-04-22T14:04:02.982Z</time></trkpt><trkpt lat="45.7058403" lon="9.0296936"><ele>305.0</ele><time>2026-04-22T14:04:03.982Z</time></trkpt><trkpt lat="45.705764" lon="9.0297687"><ele>305.0</ele><time>2026-04-22T14:04:04.982Z</time></trkpt><trkpt lat="45.7056814" lon="9.029854"><ele>305.0</ele><time>2026-04-22T14:04:05.983Z</time></trkpt><trkpt lat="45.7055968" lon="9.0299392"><ele>304.6</ele><time>2026-04-22T14:04:06.983Z</time></trkpt><trkpt lat="45.7055093" lon="9.0300274"><ele>304.2</ele><time>2026-04-22T14:04:07.981Z</time></trkpt><trkpt lat="45.7054205" lon="9.0301166"><ele>303.8</ele><time>2026-04-22T14:04:08.982Z</time></trkpt><trkpt lat="45.7053314" lon="9.0302101"><ele>303.4</ele><time>2026-04-22T14:04:09.982Z</time></trkpt><trkpt lat="45.705239" lon="9.030303"><ele>303.0</ele><time>2026-04-22T14:04:10.982Z</time></trkpt><trkpt lat="45.7051494" lon="9.0303989"><ele>303.0</ele><time>2026-04-22T14:04:11.982Z</time></trkpt><trkpt lat="45.7050549" lon="9.0304939"><ele>303.0</ele><time>2026-04-22T14:04:12.982Z</time></trkpt><trkpt lat="45.70496" lon="9.030586"><ele>303.0</ele><time>2026-04-22T14:04:13.983Z</time></trkpt><trkpt lat="45.7048646" lon="9.030682"><ele>303.0</ele><time>2026-04-22T14:04:14.981Z</time></trkpt><trkpt lat="45.7047697" lon="9.0307779"><ele>303.0</ele><time>2026-04-22T14:04:15.982Z</time></trkpt><trkpt lat="45.7046751" lon="9.0308742"><ele>303.0</ele><time>2026-04-22T14:04:16.982Z</time></trkpt><trkpt lat="45.70458" lon="9.0309707"><ele>303.0</ele><time>2026-04-22T14:04:17.983Z</time></trkpt><trkpt lat="45.704484" lon="9.03107"><ele>303.0</ele><time>2026-04-22T14:04:18.982Z</time></trkpt><trkpt lat="45.7043903" lon="9.0311673"><ele>302.6</ele><time>2026-04-22T14:04:19.981Z</time></trkpt><trkpt lat="45.7042961" lon="9.0312622"><ele>302.20000000000005</ele><time>2026-04-22T14:04:20.983Z</time></trkpt><trkpt lat="45.7042056" lon="9.0313521"><ele>301.8</ele><time>2026-04-22T14:04:21.983Z</time></trkpt><trkpt lat="45.7041172" lon="9.0314409"><ele>301.40000000000003</ele><time>2026-04-22T14:04:22.983Z</time></trkpt><trkpt lat="45.7040316" lon="9.0315249"><ele>301.0</ele><time>2026-04-22T14:04:23.981Z</time></trkpt><trkpt lat="45.7039495" lon="9.0316062"><ele>301.0</ele><time>2026-04-22T14:04:24.982Z</time></trkpt><trkpt lat="45.7038712" lon="9.0316846"><ele>301.0</ele><time>2026-04-22T14:04:25.982Z</time></trkpt><trkpt lat="45.7037972" lon="9.0317603"><ele>301.0</ele><time>2026-04-22T14:04:26.982Z</time></trkpt><trkpt lat="45.7037267" lon="9.0318317"><ele>301.0</ele><time>2026-04-22T14:04:27.982Z</time></trkpt><trkpt lat="45.7036566" lon="9.031902"><ele>301.0</ele><time>2026-04-22T14:04:28.983Z</time></trkpt><trkpt lat="45.7035871" lon="9.0319707"><ele>301.0</ele><time>2026-04-22T14:04:29.983Z</time></trkpt><trkpt lat="45.7035196" lon="9.0320384"><ele>301.5</ele><time>2026-04-22T14:04:30.982Z</time></trkpt><trkpt lat="45.7034532" lon="9.0321065"><ele>302.0</ele><time>2026-04-22T14:04:31.981Z</time></trkpt><trkpt lat="45.7033884" lon="9.0321718"><ele>302.5</ele><time>2026-04-22T14:04:32.982Z</time></trkpt><trkpt lat="45.7033244" lon="9.0322387"><ele>303.0</ele><time>2026-04-22T14:04:33.983Z</time></trkpt><trkpt lat="45.7032608" lon="9.032302"><ele>303.5</ele><time>2026-04-22T14:04:34.982Z</time></trkpt><trkpt lat="45.7031953" lon="9.0323684"><ele>304.0</ele><time>2026-04-22T14:04:35.982Z</time></trkpt><trkpt lat="45.7031325" lon="9.0324339"><ele>303.8333333333333</ele><time>2026-04-22T14:04:36.983Z</time></trkpt><trkpt lat="45.7030792" lon="9.0324934"><ele>303.66666666666663</ele><time>2026-04-22T14:04:37.982Z</time></trkpt><trkpt lat="45.7029893" lon="9.0325763"><ele>303.5</ele><time>2026-04-22T14:04:39.983Z</time></trkpt><trkpt lat="45.7029304" lon="9.0326083"><ele>303.3333333333333</ele><time>2026-04-22T14:04:41.982Z</time></trkpt><trkpt lat="45.7028473" lon="9.0326274"><ele>303.1666666666667</ele><time>2026-04-22T14:04:44.981Z</time></trkpt><trkpt lat="45.7027401" lon="9.0326468"><ele>303.0</ele><time>2026-04-22T14:04:46.981Z</time></trkpt><trkpt lat="45.7026703" lon="9.0326566"><ele>303.0</ele><time>2026-04-22T14:04:47.982Z</time></trkpt><trkpt lat="45.7025934" lon="9.0326622"><ele>303.0</ele><time>2026-04-22T14:04:48.982Z</time></trkpt><trkpt lat="45.702509" lon="9.0326569"><ele>303.0</ele><time>2026-04-22T14:04:49.983Z</time></trkpt><trkpt lat="45.7024204" lon="9.0326494"><ele>303.0</ele><time>2026-04-22T14:04:50.982Z</time></trkpt><trkpt lat="45.7023266" lon="9.0326321"><ele>303.0</ele><time>2026-04-22T14:04:51.983Z</time></trkpt><trkpt lat="45.7022287" lon="9.0326171"><ele>303.0</ele><time>2026-04-22T14:04:52.982Z</time></trkpt><trkpt lat="45.7021281" lon="9.0325961"><ele>303.0</ele><time>2026-04-22T14:04:53.982Z</time></trkpt><trkpt lat="45.7020241" lon="9.0325726"><ele>303.0</ele><time>2026-04-22T14:04:54.983Z</time></trkpt><trkpt lat="45.7019144" lon="9.0325485"><ele>303.0</ele><time>2026-04-22T14:04:55.982Z</time></trkpt><trkpt lat="45.7018022" lon="9.0325259"><ele>303.0</ele><time>2026-04-22T14:04:56.983Z</time></trkpt><trkpt lat="45.7016876" lon="9.0325078"><ele>303.0</ele><time>2026-04-22T14:04:57.981Z</time></trkpt><trkpt lat="45.7015697" lon="9.0324922"><ele>303.25</ele><time>2026-04-22T14:04:58.982Z</time></trkpt><trkpt lat="45.7014508" lon="9.0324764"><ele>303.5</ele><time>2026-04-22T14:04:59.983Z</time></trkpt><trkpt lat="45.7013304" lon="9.0324587"><ele>303.75</ele><time>2026-04-22T14:05:00.982Z</time></trkpt><trkpt lat="45.7012093" lon="9.0324411"><ele>304.0</ele><time>2026-04-22T14:05:01.982Z</time></trkpt><trkpt lat="45.7010868" lon="9.0324241"><ele>304.0</ele><time>2026-04-22T14:05:02.982Z</time></trkpt><trkpt lat="45.7009648" lon="9.0324043"><ele>304.0</ele><time>2026-04-22T14:05:03.982Z</time></trkpt><trkpt lat="45.7008492" lon="9.0323862"><ele>304.0</ele><time>2026-04-22T14:05:04.983Z</time></trkpt><trkpt lat="45.7007415" lon="9.0323665"><ele>304.0</ele><time>2026-04-22T14:05:05.982Z</time></trkpt><trkpt lat="45.7006379" lon="9.0323557"><ele>304.0</ele><time>2026-04-22T14:05:06.982Z</time></trkpt><trkpt lat="45.7005384" lon="9.03234"><ele>304.0</ele><time>2026-04-22T14:05:07.983Z</time></trkpt><trkpt lat="45.7004399" lon="9.0323237"><ele>304.0</ele><time>2026-04-22T14:05:08.982Z</time></trkpt><trkpt lat="45.7003439" lon="9.0323057"><ele>304.0</ele><time>2026-04-22T14:05:09.982Z</time></trkpt><trkpt lat="45.7002493" lon="9.0322877"><ele>304.0</ele><time>2026-04-22T14:05:10.981Z</time></trkpt><trkpt lat="45.7001532" lon="9.0322726"><ele>303.4</ele><time>2026-04-22T14:05:11.982Z</time></trkpt><trkpt lat="45.7000575" lon="9.0322605"><ele>302.79999999999995</ele><time>2026-04-22T14:05:12.982Z</time></trkpt><trkpt lat="45.6999625" lon="9.0322456"><ele>302.20000000000005</ele><time>2026-04-22T14:05:13.981Z</time></trkpt><trkpt lat="45.6998687" lon="9.0322297"><ele>301.6</ele><time>2026-04-22T14:05:14.983Z</time></trkpt><trkpt lat="45.6997793" lon="9.0322179"><ele>301.0</ele><time>2026-04-22T14:05:15.983Z</time></trkpt><trkpt lat="45.6997038" lon="9.0321986"><ele>301.0</ele><time>2026-04-22T14:05:16.983Z</time></trkpt><trkpt lat="45.699596" lon="9.03218"><ele>301.0</ele><time>2026-04-22T14:05:18.983Z</time></trkpt><trkpt lat="45.699526" lon="9.0321661"><ele>301.0</ele><time>2026-04-22T14:05:20.982Z</time></trkpt><trkpt lat="45.6994555" lon="9.0321516"><ele>301.0</ele><time>2026-04-22T14:05:44.983Z</time></trkpt><trkpt lat="45.6993913" lon="9.0321342"><ele>301.0</ele><time>2026-04-22T14:05:46.982Z</time></trkpt><trkpt lat="45.6992746" lon="9.0321188"><ele>301.0</ele><time>2026-04-22T14:05:48.982Z</time></trkpt><trkpt lat="45.6992088" lon="9.0321117"><ele>300.5</ele><time>2026-04-22T14:05:49.983Z</time></trkpt><trkpt lat="45.6991412" lon="9.0321004"><ele>300.0</ele><time>2026-04-22T14:05:50.981Z</time></trkpt><trkpt lat="45.6990769" lon="9.032084"><ele>299.5</ele><time>2026-04-22T14:05:51.983Z</time></trkpt><trkpt lat="45.6989649" lon="9.0320345"><ele>299.0</ele><time>2026-04-22T14:05:53.983Z</time></trkpt><trkpt lat="45.6988426" lon="9.032012"><ele>298.5</ele><time>2026-04-22T14:05:55.983Z</time></trkpt><trkpt lat="45.69877" lon="9.0320145"><ele>298.0</ele><time>2026-04-22T14:05:56.983Z</time></trkpt><trkpt lat="45.6986893" lon="9.0320234"><ele>298.0</ele><time>2026-04-22T14:05:57.982Z</time></trkpt><trkpt lat="45.6985974" lon="9.0320291"><ele>298.0</ele><time>2026-04-22T14:05:58.983Z</time></trkpt><trkpt lat="45.698502" lon="9.0320346"><ele>298.0</ele><time>2026-04-22T14:05:59.981Z</time></trkpt><trkpt lat="45.6984022" lon="9.0320403"><ele>298.0</ele><time>2026-04-22T14:06:00.983Z</time></trkpt><trkpt lat="45.6983027" lon="9.0320441"><ele>298.0</ele><time>2026-04-22T14:06:01.982Z</time></trkpt><trkpt lat="45.6982029" lon="9.0320459"><ele>298.0</ele><time>2026-04-22T14:06:02.982Z</time></trkpt><trkpt lat="45.6981063" lon="9.0320476"><ele>298.0</ele><time>2026-04-22T14:06:03.982Z</time></trkpt><trkpt lat="45.6980063" lon="9.0320532"><ele>298.0</ele><time>2026-04-22T14:06:04.982Z</time></trkpt><trkpt lat="45.6979068" lon="9.0320553"><ele>298.0</ele><time>2026-04-22T14:06:05.981Z</time></trkpt><trkpt lat="45.6978078" lon="9.0320571"><ele>298.0</ele><time>2026-04-22T14:06:06.983Z</time></trkpt><trkpt lat="45.6977164" lon="9.0320622"><ele>297.4</ele><time>2026-04-22T14:06:07.982Z</time></trkpt><trkpt lat="45.697612" lon="9.0320677"><ele>296.8</ele><time>2026-04-22T14:06:08.982Z</time></trkpt><trkpt lat="45.6975158" lon="9.0320724"><ele>296.2</ele><time>2026-04-22T14:06:09.981Z</time></trkpt><trkpt lat="45.697418" lon="9.0320772"><ele>295.6</ele><time>2026-04-22T14:06:10.982Z</time></trkpt><trkpt lat="45.6973213" lon="9.0320826"><ele>295.0</ele><time>2026-04-22T14:06:11.982Z</time></trkpt><trkpt lat="45.6972333" lon="9.0320876"><ele>295.0</ele><time>2026-04-22T14:06:12.982Z</time></trkpt><trkpt lat="45.6971582" lon="9.0320907"><ele>295.0</ele><time>2026-04-22T14:06:13.983Z</time></trkpt><trkpt lat="45.6970524" lon="9.0320947"><ele>295.0</ele><time>2026-04-22T14:06:15.981Z</time></trkpt><trkpt lat="45.6969872" lon="9.0320995"><ele>295.0</ele><time>2026-04-22T14:06:18.982Z</time></trkpt><trkpt lat="45.6969399" lon="9.0322044"><ele>295.0</ele><time>2026-04-22T14:06:25.982Z</time></trkpt><trkpt lat="45.6969445" lon="9.032323"><ele>295.0</ele><time>2026-04-22T14:06:27.982Z</time></trkpt><trkpt lat="45.6969446" lon="9.0324751"><ele>294.8333333333333</ele><time>2026-04-22T14:06:29.982Z</time></trkpt><trkpt lat="45.6969486" lon="9.0326532"><ele>294.66666666666663</ele><time>2026-04-22T14:06:31.983Z</time></trkpt><trkpt lat="45.6969486" lon="9.0327453"><ele>294.5</ele><time>2026-04-22T14:06:32.982Z</time></trkpt><trkpt lat="45.6969541" lon="9.0328388"><ele>294.3333333333333</ele><time>2026-04-22T14:06:33.983Z</time></trkpt><trkpt lat="45.6969529" lon="9.0329318"><ele>294.1666666666667</ele><time>2026-04-22T14:06:34.982Z</time></trkpt><trkpt lat="45.6969517" lon="9.033029"><ele>294.0</ele><time>2026-04-22T14:06:35.982Z</time></trkpt><trkpt lat="45.696927" lon="9.0331392"><ele>294.0</ele><time>2026-04-22T14:06:36.981Z</time></trkpt><trkpt lat="45.6969266" lon="9.0332388"><ele>294.0</ele><time>2026-04-22T14:06:37.982Z</time></trkpt><trkpt lat="45.6969269" lon="9.0333378"><ele>294.0</ele><time>2026-04-22T14:06:38.982Z</time></trkpt><trkpt lat="45.6969253" lon="9.0334338"><ele>294.0</ele><time>2026-04-22T14:06:39.982Z</time></trkpt><trkpt lat="45.696926" lon="9.0335263"><ele>294.0</ele><time>2026-04-22T14:06:40.982Z</time></trkpt><trkpt lat="45.6969286" lon="9.033621"><ele>294.0</ele><time>2026-04-22T14:06:41.983Z</time></trkpt><trkpt lat="45.6969215" lon="9.033788"><ele>294.0</ele><time>2026-04-22T14:06:43.982Z</time></trkpt><trkpt lat="45.6969195" lon="9.0339044"><ele>294.0</ele><time>2026-04-22T14:06:45.982Z</time></trkpt><trkpt lat="45.6969247" lon="9.034013"><ele>294.0</ele><time>2026-04-22T14:06:48.983Z</time></trkpt><trkpt lat="45.6969342" lon="9.0341329"><ele>294.0</ele><time>2026-04-22T14:06:50.982Z</time></trkpt><trkpt lat="45.6969324" lon="9.0342867"><ele>294.0</ele><time>2026-04-22T14:06:52.981Z</time></trkpt><trkpt lat="45.6969231" lon="9.0344579"><ele>293.75</ele><time>2026-04-22T14:06:54.982Z</time></trkpt><trkpt lat="45.6969059" lon="9.0346261"><ele>293.5</ele><time>2026-04-22T14:06:56.982Z</time></trkpt><trkpt lat="45.6968726" lon="9.0347892"><ele>293.25</ele><time>2026-04-22T14:06:58.981Z</time></trkpt><trkpt lat="45.6968705" lon="9.0349668"><ele>293.0</ele><time>2026-04-22T14:07:00.981Z</time></trkpt><trkpt lat="45.6968735" lon="9.0351063"><ele>293.0</ele><time>2026-04-22T14:07:02.982Z</time></trkpt><trkpt lat="45.6968565" lon="9.0351981"><ele>293.0</ele><time>2026-04-22T14:07:04.982Z</time></trkpt><trkpt lat="45.6967903" lon="9.0352423"><ele>293.0</ele><time>2026-04-22T14:07:07.982Z</time></trkpt><trkpt lat="45.6966968" lon="9.0352043"><ele>293.0</ele><time>2026-04-22T14:07:10.982Z</time></trkpt><trkpt lat="45.696617" lon="9.0352309"><ele>293.0</ele><time>2026-04-22T14:07:12.982Z</time></trkpt><trkpt lat="45.6965419" lon="9.0353057"><ele>293.0</ele><time>2026-04-22T14:07:14.982Z</time></trkpt><trkpt lat="45.6964567" lon="9.0353469"><ele>293.0</ele><time>2026-04-22T14:07:16.982Z</time></trkpt><trkpt lat="45.6963507" lon="9.0353264"><ele>293.0</ele><time>2026-04-22T14:07:18.982Z</time></trkpt><trkpt lat="45.696232" lon="9.035286"><ele>293.0</ele><time>2026-04-22T14:07:20.983Z</time></trkpt><trkpt lat="45.6961432" lon="9.0352588"><ele>293.0</ele><time>2026-04-22T14:07:22.983Z</time></trkpt><trkpt lat="45.6960722" lon="9.0352731"><ele>293.0</ele><time>2026-04-22T14:07:25.982Z</time></trkpt><trkpt lat="45.6960365" lon="9.0353544"><ele>293.0</ele><time>2026-04-22T14:07:28.982Z</time></trkpt><trkpt lat="45.6960268" lon="9.0354578"><ele>293.0</ele><time>2026-04-22T14:07:31.982Z</time></trkpt><trkpt lat="45.6959656" lon="9.0354945"><ele>293.0</ele><time>2026-04-22T14:07:34.983Z</time></trkpt><trkpt lat="45.6958824" lon="9.0354699"><ele>293.0</ele><time>2026-04-22T14:07:37.982Z</time></trkpt><trkpt lat="45.6957926" lon="9.035454"><ele>293.0</ele><time>2026-04-22T14:07:39.982Z</time></trkpt><trkpt lat="45.6956833" lon="9.0354321"><ele>293.0</ele><time>2026-04-22T14:07:41.982Z</time></trkpt><trkpt lat="45.6956201" lon="9.0354243"><ele>292.99999999999994</ele><time>2026-04-22T14:07:42.981Z</time></trkpt><trkpt lat="45.6955551" lon="9.0354119"><ele>293.0</ele><time>2026-04-22T14:07:43.982Z</time></trkpt><trkpt lat="45.6954882" lon="9.0354015"><ele>293.0</ele><time>2026-04-22T14:07:44.981Z</time></trkpt><trkpt lat="45.6954156" lon="9.0353865"><ele>293.0</ele><time>2026-04-22T14:07:45.982Z</time></trkpt><trkpt lat="45.6953434" lon="9.0353734"><ele>293.0</ele><time>2026-04-22T14:07:46.982Z</time></trkpt><trkpt lat="45.69527" lon="9.0353653"><ele>292.99999999999994</ele><time>2026-04-22T14:07:47.983Z</time></trkpt><trkpt lat="45.695196" lon="9.0353622"><ele>293.0</ele><time>2026-04-22T14:07:48.983Z</time></trkpt><trkpt lat="45.6951192" lon="9.0353589"><ele>292.33333333333337</ele><time>2026-04-22T14:07:49.983Z</time></trkpt><trkpt lat="45.6950457" lon="9.0353539"><ele>291.6666666666667</ele><time>2026-04-22T14:07:50.982Z</time></trkpt><trkpt lat="45.6949736" lon="9.0353416"><ele>291.0</ele><time>2026-04-22T14:07:51.981Z</time></trkpt><trkpt lat="45.6949075" lon="9.0353279"><ele>290.3333333333333</ele><time>2026-04-22T14:07:52.982Z</time></trkpt><trkpt lat="45.6948037" lon="9.0353024"><ele>289.66666666666663</ele><time>2026-04-22T14:07:54.982Z</time></trkpt><trkpt lat="45.6947338" lon="9.0353009"><ele>289.0</ele><time>2026-04-22T14:07:56.983Z</time></trkpt><trkpt lat="45.6946754" lon="9.0353439"><ele>289.0</ele><time>2026-04-22T14:07:58.983Z</time></trkpt><trkpt lat="45.6946369" lon="9.0354447"><ele>289.0</ele><time>2026-04-22T14:08:01.983Z</time></trkpt><trkpt lat="45.6946552" lon="9.0355519"><ele>289.0</ele><time>2026-04-22T14:08:04.982Z</time></trkpt><trkpt lat="45.6947176" lon="9.0356372"><ele>289.0</ele><time>2026-04-22T14:08:06.981Z</time></trkpt><trkpt lat="45.6947806" lon="9.0357663"><ele>289.0</ele><time>2026-04-22T14:08:08.982Z</time></trkpt><trkpt lat="45.6948031" lon="9.0358891"><ele>289.0</ele><time>2026-04-22T14:08:10.983Z</time></trkpt><trkpt lat="45.6948131" lon="9.0360046"><ele>289.0</ele><time>2026-04-22T14:08:12.982Z</time></trkpt><trkpt lat="45.6948114" lon="9.0361344"><ele>289.0</ele><time>2026-04-22T14:08:14.983Z</time></trkpt><trkpt lat="45.694816" lon="9.036295"><ele>289.0</ele><time>2026-04-22T14:08:16.982Z</time></trkpt><trkpt lat="45.694823" lon="9.0364222"><ele>289.0</ele><time>2026-04-22T14:08:18.983Z</time></trkpt><trkpt lat="45.6948298" lon="9.0365619"><ele>289.0</ele><time>2026-04-22T14:08:20.983Z</time></trkpt><trkpt lat="45.6948317" lon="9.0366552"><ele>289.8</ele><time>2026-04-22T14:08:21.982Z</time></trkpt><trkpt lat="45.6948325" lon="9.0367698"><ele>290.59999999999997</ele><time>2026-04-22T14:08:22.982Z</time></trkpt><trkpt lat="45.6948311" lon="9.0368931"><ele>291.4</ele><time>2026-04-22T14:08:23.983Z</time></trkpt><trkpt lat="45.6948281" lon="9.0370352"><ele>292.2</ele><time>2026-04-22T14:08:24.983Z</time></trkpt><trkpt lat="45.6948264" lon="9.0371896"><ele>293.0</ele><time>2026-04-22T14:08:25.983Z</time></trkpt><trkpt lat="45.6948261" lon="9.0373599"><ele>293.25</ele><time>2026-04-22T14:08:26.981Z</time></trkpt><trkpt lat="45.6948252" lon="9.03754"><ele>293.5</ele><time>2026-04-22T14:08:27.982Z</time></trkpt><trkpt lat="45.6948254" lon="9.0377229"><ele>293.75</ele><time>2026-04-22T14:08:28.982Z</time></trkpt><trkpt lat="45.6948249" lon="9.0379013"><ele>294.0</ele><time>2026-04-22T14:08:29.983Z</time></trkpt><trkpt lat="45.6948218" lon="9.0380736"><ele>294.0</ele><time>2026-04-22T14:08:30.982Z</time></trkpt><trkpt lat="45.6948197" lon="9.0382425"><ele>294.0</ele><time>2026-04-22T14:08:31.982Z</time></trkpt><trkpt lat="45.6948154" lon="9.038407"><ele>294.0</ele><time>2026-04-22T14:08:32.983Z</time></trkpt><trkpt lat="45.6948084" lon="9.0385715"><ele>294.0</ele><time>2026-04-22T14:08:33.983Z</time></trkpt><trkpt lat="45.6948062" lon="9.0387299"><ele>293.59999999999997</ele><time>2026-04-22T14:08:34.982Z</time></trkpt><trkpt lat="45.6948043" lon="9.0388846"><ele>293.2</ele><time>2026-04-22T14:08:35.982Z</time></trkpt><trkpt lat="45.6947949" lon="9.0390324"><ele>292.79999999999995</ele><time>2026-04-22T14:08:36.982Z</time></trkpt><trkpt lat="45.6947854" lon="9.0391786"><ele>292.4</ele><time>2026-04-22T14:08:37.983Z</time></trkpt><trkpt lat="45.6947757" lon="9.0393209"><ele>292.0</ele><time>2026-04-22T14:08:38.983Z</time></trkpt><trkpt lat="45.6947689" lon="9.0394579"><ele>291.16666666666663</ele><time>2026-04-22T14:08:39.981Z</time></trkpt><trkpt lat="45.6947611" lon="9.03959"><ele>290.3333333333333</ele><time>2026-04-22T14:08:40.982Z</time></trkpt><trkpt lat="45.6947561" lon="9.0397147"><ele>289.5</ele><time>2026-04-22T14:08:41.982Z</time></trkpt><trkpt lat="45.6947511" lon="9.03983"><ele>288.6666666666667</ele><time>2026-04-22T14:08:42.982Z</time></trkpt><trkpt lat="45.6947471" lon="9.0399213"><ele>287.83333333333337</ele><time>2026-04-22T14:08:43.982Z</time></trkpt><trkpt lat="45.6947428" lon="9.0400448"><ele>287.0</ele><time>2026-04-22T14:08:45.982Z</time></trkpt><trkpt lat="45.6947411" lon="9.0401516"><ele>287.0</ele><time>2026-04-22T14:08:47.983Z</time></trkpt><trkpt lat="45.6947291" lon="9.0402693"><ele>287.0</ele><time>2026-04-22T14:08:50.982Z</time></trkpt><trkpt lat="45.6946775" lon="9.0403401"><ele>287.0</ele><time>2026-04-22T14:08:53.982Z</time></trkpt><trkpt lat="45.694611" lon="9.0403422"><ele>287.0</ele><time>2026-04-22T14:08:54.982Z</time></trkpt><trkpt lat="45.6945312" lon="9.0403365"><ele>287.0</ele><time>2026-04-22T14:08:55.983Z</time></trkpt><trkpt lat="45.694454" lon="9.0403333"><ele>287.0</ele><time>2026-04-22T14:08:56.983Z</time></trkpt><trkpt lat="45.6943848" lon="9.0403298"><ele>287.0</ele><time>2026-04-22T14:08:57.983Z</time></trkpt><trkpt lat="45.6942861" lon="9.0403334"><ele>287.0</ele><time>2026-04-22T14:08:59.982Z</time></trkpt><trkpt lat="45.694205" lon="9.0403599"><ele>287.0</ele><time>2026-04-22T14:09:07.983Z</time></trkpt><trkpt lat="45.6941616" lon="9.0404558"><ele>287.0</ele><time>2026-04-22T14:09:09.982Z</time></trkpt><trkpt lat="45.6941303" lon="9.0406076"><ele>287.0</ele><time>2026-04-22T14:09:11.982Z</time></trkpt><trkpt lat="45.6941165" lon="9.0406956"><ele>287.0</ele><time>2026-04-22T14:09:12.982Z</time></trkpt><trkpt lat="45.694114" lon="9.0408021"><ele>287.0</ele><time>2026-04-22T14:09:13.982Z</time></trkpt><trkpt lat="45.6941075" lon="9.0409104"><ele>287.0</ele><time>2026-04-22T14:09:14.981Z</time></trkpt><trkpt lat="45.6941001" lon="9.0410286"><ele>287.0</ele><time>2026-04-22T14:09:15.982Z</time></trkpt><trkpt lat="45.6940982" lon="9.0411497"><ele>287.0</ele><time>2026-04-22T14:09:16.983Z</time></trkpt><trkpt lat="45.6940959" lon="9.0412788"><ele>287.0</ele><time>2026-04-22T14:09:17.982Z</time></trkpt><trkpt lat="45.6940848" lon="9.0414087"><ele>287.0</ele><time>2026-04-22T14:09:18.981Z</time></trkpt><trkpt lat="45.6940717" lon="9.0415325"><ele>287.0</ele><time>2026-04-22T14:09:19.982Z</time></trkpt><trkpt lat="45.6940513" lon="9.0416537"><ele>287.1666666666667</ele><time>2026-04-22T14:09:20.982Z</time></trkpt><trkpt lat="45.6940342" lon="9.0417749"><ele>287.33333333333337</ele><time>2026-04-22T14:09:21.983Z</time></trkpt><trkpt lat="45.6940153" lon="9.0418878"><ele>287.5</ele><time>2026-04-22T14:09:22.982Z</time></trkpt><trkpt lat="45.6939933" lon="9.0419926"><ele>287.6666666666667</ele><time>2026-04-22T14:09:23.982Z</time></trkpt><trkpt lat="45.6939703" lon="9.0420886"><ele>287.8333333333333</ele><time>2026-04-22T14:09:24.982Z</time></trkpt><trkpt lat="45.6939321" lon="9.0421776"><ele>288.0</ele><time>2026-04-22T14:09:25.982Z</time></trkpt><trkpt lat="45.6938855" lon="9.042266"><ele>288.0</ele><time>2026-04-22T14:09:26.982Z</time></trkpt><trkpt lat="45.6938322" lon="9.0423511"><ele>288.0</ele><time>2026-04-22T14:09:27.983Z</time></trkpt><trkpt lat="45.6937705" lon="9.042431"><ele>288.0</ele><time>2026-04-22T14:09:28.983Z</time></trkpt><trkpt lat="45.6936984" lon="9.0425071"><ele>288.0</ele><time>2026-04-22T14:09:29.98Z</time></trkpt><trkpt lat="45.6936214" lon="9.0425865"><ele>288.0</ele><time>2026-04-22T14:09:30.981Z</time></trkpt><trkpt lat="45.6935432" lon="9.042668"><ele>288.0</ele><time>2026-04-22T14:09:31.982Z</time></trkpt><trkpt lat="45.6934623" lon="9.0427495"><ele>287.0</ele><time>2026-04-22T14:09:32.981Z</time></trkpt><trkpt lat="45.6933823" lon="9.0428336"><ele>286.0</ele><time>2026-04-22T14:09:33.982Z</time></trkpt><trkpt lat="45.6933086" lon="9.0429127"><ele>285.0</ele><time>2026-04-22T14:09:34.98Z</time></trkpt><trkpt lat="45.6932313" lon="9.0429957"><ele>284.0</ele><time>2026-04-22T14:09:35.981Z</time></trkpt><trkpt lat="45.6931515" lon="9.0430794"><ele>283.0</ele><time>2026-04-22T14:09:36.98Z</time></trkpt><trkpt lat="45.6930716" lon="9.0431645"><ele>283.0</ele><time>2026-04-22T14:09:37.982Z</time></trkpt><trkpt lat="45.6929925" lon="9.0432548"><ele>283.0</ele><time>2026-04-22T14:09:38.981Z</time></trkpt><trkpt lat="45.6929157" lon="9.0433489"><ele>283.0</ele><time>2026-04-22T14:09:39.981Z</time></trkpt><trkpt lat="45.6928384" lon="9.0434389"><ele>283.0</ele><time>2026-04-22T14:09:40.981Z</time></trkpt><trkpt lat="45.6927738" lon="9.0435525"><ele>283.0</ele><time>2026-04-22T14:09:41.981Z</time></trkpt><trkpt lat="45.6927052" lon="9.0436724"><ele>282.0</ele><time>2026-04-22T14:09:42.982Z</time></trkpt><trkpt lat="45.692635" lon="9.0437998"><ele>281.0</ele><time>2026-04-22T14:09:43.981Z</time></trkpt><trkpt lat="45.6925641" lon="9.0439277"><ele>280.0</ele><time>2026-04-22T14:09:44.981Z</time></trkpt><trkpt lat="45.6924948" lon="9.0440577"><ele>279.0</ele><time>2026-04-22T14:09:45.981Z</time></trkpt><trkpt lat="45.6924269" lon="9.0441882"><ele>278.8</ele><time>2026-04-22T14:09:46.982Z</time></trkpt><trkpt lat="45.6923633" lon="9.0443179"><ele>278.59999999999997</ele><time>2026-04-22T14:09:47.982Z</time></trkpt><trkpt lat="45.6923047" lon="9.0444399"><ele>278.4</ele><time>2026-04-22T14:09:48.982Z</time></trkpt><trkpt lat="45.6922543" lon="9.0445528"><ele>278.2</ele><time>2026-04-22T14:09:49.981Z</time></trkpt><trkpt lat="45.692214" lon="9.0446578"><ele>278.0</ele><time>2026-04-22T14:09:50.981Z</time></trkpt><trkpt lat="45.6921825" lon="9.0447564"><ele>278.0</ele><time>2026-04-22T14:09:51.982Z</time></trkpt><trkpt lat="45.6921609" lon="9.0448527"><ele>278.0</ele><time>2026-04-22T14:09:52.982Z</time></trkpt><trkpt lat="45.6921514" lon="9.0449549"><ele>278.0</ele><time>2026-04-22T14:09:53.981Z</time></trkpt><trkpt lat="45.6921519" lon="9.0450684"><ele>278.0</ele><time>2026-04-22T14:09:54.98Z</time></trkpt><trkpt lat="45.6921579" lon="9.0451885"><ele>278.0</ele><time>2026-04-22T14:09:55.982Z</time></trkpt><trkpt lat="45.6921728" lon="9.0453211"><ele>278.0</ele><time>2026-04-22T14:09:56.982Z</time></trkpt><trkpt lat="45.6921906" lon="9.0454561"><ele>277.6666666666667</ele><time>2026-04-22T14:09:57.982Z</time></trkpt><trkpt lat="45.6922077" lon="9.045588"><ele>277.33333333333337</ele><time>2026-04-22T14:09:58.981Z</time></trkpt><trkpt lat="45.6922261" lon="9.0457182"><ele>277.0</ele><time>2026-04-22T14:09:59.981Z</time></trkpt><trkpt lat="45.6922458" lon="9.0458396"><ele>276.6666666666667</ele><time>2026-04-22T14:10:00.982Z</time></trkpt><trkpt lat="45.6922753" lon="9.0459511"><ele>276.3333333333333</ele><time>2026-04-22T14:10:01.981Z</time></trkpt><trkpt lat="45.6923159" lon="9.0460502"><ele>276.0</ele><time>2026-04-22T14:10:02.981Z</time></trkpt><trkpt lat="45.6923688" lon="9.0461394"><ele>274.0</ele><time>2026-04-22T14:10:03.982Z</time></trkpt><trkpt lat="45.6924349" lon="9.0462176"><ele>272.0</ele><time>2026-04-22T14:10:04.98Z</time></trkpt><trkpt lat="45.6925131" lon="9.0462913"><ele>270.0</ele><time>2026-04-22T14:10:05.981Z</time></trkpt><trkpt lat="45.6925958" lon="9.0463683"><ele>268.0</ele><time>2026-04-22T14:10:06.981Z</time></trkpt><trkpt lat="45.6926817" lon="9.0464522"><ele>266.0</ele><time>2026-04-22T14:10:07.981Z</time></trkpt><trkpt lat="45.6927737" lon="9.0465428"><ele>264.0</ele><time>2026-04-22T14:10:08.98Z</time></trkpt><trkpt lat="45.6928632" lon="9.0466327"><ele>262.0</ele><time>2026-04-22T14:10:09.981Z</time></trkpt><trkpt lat="45.6929471" lon="9.0467196"><ele>260.0</ele><time>2026-04-22T14:10:10.98Z</time></trkpt><trkpt lat="45.6930271" lon="9.0468118"><ele>258.0</ele><time>2026-04-22T14:10:11.981Z</time></trkpt><trkpt lat="45.6931015" lon="9.0469038"><ele>256.0</ele><time>2026-04-22T14:10:12.982Z</time></trkpt><trkpt lat="45.693172" lon="9.0469976"><ele>256.0</ele><time>2026-04-22T14:10:13.982Z</time></trkpt><trkpt lat="45.6932408" lon="9.0470972"><ele>256.0</ele><time>2026-04-22T14:10:14.981Z</time></trkpt><trkpt lat="45.6933053" lon="9.0471999"><ele>256.0</ele><time>2026-04-22T14:10:15.98Z</time></trkpt><trkpt lat="45.693368" lon="9.0473068"><ele>256.0</ele><time>2026-04-22T14:10:16.98Z</time></trkpt><trkpt lat="45.6934265" lon="9.0474151"><ele>256.0</ele><time>2026-04-22T14:10:17.981Z</time></trkpt><trkpt lat="45.6934794" lon="9.0475281"><ele>256.2</ele><time>2026-04-22T14:10:18.981Z</time></trkpt><trkpt lat="45.6935278" lon="9.0476491"><ele>256.40000000000003</ele><time>2026-04-22T14:10:19.981Z</time></trkpt><trkpt lat="45.6935703" lon="9.0477794"><ele>256.6</ele><time>2026-04-22T14:10:20.981Z</time></trkpt><trkpt lat="45.6936089" lon="9.0479168"><ele>256.8</ele><time>2026-04-22T14:10:21.982Z</time></trkpt><trkpt lat="45.6936472" lon="9.0480575"><ele>257.0</ele><time>2026-04-22T14:10:22.981Z</time></trkpt><trkpt lat="45.6936858" lon="9.0482067"><ele>257.25</ele><time>2026-04-22T14:10:23.981Z</time></trkpt><trkpt lat="45.6937257" lon="9.0483609"><ele>257.5</ele><time>2026-04-22T14:10:24.981Z</time></trkpt><trkpt lat="45.6937659" lon="9.0485249"><ele>257.75</ele><time>2026-04-22T14:10:25.982Z</time></trkpt><trkpt lat="45.6938077" lon="9.048694"><ele>258.0</ele><time>2026-04-22T14:10:26.982Z</time></trkpt><trkpt lat="45.6938509" lon="9.0488663"><ele>258.0</ele><time>2026-04-22T14:10:27.982Z</time></trkpt><trkpt lat="45.6938967" lon="9.0490355"><ele>258.0</ele><time>2026-04-22T14:10:28.982Z</time></trkpt><trkpt lat="45.693939" lon="9.0492006"><ele>258.0</ele><time>2026-04-22T14:10:29.981Z</time></trkpt><trkpt lat="45.6939807" lon="9.0493604"><ele>258.0</ele><time>2026-04-22T14:10:30.981Z</time></trkpt><trkpt lat="45.6940211" lon="9.0495163"><ele>259.0</ele><time>2026-04-22T14:10:31.98Z</time></trkpt><trkpt lat="45.6940601" lon="9.0496689"><ele>260.0</ele><time>2026-04-22T14:10:32.981Z</time></trkpt><trkpt lat="45.6940984" lon="9.0498209"><ele>261.0</ele><time>2026-04-22T14:10:33.981Z</time></trkpt><trkpt lat="45.6941375" lon="9.0499729"><ele>262.0</ele><time>2026-04-22T14:10:34.982Z</time></trkpt><trkpt lat="45.6941769" lon="9.0501219"><ele>263.0</ele><time>2026-04-22T14:10:35.982Z</time></trkpt><trkpt lat="45.6942166" lon="9.050271"><ele>264.0</ele><time>2026-04-22T14:10:36.981Z</time></trkpt><trkpt lat="45.6942561" lon="9.0504236"><ele>265.0</ele><time>2026-04-22T14:10:37.981Z</time></trkpt><trkpt lat="45.6942945" lon="9.0505747"><ele>266.0</ele><time>2026-04-22T14:10:38.981Z</time></trkpt><trkpt lat="45.694333" lon="9.0507268"><ele>266.0</ele><time>2026-04-22T14:10:39.981Z</time></trkpt><trkpt lat="45.6943707" lon="9.0508798"><ele>266.0</ele><time>2026-04-22T14:10:40.981Z</time></trkpt><trkpt lat="45.6944092" lon="9.0510305"><ele>266.0</ele><time>2026-04-22T14:10:41.981Z</time></trkpt><trkpt lat="45.6944522" lon="9.0511767"><ele>266.0</ele><time>2026-04-22T14:10:42.981Z</time></trkpt><trkpt lat="45.6944913" lon="9.0513277"><ele>266.0</ele><time>2026-04-22T14:10:43.981Z</time></trkpt><trkpt lat="45.6945317" lon="9.0514796"><ele>267.2</ele><time>2026-04-22T14:10:44.981Z</time></trkpt><trkpt lat="45.694571" lon="9.0516305"><ele>268.40000000000003</ele><time>2026-04-22T14:10:45.982Z</time></trkpt><trkpt lat="45.6946082" lon="9.051785"><ele>269.6</ele><time>2026-04-22T14:10:46.982Z</time></trkpt><trkpt lat="45.6946466" lon="9.0519348"><ele>270.8</ele><time>2026-04-22T14:10:47.981Z</time></trkpt><trkpt lat="45.6946838" lon="9.0520847"><ele>272.0</ele><time>2026-04-22T14:10:48.981Z</time></trkpt><trkpt lat="45.6947259" lon="9.0522388"><ele>272.0</ele><time>2026-04-22T14:10:49.982Z</time></trkpt><trkpt lat="45.694765" lon="9.052395"><ele>272.0</ele><time>2026-04-22T14:10:50.98Z</time></trkpt><trkpt lat="45.6948036" lon="9.0525477"><ele>272.0</ele><time>2026-04-22T14:10:51.98Z</time></trkpt><trkpt lat="45.6948411" lon="9.052699"><ele>272.0</ele><time>2026-04-22T14:10:52.982Z</time></trkpt><trkpt lat="45.6948753" lon="9.052846"><ele>273.6</ele><time>2026-04-22T14:10:53.981Z</time></trkpt><trkpt lat="45.6949089" lon="9.0529767"><ele>275.2</ele><time>2026-04-22T14:10:54.981Z</time></trkpt><trkpt lat="45.6949424" lon="9.0531073"><ele>276.8</ele><time>2026-04-22T14:10:55.981Z</time></trkpt><trkpt lat="45.6949701" lon="9.0532383"><ele>278.4</ele><time>2026-04-22T14:10:56.982Z</time></trkpt><trkpt lat="45.6950085" lon="9.053359"><ele>280.0</ele><time>2026-04-22T14:10:57.982Z</time></trkpt><trkpt lat="45.6950514" lon="9.0534748"><ele>280.16666666666663</ele><time>2026-04-22T14:10:58.982Z</time></trkpt><trkpt lat="45.6950973" lon="9.0535881"><ele>280.3333333333333</ele><time>2026-04-22T14:10:59.98Z</time></trkpt><trkpt lat="45.69514" lon="9.0537002"><ele>280.5</ele><time>2026-04-22T14:11:00.981Z</time></trkpt><trkpt lat="45.69517" lon="9.0538124"><ele>280.6666666666667</ele><time>2026-04-22T14:11:01.981Z</time></trkpt><trkpt lat="45.6951913" lon="9.0539251"><ele>280.83333333333337</ele><time>2026-04-22T14:11:02.982Z</time></trkpt><trkpt lat="45.6952079" lon="9.0540349"><ele>281.0</ele><time>2026-04-22T14:11:03.981Z</time></trkpt><trkpt lat="45.695217" lon="9.0541389"><ele>281.0</ele><time>2026-04-22T14:11:04.981Z</time></trkpt><trkpt lat="45.6952274" lon="9.0542984"><ele>281.0</ele><time>2026-04-22T14:11:06.982Z</time></trkpt><trkpt lat="45.6952291" lon="9.0544314"><ele>281.0</ele><time>2026-04-22T14:11:08.981Z</time></trkpt><trkpt lat="45.6952488" lon="9.0545917"><ele>281.0</ele><time>2026-04-22T14:11:10.98Z</time></trkpt><trkpt lat="45.6952679" lon="9.0546867"><ele>281.0</ele><time>2026-04-22T14:11:11.98Z</time></trkpt><trkpt lat="45.6952838" lon="9.0547782"><ele>281.5</ele><time>2026-04-22T14:11:12.982Z</time></trkpt><trkpt lat="45.695305" lon="9.0548792"><ele>282.0</ele><time>2026-04-22T14:11:13.981Z</time></trkpt><trkpt lat="45.695322" lon="9.0549813"><ele>282.5</ele><time>2026-04-22T14:11:14.982Z</time></trkpt><trkpt lat="45.6953397" lon="9.0550866"><ele>283.0</ele><time>2026-04-22T14:11:15.981Z</time></trkpt><trkpt lat="45.6953577" lon="9.0551935"><ele>283.5</ele><time>2026-04-22T14:11:16.982Z</time></trkpt><trkpt lat="45.6953763" lon="9.055308"><ele>284.0</ele><time>2026-04-22T14:11:17.981Z</time></trkpt><trkpt lat="45.6953955" lon="9.0554326"><ele>284.0</ele><time>2026-04-22T14:11:18.982Z</time></trkpt><trkpt lat="45.695413" lon="9.0555579"><ele>284.0</ele><time>2026-04-22T14:11:19.981Z</time></trkpt><trkpt lat="45.6954366" lon="9.0556869"><ele>284.0</ele><time>2026-04-22T14:11:20.982Z</time></trkpt><trkpt lat="45.6954591" lon="9.0558124"><ele>284.0</ele><time>2026-04-22T14:11:21.981Z</time></trkpt><trkpt lat="45.6954806" lon="9.0559399"><ele>284.0</ele><time>2026-04-22T14:11:22.981Z</time></trkpt><trkpt lat="45.6955036" lon="9.0560684"><ele>284.0</ele><time>2026-04-22T14:11:23.982Z</time></trkpt><trkpt lat="45.6955267" lon="9.0562001"><ele>284.0</ele><time>2026-04-22T14:11:24.98Z</time></trkpt><trkpt lat="45.695544" lon="9.0563324"><ele>284.0</ele><time>2026-04-22T14:11:25.98Z</time></trkpt><trkpt lat="45.6955649" lon="9.0564627"><ele>284.0</ele><time>2026-04-22T14:11:26.981Z</time></trkpt><trkpt lat="45.6955919" lon="9.0565944"><ele>284.0</ele><time>2026-04-22T14:11:27.981Z</time></trkpt><trkpt lat="45.6956179" lon="9.0567216"><ele>284.0</ele><time>2026-04-22T14:11:28.982Z</time></trkpt><trkpt lat="45.6956404" lon="9.0568554"><ele>284.0</ele><time>2026-04-22T14:11:29.981Z</time></trkpt><trkpt lat="45.6956621" lon="9.0569846"><ele>284.0</ele><time>2026-04-22T14:11:30.981Z</time></trkpt><trkpt lat="45.6956851" lon="9.0571136"><ele>284.0</ele><time>2026-04-22T14:11:31.982Z</time></trkpt><trkpt lat="45.6957099" lon="9.0572417"><ele>284.0</ele><time>2026-04-22T14:11:32.981Z</time></trkpt><trkpt lat="45.6957305" lon="9.0573731"><ele>284.0</ele><time>2026-04-22T14:11:33.982Z</time></trkpt><trkpt lat="45.6957515" lon="9.0575065"><ele>284.0</ele><time>2026-04-22T14:11:34.981Z</time></trkpt><trkpt lat="45.6957766" lon="9.0576393"><ele>284.0</ele><time>2026-04-22T14:11:35.981Z</time></trkpt><trkpt lat="45.6958051" lon="9.0577722"><ele>284.0</ele><time>2026-04-22T14:11:36.982Z</time></trkpt><trkpt lat="45.6958247" lon="9.0579069"><ele>284.0</ele><time>2026-04-22T14:11:37.982Z</time></trkpt><trkpt lat="45.6958448" lon="9.0580312"><ele>284.0</ele><time>2026-04-22T14:11:38.981Z</time></trkpt><trkpt lat="45.6958639" lon="9.058149"><ele>284.0</ele><time>2026-04-22T14:11:39.982Z</time></trkpt><trkpt lat="45.6958847" lon="9.0582643"><ele>284.0</ele><time>2026-04-22T14:11:40.981Z</time></trkpt><trkpt lat="45.6959043" lon="9.0583871"><ele>284.0</ele><time>2026-04-22T14:11:41.981Z</time></trkpt><trkpt lat="45.6959283" lon="9.0585118"><ele>284.0</ele><time>2026-04-22T14:11:42.981Z</time></trkpt><trkpt lat="45.6959516" lon="9.0586397"><ele>284.0</ele><time>2026-04-22T14:11:43.981Z</time></trkpt><trkpt lat="45.695973" lon="9.0587697"><ele>284.2</ele><time>2026-04-22T14:11:44.981Z</time></trkpt><trkpt lat="45.6959954" lon="9.0588981"><ele>284.4</ele><time>2026-04-22T14:11:45.98Z</time></trkpt><trkpt lat="45.6960177" lon="9.0590266"><ele>284.6</ele><time>2026-04-22T14:11:46.981Z</time></trkpt><trkpt lat="45.6960354" lon="9.0591541"><ele>284.8</ele><time>2026-04-22T14:11:47.981Z</time></trkpt><trkpt lat="45.696055" lon="9.0592789"><ele>285.0</ele><time>2026-04-22T14:11:48.981Z</time></trkpt><trkpt lat="45.6960749" lon="9.0593976"><ele>285.5</ele><time>2026-04-22T14:11:49.981Z</time></trkpt><trkpt lat="45.6960991" lon="9.0595078"><ele>286.0</ele><time>2026-04-22T14:11:50.982Z</time></trkpt><trkpt lat="45.6961204" lon="9.0596133"><ele>286.5</ele><time>2026-04-22T14:11:51.981Z</time></trkpt><trkpt lat="45.6961364" lon="9.0597102"><ele>287.0</ele><time>2026-04-22T14:11:52.981Z</time></trkpt><trkpt lat="45.6961592" lon="9.0598581"><ele>287.5</ele><time>2026-04-22T14:11:54.982Z</time></trkpt><trkpt lat="45.696177" lon="9.0599495"><ele>288.0</ele><time>2026-04-22T14:11:56.981Z</time></trkpt><trkpt lat="45.6961913" lon="9.0600389"><ele>288.0</ele><time>2026-04-22T14:12:00.98Z</time></trkpt><trkpt lat="45.6962517" lon="9.0602346"><ele>288.0</ele><time>2026-04-22T14:12:19.981Z</time></trkpt><trkpt lat="45.6962453" lon="9.0603465"><ele>288.0</ele><time>2026-04-22T14:12:20.981Z</time></trkpt><trkpt lat="45.6962596" lon="9.0604653"><ele>288.0</ele><time>2026-04-22T14:12:21.981Z</time></trkpt><trkpt lat="45.6962628" lon="9.0605913"><ele>288.0</ele><time>2026-04-22T14:12:22.981Z</time></trkpt><trkpt lat="45.6962714" lon="9.0607181"><ele>287.8333333333333</ele><time>2026-04-22T14:12:23.982Z</time></trkpt><trkpt lat="45.6962832" lon="9.0608359"><ele>287.6666666666667</ele><time>2026-04-22T14:12:24.98Z</time></trkpt><trkpt lat="45.6962931" lon="9.060951"><ele>287.5</ele><time>2026-04-22T14:12:25.982Z</time></trkpt><trkpt lat="45.6963018" lon="9.0610618"><ele>287.33333333333337</ele><time>2026-04-22T14:12:26.981Z</time></trkpt><trkpt lat="45.6963089" lon="9.0611761"><ele>287.1666666666667</ele><time>2026-04-22T14:12:27.981Z</time></trkpt><trkpt lat="45.6963187" lon="9.0612908"><ele>287.0</ele><time>2026-04-22T14:12:28.982Z</time></trkpt><trkpt lat="45.6963309" lon="9.0614095"><ele>287.0</ele><time>2026-04-22T14:12:29.982Z</time></trkpt><trkpt lat="45.6963371" lon="9.0615324"><ele>287.0</ele><time>2026-04-22T14:12:30.982Z</time></trkpt><trkpt lat="45.6963456" lon="9.0616626"><ele>287.0</ele><time>2026-04-22T14:12:31.982Z</time></trkpt><trkpt lat="45.6963544" lon="9.0617967"><ele>287.0</ele><time>2026-04-22T14:12:32.98Z</time></trkpt><trkpt lat="45.6963615" lon="9.0619358"><ele>287.0</ele><time>2026-04-22T14:12:33.981Z</time></trkpt><trkpt lat="45.6963709" lon="9.0620817"><ele>287.2</ele><time>2026-04-22T14:12:34.981Z</time></trkpt><trkpt lat="45.6963814" lon="9.0622328"><ele>287.4</ele><time>2026-04-22T14:12:35.982Z</time></trkpt><trkpt lat="45.6963922" lon="9.0623885"><ele>287.6</ele><time>2026-04-22T14:12:36.981Z</time></trkpt><trkpt lat="45.6964028" lon="9.0625414"><ele>287.8</ele><time>2026-04-22T14:12:37.981Z</time></trkpt><trkpt lat="45.6964122" lon="9.0626905"><ele>288.0</ele><time>2026-04-22T14:12:38.981Z</time></trkpt><trkpt lat="45.6964268" lon="9.062837"><ele>287.6</ele><time>2026-04-22T14:12:39.981Z</time></trkpt><trkpt lat="45.6964379" lon="9.0629802"><ele>287.20000000000005</ele><time>2026-04-22T14:12:40.982Z</time></trkpt><trkpt lat="45.696452" lon="9.06312"><ele>286.8</ele><time>2026-04-22T14:12:41.982Z</time></trkpt><trkpt lat="45.6964622" lon="9.0632577"><ele>286.40000000000003</ele><time>2026-04-22T14:12:42.981Z</time></trkpt><trkpt lat="45.6964726" lon="9.0633872"><ele>286.0</ele><time>2026-04-22T14:12:43.981Z</time></trkpt><trkpt lat="45.6964801" lon="9.0635084"><ele>286.0</ele><time>2026-04-22T14:12:44.982Z</time></trkpt><trkpt lat="45.6964859" lon="9.0636198"><ele>286.0</ele><time>2026-04-22T14:12:45.982Z</time></trkpt><trkpt lat="45.6964941" lon="9.0637209"><ele>286.0</ele><time>2026-04-22T14:12:46.981Z</time></trkpt><trkpt lat="45.6965025" lon="9.0638875"><ele>286.0</ele><time>2026-04-22T14:12:48.981Z</time></trkpt><trkpt lat="45.6965078" lon="9.0639815"><ele>286.0</ele><time>2026-04-22T14:12:49.98Z</time></trkpt><trkpt lat="45.6965114" lon="9.0640788"><ele>286.0</ele><time>2026-04-22T14:12:50.982Z</time></trkpt><trkpt lat="45.6965164" lon="9.0641837"><ele>286.0</ele><time>2026-04-22T14:12:51.981Z</time></trkpt><trkpt lat="45.6965226" lon="9.0642959"><ele>286.0</ele><time>2026-04-22T14:12:52.981Z</time></trkpt><trkpt lat="45.6965283" lon="9.0644097"><ele>286.0</ele><time>2026-04-22T14:12:53.981Z</time></trkpt><trkpt lat="45.6965367" lon="9.064526"><ele>286.0</ele><time>2026-04-22T14:12:54.981Z</time></trkpt><trkpt lat="45.6965443" lon="9.0646437"><ele>286.0</ele><time>2026-04-22T14:12:55.98Z</time></trkpt><trkpt lat="45.696557" lon="9.0647608"><ele>286.0</ele><time>2026-04-22T14:12:56.981Z</time></trkpt><trkpt lat="45.6965681" lon="9.0648744"><ele>286.3333333333333</ele><time>2026-04-22T14:12:57.981Z</time></trkpt><trkpt lat="45.6965768" lon="9.0649903"><ele>286.66666666666663</ele><time>2026-04-22T14:12:58.981Z</time></trkpt><trkpt lat="45.6965871" lon="9.0651132"><ele>287.0</ele><time>2026-04-22T14:12:59.982Z</time></trkpt><trkpt lat="45.6965965" lon="9.0652417"><ele>287.3333333333333</ele><time>2026-04-22T14:13:00.981Z</time></trkpt><trkpt lat="45.6966076" lon="9.0653709"><ele>287.6666666666667</ele><time>2026-04-22T14:13:01.981Z</time></trkpt><trkpt lat="45.69662" lon="9.065504"><ele>288.0</ele><time>2026-04-22T14:13:02.98Z</time></trkpt><trkpt lat="45.6966298" lon="9.0656424"><ele>287.6</ele><time>2026-04-22T14:13:03.98Z</time></trkpt><trkpt lat="45.6966398" lon="9.065783"><ele>287.20000000000005</ele><time>2026-04-22T14:13:04.982Z</time></trkpt><trkpt lat="45.6966571" lon="9.0659215"><ele>286.8</ele><time>2026-04-22T14:13:05.981Z</time></trkpt><trkpt lat="45.6966769" lon="9.0660679"><ele>286.40000000000003</ele><time>2026-04-22T14:13:06.981Z</time></trkpt><trkpt lat="45.6966905" lon="9.0662226"><ele>286.0</ele><time>2026-04-22T14:13:07.981Z</time></trkpt><trkpt lat="45.6966981" lon="9.0663764"><ele>286.0</ele><time>2026-04-22T14:13:08.981Z</time></trkpt><trkpt lat="45.6967106" lon="9.066532"><ele>286.0</ele><time>2026-04-22T14:13:09.98Z</time></trkpt><trkpt lat="45.6967237" lon="9.0666922"><ele>286.0</ele><time>2026-04-22T14:13:10.981Z</time></trkpt><trkpt lat="45.6967361" lon="9.0668474"><ele>286.0</ele><time>2026-04-22T14:13:11.98Z</time></trkpt><trkpt lat="45.6967556" lon="9.0670015"><ele>286.0</ele><time>2026-04-22T14:13:12.981Z</time></trkpt><trkpt lat="45.6967876" lon="9.0671493"><ele>285.6</ele><time>2026-04-22T14:13:13.982Z</time></trkpt><trkpt lat="45.6968322" lon="9.0672903"><ele>285.20000000000005</ele><time>2026-04-22T14:13:14.982Z</time></trkpt><trkpt lat="45.6968832" lon="9.0674254"><ele>284.79999999999995</ele><time>2026-04-22T14:13:15.982Z</time></trkpt><trkpt lat="45.6969389" lon="9.06756"><ele>284.4</ele><time>2026-04-22T14:13:16.982Z</time></trkpt><trkpt lat="45.6969949" lon="9.0676956"><ele>284.0</ele><time>2026-04-22T14:13:17.982Z</time></trkpt><trkpt lat="45.6970503" lon="9.0678275"><ele>283.4</ele><time>2026-04-22T14:13:18.98Z</time></trkpt><trkpt lat="45.6971036" lon="9.0679603"><ele>282.79999999999995</ele><time>2026-04-22T14:13:19.982Z</time></trkpt><trkpt lat="45.6971552" lon="9.0680934"><ele>282.20000000000005</ele><time>2026-04-22T14:13:20.981Z</time></trkpt><trkpt lat="45.6972111" lon="9.0682261"><ele>281.6</ele><time>2026-04-22T14:13:21.981Z</time></trkpt><trkpt lat="45.697268" lon="9.0683599"><ele>281.0</ele><time>2026-04-22T14:13:22.982Z</time></trkpt><trkpt lat="45.6973262" lon="9.0684952"><ele>280.8</ele><time>2026-04-22T14:13:23.982Z</time></trkpt><trkpt lat="45.6973843" lon="9.0686318"><ele>280.6</ele><time>2026-04-22T14:13:24.981Z</time></trkpt><trkpt lat="45.6974413" lon="9.0687681"><ele>280.4</ele><time>2026-04-22T14:13:25.981Z</time></trkpt><trkpt lat="45.6974957" lon="9.0689009"><ele>280.2</ele><time>2026-04-22T14:13:26.98Z</time></trkpt><trkpt lat="45.6975474" lon="9.0690336"><ele>280.0</ele><time>2026-04-22T14:13:27.982Z</time></trkpt><trkpt lat="45.697599" lon="9.069168"><ele>280.0</ele><time>2026-04-22T14:13:28.982Z</time></trkpt><trkpt lat="45.6976498" lon="9.0693004"><ele>280.0</ele><time>2026-04-22T14:13:29.982Z</time></trkpt><trkpt lat="45.6977026" lon="9.0694316"><ele>280.0</ele><time>2026-04-22T14:13:30.981Z</time></trkpt><trkpt lat="45.6977573" lon="9.0695629"><ele>280.0</ele><time>2026-04-22T14:13:31.981Z</time></trkpt><trkpt lat="45.6978144" lon="9.0696975"><ele>280.0</ele><time>2026-04-22T14:13:32.981Z</time></trkpt><trkpt lat="45.697875" lon="9.0698407"><ele>282.0</ele><time>2026-04-22T14:13:33.981Z</time></trkpt><trkpt lat="45.6979392" lon="9.0699937"><ele>284.0</ele><time>2026-04-22T14:13:34.981Z</time></trkpt><trkpt lat="45.69801" lon="9.0701559"><ele>286.0</ele><time>2026-04-22T14:13:35.981Z</time></trkpt><trkpt lat="45.698088" lon="9.0703276"><ele>288.0</ele><time>2026-04-22T14:13:36.982Z</time></trkpt><trkpt lat="45.6981686" lon="9.0705094"><ele>288.0</ele><time>2026-04-22T14:13:37.981Z</time></trkpt><trkpt lat="45.6982479" lon="9.0706931"><ele>288.0</ele><time>2026-04-22T14:13:38.982Z</time></trkpt><trkpt lat="45.6983235" lon="9.0708701"><ele>288.0</ele><time>2026-04-22T14:13:39.981Z</time></trkpt><trkpt lat="45.6983934" lon="9.0710347"><ele>288.0</ele><time>2026-04-22T14:13:40.981Z</time></trkpt><trkpt lat="45.698458" lon="9.0711892"><ele>288.6</ele><time>2026-04-22T14:13:41.981Z</time></trkpt><trkpt lat="45.6985168" lon="9.0713321"><ele>289.20000000000005</ele><time>2026-04-22T14:13:42.981Z</time></trkpt><trkpt lat="45.6985732" lon="9.071463"><ele>289.8</ele><time>2026-04-22T14:13:43.981Z</time></trkpt><trkpt lat="45.6986251" lon="9.0715853"><ele>290.40000000000003</ele><time>2026-04-22T14:13:44.98Z</time></trkpt><trkpt lat="45.6986767" lon="9.0717064"><ele>291.0</ele><time>2026-04-22T14:13:45.981Z</time></trkpt><trkpt lat="45.6987247" lon="9.0718295"><ele>292.2</ele><time>2026-04-22T14:13:46.982Z</time></trkpt><trkpt lat="45.6987719" lon="9.0719514"><ele>293.40000000000003</ele><time>2026-04-22T14:13:47.981Z</time></trkpt><trkpt lat="45.6988209" lon="9.0720728"><ele>294.6</ele><time>2026-04-22T14:13:48.982Z</time></trkpt><trkpt lat="45.6988707" lon="9.0721948"><ele>295.8</ele><time>2026-04-22T14:13:49.982Z</time></trkpt><trkpt lat="45.6989222" lon="9.0723199"><ele>297.0</ele><time>2026-04-22T14:13:50.981Z</time></trkpt><trkpt lat="45.6989762" lon="9.0724487"><ele>297.2</ele><time>2026-04-22T14:13:51.982Z</time></trkpt><trkpt lat="45.6990328" lon="9.0725821"><ele>297.4</ele><time>2026-04-22T14:13:52.981Z</time></trkpt><trkpt lat="45.6990897" lon="9.0727176"><ele>297.6</ele><time>2026-04-22T14:13:53.981Z</time></trkpt><trkpt lat="45.6991478" lon="9.0728559"><ele>297.8</ele><time>2026-04-22T14:13:54.982Z</time></trkpt><trkpt lat="45.699206" lon="9.0729973"><ele>298.0</ele><time>2026-04-22T14:13:55.981Z</time></trkpt><trkpt lat="45.699264" lon="9.0731383"><ele>298.6</ele><time>2026-04-22T14:13:56.981Z</time></trkpt><trkpt lat="45.6993232" lon="9.0732825"><ele>299.20000000000005</ele><time>2026-04-22T14:13:57.981Z</time></trkpt><trkpt lat="45.6993785" lon="9.0734205"><ele>299.8</ele><time>2026-04-22T14:13:58.982Z</time></trkpt><trkpt lat="45.6994343" lon="9.0735566"><ele>300.40000000000003</ele><time>2026-04-22T14:13:59.981Z</time></trkpt><trkpt lat="45.6994901" lon="9.0736854"><ele>301.0</ele><time>2026-04-22T14:14:00.981Z</time></trkpt><trkpt lat="45.6995464" lon="9.0738112"><ele>301.6</ele><time>2026-04-22T14:14:01.98Z</time></trkpt><trkpt lat="45.6996049" lon="9.0739325"><ele>302.20000000000005</ele><time>2026-04-22T14:14:02.981Z</time></trkpt><trkpt lat="45.6996684" lon="9.0740504"><ele>302.79999999999995</ele><time>2026-04-22T14:14:03.982Z</time></trkpt><trkpt lat="45.6997314" lon="9.0741722"><ele>303.4</ele><time>2026-04-22T14:14:04.982Z</time></trkpt><trkpt lat="45.6997937" lon="9.0742934"><ele>304.0</ele><time>2026-04-22T14:14:05.981Z</time></trkpt><trkpt lat="45.6998581" lon="9.0744157"><ele>304.0</ele><time>2026-04-22T14:14:06.982Z</time></trkpt><trkpt lat="45.6999277" lon="9.0745412"><ele>304.0</ele><time>2026-04-22T14:14:07.981Z</time></trkpt><trkpt lat="45.6999984" lon="9.0746663"><ele>304.0</ele><time>2026-04-22T14:14:08.981Z</time></trkpt><trkpt lat="45.7000645" lon="9.0747892"><ele>304.0</ele><time>2026-04-22T14:14:09.982Z</time></trkpt><trkpt lat="45.7001283" lon="9.0749031"><ele>304.0</ele><time>2026-04-22T14:14:10.981Z</time></trkpt><trkpt lat="45.7001882" lon="9.075019"><ele>304.2</ele><time>2026-04-22T14:14:11.98Z</time></trkpt><trkpt lat="45.70025" lon="9.0751267"><ele>304.4</ele><time>2026-04-22T14:14:12.981Z</time></trkpt><trkpt lat="45.700311" lon="9.075238"><ele>304.6</ele><time>2026-04-22T14:14:13.982Z</time></trkpt><trkpt lat="45.7003699" lon="9.0753527"><ele>304.8</ele><time>2026-04-22T14:14:14.981Z</time></trkpt><trkpt lat="45.7004276" lon="9.0754684"><ele>305.0</ele><time>2026-04-22T14:14:15.982Z</time></trkpt><trkpt lat="45.7004905" lon="9.0755859"><ele>305.0</ele><time>2026-04-22T14:14:16.982Z</time></trkpt><trkpt lat="45.7005569" lon="9.0757042"><ele>305.0</ele><time>2026-04-22T14:14:17.981Z</time></trkpt><trkpt lat="45.7006228" lon="9.0758251"><ele>305.0</ele><time>2026-04-22T14:14:18.981Z</time></trkpt><trkpt lat="45.7006921" lon="9.0759484"><ele>305.0</ele><time>2026-04-22T14:14:19.98Z</time></trkpt><trkpt lat="45.7007582" lon="9.0760719"><ele>305.0</ele><time>2026-04-22T14:14:20.982Z</time></trkpt><trkpt lat="45.7008178" lon="9.0761951"><ele>304.8</ele><time>2026-04-22T14:14:21.981Z</time></trkpt><trkpt lat="45.7008757" lon="9.0763199"><ele>304.6</ele><time>2026-04-22T14:14:22.982Z</time></trkpt><trkpt lat="45.7009262" lon="9.0764468"><ele>304.4</ele><time>2026-04-22T14:14:23.981Z</time></trkpt><trkpt lat="45.7009668" lon="9.0765752"><ele>304.2</ele><time>2026-04-22T14:14:24.982Z</time></trkpt><trkpt lat="45.7010055" lon="9.0767074"><ele>304.0</ele><time>2026-04-22T14:14:25.982Z</time></trkpt><trkpt lat="45.7010374" lon="9.0768402"><ele>304.0</ele><time>2026-04-22T14:14:26.982Z</time></trkpt><trkpt lat="45.7010666" lon="9.0769715"><ele>304.0</ele><time>2026-04-22T14:14:27.98Z</time></trkpt><trkpt lat="45.7010974" lon="9.0771016"><ele>304.0</ele><time>2026-04-22T14:14:28.981Z</time></trkpt><trkpt lat="45.7011242" lon="9.0772344"><ele>304.0</ele><time>2026-04-22T14:14:29.981Z</time></trkpt><trkpt lat="45.7011506" lon="9.0773653"><ele>304.0</ele><time>2026-04-22T14:14:30.982Z</time></trkpt><trkpt lat="45.7011788" lon="9.0774952"><ele>303.2</ele><time>2026-04-22T14:14:31.981Z</time></trkpt><trkpt lat="45.7012095" lon="9.0776242"><ele>302.4</ele><time>2026-04-22T14:14:32.982Z</time></trkpt><trkpt lat="45.7012406" lon="9.0777507"><ele>301.6</ele><time>2026-04-22T14:14:33.981Z</time></trkpt><trkpt lat="45.7012699" lon="9.0778769"><ele>300.8</ele><time>2026-04-22T14:14:34.981Z</time></trkpt><trkpt lat="45.7012987" lon="9.078003"><ele>300.0</ele><time>2026-04-22T14:14:35.981Z</time></trkpt><trkpt lat="45.7013251" lon="9.0781311"><ele>300.0</ele><time>2026-04-22T14:14:36.981Z</time></trkpt><trkpt lat="45.7013522" lon="9.0782577"><ele>300.0</ele><time>2026-04-22T14:14:37.981Z</time></trkpt><trkpt lat="45.7013791" lon="9.0783842"><ele>300.0</ele><time>2026-04-22T14:14:38.982Z</time></trkpt><trkpt lat="45.7014055" lon="9.0785119"><ele>300.0</ele><time>2026-04-22T14:14:39.981Z</time></trkpt><trkpt lat="45.7014265" lon="9.0786408"><ele>300.0</ele><time>2026-04-22T14:14:40.981Z</time></trkpt><trkpt lat="45.7014517" lon="9.0787702"><ele>300.1666666666667</ele><time>2026-04-22T14:14:41.98Z</time></trkpt><trkpt lat="45.7014823" lon="9.0788918"><ele>300.3333333333333</ele><time>2026-04-22T14:14:42.98Z</time></trkpt><trkpt lat="45.7015105" lon="9.0790148"><ele>300.5</ele><time>2026-04-22T14:14:43.981Z</time></trkpt><trkpt lat="45.7015333" lon="9.0791349"><ele>300.66666666666663</ele><time>2026-04-22T14:14:44.981Z</time></trkpt><trkpt lat="45.7015581" lon="9.0792484"><ele>300.8333333333333</ele><time>2026-04-22T14:14:45.98Z</time></trkpt><trkpt lat="45.7015832" lon="9.0793661"><ele>301.0</ele><time>2026-04-22T14:14:46.981Z</time></trkpt><trkpt lat="45.7016079" lon="9.0794799"><ele>301.16666666666663</ele><time>2026-04-22T14:14:47.982Z</time></trkpt><trkpt lat="45.7016352" lon="9.0795967"><ele>301.3333333333333</ele><time>2026-04-22T14:14:48.982Z</time></trkpt><trkpt lat="45.701662" lon="9.0797114"><ele>301.5</ele><time>2026-04-22T14:14:49.982Z</time></trkpt><trkpt lat="45.701686" lon="9.0798238"><ele>301.6666666666667</ele><time>2026-04-22T14:14:50.981Z</time></trkpt><trkpt lat="45.7017089" lon="9.0799296"><ele>301.83333333333337</ele><time>2026-04-22T14:14:51.981Z</time></trkpt><trkpt lat="45.7017269" lon="9.0800234"><ele>302.0</ele><time>2026-04-22T14:14:52.981Z</time></trkpt><trkpt lat="45.7017607" lon="9.0801671"><ele>302.1666666666667</ele><time>2026-04-22T14:14:54.981Z</time></trkpt><trkpt lat="45.7017785" lon="9.0802618"><ele>302.33333333333337</ele><time>2026-04-22T14:14:56.981Z</time></trkpt><trkpt lat="45.7017952" lon="9.0803633"><ele>302.5</ele><time>2026-04-22T14:15:00.982Z</time></trkpt><trkpt lat="45.7018109" lon="9.0804602"><ele>302.6666666666667</ele><time>2026-04-22T14:15:02.98Z</time></trkpt><trkpt lat="45.7018424" lon="9.0805902"><ele>302.8333333333333</ele><time>2026-04-22T14:15:04.981Z</time></trkpt><trkpt lat="45.7018743" lon="9.0807418"><ele>303.0</ele><time>2026-04-22T14:15:06.981Z</time></trkpt><trkpt lat="45.7019108" lon="9.0809093"><ele>302.8333333333333</ele><time>2026-04-22T14:15:08.981Z</time></trkpt><trkpt lat="45.7019295" lon="9.0809987"><ele>302.6666666666667</ele><time>2026-04-22T14:15:09.982Z</time></trkpt><trkpt lat="45.7019804" lon="9.0811687"><ele>302.5</ele><time>2026-04-22T14:15:11.981Z</time></trkpt><trkpt lat="45.7020043" lon="9.081256"><ele>302.33333333333337</ele><time>2026-04-22T14:15:12.981Z</time></trkpt><trkpt lat="45.7020265" lon="9.081348"><ele>302.1666666666667</ele><time>2026-04-22T14:15:13.982Z</time></trkpt><trkpt lat="45.7020479" lon="9.0814392"><ele>302.0</ele><time>2026-04-22T14:15:14.981Z</time></trkpt><trkpt lat="45.702075" lon="9.0815338"><ele>302.33333333333337</ele><time>2026-04-22T14:15:15.981Z</time></trkpt><trkpt lat="45.7021008" lon="9.0816347"><ele>302.6666666666667</ele><time>2026-04-22T14:15:16.982Z</time></trkpt><trkpt lat="45.7021269" lon="9.0817376"><ele>303.0</ele><time>2026-04-22T14:15:17.98Z</time></trkpt><trkpt lat="45.7021482" lon="9.0818421"><ele>303.3333333333333</ele><time>2026-04-22T14:15:18.982Z</time></trkpt><trkpt lat="45.7021701" lon="9.0819467"><ele>303.66666666666663</ele><time>2026-04-22T14:15:19.982Z</time></trkpt><trkpt lat="45.7021931" lon="9.0820514"><ele>304.0</ele><time>2026-04-22T14:15:20.982Z</time></trkpt><trkpt lat="45.7022172" lon="9.0821573"><ele>304.0</ele><time>2026-04-22T14:15:21.981Z</time></trkpt><trkpt lat="45.7022391" lon="9.0822651"><ele>304.0</ele><time>2026-04-22T14:15:22.981Z</time></trkpt><trkpt lat="45.7022635" lon="9.0823715"><ele>304.0</ele><time>2026-04-22T14:15:23.982Z</time></trkpt><trkpt lat="45.7022876" lon="9.0824761"><ele>304.0</ele><time>2026-04-22T14:15:24.982Z</time></trkpt><trkpt lat="45.702315" lon="9.0825813"><ele>304.0</ele><time>2026-04-22T14:15:25.981Z</time></trkpt><trkpt lat="45.7023423" lon="9.082689"><ele>304.0</ele><time>2026-04-22T14:15:26.982Z</time></trkpt><trkpt lat="45.7023703" lon="9.0827966"><ele>304.0</ele><time>2026-04-22T14:15:27.98Z</time></trkpt><trkpt lat="45.7023948" lon="9.0829056"><ele>304.0</ele><time>2026-04-22T14:15:28.981Z</time></trkpt><trkpt lat="45.702419" lon="9.0830118"><ele>304.0</ele><time>2026-04-22T14:15:29.981Z</time></trkpt><trkpt lat="45.7024432" lon="9.0831114"><ele>304.0</ele><time>2026-04-22T14:15:30.981Z</time></trkpt><trkpt lat="45.7024673" lon="9.0832118"><ele>304.0</ele><time>2026-04-22T14:15:31.982Z</time></trkpt><trkpt lat="45.7024909" lon="9.0833137"><ele>304.0</ele><time>2026-04-22T14:15:32.981Z</time></trkpt><trkpt lat="45.7025128" lon="9.0834143"><ele>303.8333333333333</ele><time>2026-04-22T14:15:33.981Z</time></trkpt><trkpt lat="45.7025321" lon="9.083515"><ele>303.66666666666663</ele><time>2026-04-22T14:15:34.982Z</time></trkpt><trkpt lat="45.7025537" lon="9.0836171"><ele>303.5</ele><time>2026-04-22T14:15:35.981Z</time></trkpt><trkpt lat="45.7025768" lon="9.0837189"><ele>303.3333333333333</ele><time>2026-04-22T14:15:36.982Z</time></trkpt><trkpt lat="45.7026028" lon="9.0838223"><ele>303.1666666666667</ele><time>2026-04-22T14:15:37.981Z</time></trkpt><trkpt lat="45.7026274" lon="9.0839285"><ele>303.0</ele><time>2026-04-22T14:15:38.981Z</time></trkpt><trkpt lat="45.7026511" lon="9.0840373"><ele>303.0</ele><time>2026-04-22T14:15:39.982Z</time></trkpt><trkpt lat="45.7026777" lon="9.0841503"><ele>303.0</ele><time>2026-04-22T14:15:40.981Z</time></trkpt><trkpt lat="45.7027038" lon="9.0842659"><ele>303.0</ele><time>2026-04-22T14:15:41.982Z</time></trkpt><trkpt lat="45.7027287" lon="9.084385"><ele>303.0</ele><time>2026-04-22T14:15:42.982Z</time></trkpt><trkpt lat="45.7027578" lon="9.0845078"><ele>303.0</ele><time>2026-04-22T14:15:43.981Z</time></trkpt><trkpt lat="45.7027824" lon="9.084621"><ele>303.0</ele><time>2026-04-22T14:15:44.982Z</time></trkpt><trkpt lat="45.702804" lon="9.0847098"><ele>302.8333333333333</ele><time>2026-04-22T14:15:45.98Z</time></trkpt><trkpt lat="45.7028354" lon="9.0848719"><ele>302.6666666666667</ele><time>2026-04-22T14:15:47.981Z</time></trkpt><trkpt lat="45.7028518" lon="9.0849618"><ele>302.5</ele><time>2026-04-22T14:15:48.982Z</time></trkpt><trkpt lat="45.702869" lon="9.0850609"><ele>302.33333333333337</ele><time>2026-04-22T14:15:49.98Z</time></trkpt><trkpt lat="45.7028932" lon="9.0851647"><ele>302.1666666666667</ele><time>2026-04-22T14:15:50.982Z</time></trkpt><trkpt lat="45.7029216" lon="9.0852749"><ele>302.0</ele><time>2026-04-22T14:15:51.981Z</time></trkpt><trkpt lat="45.70295" lon="9.0853921"><ele>302.0</ele><time>2026-04-22T14:15:52.981Z</time></trkpt><trkpt lat="45.7029825" lon="9.0855124"><ele>302.0</ele><time>2026-04-22T14:15:53.981Z</time></trkpt><trkpt lat="45.7030186" lon="9.0856347"><ele>302.0</ele><time>2026-04-22T14:15:54.981Z</time></trkpt><trkpt lat="45.70305" lon="9.0857648"><ele>302.0</ele><time>2026-04-22T14:15:55.981Z</time></trkpt><trkpt lat="45.7030801" lon="9.085902"><ele>302.0</ele><time>2026-04-22T14:15:56.98Z</time></trkpt><trkpt lat="45.7031115" lon="9.0860454"><ele>301.8</ele><time>2026-04-22T14:15:57.981Z</time></trkpt><trkpt lat="45.7031466" lon="9.0861948"><ele>301.6</ele><time>2026-04-22T14:15:58.981Z</time></trkpt><trkpt lat="45.7031789" lon="9.0863491"><ele>301.40000000000003</ele><time>2026-04-22T14:15:59.981Z</time></trkpt><trkpt lat="45.703211" lon="9.0864987"><ele>301.2</ele><time>2026-04-22T14:16:00.98Z</time></trkpt><trkpt lat="45.7032423" lon="9.0866469"><ele>301.0</ele><time>2026-04-22T14:16:01.981Z</time></trkpt><trkpt lat="45.7032728" lon="9.0867898"><ele>300.8</ele><time>2026-04-22T14:16:02.981Z</time></trkpt><trkpt lat="45.7033054" lon="9.0869321"><ele>300.6</ele><time>2026-04-22T14:16:03.982Z</time></trkpt><trkpt lat="45.7033359" lon="9.0870723"><ele>300.4</ele><time>2026-04-22T14:16:04.982Z</time></trkpt><trkpt lat="45.7033684" lon="9.0872138"><ele>300.2</ele><time>2026-04-22T14:16:05.981Z</time></trkpt><trkpt lat="45.7033986" lon="9.0873535"><ele>300.0</ele><time>2026-04-22T14:16:06.98Z</time></trkpt><trkpt lat="45.7034265" lon="9.0874933"><ele>299.6</ele><time>2026-04-22T14:16:07.98Z</time></trkpt><trkpt lat="45.703453" lon="9.0876296"><ele>299.2</ele><time>2026-04-22T14:16:08.982Z</time></trkpt><trkpt lat="45.7034817" lon="9.0877563"><ele>298.8</ele><time>2026-04-22T14:16:09.981Z</time></trkpt><trkpt lat="45.7035087" lon="9.0878778"><ele>298.4</ele><time>2026-04-22T14:16:10.981Z</time></trkpt><trkpt lat="45.7035359" lon="9.087996"><ele>298.0</ele><time>2026-04-22T14:16:11.981Z</time></trkpt><trkpt lat="45.7035647" lon="9.0881127"><ele>297.66666666666663</ele><time>2026-04-22T14:16:12.98Z</time></trkpt><trkpt lat="45.7035897" lon="9.0882272"><ele>297.3333333333333</ele><time>2026-04-22T14:16:13.981Z</time></trkpt><trkpt lat="45.7036148" lon="9.0883438"><ele>297.0</ele><time>2026-04-22T14:16:14.981Z</time></trkpt><trkpt lat="45.7036432" lon="9.0884618"><ele>296.6666666666667</ele><time>2026-04-22T14:16:15.981Z</time></trkpt><trkpt lat="45.7036694" lon="9.0885793"><ele>296.33333333333337</ele><time>2026-04-22T14:16:16.981Z</time></trkpt><trkpt lat="45.703695" lon="9.0886987"><ele>296.0</ele><time>2026-04-22T14:16:17.981Z</time></trkpt><trkpt lat="45.7037193" lon="9.0888242"><ele>296.0</ele><time>2026-04-22T14:16:18.981Z</time></trkpt><trkpt lat="45.7037447" lon="9.0889559"><ele>296.0</ele><time>2026-04-22T14:16:19.981Z</time></trkpt><trkpt lat="45.7037732" lon="9.0890932"><ele>296.0</ele><time>2026-04-22T14:16:20.981Z</time></trkpt><trkpt lat="45.7038037" lon="9.089232"><ele>296.0</ele><time>2026-04-22T14:16:21.98Z</time></trkpt><trkpt lat="45.7038345" lon="9.0893694"><ele>296.0</ele><time>2026-04-22T14:16:22.98Z</time></trkpt><trkpt lat="45.7038667" lon="9.0895081"><ele>296.2</ele><time>2026-04-22T14:16:23.981Z</time></trkpt><trkpt lat="45.7038974" lon="9.0896439"><ele>296.40000000000003</ele><time>2026-04-22T14:16:24.981Z</time></trkpt><trkpt lat="45.7039267" lon="9.0897808"><ele>296.6</ele><time>2026-04-22T14:16:25.979Z</time></trkpt><trkpt lat="45.7039584" lon="9.0899166"><ele>296.8</ele><time>2026-04-22T14:16:26.981Z</time></trkpt><trkpt lat="45.7039856" lon="9.0900511"><ele>297.0</ele><time>2026-04-22T14:16:27.98Z</time></trkpt><trkpt lat="45.7040149" lon="9.0901832"><ele>297.1666666666667</ele><time>2026-04-22T14:16:28.98Z</time></trkpt><trkpt lat="45.704042" lon="9.0903105"><ele>297.3333333333333</ele><time>2026-04-22T14:16:29.98Z</time></trkpt><trkpt lat="45.7040713" lon="9.0904315"><ele>297.5</ele><time>2026-04-22T14:16:30.981Z</time></trkpt><trkpt lat="45.7041004" lon="9.0905459"><ele>297.66666666666663</ele><time>2026-04-22T14:16:31.98Z</time></trkpt><trkpt lat="45.7041283" lon="9.0906563"><ele>297.8333333333333</ele><time>2026-04-22T14:16:32.98Z</time></trkpt><trkpt lat="45.7041522" lon="9.0907553"><ele>298.0</ele><time>2026-04-22T14:16:33.98Z</time></trkpt><trkpt lat="45.7041684" lon="9.0908447"><ele>298.0</ele><time>2026-04-22T14:16:34.98Z</time></trkpt><trkpt lat="45.7041918" lon="9.0909703"><ele>298.0</ele><time>2026-04-22T14:16:36.98Z</time></trkpt><trkpt lat="45.7042118" lon="9.0910747"><ele>298.0</ele><time>2026-04-22T14:16:51.98Z</time></trkpt><trkpt lat="45.7042265" lon="9.0912181"><ele>298.0</ele><time>2026-04-22T14:16:53.981Z</time></trkpt><trkpt lat="45.7042555" lon="9.0912998"><ele>298.0</ele><time>2026-04-22T14:16:54.981Z</time></trkpt><trkpt lat="45.7042885" lon="9.091386"><ele>298.0</ele><time>2026-04-22T14:16:55.98Z</time></trkpt><trkpt lat="45.7043197" lon="9.0914854"><ele>298.2</ele><time>2026-04-22T14:16:56.98Z</time></trkpt><trkpt lat="45.7043509" lon="9.091595"><ele>298.4</ele><time>2026-04-22T14:16:57.98Z</time></trkpt><trkpt lat="45.7043795" lon="9.0917136"><ele>298.59999999999997</ele><time>2026-04-22T14:16:58.98Z</time></trkpt><trkpt lat="45.7044096" lon="9.0918442"><ele>298.8</ele><time>2026-04-22T14:16:59.98Z</time></trkpt><trkpt lat="45.7044422" lon="9.0919845"><ele>299.0</ele><time>2026-04-22T14:17:00.981Z</time></trkpt><trkpt lat="45.7044759" lon="9.0921338"><ele>299.0</ele><time>2026-04-22T14:17:01.98Z</time></trkpt><trkpt lat="45.7045115" lon="9.0922848"><ele>299.0</ele><time>2026-04-22T14:17:02.979Z</time></trkpt><trkpt lat="45.7045452" lon="9.0924353"><ele>299.0</ele><time>2026-04-22T14:17:03.981Z</time></trkpt><trkpt lat="45.7045794" lon="9.0925849"><ele>299.0</ele><time>2026-04-22T14:17:04.98Z</time></trkpt><trkpt lat="45.7046123" lon="9.0927369"><ele>299.0</ele><time>2026-04-22T14:17:05.979Z</time></trkpt><trkpt lat="45.704645" lon="9.0928918"><ele>299.4</ele><time>2026-04-22T14:17:06.981Z</time></trkpt><trkpt lat="45.704677" lon="9.0930452"><ele>299.79999999999995</ele><time>2026-04-22T14:17:07.981Z</time></trkpt><trkpt lat="45.7047098" lon="9.0931983"><ele>300.20000000000005</ele><time>2026-04-22T14:17:08.981Z</time></trkpt><trkpt lat="45.7047437" lon="9.0933508"><ele>300.6</ele><time>2026-04-22T14:17:09.981Z</time></trkpt><trkpt lat="45.7047757" lon="9.0935004"><ele>301.0</ele><time>2026-04-22T14:17:10.98Z</time></trkpt><trkpt lat="45.7048085" lon="9.0936422"><ele>301.5</ele><time>2026-04-22T14:17:11.981Z</time></trkpt><trkpt lat="45.7048438" lon="9.093773"><ele>302.0</ele><time>2026-04-22T14:17:12.981Z</time></trkpt><trkpt lat="45.7048812" lon="9.0938911"><ele>302.5</ele><time>2026-04-22T14:17:13.98Z</time></trkpt><trkpt lat="45.7049155" lon="9.0939968"><ele>303.0</ele><time>2026-04-22T14:17:14.98Z</time></trkpt><trkpt lat="45.704946" lon="9.0940864"><ele>303.5</ele><time>2026-04-22T14:17:15.98Z</time></trkpt><trkpt lat="45.704975" lon="9.094169"><ele>304.0</ele><time>2026-04-22T14:17:16.98Z</time></trkpt><trkpt lat="45.705047" lon="9.0942781"><ele>304.3333333333333</ele><time>2026-04-22T14:17:18.98Z</time></trkpt><trkpt lat="45.7051441" lon="9.0942966"><ele>304.66666666666663</ele><time>2026-04-22T14:17:20.981Z</time></trkpt><trkpt lat="45.7052076" lon="9.0942772"><ele>305.0</ele><time>2026-04-22T14:17:21.981Z</time></trkpt><trkpt lat="45.7052824" lon="9.094248"><ele>305.3333333333333</ele><time>2026-04-22T14:17:22.981Z</time></trkpt><trkpt lat="45.7053699" lon="9.0942074"><ele>305.6666666666667</ele><time>2026-04-22T14:17:23.98Z</time></trkpt><trkpt lat="45.7054655" lon="9.0941587"><ele>306.0</ele><time>2026-04-22T14:17:24.98Z</time></trkpt><trkpt lat="45.705562" lon="9.0941041"><ele>306.8</ele><time>2026-04-22T14:17:25.979Z</time></trkpt><trkpt lat="45.7056589" lon="9.0940495"><ele>307.6</ele><time>2026-04-22T14:17:26.981Z</time></trkpt><trkpt lat="45.7057554" lon="9.0939919"><ele>308.4</ele><time>2026-04-22T14:17:27.98Z</time></trkpt><trkpt lat="45.7058507" lon="9.0939395"><ele>309.2</ele><time>2026-04-22T14:17:28.979Z</time></trkpt><trkpt lat="45.7059468" lon="9.0938972"><ele>310.0</ele><time>2026-04-22T14:17:29.981Z</time></trkpt><trkpt lat="45.7060443" lon="9.0938603"><ele>310.6</ele><time>2026-04-22T14:17:30.98Z</time></trkpt><trkpt lat="45.7061452" lon="9.0938329"><ele>311.2</ele><time>2026-04-22T14:17:31.981Z</time></trkpt><trkpt lat="45.7062477" lon="9.0938116"><ele>311.8</ele><time>2026-04-22T14:17:32.981Z</time></trkpt><trkpt lat="45.7063577" lon="9.0938013"><ele>312.4</ele><time>2026-04-22T14:17:33.981Z</time></trkpt><trkpt lat="45.7064728" lon="9.0938046"><ele>313.0</ele><time>2026-04-22T14:17:34.98Z</time></trkpt><trkpt lat="45.7065903" lon="9.0938189"><ele>313.0</ele><time>2026-04-22T14:17:35.98Z</time></trkpt><trkpt lat="45.7067067" lon="9.093829"><ele>313.0</ele><time>2026-04-22T14:17:36.981Z</time></trkpt><trkpt lat="45.7068242" lon="9.0938302"><ele>313.0</ele><time>2026-04-22T14:17:37.981Z</time></trkpt><trkpt lat="45.7069406" lon="9.0938229"><ele>313.0</ele><time>2026-04-22T14:17:38.981Z</time></trkpt><trkpt lat="45.7070577" lon="9.0937992"><ele>312.5</ele><time>2026-04-22T14:17:39.98Z</time></trkpt><trkpt lat="45.7071755" lon="9.0937761"><ele>312.0</ele><time>2026-04-22T14:17:40.98Z</time></trkpt><trkpt lat="45.7072952" lon="9.0937522"><ele>311.5</ele><time>2026-04-22T14:17:41.98Z</time></trkpt><trkpt lat="45.7074152" lon="9.0937296"><ele>311.0</ele><time>2026-04-22T14:17:42.98Z</time></trkpt><trkpt lat="45.7075384" lon="9.0937011"><ele>311.0</ele><time>2026-04-22T14:17:43.98Z</time></trkpt><trkpt lat="45.707664" lon="9.0936713"><ele>311.0</ele><time>2026-04-22T14:17:44.98Z</time></trkpt><trkpt lat="45.7077899" lon="9.0936437"><ele>311.0</ele><time>2026-04-22T14:17:45.981Z</time></trkpt><trkpt lat="45.7079152" lon="9.0936154"><ele>311.0</ele><time>2026-04-22T14:17:46.98Z</time></trkpt><trkpt lat="45.70804" lon="9.0935811"><ele>310.25</ele><time>2026-04-22T14:17:47.979Z</time></trkpt><trkpt lat="45.7081657" lon="9.0935441"><ele>309.5</ele><time>2026-04-22T14:17:48.979Z</time></trkpt><trkpt lat="45.7082894" lon="9.0935082"><ele>308.75</ele><time>2026-04-22T14:17:49.98Z</time></trkpt><trkpt lat="45.7084076" lon="9.0934597"><ele>308.0</ele><time>2026-04-22T14:17:50.98Z</time></trkpt><trkpt lat="45.7085246" lon="9.0934017"><ele>307.0</ele><time>2026-04-22T14:17:51.981Z</time></trkpt><trkpt lat="45.7086399" lon="9.0933438"><ele>306.0</ele><time>2026-04-22T14:17:52.98Z</time></trkpt><trkpt lat="45.7087552" lon="9.0932794"><ele>305.0</ele><time>2026-04-22T14:17:53.979Z</time></trkpt><trkpt lat="45.7088659" lon="9.0932151"><ele>304.0</ele><time>2026-04-22T14:17:54.981Z</time></trkpt><trkpt lat="45.7089671" lon="9.0931541"><ele>304.8</ele><time>2026-04-22T14:17:55.981Z</time></trkpt><trkpt lat="45.7090643" lon="9.0931082"><ele>305.59999999999997</ele><time>2026-04-22T14:17:56.98Z</time></trkpt><trkpt lat="45.709159" lon="9.0930867"><ele>306.4</ele><time>2026-04-22T14:17:57.979Z</time></trkpt><trkpt lat="45.7092534" lon="9.0930887"><ele>307.2</ele><time>2026-04-22T14:17:58.979Z</time></trkpt><trkpt lat="45.7093444" lon="9.0931174"><ele>308.0</ele><time>2026-04-22T14:17:59.981Z</time></trkpt><trkpt lat="45.7094341" lon="9.093176"><ele>305.8</ele><time>2026-04-22T14:18:00.98Z</time></trkpt><trkpt lat="45.709518" lon="9.0932557"><ele>303.6</ele><time>2026-04-22T14:18:01.98Z</time></trkpt><trkpt lat="45.7096002" lon="9.0933687"><ele>301.4</ele><time>2026-04-22T14:18:02.98Z</time></trkpt><trkpt lat="45.7096807" lon="9.0934714"><ele>299.2</ele><time>2026-04-22T14:18:03.98Z</time></trkpt><trkpt lat="45.7097541" lon="9.0935685"><ele>297.0</ele><time>2026-04-22T14:18:04.98Z</time></trkpt><trkpt lat="45.7098173" lon="9.0936714"><ele>297.0</ele><time>2026-04-22T14:18:05.98Z</time></trkpt><trkpt lat="45.7098641" lon="9.0937933"><ele>297.0</ele><time>2026-04-22T14:18:06.98Z</time></trkpt><trkpt lat="45.7098965" lon="9.0939329"><ele>297.0</ele><time>2026-04-22T14:18:07.98Z</time></trkpt><trkpt lat="45.7099171" lon="9.0940843"><ele>297.0</ele><time>2026-04-22T14:18:08.981Z</time></trkpt><trkpt lat="45.7099217" lon="9.0942535"><ele>297.0</ele><time>2026-04-22T14:18:09.979Z</time></trkpt><trkpt lat="45.7099329" lon="9.0944057"><ele>296.8</ele><time>2026-04-22T14:18:10.98Z</time></trkpt><trkpt lat="45.7099536" lon="9.09455"><ele>296.6</ele><time>2026-04-22T14:18:11.981Z</time></trkpt><trkpt lat="45.7099871" lon="9.0946834"><ele>296.40000000000003</ele><time>2026-04-22T14:18:12.98Z</time></trkpt><trkpt lat="45.710034" lon="9.0948084"><ele>296.2</ele><time>2026-04-22T14:18:13.979Z</time></trkpt><trkpt lat="45.7100941" lon="9.0949191"><ele>296.0</ele><time>2026-04-22T14:18:14.98Z</time></trkpt><trkpt lat="45.7101641" lon="9.0950119"><ele>295.40000000000003</ele><time>2026-04-22T14:18:15.979Z</time></trkpt><trkpt lat="45.7102484" lon="9.0950883"><ele>294.8</ele><time>2026-04-22T14:18:16.98Z</time></trkpt><trkpt lat="45.7103419" lon="9.0951389"><ele>294.20000000000005</ele><time>2026-04-22T14:18:17.98Z</time></trkpt><trkpt lat="45.7104395" lon="9.0951728"><ele>293.6</ele><time>2026-04-22T14:18:18.98Z</time></trkpt><trkpt lat="45.7105373" lon="9.0952161"><ele>293.0</ele><time>2026-04-22T14:18:19.981Z</time></trkpt><trkpt lat="45.7106512" lon="9.0952245"><ele>293.0</ele><time>2026-04-22T14:18:20.981Z</time></trkpt><trkpt lat="45.7107657" lon="9.0952286"><ele>293.0</ele><time>2026-04-22T14:18:21.98Z</time></trkpt><trkpt lat="45.7109023" lon="9.0952114"><ele>293.0</ele><time>2026-04-22T14:18:22.979Z</time></trkpt><trkpt lat="45.7110335" lon="9.0952067"><ele>293.0</ele><time>2026-04-22T14:18:23.98Z</time></trkpt><trkpt lat="45.7111762" lon="9.0952103"><ele>291.6666666666667</ele><time>2026-04-22T14:18:24.98Z</time></trkpt><trkpt lat="45.7113315" lon="9.095206"><ele>290.3333333333333</ele><time>2026-04-22T14:18:25.981Z</time></trkpt><trkpt lat="45.711498" lon="9.0951948"><ele>289.0</ele><time>2026-04-22T14:18:26.98Z</time></trkpt><trkpt lat="45.7116739" lon="9.0951877"><ele>289.0</ele><time>2026-04-22T14:18:27.981Z</time></trkpt><trkpt lat="45.7118587" lon="9.095179"><ele>289.0</ele><time>2026-04-22T14:18:28.98Z</time></trkpt><trkpt lat="45.7120492" lon="9.0951752"><ele>289.0</ele><time>2026-04-22T14:18:29.979Z</time></trkpt><trkpt lat="45.7122425" lon="9.0951656"><ele>288.3333333333333</ele><time>2026-04-22T14:18:30.98Z</time></trkpt><trkpt lat="45.712434" lon="9.0951627"><ele>287.6666666666667</ele><time>2026-04-22T14:18:31.981Z</time></trkpt><trkpt lat="45.7126244" lon="9.0951618"><ele>287.0</ele><time>2026-04-22T14:18:32.981Z</time></trkpt><trkpt lat="45.712808" lon="9.0951653"><ele>287.0</ele><time>2026-04-22T14:18:33.98Z</time></trkpt><trkpt lat="45.7129889" lon="9.0951661"><ele>287.0</ele><time>2026-04-22T14:18:34.981Z</time></trkpt><trkpt lat="45.7131631" lon="9.0951665"><ele>287.0</ele><time>2026-04-22T14:18:35.98Z</time></trkpt><trkpt lat="45.713324" lon="9.0951653"><ele>287.0</ele><time>2026-04-22T14:18:36.98Z</time></trkpt><trkpt lat="45.7134614" lon="9.0951655"><ele>287.0</ele><time>2026-04-22T14:18:37.981Z</time></trkpt><trkpt lat="45.7135741" lon="9.0951645"><ele>287.0</ele><time>2026-04-22T14:18:38.98Z</time></trkpt><trkpt lat="45.7136838" lon="9.0951656"><ele>287.0</ele><time>2026-04-22T14:18:39.981Z</time></trkpt><trkpt lat="45.7137917" lon="9.0951666"><ele>285.8</ele><time>2026-04-22T14:18:40.981Z</time></trkpt><trkpt lat="45.7138976" lon="9.0951671"><ele>284.6</ele><time>2026-04-22T14:18:41.98Z</time></trkpt><trkpt lat="45.7140031" lon="9.0951672"><ele>283.40000000000003</ele><time>2026-04-22T14:18:42.981Z</time></trkpt><trkpt lat="45.7141057" lon="9.0951832"><ele>282.2</ele><time>2026-04-22T14:18:43.98Z</time></trkpt><trkpt lat="45.7142022" lon="9.0952201"><ele>281.0</ele><time>2026-04-22T14:18:44.979Z</time></trkpt><trkpt lat="45.7142884" lon="9.0952839"><ele>281.0</ele><time>2026-04-22T14:18:45.98Z</time></trkpt><trkpt lat="45.7143611" lon="9.0953713"><ele>281.0</ele><time>2026-04-22T14:18:46.98Z</time></trkpt><trkpt lat="45.7144163" lon="9.0954785"><ele>281.0</ele><time>2026-04-22T14:18:47.98Z</time></trkpt><trkpt lat="45.7144534" lon="9.0955932"><ele>281.0</ele><time>2026-04-22T14:18:48.98Z</time></trkpt><trkpt lat="45.7144722" lon="9.0957236"><ele>281.0</ele><time>2026-04-22T14:18:49.98Z</time></trkpt><trkpt lat="45.7144738" lon="9.0958579"><ele>278.2</ele><time>2026-04-22T14:18:50.979Z</time></trkpt><trkpt lat="45.7144477" lon="9.0959896"><ele>275.40000000000003</ele><time>2026-04-22T14:18:51.98Z</time></trkpt><trkpt lat="45.7144041" lon="9.0961127"><ele>272.6</ele><time>2026-04-22T14:18:52.981Z</time></trkpt><trkpt lat="45.7143407" lon="9.0962284"><ele>269.8</ele><time>2026-04-22T14:18:53.979Z</time></trkpt><trkpt lat="45.71426" lon="9.0963216"><ele>267.0</ele><time>2026-04-22T14:18:54.979Z</time></trkpt><trkpt lat="45.7141671" lon="9.0963882"><ele>267.0</ele><time>2026-04-22T14:18:55.981Z</time></trkpt><trkpt lat="45.7140558" lon="9.0964322"><ele>267.0</ele><time>2026-04-22T14:18:56.98Z</time></trkpt><trkpt lat="45.7139335" lon="9.0964698"><ele>267.0</ele><time>2026-04-22T14:18:57.98Z</time></trkpt><trkpt lat="45.7138023" lon="9.0965101"><ele>267.0</ele><time>2026-04-22T14:18:58.981Z</time></trkpt><trkpt lat="45.7136649" lon="9.0965562"><ele>266.5</ele><time>2026-04-22T14:18:59.981Z</time></trkpt><trkpt lat="45.7135294" lon="9.0966026"><ele>266.0</ele><time>2026-04-22T14:19:00.981Z</time></trkpt><trkpt lat="45.7133956" lon="9.0966461"><ele>265.5</ele><time>2026-04-22T14:19:01.981Z</time></trkpt><trkpt lat="45.7132658" lon="9.0966919"><ele>265.0</ele><time>2026-04-22T14:19:02.98Z</time></trkpt><trkpt lat="45.7131437" lon="9.0967483"><ele>265.0</ele><time>2026-04-22T14:19:03.98Z</time></trkpt><trkpt lat="45.7130333" lon="9.096822"><ele>265.0</ele><time>2026-04-22T14:19:04.98Z</time></trkpt><trkpt lat="45.7129297" lon="9.0969097"><ele>265.0</ele><time>2026-04-22T14:19:05.979Z</time></trkpt><trkpt lat="45.7128353" lon="9.097008"><ele>265.0</ele><time>2026-04-22T14:19:06.981Z</time></trkpt><trkpt lat="45.7127537" lon="9.0971172"><ele>263.2</ele><time>2026-04-22T14:19:07.981Z</time></trkpt><trkpt lat="45.7126855" lon="9.0972365"><ele>261.4</ele><time>2026-04-22T14:19:08.98Z</time></trkpt><trkpt lat="45.7126247" lon="9.097367"><ele>259.6</ele><time>2026-04-22T14:19:09.98Z</time></trkpt><trkpt lat="45.7125737" lon="9.0975075"><ele>257.8</ele><time>2026-04-22T14:19:10.981Z</time></trkpt><trkpt lat="45.712537" lon="9.0976594"><ele>256.0</ele><time>2026-04-22T14:19:11.981Z</time></trkpt><trkpt lat="45.7125083" lon="9.0978136"><ele>256.0</ele><time>2026-04-22T14:19:12.98Z</time></trkpt><trkpt lat="45.7124989" lon="9.097978"><ele>256.0</ele><time>2026-04-22T14:19:13.98Z</time></trkpt><trkpt lat="45.7124985" lon="9.0981439"><ele>256.0</ele><time>2026-04-22T14:19:14.981Z</time></trkpt><trkpt lat="45.7125128" lon="9.0983009"><ele>256.0</ele><time>2026-04-22T14:19:15.98Z</time></trkpt><trkpt lat="45.7125423" lon="9.0984492"><ele>256.0</ele><time>2026-04-22T14:19:16.98Z</time></trkpt><trkpt lat="45.7125846" lon="9.0985938"><ele>255.0</ele><time>2026-04-22T14:19:17.98Z</time></trkpt><trkpt lat="45.7126369" lon="9.0987188"><ele>254.00000000000003</ele><time>2026-04-22T14:19:18.979Z</time></trkpt><trkpt lat="45.7127026" lon="9.0988258"><ele>253.00000000000003</ele><time>2026-04-22T14:19:19.979Z</time></trkpt><trkpt lat="45.7127813" lon="9.0989116"><ele>252.0</ele><time>2026-04-22T14:19:20.98Z</time></trkpt><trkpt lat="45.7128725" lon="9.0989806"><ele>251.0</ele><time>2026-04-22T14:19:21.981Z</time></trkpt><trkpt lat="45.7129747" lon="9.0990375"><ele>251.0</ele><time>2026-04-22T14:19:22.981Z</time></trkpt><trkpt lat="45.7130957" lon="9.0990673"><ele>251.0</ele><time>2026-04-22T14:19:23.981Z</time></trkpt><trkpt lat="45.7132281" lon="9.0990804"><ele>251.0</ele><time>2026-04-22T14:19:24.98Z</time></trkpt><trkpt lat="45.7133721" lon="9.0990958"><ele>251.0</ele><time>2026-04-22T14:19:25.981Z</time></trkpt><trkpt lat="45.7135121" lon="9.0991239"><ele>250.5</ele><time>2026-04-22T14:19:26.98Z</time></trkpt><trkpt lat="45.7136456" lon="9.0991686"><ele>250.0</ele><time>2026-04-22T14:19:27.979Z</time></trkpt><trkpt lat="45.7137801" lon="9.0992262"><ele>249.5</ele><time>2026-04-22T14:19:28.98Z</time></trkpt><trkpt lat="45.7139157" lon="9.0992881"><ele>249.0</ele><time>2026-04-22T14:19:29.981Z</time></trkpt><trkpt lat="45.7140467" lon="9.099354"><ele>249.0</ele><time>2026-04-22T14:19:30.981Z</time></trkpt><trkpt lat="45.714174" lon="9.0994204"><ele>249.0</ele><time>2026-04-22T14:19:31.98Z</time></trkpt><trkpt lat="45.714299" lon="9.099485"><ele>249.0</ele><time>2026-04-22T14:19:32.981Z</time></trkpt><trkpt lat="45.7144214" lon="9.0995476"><ele>249.0</ele><time>2026-04-22T14:19:33.98Z</time></trkpt><trkpt lat="45.71454" lon="9.099605"><ele>248.75</ele><time>2026-04-22T14:19:34.979Z</time></trkpt><trkpt lat="45.7146561" lon="9.0996548"><ele>248.5</ele><time>2026-04-22T14:19:35.981Z</time></trkpt><trkpt lat="45.7147744" lon="9.099687"><ele>248.25</ele><time>2026-04-22T14:19:36.981Z</time></trkpt><trkpt lat="45.7148912" lon="9.0997072"><ele>248.0</ele><time>2026-04-22T14:19:37.98Z</time></trkpt><trkpt lat="45.7150055" lon="9.0997246"><ele>248.0</ele><time>2026-04-22T14:19:38.98Z</time></trkpt><trkpt lat="45.7151247" lon="9.0997392"><ele>248.0</ele><time>2026-04-22T14:19:39.98Z</time></trkpt><trkpt lat="45.7152492" lon="9.099754"><ele>248.0</ele><time>2026-04-22T14:19:40.98Z</time></trkpt><trkpt lat="45.7153793" lon="9.0997671"><ele>248.0</ele><time>2026-04-22T14:19:41.981Z</time></trkpt><trkpt lat="45.71551" lon="9.0997829"><ele>248.5</ele><time>2026-04-22T14:19:42.98Z</time></trkpt><trkpt lat="45.715637" lon="9.0997949"><ele>249.0</ele><time>2026-04-22T14:19:43.981Z</time></trkpt><trkpt lat="45.7157583" lon="9.0998092"><ele>249.5</ele><time>2026-04-22T14:19:44.98Z</time></trkpt><trkpt lat="45.7158708" lon="9.0998217"><ele>250.0</ele><time>2026-04-22T14:19:45.979Z</time></trkpt><trkpt lat="45.7159789" lon="9.0998289"><ele>250.2</ele><time>2026-04-22T14:19:46.98Z</time></trkpt><trkpt lat="45.7160821" lon="9.0998299"><ele>250.4</ele><time>2026-04-22T14:19:47.98Z</time></trkpt><trkpt lat="45.7161828" lon="9.0998237"><ele>250.60000000000002</ele><time>2026-04-22T14:19:48.981Z</time></trkpt><trkpt lat="45.7162839" lon="9.0998134"><ele>250.8</ele><time>2026-04-22T14:19:49.98Z</time></trkpt><trkpt lat="45.7163835" lon="9.0997993"><ele>251.0</ele><time>2026-04-22T14:19:50.98Z</time></trkpt><trkpt lat="45.7164853" lon="9.0997912"><ele>251.0</ele><time>2026-04-22T14:19:51.98Z</time></trkpt><trkpt lat="45.7165899" lon="9.0997946"><ele>251.0</ele><time>2026-04-22T14:19:52.98Z</time></trkpt><trkpt lat="45.7166955" lon="9.099801"><ele>251.0</ele><time>2026-04-22T14:19:53.98Z</time></trkpt><trkpt lat="45.7168174" lon="9.0998283"><ele>251.0</ele><time>2026-04-22T14:19:54.981Z</time></trkpt><trkpt lat="45.7169483" lon="9.0998589"><ele>250.25</ele><time>2026-04-22T14:19:55.979Z</time></trkpt><trkpt lat="45.7170879" lon="9.0998923"><ele>249.5</ele><time>2026-04-22T14:19:56.98Z</time></trkpt><trkpt lat="45.7172391" lon="9.0999267"><ele>248.75</ele><time>2026-04-22T14:19:57.98Z</time></trkpt><trkpt lat="45.7173857" lon="9.0999658"><ele>248.0</ele><time>2026-04-22T14:19:58.98Z</time></trkpt><trkpt lat="45.7175269" lon="9.1000027"><ele>248.0</ele><time>2026-04-22T14:19:59.979Z</time></trkpt><trkpt lat="45.7176619" lon="9.1000422"><ele>248.0</ele><time>2026-04-22T14:20:00.981Z</time></trkpt><trkpt lat="45.7177917" lon="9.1000927"><ele>248.0</ele><time>2026-04-22T14:20:01.981Z</time></trkpt><trkpt lat="45.7179231" lon="9.1001494"><ele>248.0</ele><time>2026-04-22T14:20:02.98Z</time></trkpt><trkpt lat="45.7180539" lon="9.1002159"><ele>248.0</ele><time>2026-04-22T14:20:03.98Z</time></trkpt><trkpt lat="45.7181855" lon="9.1002904"><ele>248.0</ele><time>2026-04-22T14:20:04.98Z</time></trkpt><trkpt lat="45.7183154" lon="9.1003642"><ele>248.0</ele><time>2026-04-22T14:20:05.98Z</time></trkpt><trkpt lat="45.7184459" lon="9.1004369"><ele>248.0</ele><time>2026-04-22T14:20:06.981Z</time></trkpt><trkpt lat="45.7185756" lon="9.1005131"><ele>248.0</ele><time>2026-04-22T14:20:07.981Z</time></trkpt><trkpt lat="45.7187059" lon="9.1005897"><ele>248.0</ele><time>2026-04-22T14:20:08.981Z</time></trkpt><trkpt lat="45.7188319" lon="9.1006596"><ele>248.0</ele><time>2026-04-22T14:20:09.981Z</time></trkpt><trkpt lat="45.7189512" lon="9.1007308"><ele>248.0</ele><time>2026-04-22T14:20:10.981Z</time></trkpt><trkpt lat="45.7190666" lon="9.100801"><ele>248.75</ele><time>2026-04-22T14:20:11.98Z</time></trkpt><trkpt lat="45.7191773" lon="9.100867"><ele>249.5</ele><time>2026-04-22T14:20:12.98Z</time></trkpt><trkpt lat="45.7192843" lon="9.100929"><ele>250.25</ele><time>2026-04-22T14:20:13.98Z</time></trkpt><trkpt lat="45.7193853" lon="9.1009893"><ele>251.0</ele><time>2026-04-22T14:20:14.979Z</time></trkpt><trkpt lat="45.719482" lon="9.1010479"><ele>251.0</ele><time>2026-04-22T14:20:15.979Z</time></trkpt><trkpt lat="45.7195713" lon="9.1011035"><ele>251.00000000000003</ele><time>2026-04-22T14:20:16.98Z</time></trkpt><trkpt lat="45.7196588" lon="9.1011562"><ele>251.00000000000003</ele><time>2026-04-22T14:20:17.98Z</time></trkpt><trkpt lat="45.7197445" lon="9.1011988"><ele>251.0</ele><time>2026-04-22T14:20:18.981Z</time></trkpt><trkpt lat="45.7198254" lon="9.1012339"><ele>251.0</ele><time>2026-04-22T14:20:19.98Z</time></trkpt><trkpt lat="45.719905" lon="9.1012721"><ele>251.00000000000003</ele><time>2026-04-22T14:20:20.979Z</time></trkpt><trkpt lat="45.7199792" lon="9.1013198"><ele>251.0</ele><time>2026-04-22T14:20:21.98Z</time></trkpt><trkpt lat="45.7200447" lon="9.1013876"><ele>251.0</ele><time>2026-04-22T14:20:22.981Z</time></trkpt><trkpt lat="45.7201109" lon="9.1014651"><ele>251.0</ele><time>2026-04-22T14:20:23.981Z</time></trkpt><trkpt lat="45.7201779" lon="9.1015515"><ele>251.00000000000003</ele><time>2026-04-22T14:20:24.98Z</time></trkpt><trkpt lat="45.720247" lon="9.1016459"><ele>251.0</ele><time>2026-04-22T14:20:25.981Z</time></trkpt><trkpt lat="45.7203154" lon="9.1017455"><ele>252.20000000000002</ele><time>2026-04-22T14:20:26.981Z</time></trkpt><trkpt lat="45.7203863" lon="9.1018506"><ele>253.40000000000003</ele><time>2026-04-22T14:20:27.98Z</time></trkpt><trkpt lat="45.7204629" lon="9.1019562"><ele>254.6</ele><time>2026-04-22T14:20:28.98Z</time></trkpt><trkpt lat="45.7205433" lon="9.1020681"><ele>255.8</ele><time>2026-04-22T14:20:29.981Z</time></trkpt><trkpt lat="45.7206284" lon="9.102186"><ele>257.0</ele><time>2026-04-22T14:20:30.98Z</time></trkpt><trkpt lat="45.7207181" lon="9.1023107"><ele>258.25</ele><time>2026-04-22T14:20:31.981Z</time></trkpt><trkpt lat="45.7208137" lon="9.1024419"><ele>259.5</ele><time>2026-04-22T14:20:32.981Z</time></trkpt><trkpt lat="45.7209093" lon="9.1025786"><ele>260.75</ele><time>2026-04-22T14:20:33.98Z</time></trkpt><trkpt lat="45.7210139" lon="9.1027219"><ele>262.0</ele><time>2026-04-22T14:20:34.981Z</time></trkpt><trkpt lat="45.7211156" lon="9.1028647"><ele>261.75</ele><time>2026-04-22T14:20:35.98Z</time></trkpt><trkpt lat="45.7212141" lon="9.1030032"><ele>261.5</ele><time>2026-04-22T14:20:36.98Z</time></trkpt><trkpt lat="45.7213142" lon="9.1031334"><ele>261.25</ele><time>2026-04-22T14:20:37.98Z</time></trkpt><trkpt lat="45.7214187" lon="9.1032557"><ele>261.0</ele><time>2026-04-22T14:20:38.98Z</time></trkpt><trkpt lat="45.7215269" lon="9.1033681"><ele>261.0</ele><time>2026-04-22T14:20:39.98Z</time></trkpt><trkpt lat="45.7216384" lon="9.1034722"><ele>261.0</ele><time>2026-04-22T14:20:40.98Z</time></trkpt><trkpt lat="45.7217518" lon="9.103569"><ele>261.0</ele><time>2026-04-22T14:20:41.979Z</time></trkpt><trkpt lat="45.7218662" lon="9.1036619"><ele>261.0</ele><time>2026-04-22T14:20:42.981Z</time></trkpt><trkpt lat="45.721981" lon="9.1037515"><ele>262.25</ele><time>2026-04-22T14:20:43.981Z</time></trkpt><trkpt lat="45.7220968" lon="9.1038389"><ele>263.5</ele><time>2026-04-22T14:20:44.98Z</time></trkpt><trkpt lat="45.722214" lon="9.1039216"><ele>264.75</ele><time>2026-04-22T14:20:45.981Z</time></trkpt><trkpt lat="45.7223303" lon="9.1040072"><ele>266.0</ele><time>2026-04-22T14:20:46.98Z</time></trkpt><trkpt lat="45.7224472" lon="9.104095"><ele>266.0</ele><time>2026-04-22T14:20:47.98Z</time></trkpt><trkpt lat="45.7225641" lon="9.1041845"><ele>266.0</ele><time>2026-04-22T14:20:48.981Z</time></trkpt><trkpt lat="45.7226836" lon="9.1042734"><ele>266.0</ele><time>2026-04-22T14:20:49.98Z</time></trkpt><trkpt lat="45.7228053" lon="9.1043646"><ele>266.0</ele><time>2026-04-22T14:20:50.979Z</time></trkpt><trkpt lat="45.7229264" lon="9.1044614"><ele>266.0</ele><time>2026-04-22T14:20:51.98Z</time></trkpt><trkpt lat="45.723046" lon="9.1045609"><ele>266.0</ele><time>2026-04-22T14:20:52.981Z</time></trkpt><trkpt lat="45.7231604" lon="9.1046696"><ele>266.0</ele><time>2026-04-22T14:20:53.98Z</time></trkpt><trkpt lat="45.723269" lon="9.1047904"><ele>266.0</ele><time>2026-04-22T14:20:54.98Z</time></trkpt><trkpt lat="45.7233753" lon="9.1049199"><ele>267.75</ele><time>2026-04-22T14:20:55.98Z</time></trkpt><trkpt lat="45.7234786" lon="9.1050634"><ele>269.5</ele><time>2026-04-22T14:20:56.98Z</time></trkpt><trkpt lat="45.7235819" lon="9.1052124"><ele>271.25</ele><time>2026-04-22T14:20:57.98Z</time></trkpt><trkpt lat="45.7236906" lon="9.1053526"><ele>273.0</ele><time>2026-04-22T14:20:58.98Z</time></trkpt><trkpt lat="45.7238075" lon="9.1054763"><ele>273.0</ele><time>2026-04-22T14:20:59.979Z</time></trkpt><trkpt lat="45.7239302" lon="9.1055889"><ele>273.0</ele><time>2026-04-22T14:21:00.981Z</time></trkpt><trkpt lat="45.7240556" lon="9.1056961"><ele>273.0</ele><time>2026-04-22T14:21:01.981Z</time></trkpt><trkpt lat="45.7241867" lon="9.1057995"><ele>273.0</ele><time>2026-04-22T14:21:02.979Z</time></trkpt><trkpt lat="45.7243163" lon="9.1059054"><ele>274.75</ele><time>2026-04-22T14:21:03.98Z</time></trkpt><trkpt lat="45.7244445" lon="9.1060127"><ele>276.5</ele><time>2026-04-22T14:21:04.98Z</time></trkpt><trkpt lat="45.7245762" lon="9.1061166"><ele>278.25</ele><time>2026-04-22T14:21:05.981Z</time></trkpt><trkpt lat="45.7247043" lon="9.1062187"><ele>280.0</ele><time>2026-04-22T14:21:06.98Z</time></trkpt><trkpt lat="45.7248314" lon="9.1063165"><ele>280.0</ele><time>2026-04-22T14:21:07.979Z</time></trkpt><trkpt lat="45.724955" lon="9.1064166"><ele>280.0</ele><time>2026-04-22T14:21:08.98Z</time></trkpt><trkpt lat="45.7250752" lon="9.1065155"><ele>280.0</ele><time>2026-04-22T14:21:09.98Z</time></trkpt><trkpt lat="45.7252007" lon="9.106611"><ele>280.0</ele><time>2026-04-22T14:21:10.981Z</time></trkpt><trkpt lat="45.7253201" lon="9.1067062"><ele>281.75</ele><time>2026-04-22T14:21:11.98Z</time></trkpt><trkpt lat="45.7254418" lon="9.1068038"><ele>283.5</ele><time>2026-04-22T14:21:12.98Z</time></trkpt><trkpt lat="45.7255613" lon="9.1069052"><ele>285.25</ele><time>2026-04-22T14:21:13.98Z</time></trkpt><trkpt lat="45.7256875" lon="9.1070047"><ele>287.0</ele><time>2026-04-22T14:21:14.98Z</time></trkpt><trkpt lat="45.7258033" lon="9.1070994"><ele>287.0</ele><time>2026-04-22T14:21:15.98Z</time></trkpt><trkpt lat="45.7259223" lon="9.1071977"><ele>287.0</ele><time>2026-04-22T14:21:16.98Z</time></trkpt><trkpt lat="45.726034" lon="9.1072914"><ele>287.0</ele><time>2026-04-22T14:21:17.979Z</time></trkpt><trkpt lat="45.7261535" lon="9.1073727"><ele>287.0</ele><time>2026-04-22T14:21:18.981Z</time></trkpt><trkpt lat="45.7262647" lon="9.1074517"><ele>288.4</ele><time>2026-04-22T14:21:19.98Z</time></trkpt><trkpt lat="45.7263686" lon="9.1075277"><ele>289.79999999999995</ele><time>2026-04-22T14:21:20.98Z</time></trkpt><trkpt lat="45.7264733" lon="9.107585"><ele>291.2</ele><time>2026-04-22T14:21:21.981Z</time></trkpt><trkpt lat="45.7265637" lon="9.1075922"><ele>292.59999999999997</ele><time>2026-04-22T14:21:22.98Z</time></trkpt><trkpt lat="45.7266642" lon="9.1076118"><ele>294.0</ele><time>2026-04-22T14:21:23.98Z</time></trkpt><trkpt lat="45.7267481" lon="9.1075729"><ele>294.0</ele><time>2026-04-22T14:21:24.98Z</time></trkpt><trkpt lat="45.7268347" lon="9.1075303"><ele>294.0</ele><time>2026-04-22T14:21:25.98Z</time></trkpt><trkpt lat="45.7269165" lon="9.1074622"><ele>294.0</ele><time>2026-04-22T14:21:26.98Z</time></trkpt><trkpt lat="45.7269836" lon="9.1073788"><ele>294.0</ele><time>2026-04-22T14:21:27.98Z</time></trkpt><trkpt lat="45.7270403" lon="9.1072763"><ele>294.0</ele><time>2026-04-22T14:21:28.98Z</time></trkpt><trkpt lat="45.7270977" lon="9.1071591"><ele>294.0</ele><time>2026-04-22T14:21:29.98Z</time></trkpt><trkpt lat="45.7271595" lon="9.1070358"><ele>294.0</ele><time>2026-04-22T14:21:30.981Z</time></trkpt><trkpt lat="45.7272216" lon="9.1069072"><ele>294.0</ele><time>2026-04-22T14:21:31.98Z</time></trkpt><trkpt lat="45.7272837" lon="9.1067716"><ele>294.0</ele><time>2026-04-22T14:21:32.981Z</time></trkpt><trkpt lat="45.7273438" lon="9.1066368"><ele>294.0</ele><time>2026-04-22T14:21:33.981Z</time></trkpt><trkpt lat="45.7274075" lon="9.1065169"><ele>294.2</ele><time>2026-04-22T14:21:34.981Z</time></trkpt><trkpt lat="45.7274783" lon="9.1064148"><ele>294.4</ele><time>2026-04-22T14:21:35.981Z</time></trkpt><trkpt lat="45.7275528" lon="9.1063301"><ele>294.6</ele><time>2026-04-22T14:21:36.98Z</time></trkpt><trkpt lat="45.727628" lon="9.106269"><ele>294.8</ele><time>2026-04-22T14:21:37.981Z</time></trkpt><trkpt lat="45.7277127" lon="9.106232"><ele>295.0</ele><time>2026-04-22T14:21:38.981Z</time></trkpt><trkpt lat="45.7278026" lon="9.1062137"><ele>295.0</ele><time>2026-04-22T14:21:39.981Z</time></trkpt><trkpt lat="45.7279018" lon="9.1062147"><ele>295.0</ele><time>2026-04-22T14:21:40.98Z</time></trkpt><trkpt lat="45.7280084" lon="9.1062334"><ele>295.0</ele><time>2026-04-22T14:21:41.981Z</time></trkpt><trkpt lat="45.7281235" lon="9.1062618"><ele>295.0</ele><time>2026-04-22T14:21:42.979Z</time></trkpt><trkpt lat="45.7282316" lon="9.1062973"><ele>295.0</ele><time>2026-04-22T14:21:43.98Z</time></trkpt><trkpt lat="45.7283307" lon="9.1063493"><ele>295.0</ele><time>2026-04-22T14:21:44.979Z</time></trkpt><trkpt lat="45.7284235" lon="9.1064185"><ele>295.0</ele><time>2026-04-22T14:21:45.979Z</time></trkpt><trkpt lat="45.7285051" lon="9.1065085"><ele>295.0</ele><time>2026-04-22T14:21:46.98Z</time></trkpt><trkpt lat="45.7285761" lon="9.1066163"><ele>295.0</ele><time>2026-04-22T14:21:47.981Z</time></trkpt><trkpt lat="45.7286349" lon="9.1067352"><ele>295.0</ele><time>2026-04-22T14:21:48.98Z</time></trkpt><trkpt lat="45.7286784" lon="9.1068623"><ele>296.0</ele><time>2026-04-22T14:21:49.981Z</time></trkpt><trkpt lat="45.7287098" lon="9.1069974"><ele>297.0</ele><time>2026-04-22T14:21:50.98Z</time></trkpt><trkpt lat="45.7287361" lon="9.1071442"><ele>298.0</ele><time>2026-04-22T14:21:51.98Z</time></trkpt><trkpt lat="45.7287582" lon="9.1072748"><ele>299.0</ele><time>2026-04-22T14:21:52.981Z</time></trkpt><trkpt lat="45.7287739" lon="9.1073724"><ele>300.0</ele><time>2026-04-22T14:21:53.98Z</time></trkpt><trkpt lat="45.7287993" lon="9.1075225"><ele>300.0</ele><time>2026-04-22T14:21:55.979Z</time></trkpt><trkpt lat="45.7288153" lon="9.1076331"><ele>300.0</ele><time>2026-04-22T14:21:57.981Z</time></trkpt><trkpt lat="45.7288303" lon="9.1077273"><ele>300.0</ele><time>2026-04-22T14:22:00.979Z</time></trkpt><trkpt lat="45.728847" lon="9.107835"><ele>300.0</ele><time>2026-04-22T14:22:03.981Z</time></trkpt><trkpt lat="45.7288692" lon="9.1079575"><ele>300.0</ele><time>2026-04-22T14:22:06.981Z</time></trkpt><trkpt lat="45.7288906" lon="9.1080814"><ele>300.0</ele><time>2026-04-22T14:22:09.981Z</time></trkpt><trkpt lat="45.7289086" lon="9.1081851"><ele>300.3333333333333</ele><time>2026-04-22T14:22:11.98Z</time></trkpt><trkpt lat="45.7289295" lon="9.1082902"><ele>300.6666666666667</ele><time>2026-04-22T14:22:13.981Z</time></trkpt><trkpt lat="45.7289557" lon="9.1084081"><ele>301.0</ele><time>2026-04-22T14:22:15.98Z</time></trkpt><trkpt lat="45.7289719" lon="9.1085058"><ele>301.33333333333337</ele><time>2026-04-22T14:22:17.98Z</time></trkpt><trkpt lat="45.7289736" lon="9.1086064"><ele>301.6666666666667</ele><time>2026-04-22T14:22:21.98Z</time></trkpt><trkpt lat="45.7289876" lon="9.1087247"><ele>302.0</ele><time>2026-04-22T14:22:23.981Z</time></trkpt><trkpt lat="45.7290063" lon="9.1088214"><ele>302.0</ele><time>2026-04-22T14:22:24.981Z</time></trkpt><trkpt lat="45.7290362" lon="9.1089384"><ele>302.0</ele><time>2026-04-22T14:22:25.979Z</time></trkpt><trkpt lat="45.7290745" lon="9.1090776"><ele>302.0</ele><time>2026-04-22T14:22:26.98Z</time></trkpt><trkpt lat="45.7291106" lon="9.1092365"><ele>302.0</ele><time>2026-04-22T14:22:27.981Z</time></trkpt><trkpt lat="45.7291448" lon="9.1094132"><ele>302.0</ele><time>2026-04-22T14:22:28.979Z</time></trkpt><trkpt lat="45.7291801" lon="9.1096027"><ele>303.5</ele><time>2026-04-22T14:22:29.98Z</time></trkpt><trkpt lat="45.7292132" lon="9.1097876"><ele>305.0</ele><time>2026-04-22T14:22:30.981Z</time></trkpt><trkpt lat="45.7292427" lon="9.1099629"><ele>306.5</ele><time>2026-04-22T14:22:31.98Z</time></trkpt><trkpt lat="45.7292718" lon="9.1101288"><ele>308.0</ele><time>2026-04-22T14:22:32.981Z</time></trkpt><trkpt lat="45.7293042" lon="9.1102868"><ele>309.2</ele><time>2026-04-22T14:22:33.981Z</time></trkpt><trkpt lat="45.729342" lon="9.110439"><ele>310.4</ele><time>2026-04-22T14:22:34.979Z</time></trkpt><trkpt lat="45.7293878" lon="9.1105825"><ele>311.59999999999997</ele><time>2026-04-22T14:22:35.98Z</time></trkpt><trkpt lat="45.7294429" lon="9.1107127"><ele>312.8</ele><time>2026-04-22T14:22:36.981Z</time></trkpt><trkpt lat="45.729511" lon="9.1108381"><ele>314.0</ele><time>2026-04-22T14:22:37.98Z</time></trkpt><trkpt lat="45.7295904" lon="9.1109582"><ele>315.0</ele><time>2026-04-22T14:22:38.979Z</time></trkpt><trkpt lat="45.7296744" lon="9.1110786"><ele>316.0</ele><time>2026-04-22T14:22:39.98Z</time></trkpt><trkpt lat="45.729764" lon="9.1111924"><ele>317.0</ele><time>2026-04-22T14:22:40.979Z</time></trkpt><trkpt lat="45.7298528" lon="9.1112986"><ele>318.0</ele><time>2026-04-22T14:22:41.98Z</time></trkpt><trkpt lat="45.7299394" lon="9.1114058"><ele>318.0</ele><time>2026-04-22T14:22:42.979Z</time></trkpt><trkpt lat="45.7300148" lon="9.1115141"><ele>318.0</ele><time>2026-04-22T14:22:43.981Z</time></trkpt><trkpt lat="45.7300799" lon="9.1116249"><ele>318.0</ele><time>2026-04-22T14:22:44.98Z</time></trkpt><trkpt lat="45.7301388" lon="9.1117453"><ele>318.0</ele><time>2026-04-22T14:22:45.981Z</time></trkpt><trkpt lat="45.7301941" lon="9.1118796"><ele>318.0</ele><time>2026-04-22T14:22:46.979Z</time></trkpt><trkpt lat="45.730248" lon="9.1120263"><ele>318.75</ele><time>2026-04-22T14:22:47.981Z</time></trkpt><trkpt lat="45.7303022" lon="9.1121875"><ele>319.5</ele><time>2026-04-22T14:22:48.981Z</time></trkpt><trkpt lat="45.7303525" lon="9.1123407"><ele>320.25</ele><time>2026-04-22T14:22:49.98Z</time></trkpt><trkpt lat="45.7303987" lon="9.1124838"><ele>321.0</ele><time>2026-04-22T14:22:50.981Z</time></trkpt><trkpt lat="45.7304377" lon="9.1126255"><ele>321.6</ele><time>2026-04-22T14:22:51.981Z</time></trkpt><trkpt lat="45.7304585" lon="9.1127696"><ele>322.20000000000005</ele><time>2026-04-22T14:22:52.98Z</time></trkpt><trkpt lat="45.7304697" lon="9.112919"><ele>322.79999999999995</ele><time>2026-04-22T14:22:53.981Z</time></trkpt><trkpt lat="45.7304692" lon="9.11308"><ele>323.4</ele><time>2026-04-22T14:22:54.981Z</time></trkpt><trkpt lat="45.7304545" lon="9.1132571"><ele>324.0</ele><time>2026-04-22T14:22:55.98Z</time></trkpt><trkpt lat="45.7304343" lon="9.1134458"><ele>325.25</ele><time>2026-04-22T14:22:56.98Z</time></trkpt><trkpt lat="45.730412" lon="9.1136378"><ele>326.5</ele><time>2026-04-22T14:22:57.981Z</time></trkpt><trkpt lat="45.7303959" lon="9.1138141"><ele>327.75</ele><time>2026-04-22T14:22:58.981Z</time></trkpt><trkpt lat="45.7303929" lon="9.113984"><ele>329.0</ele><time>2026-04-22T14:22:59.98Z</time></trkpt><trkpt lat="45.7304001" lon="9.1141481"><ele>330.2</ele><time>2026-04-22T14:23:00.981Z</time></trkpt><trkpt lat="45.7304192" lon="9.1143022"><ele>331.4</ele><time>2026-04-22T14:23:01.981Z</time></trkpt><trkpt lat="45.7304504" lon="9.1144524"><ele>332.6</ele><time>2026-04-22T14:23:02.981Z</time></trkpt><trkpt lat="45.7304873" lon="9.1145991"><ele>333.8</ele><time>2026-04-22T14:23:03.98Z</time></trkpt><trkpt lat="45.7305267" lon="9.1147448"><ele>335.0</ele><time>2026-04-22T14:23:04.981Z</time></trkpt><trkpt lat="45.7305688" lon="9.1148906"><ele>335.0</ele><time>2026-04-22T14:23:05.98Z</time></trkpt><trkpt lat="45.7306097" lon="9.1150298"><ele>335.0</ele><time>2026-04-22T14:23:06.981Z</time></trkpt><trkpt lat="45.7306511" lon="9.1151581"><ele>335.0</ele><time>2026-04-22T14:23:07.98Z</time></trkpt><trkpt lat="45.7306909" lon="9.1152741"><ele>335.0</ele><time>2026-04-22T14:23:08.981Z</time></trkpt><trkpt lat="45.7307299" lon="9.1153795"><ele>335.0</ele><time>2026-04-22T14:23:09.98Z</time></trkpt><trkpt lat="45.7307642" lon="9.1154764"><ele>335.0</ele><time>2026-04-22T14:23:10.981Z</time></trkpt><trkpt lat="45.7307922" lon="9.1155615"><ele>335.0</ele><time>2026-04-22T14:23:11.98Z</time></trkpt><trkpt lat="45.7308321" lon="9.1156924"><ele>335.0</ele><time>2026-04-22T14:23:13.981Z</time></trkpt><trkpt lat="45.7308615" lon="9.1157888"><ele>335.0</ele><time>2026-04-22T14:23:16.981Z</time></trkpt><trkpt lat="45.7309049" lon="9.1159155"><ele>335.0</ele><time>2026-04-22T14:23:29.979Z</time></trkpt><trkpt lat="45.7309523" lon="9.1160485"><ele>335.0</ele><time>2026-04-22T14:23:31.979Z</time></trkpt><trkpt lat="45.7309835" lon="9.1161283"><ele>335.0</ele><time>2026-04-22T14:23:32.979Z</time></trkpt><trkpt lat="45.7310214" lon="9.11623"><ele>335.0</ele><time>2026-04-22T14:23:33.98Z</time></trkpt><trkpt lat="45.7310633" lon="9.1163584"><ele>335.0</ele><time>2026-04-22T14:23:34.98Z</time></trkpt><trkpt lat="45.731111" lon="9.1165001"><ele>335.0</ele><time>2026-04-22T14:23:35.979Z</time></trkpt><trkpt lat="45.7311578" lon="9.1166463"><ele>335.0</ele><time>2026-04-22T14:23:36.979Z</time></trkpt><trkpt lat="45.7312085" lon="9.116795"><ele>335.4</ele><time>2026-04-22T14:23:37.98Z</time></trkpt><trkpt lat="45.7312549" lon="9.1169411"><ele>335.8</ele><time>2026-04-22T14:23:38.979Z</time></trkpt><trkpt lat="45.731304" lon="9.1170867"><ele>336.20000000000005</ele><time>2026-04-22T14:23:39.979Z</time></trkpt><trkpt lat="45.7313513" lon="9.1172318"><ele>336.6</ele><time>2026-04-22T14:23:40.979Z</time></trkpt><trkpt lat="45.7314" lon="9.1173754"><ele>337.0</ele><time>2026-04-22T14:23:41.979Z</time></trkpt><trkpt lat="45.7314515" lon="9.1175192"><ele>337.20000000000005</ele><time>2026-04-22T14:23:42.98Z</time></trkpt><trkpt lat="45.7315033" lon="9.1176648"><ele>337.4</ele><time>2026-04-22T14:23:43.979Z</time></trkpt><trkpt lat="45.7315543" lon="9.1178087"><ele>337.6</ele><time>2026-04-22T14:23:44.98Z</time></trkpt><trkpt lat="45.731596" lon="9.1179524"><ele>337.79999999999995</ele><time>2026-04-22T14:23:45.98Z</time></trkpt><trkpt lat="45.7316446" lon="9.1180903"><ele>338.0</ele><time>2026-04-22T14:23:46.979Z</time></trkpt><trkpt lat="45.7317023" lon="9.1182294"><ele>339.0</ele><time>2026-04-22T14:23:47.979Z</time></trkpt><trkpt lat="45.7317658" lon="9.1183551"><ele>340.0</ele><time>2026-04-22T14:23:48.979Z</time></trkpt><trkpt lat="45.7318347" lon="9.1184719"><ele>341.0</ele><time>2026-04-22T14:23:49.979Z</time></trkpt><trkpt lat="45.7319093" lon="9.118588"><ele>342.0</ele><time>2026-04-22T14:23:50.98Z</time></trkpt><trkpt lat="45.7319873" lon="9.1187037"><ele>343.0</ele><time>2026-04-22T14:23:51.979Z</time></trkpt><trkpt lat="45.7320692" lon="9.1188213"><ele>343.2</ele><time>2026-04-22T14:23:52.98Z</time></trkpt><trkpt lat="45.7321499" lon="9.1189365"><ele>343.4</ele><time>2026-04-22T14:23:53.979Z</time></trkpt><trkpt lat="45.7322251" lon="9.1190462"><ele>343.59999999999997</ele><time>2026-04-22T14:23:54.979Z</time></trkpt><trkpt lat="45.7323056" lon="9.1191611"><ele>343.79999999999995</ele><time>2026-04-22T14:23:55.979Z</time></trkpt><trkpt lat="45.7323787" lon="9.1192697"><ele>344.0</ele><time>2026-04-22T14:23:56.979Z</time></trkpt><trkpt lat="45.7324499" lon="9.1193779"><ele>344.0</ele><time>2026-04-22T14:23:57.98Z</time></trkpt><trkpt lat="45.7325216" lon="9.1194903"><ele>344.0</ele><time>2026-04-22T14:23:58.98Z</time></trkpt><trkpt lat="45.7325958" lon="9.1196052"><ele>344.0</ele><time>2026-04-22T14:23:59.98Z</time></trkpt><trkpt lat="45.7326743" lon="9.1197217"><ele>344.0</ele><time>2026-04-22T14:24:00.979Z</time></trkpt><trkpt lat="45.7327511" lon="9.1198361"><ele>344.0</ele><time>2026-04-22T14:24:01.979Z</time></trkpt><trkpt lat="45.7328221" lon="9.1199497"><ele>344.25</ele><time>2026-04-22T14:24:02.98Z</time></trkpt><trkpt lat="45.732896" lon="9.1200793"><ele>344.5</ele><time>2026-04-22T14:24:03.978Z</time></trkpt><trkpt lat="45.7329647" lon="9.1202113"><ele>344.75</ele><time>2026-04-22T14:24:04.979Z</time></trkpt><trkpt lat="45.733032" lon="9.1203515"><ele>345.0</ele><time>2026-04-22T14:24:05.979Z</time></trkpt><trkpt lat="45.7330956" lon="9.1204927"><ele>345.0</ele><time>2026-04-22T14:24:06.979Z</time></trkpt><trkpt lat="45.7331596" lon="9.1206461"><ele>345.0</ele><time>2026-04-22T14:24:07.978Z</time></trkpt><trkpt lat="45.7332224" lon="9.1208059"><ele>345.0</ele><time>2026-04-22T14:24:08.979Z</time></trkpt><trkpt lat="45.7332813" lon="9.1209578"><ele>345.0</ele><time>2026-04-22T14:24:09.98Z</time></trkpt><trkpt lat="45.7333341" lon="9.121096"><ele>345.0</ele><time>2026-04-22T14:24:10.979Z</time></trkpt><trkpt lat="45.7333862" lon="9.12124"><ele>345.0</ele><time>2026-04-22T14:24:11.98Z</time></trkpt><trkpt lat="45.7334335" lon="9.1213757"><ele>345.0</ele><time>2026-04-22T14:24:12.979Z</time></trkpt><trkpt lat="45.7334809" lon="9.121509"><ele>345.0</ele><time>2026-04-22T14:24:13.979Z</time></trkpt><trkpt lat="45.7335297" lon="9.1216332"><ele>345.0</ele><time>2026-04-22T14:24:14.979Z</time></trkpt><trkpt lat="45.7335804" lon="9.1217554"><ele>345.0</ele><time>2026-04-22T14:24:15.979Z</time></trkpt><trkpt lat="45.7336271" lon="9.1218639"><ele>345.0</ele><time>2026-04-22T14:24:16.979Z</time></trkpt><trkpt lat="45.7336462" lon="9.1219805"><ele>345.0</ele><time>2026-04-22T14:24:18.98Z</time></trkpt><trkpt lat="45.7336439" lon="9.1221263"><ele>345.0</ele><time>2026-04-22T14:24:21.98Z</time></trkpt><trkpt lat="45.7336639" lon="9.1222701"><ele>345.0</ele><time>2026-04-22T14:24:23.979Z</time></trkpt><trkpt lat="45.7336822" lon="9.1223575"><ele>345.0</ele><time>2026-04-22T14:24:24.978Z</time></trkpt><trkpt lat="45.7337026" lon="9.1224559"><ele>345.8333333333333</ele><time>2026-04-22T14:24:25.979Z</time></trkpt><trkpt lat="45.7337154" lon="9.1225596"><ele>346.6666666666667</ele><time>2026-04-22T14:24:26.978Z</time></trkpt><trkpt lat="45.7337266" lon="9.1226714"><ele>347.5</ele><time>2026-04-22T14:24:27.979Z</time></trkpt><trkpt lat="45.7337224" lon="9.1227729"><ele>348.33333333333337</ele><time>2026-04-22T14:24:28.98Z</time></trkpt><trkpt lat="45.7337168" lon="9.1228679"><ele>349.1666666666667</ele><time>2026-04-22T14:24:29.979Z</time></trkpt><trkpt lat="45.7337095" lon="9.1229593"><ele>350.0</ele><time>2026-04-22T14:24:30.978Z</time></trkpt><trkpt lat="45.7336824" lon="9.1231595"><ele>350.33333333333337</ele><time>2026-04-22T14:24:32.979Z</time></trkpt><trkpt lat="45.733661" lon="9.1232678"><ele>350.6666666666667</ele><time>2026-04-22T14:24:33.979Z</time></trkpt><trkpt lat="45.7336443" lon="9.1233595"><ele>351.0</ele><time>2026-04-22T14:24:34.98Z</time></trkpt><trkpt lat="45.7336258" lon="9.1234513"><ele>351.3333333333333</ele><time>2026-04-22T14:24:35.98Z</time></trkpt><trkpt lat="45.7336426" lon="9.1235879"><ele>351.66666666666663</ele><time>2026-04-22T14:24:37.979Z</time></trkpt><trkpt lat="45.7337008" lon="9.1237098"><ele>352.0</ele><time>2026-04-22T14:24:39.979Z</time></trkpt><trkpt lat="45.7338076" lon="9.1238004"><ele>352.0</ele><time>2026-04-22T14:24:41.979Z</time></trkpt><trkpt lat="45.7338747" lon="9.1238385"><ele>352.0</ele><time>2026-04-22T14:24:42.979Z</time></trkpt><trkpt lat="45.7339489" lon="9.1238778"><ele>352.0</ele><time>2026-04-22T14:24:43.979Z</time></trkpt><trkpt lat="45.7340275" lon="9.123916"><ele>352.0</ele><time>2026-04-22T14:24:44.978Z</time></trkpt><trkpt lat="45.7341109" lon="9.123958"><ele>352.0</ele><time>2026-04-22T14:24:45.979Z</time></trkpt><trkpt lat="45.7341926" lon="9.1240024"><ele>352.0</ele><time>2026-04-22T14:24:46.98Z</time></trkpt><trkpt lat="45.7342597" lon="9.1240444"><ele>353.0</ele><time>2026-04-22T14:24:47.978Z</time></trkpt><trkpt lat="45.7343355" lon="9.1241171"><ele>354.0</ele><time>2026-04-22T14:24:48.98Z</time></trkpt><trkpt lat="45.7344149" lon="9.1241805"><ele>355.0</ele><time>2026-04-22T14:24:49.98Z</time></trkpt><trkpt lat="45.7344911" lon="9.1242454"><ele>356.0</ele><time>2026-04-22T14:24:50.98Z</time></trkpt><trkpt lat="45.7346109" lon="9.1243162"><ele>357.0</ele><time>2026-04-22T14:24:51.978Z</time></trkpt><trkpt lat="45.734721" lon="9.1243838"><ele>357.0</ele><time>2026-04-22T14:24:52.98Z</time></trkpt><trkpt lat="45.7347807" lon="9.1244452"><ele>357.0</ele><time>2026-04-22T14:24:53.979Z</time></trkpt><trkpt lat="45.7348423" lon="9.1245084"><ele>357.0</ele><time>2026-04-22T14:24:54.978Z</time></trkpt><trkpt lat="45.7348957" lon="9.1245904"><ele>357.0</ele><time>2026-04-22T14:24:55.979Z</time></trkpt><trkpt lat="45.7349683" lon="9.124674"><ele>357.0</ele><time>2026-04-22T14:24:56.979Z</time></trkpt><trkpt lat="45.7350389" lon="9.1247619"><ele>357.0</ele><time>2026-04-22T14:24:57.979Z</time></trkpt><trkpt lat="45.7351138" lon="9.1248505"><ele>357.8</ele><time>2026-04-22T14:24:58.978Z</time></trkpt><trkpt lat="45.7351856" lon="9.1249458"><ele>358.6</ele><time>2026-04-22T14:24:59.978Z</time></trkpt><trkpt lat="45.7352515" lon="9.1250544"><ele>359.40000000000003</ele><time>2026-04-22T14:25:00.979Z</time></trkpt><trkpt lat="45.7353166" lon="9.1251738"><ele>360.20000000000005</ele><time>2026-04-22T14:25:01.98Z</time></trkpt><trkpt lat="45.7353829" lon="9.125295"><ele>361.0</ele><time>2026-04-22T14:25:02.979Z</time></trkpt><trkpt lat="45.7354487" lon="9.1254197"><ele>360.0</ele><time>2026-04-22T14:25:03.978Z</time></trkpt><trkpt lat="45.735515" lon="9.1255417"><ele>359.0</ele><time>2026-04-22T14:25:04.979Z</time></trkpt><trkpt lat="45.7355807" lon="9.1256615"><ele>358.0</ele><time>2026-04-22T14:25:05.98Z</time></trkpt><trkpt lat="45.7356399" lon="9.1257732"><ele>357.0</ele><time>2026-04-22T14:25:06.979Z</time></trkpt><trkpt lat="45.7356946" lon="9.1258815"><ele>356.0</ele><time>2026-04-22T14:25:07.98Z</time></trkpt><trkpt lat="45.735747" lon="9.1259761"><ele>356.0</ele><time>2026-04-22T14:25:08.98Z</time></trkpt><trkpt lat="45.7358141" lon="9.126129"><ele>356.0</ele><time>2026-04-22T14:25:10.978Z</time></trkpt><trkpt lat="45.7358648" lon="9.1262372"><ele>356.0</ele><time>2026-04-22T14:25:12.979Z</time></trkpt><trkpt lat="45.735895" lon="9.1263164"><ele>356.0</ele><time>2026-04-22T14:25:14.978Z</time></trkpt><trkpt lat="45.7359392" lon="9.1264229"><ele>356.0</ele><time>2026-04-22T14:25:17.98Z</time></trkpt><trkpt lat="45.735968" lon="9.126507"><ele>356.0</ele><time>2026-04-22T14:25:20.98Z</time></trkpt><trkpt lat="45.7359954" lon="9.1265908"><ele>356.6</ele><time>2026-04-22T14:25:25.979Z</time></trkpt><trkpt lat="45.736014" lon="9.1266895"><ele>357.20000000000005</ele><time>2026-04-22T14:25:34.98Z</time></trkpt><trkpt lat="45.7360427" lon="9.1267945"><ele>357.79999999999995</ele><time>2026-04-22T14:25:36.98Z</time></trkpt><trkpt lat="45.736062" lon="9.1269294"><ele>358.4</ele><time>2026-04-22T14:25:38.979Z</time></trkpt><trkpt lat="45.7360862" lon="9.127084"><ele>359.0</ele><time>2026-04-22T14:25:40.98Z</time></trkpt><trkpt lat="45.7361169" lon="9.1272411"><ele>358.5</ele><time>2026-04-22T14:25:42.979Z</time></trkpt><trkpt lat="45.7361624" lon="9.127403"><ele>358.0</ele><time>2026-04-22T14:25:44.978Z</time></trkpt><trkpt lat="45.7362091" lon="9.1275435"><ele>357.5</ele><time>2026-04-22T14:25:46.979Z</time></trkpt><trkpt lat="45.7362389" lon="9.1276267"><ele>357.0</ele><time>2026-04-22T14:25:48.979Z</time></trkpt><trkpt lat="45.7363059" lon="9.1276738"><ele>356.5</ele><time>2026-04-22T14:26:21.98Z</time></trkpt><trkpt lat="45.7363475" lon="9.1277688"><ele>356.0</ele><time>2026-04-22T14:26:23.979Z</time></trkpt><trkpt lat="45.7363483" lon="9.12789"><ele>356.0</ele><time>2026-04-22T14:26:25.979Z</time></trkpt><trkpt lat="45.7362837" lon="9.1280379"><ele>356.0</ele><time>2026-04-22T14:26:27.978Z</time></trkpt><trkpt lat="45.736242" lon="9.1281059"><ele>356.0</ele><time>2026-04-22T14:26:28.979Z</time></trkpt><trkpt lat="45.7361845" lon="9.1281758"><ele>356.0</ele><time>2026-04-22T14:26:29.979Z</time></trkpt><trkpt lat="45.7361097" lon="9.128238"><ele>356.0</ele><time>2026-04-22T14:26:30.978Z</time></trkpt><trkpt lat="45.7360441" lon="9.1283031"><ele>356.0</ele><time>2026-04-22T14:26:31.98Z</time></trkpt><trkpt lat="45.7359858" lon="9.1283662"><ele>356.1666666666667</ele><time>2026-04-22T14:26:32.979Z</time></trkpt><trkpt lat="45.7359215" lon="9.1284313"><ele>356.33333333333337</ele><time>2026-04-22T14:26:33.978Z</time></trkpt><trkpt lat="45.7358657" lon="9.1284925"><ele>356.5</ele><time>2026-04-22T14:26:34.979Z</time></trkpt><trkpt lat="45.7358084" lon="9.1285488"><ele>356.6666666666667</ele><time>2026-04-22T14:26:35.98Z</time></trkpt><trkpt lat="45.7357123" lon="9.1286455"><ele>356.8333333333333</ele><time>2026-04-22T14:26:37.979Z</time></trkpt><trkpt lat="45.7356478" lon="9.1287144"><ele>357.0</ele><time>2026-04-22T14:26:39.979Z</time></trkpt><trkpt lat="45.7355694" lon="9.1287564"><ele>357.0</ele><time>2026-04-22T14:27:12.979Z</time></trkpt><trkpt lat="45.7355138" lon="9.1288124"><ele>357.0</ele><time>2026-04-22T14:27:23.979Z</time></trkpt><trkpt lat="45.7354525" lon="9.1288577"><ele>357.0</ele><time>2026-04-22T14:27:25.98Z</time></trkpt><trkpt lat="45.7353865" lon="9.1289321"><ele>357.0</ele><time>2026-04-22T14:27:27.979Z</time></trkpt><trkpt lat="45.735309" lon="9.1290177"><ele>357.0</ele><time>2026-04-22T14:27:29.98Z</time></trkpt><trkpt lat="45.7352124" lon="9.1291133"><ele>357.0</ele><time>2026-04-22T14:27:31.98Z</time></trkpt><trkpt lat="45.7351003" lon="9.1291981"><ele>355.5</ele><time>2026-04-22T14:27:33.979Z</time></trkpt><trkpt lat="45.734999" lon="9.1292536"><ele>354.0</ele><time>2026-04-22T14:27:35.979Z</time></trkpt><trkpt lat="45.7349216" lon="9.1292896"><ele>352.5</ele><time>2026-04-22T14:27:37.979Z</time></trkpt><trkpt lat="45.734854" lon="9.129322"><ele>351.0</ele><time>2026-04-22T14:27:40.979Z</time></trkpt><trkpt lat="45.7347835" lon="9.1293833"><ele>349.5</ele><time>2026-04-22T14:27:48.978Z</time></trkpt><trkpt lat="45.7346933" lon="9.1294465"><ele>348.0</ele><time>2026-04-22T14:27:50.978Z</time></trkpt><trkpt lat="45.7346238" lon="9.1295526"><ele>348.0</ele><time>2026-04-22T14:27:52.98Z</time></trkpt><trkpt lat="45.7345574" lon="9.1296941"><ele>348.0</ele><time>2026-04-22T14:27:54.979Z</time></trkpt><trkpt lat="45.7345027" lon="9.1297944"><ele>348.0</ele><time>2026-04-22T14:27:55.978Z</time></trkpt><trkpt lat="45.7344545" lon="9.1298808"><ele>348.0</ele><time>2026-04-22T14:27:56.978Z</time></trkpt><trkpt lat="45.7344055" lon="9.1299785"><ele>348.0</ele><time>2026-04-22T14:27:57.978Z</time></trkpt><trkpt lat="45.7343515" lon="9.1300886"><ele>346.79999999999995</ele><time>2026-04-22T14:27:58.978Z</time></trkpt><trkpt lat="45.7342899" lon="9.1301996"><ele>345.6</ele><time>2026-04-22T14:27:59.978Z</time></trkpt><trkpt lat="45.7342303" lon="9.1303137"><ele>344.4</ele><time>2026-04-22T14:28:00.979Z</time></trkpt><trkpt lat="45.7341623" lon="9.1304134"><ele>343.20000000000005</ele><time>2026-04-22T14:28:01.978Z</time></trkpt><trkpt lat="45.7340833" lon="9.1305042"><ele>342.0</ele><time>2026-04-22T14:28:02.978Z</time></trkpt><trkpt lat="45.7340014" lon="9.1305963"><ele>342.0</ele><time>2026-04-22T14:28:03.978Z</time></trkpt><trkpt lat="45.7339215" lon="9.1306934"><ele>342.0</ele><time>2026-04-22T14:28:04.978Z</time></trkpt><trkpt lat="45.733833" lon="9.1307822"><ele>342.0</ele><time>2026-04-22T14:28:05.979Z</time></trkpt><trkpt lat="45.7337462" lon="9.1308779"><ele>342.0</ele><time>2026-04-22T14:28:06.978Z</time></trkpt><trkpt lat="45.7336596" lon="9.1309666"><ele>342.0</ele><time>2026-04-22T14:28:07.977Z</time></trkpt><trkpt lat="45.7335757" lon="9.1310516"><ele>341.0</ele><time>2026-04-22T14:28:08.977Z</time></trkpt><trkpt lat="45.7334971" lon="9.131138"><ele>340.0</ele><time>2026-04-22T14:28:09.979Z</time></trkpt><trkpt lat="45.7334182" lon="9.1312227"><ele>339.0</ele><time>2026-04-22T14:28:10.979Z</time></trkpt><trkpt lat="45.7333353" lon="9.1313022"><ele>338.0</ele><time>2026-04-22T14:28:11.977Z</time></trkpt><trkpt lat="45.7332542" lon="9.1313891"><ele>337.0</ele><time>2026-04-22T14:28:12.978Z</time></trkpt><trkpt lat="45.7331724" lon="9.131479"><ele>336.6</ele><time>2026-04-22T14:28:13.979Z</time></trkpt><trkpt lat="45.7330904" lon="9.1315734"><ele>336.20000000000005</ele><time>2026-04-22T14:28:14.978Z</time></trkpt><trkpt lat="45.7330032" lon="9.1316732"><ele>335.8</ele><time>2026-04-22T14:28:15.977Z</time></trkpt><trkpt lat="45.7329119" lon="9.1317691"><ele>335.4</ele><time>2026-04-22T14:28:16.979Z</time></trkpt><trkpt lat="45.7328206" lon="9.1318679"><ele>335.0</ele><time>2026-04-22T14:28:17.977Z</time></trkpt><trkpt lat="45.7327322" lon="9.131963"><ele>334.4</ele><time>2026-04-22T14:28:18.977Z</time></trkpt><trkpt lat="45.7326475" lon="9.1320533"><ele>333.8</ele><time>2026-04-22T14:28:19.979Z</time></trkpt><trkpt lat="45.7325616" lon="9.1321442"><ele>333.20000000000005</ele><time>2026-04-22T14:28:20.979Z</time></trkpt><trkpt lat="45.732479" lon="9.1322333"><ele>332.6</ele><time>2026-04-22T14:28:21.978Z</time></trkpt><trkpt lat="45.732395" lon="9.1323289"><ele>332.0</ele><time>2026-04-22T14:28:22.979Z</time></trkpt><trkpt lat="45.7323093" lon="9.1324236"><ele>331.75</ele><time>2026-04-22T14:28:23.979Z</time></trkpt><trkpt lat="45.7322209" lon="9.1325236"><ele>331.5</ele><time>2026-04-22T14:28:24.978Z</time></trkpt><trkpt lat="45.7321275" lon="9.1326232"><ele>331.25</ele><time>2026-04-22T14:28:25.978Z</time></trkpt><trkpt lat="45.7320348" lon="9.1327249"><ele>331.0</ele><time>2026-04-22T14:28:26.978Z</time></trkpt><trkpt lat="45.7319399" lon="9.132829"><ele>330.5</ele><time>2026-04-22T14:28:27.977Z</time></trkpt><trkpt lat="45.7318432" lon="9.1329344"><ele>330.0</ele><time>2026-04-22T14:28:28.977Z</time></trkpt><trkpt lat="45.7317473" lon="9.1330434"><ele>329.5</ele><time>2026-04-22T14:28:29.979Z</time></trkpt><trkpt lat="45.7316535" lon="9.1331536"><ele>329.0</ele><time>2026-04-22T14:28:30.978Z</time></trkpt><trkpt lat="45.7315594" lon="9.1332585"><ele>329.0</ele><time>2026-04-22T14:28:31.978Z</time></trkpt><trkpt lat="45.7314673" lon="9.1333612"><ele>329.0</ele><time>2026-04-22T14:28:32.979Z</time></trkpt><trkpt lat="45.7313773" lon="9.1334616"><ele>329.0</ele><time>2026-04-22T14:28:33.977Z</time></trkpt><trkpt lat="45.7312875" lon="9.1335601"><ele>329.0</ele><time>2026-04-22T14:28:34.978Z</time></trkpt><trkpt lat="45.7311988" lon="9.1336571"><ele>329.0</ele><time>2026-04-22T14:28:35.977Z</time></trkpt><trkpt lat="45.7311132" lon="9.1337547"><ele>329.0</ele><time>2026-04-22T14:28:36.978Z</time></trkpt><trkpt lat="45.7310297" lon="9.1338503"><ele>329.0</ele><time>2026-04-22T14:28:37.977Z</time></trkpt><trkpt lat="45.7309483" lon="9.1339406"><ele>329.0</ele><time>2026-04-22T14:28:38.979Z</time></trkpt><trkpt lat="45.7308776" lon="9.134019"><ele>329.0</ele><time>2026-04-22T14:28:39.979Z</time></trkpt><trkpt lat="45.7308169" lon="9.1340837"><ele>328.6666666666667</ele><time>2026-04-22T14:28:40.978Z</time></trkpt><trkpt lat="45.7307572" lon="9.1341444"><ele>328.33333333333337</ele><time>2026-04-22T14:28:41.978Z</time></trkpt><trkpt lat="45.7307076" lon="9.134201"><ele>328.0</ele><time>2026-04-22T14:28:42.978Z</time></trkpt><trkpt lat="45.7306306" lon="9.1342847"><ele>327.6666666666667</ele><time>2026-04-22T14:28:44.979Z</time></trkpt><trkpt lat="45.7305638" lon="9.1343496"><ele>327.3333333333333</ele><time>2026-04-22T14:28:46.978Z</time></trkpt><trkpt lat="45.7304866" lon="9.1343927"><ele>327.0</ele><time>2026-04-22T14:28:48.979Z</time></trkpt><trkpt lat="45.7303915" lon="9.1344726"><ele>327.0</ele><time>2026-04-22T14:28:50.979Z</time></trkpt><trkpt lat="45.7303038" lon="9.1346141"><ele>327.0</ele><time>2026-04-22T14:28:52.978Z</time></trkpt><trkpt lat="45.73025" lon="9.1346861"><ele>327.0</ele><time>2026-04-22T14:28:53.978Z</time></trkpt><trkpt lat="45.7301914" lon="9.134757"><ele>327.0</ele><time>2026-04-22T14:28:54.978Z</time></trkpt><trkpt lat="45.7301313" lon="9.1348306"><ele>327.0</ele><time>2026-04-22T14:28:55.979Z</time></trkpt><trkpt lat="45.7300656" lon="9.134906"><ele>327.0</ele><time>2026-04-22T14:28:56.977Z</time></trkpt><trkpt lat="45.7299984" lon="9.1349835"><ele>326.6</ele><time>2026-04-22T14:28:57.977Z</time></trkpt><trkpt lat="45.7299295" lon="9.1350666"><ele>326.20000000000005</ele><time>2026-04-22T14:28:58.977Z</time></trkpt><trkpt lat="45.7298583" lon="9.1351549"><ele>325.8</ele><time>2026-04-22T14:28:59.978Z</time></trkpt><trkpt lat="45.7297824" lon="9.1352414"><ele>325.4</ele><time>2026-04-22T14:29:00.978Z</time></trkpt><trkpt lat="45.7297038" lon="9.1353303"><ele>325.0</ele><time>2026-04-22T14:29:01.977Z</time></trkpt><trkpt lat="45.7296228" lon="9.1354226"><ele>325.0</ele><time>2026-04-22T14:29:02.977Z</time></trkpt><trkpt lat="45.7295382" lon="9.1355151"><ele>325.0</ele><time>2026-04-22T14:29:03.979Z</time></trkpt><trkpt lat="45.7294519" lon="9.1356105"><ele>325.0</ele><time>2026-04-22T14:29:04.978Z</time></trkpt><trkpt lat="45.7293642" lon="9.1357073"><ele>325.0</ele><time>2026-04-22T14:29:05.977Z</time></trkpt><trkpt lat="45.7292763" lon="9.1358044"><ele>325.0</ele><time>2026-04-22T14:29:06.979Z</time></trkpt><trkpt lat="45.7291917" lon="9.135906"><ele>324.75</ele><time>2026-04-22T14:29:07.979Z</time></trkpt><trkpt lat="45.7291103" lon="9.1360169"><ele>324.5</ele><time>2026-04-22T14:29:08.979Z</time></trkpt><trkpt lat="45.7290345" lon="9.1361374"><ele>324.25</ele><time>2026-04-22T14:29:09.978Z</time></trkpt><trkpt lat="45.7289643" lon="9.1362673"><ele>324.0</ele><time>2026-04-22T14:29:10.978Z</time></trkpt><trkpt lat="45.7288994" lon="9.1364029"><ele>324.0</ele><time>2026-04-22T14:29:11.979Z</time></trkpt><trkpt lat="45.728837" lon="9.1365473"><ele>324.0</ele><time>2026-04-22T14:29:12.979Z</time></trkpt><trkpt lat="45.7287745" lon="9.1366956"><ele>324.0</ele><time>2026-04-22T14:29:13.978Z</time></trkpt><trkpt lat="45.7287107" lon="9.1368456"><ele>324.0</ele><time>2026-04-22T14:29:14.978Z</time></trkpt><trkpt lat="45.7286481" lon="9.1370001"><ele>323.75</ele><time>2026-04-22T14:29:15.978Z</time></trkpt><trkpt lat="45.7285866" lon="9.1371531"><ele>323.5</ele><time>2026-04-22T14:29:16.979Z</time></trkpt><trkpt lat="45.7285281" lon="9.1372994"><ele>323.25</ele><time>2026-04-22T14:29:17.979Z</time></trkpt><trkpt lat="45.728472" lon="9.1374382"><ele>323.0</ele><time>2026-04-22T14:29:18.978Z</time></trkpt><trkpt lat="45.7284176" lon="9.1375724"><ele>322.79999999999995</ele><time>2026-04-22T14:29:19.978Z</time></trkpt><trkpt lat="45.7283636" lon="9.1377043"><ele>322.6</ele><time>2026-04-22T14:29:20.978Z</time></trkpt><trkpt lat="45.7283107" lon="9.1378324"><ele>322.4</ele><time>2026-04-22T14:29:21.979Z</time></trkpt><trkpt lat="45.7282586" lon="9.1379588"><ele>322.20000000000005</ele><time>2026-04-22T14:29:22.978Z</time></trkpt><trkpt lat="45.7282062" lon="9.138084"><ele>322.0</ele><time>2026-04-22T14:29:23.978Z</time></trkpt><trkpt lat="45.7281533" lon="9.1382093"><ele>322.40000000000003</ele><time>2026-04-22T14:29:24.978Z</time></trkpt><trkpt lat="45.7281009" lon="9.1383353"><ele>322.8</ele><time>2026-04-22T14:29:25.978Z</time></trkpt><trkpt lat="45.7280488" lon="9.1384621"><ele>323.2</ele><time>2026-04-22T14:29:26.978Z</time></trkpt><trkpt lat="45.727996" lon="9.1385907"><ele>323.6</ele><time>2026-04-22T14:29:27.978Z</time></trkpt><trkpt lat="45.7279418" lon="9.1387188"><ele>324.0</ele><time>2026-04-22T14:29:28.979Z</time></trkpt><trkpt lat="45.7278874" lon="9.1388485"><ele>324.0</ele><time>2026-04-22T14:29:29.979Z</time></trkpt><trkpt lat="45.7278327" lon="9.1389778"><ele>324.0</ele><time>2026-04-22T14:29:30.978Z</time></trkpt><trkpt lat="45.7277798" lon="9.1391046"><ele>324.0</ele><time>2026-04-22T14:29:31.979Z</time></trkpt><trkpt lat="45.7277288" lon="9.1392298"><ele>324.0</ele><time>2026-04-22T14:29:32.977Z</time></trkpt><trkpt lat="45.7276766" lon="9.1393523"><ele>324.0</ele><time>2026-04-22T14:29:33.978Z</time></trkpt><trkpt lat="45.7276259" lon="9.1394752"><ele>323.79999999999995</ele><time>2026-04-22T14:29:34.979Z</time></trkpt><trkpt lat="45.7275749" lon="9.1395977"><ele>323.59999999999997</ele><time>2026-04-22T14:29:35.979Z</time></trkpt><trkpt lat="45.7275246" lon="9.1397191"><ele>323.4</ele><time>2026-04-22T14:29:36.978Z</time></trkpt><trkpt lat="45.7274749" lon="9.1398418"><ele>323.2</ele><time>2026-04-22T14:29:37.978Z</time></trkpt><trkpt lat="45.7274246" lon="9.1399635"><ele>323.0</ele><time>2026-04-22T14:29:38.978Z</time></trkpt><trkpt lat="45.7273739" lon="9.140084"><ele>323.0</ele><time>2026-04-22T14:29:39.977Z</time></trkpt><trkpt lat="45.727323" lon="9.1402059"><ele>323.0</ele><time>2026-04-22T14:29:40.978Z</time></trkpt><trkpt lat="45.7272723" lon="9.1403275"><ele>323.0</ele><time>2026-04-22T14:29:41.978Z</time></trkpt><trkpt lat="45.7272232" lon="9.140448"><ele>323.0</ele><time>2026-04-22T14:29:42.978Z</time></trkpt><trkpt lat="45.7271752" lon="9.1405602"><ele>323.0</ele><time>2026-04-22T14:29:43.979Z</time></trkpt><trkpt lat="45.7271302" lon="9.1406666"><ele>323.1666666666667</ele><time>2026-04-22T14:29:44.978Z</time></trkpt><trkpt lat="45.7270882" lon="9.1407662"><ele>323.33333333333337</ele><time>2026-04-22T14:29:45.978Z</time></trkpt><trkpt lat="45.7270484" lon="9.140861"><ele>323.5</ele><time>2026-04-22T14:29:46.978Z</time></trkpt><trkpt lat="45.7270085" lon="9.1409556"><ele>323.6666666666667</ele><time>2026-04-22T14:29:47.979Z</time></trkpt><trkpt lat="45.7269692" lon="9.1410508"><ele>323.8333333333333</ele><time>2026-04-22T14:29:48.977Z</time></trkpt><trkpt lat="45.7269302" lon="9.1411453"><ele>324.0</ele><time>2026-04-22T14:29:49.978Z</time></trkpt><trkpt lat="45.7268918" lon="9.14124"><ele>323.5</ele><time>2026-04-22T14:29:50.977Z</time></trkpt><trkpt lat="45.726854" lon="9.1413359"><ele>323.0</ele><time>2026-04-22T14:29:51.977Z</time></trkpt><trkpt lat="45.7268077" lon="9.1414415"><ele>322.5</ele><time>2026-04-22T14:29:54.979Z</time></trkpt><trkpt lat="45.7267658" lon="9.1415276"><ele>322.0</ele><time>2026-04-22T14:29:57.979Z</time></trkpt><trkpt lat="45.7267276" lon="9.141614"><ele>321.5</ele><time>2026-04-22T14:29:59.977Z</time></trkpt><trkpt lat="45.7266942" lon="9.141693"><ele>321.0</ele><time>2026-04-22T14:30:01.978Z</time></trkpt><trkpt lat="45.7266472" lon="9.1417946"><ele>321.0</ele><time>2026-04-22T14:30:05.977Z</time></trkpt><trkpt lat="45.7266071" lon="9.1418717"><ele>321.0</ele><time>2026-04-22T14:30:07.978Z</time></trkpt><trkpt lat="45.7265441" lon="9.1419655"><ele>321.0</ele><time>2026-04-22T14:30:09.978Z</time></trkpt><trkpt lat="45.7264972" lon="9.1421075"><ele>321.0</ele><time>2026-04-22T14:30:11.979Z</time></trkpt><trkpt lat="45.7264479" lon="9.1422589"><ele>321.0</ele><time>2026-04-22T14:30:13.977Z</time></trkpt><trkpt lat="45.7263931" lon="9.142395"><ele>321.75</ele><time>2026-04-22T14:30:15.978Z</time></trkpt><trkpt lat="45.7263363" lon="9.1425367"><ele>322.5</ele><time>2026-04-22T14:30:17.979Z</time></trkpt><trkpt lat="45.7262759" lon="9.1426888"><ele>323.25</ele><time>2026-04-22T14:30:19.979Z</time></trkpt><trkpt lat="45.7262114" lon="9.1428436"><ele>324.0</ele><time>2026-04-22T14:30:21.978Z</time></trkpt><trkpt lat="45.7261442" lon="9.142995"><ele>324.0</ele><time>2026-04-22T14:30:23.978Z</time></trkpt><trkpt lat="45.726076" lon="9.1431242"><ele>324.0</ele><time>2026-04-22T14:30:25.978Z</time></trkpt><trkpt lat="45.7260106" lon="9.1432288"><ele>324.0</ele><time>2026-04-22T14:30:27.978Z</time></trkpt><trkpt lat="45.7259642" lon="9.1432937"><ele>324.0</ele><time>2026-04-22T14:30:29.978Z</time></trkpt><trkpt lat="45.7259164" lon="9.1433608"><ele>324.0</ele><time>2026-04-22T14:30:31.979Z</time></trkpt><trkpt lat="45.7258584" lon="9.1434302"><ele>324.0</ele><time>2026-04-22T14:30:33.978Z</time></trkpt><trkpt lat="45.725786" lon="9.1435014"><ele>322.4</ele><time>2026-04-22T14:30:36.979Z</time></trkpt><trkpt lat="45.7257188" lon="9.1435711"><ele>320.79999999999995</ele><time>2026-04-22T14:30:38.979Z</time></trkpt><trkpt lat="45.725687" lon="9.1436712"><ele>319.20000000000005</ele><time>2026-04-22T14:30:40.979Z</time></trkpt><trkpt lat="45.725705" lon="9.1437792"><ele>317.6</ele><time>2026-04-22T14:30:42.979Z</time></trkpt><trkpt lat="45.7257909" lon="9.143879"><ele>316.0</ele><time>2026-04-22T14:30:44.979Z</time></trkpt><trkpt lat="45.7258957" lon="9.1439787"><ele>316.0</ele><time>2026-04-22T14:30:46.978Z</time></trkpt><trkpt lat="45.7259435" lon="9.1440506"><ele>316.0</ele><time>2026-04-22T14:30:47.979Z</time></trkpt><trkpt lat="45.7259896" lon="9.1441434"><ele>316.0</ele><time>2026-04-22T14:30:48.978Z</time></trkpt><trkpt lat="45.7260424" lon="9.1442411"><ele>316.0</ele><time>2026-04-22T14:30:49.979Z</time></trkpt><trkpt lat="45.7260969" lon="9.1443501"><ele>316.0</ele><time>2026-04-22T14:30:50.978Z</time></trkpt><trkpt lat="45.7261545" lon="9.1444654"><ele>316.0</ele><time>2026-04-22T14:30:51.979Z</time></trkpt><trkpt lat="45.726212" lon="9.1445853"><ele>317.20000000000005</ele><time>2026-04-22T14:30:52.979Z</time></trkpt><trkpt lat="45.7262713" lon="9.1447042"><ele>318.40000000000003</ele><time>2026-04-22T14:30:53.979Z</time></trkpt><trkpt lat="45.7263336" lon="9.1448215"><ele>319.6</ele><time>2026-04-22T14:30:54.977Z</time></trkpt><trkpt lat="45.7263958" lon="9.1449387"><ele>320.8</ele><time>2026-04-22T14:30:55.977Z</time></trkpt><trkpt lat="45.7264642" lon="9.1450495"><ele>322.0</ele><time>2026-04-22T14:30:56.978Z</time></trkpt><trkpt lat="45.7265398" lon="9.1451558"><ele>322.20000000000005</ele><time>2026-04-22T14:30:57.979Z</time></trkpt><trkpt lat="45.7266217" lon="9.1452567"><ele>322.4</ele><time>2026-04-22T14:30:58.977Z</time></trkpt><trkpt lat="45.7267094" lon="9.1453552"><ele>322.6</ele><time>2026-04-22T14:30:59.978Z</time></trkpt><trkpt lat="45.7268005" lon="9.1454509"><ele>322.79999999999995</ele><time>2026-04-22T14:31:00.978Z</time></trkpt><trkpt lat="45.7268963" lon="9.1455464"><ele>323.0</ele><time>2026-04-22T14:31:01.978Z</time></trkpt><trkpt lat="45.7269929" lon="9.1456422"><ele>322.75</ele><time>2026-04-22T14:31:02.978Z</time></trkpt><trkpt lat="45.7270907" lon="9.1457413"><ele>322.5</ele><time>2026-04-22T14:31:03.977Z</time></trkpt><trkpt lat="45.727187" lon="9.1458383"><ele>322.25</ele><time>2026-04-22T14:31:04.978Z</time></trkpt><trkpt lat="45.7272819" lon="9.145934"><ele>322.0</ele><time>2026-04-22T14:31:05.978Z</time></trkpt><trkpt lat="45.7273755" lon="9.1460321"><ele>322.0</ele><time>2026-04-22T14:31:06.978Z</time></trkpt><trkpt lat="45.7274687" lon="9.1461343"><ele>322.0</ele><time>2026-04-22T14:31:07.979Z</time></trkpt><trkpt lat="45.7275644" lon="9.1462329"><ele>322.0</ele><time>2026-04-22T14:31:08.978Z</time></trkpt><trkpt lat="45.7276604" lon="9.1463308"><ele>322.0</ele><time>2026-04-22T14:31:09.978Z</time></trkpt><trkpt lat="45.7277575" lon="9.146427"><ele>322.20000000000005</ele><time>2026-04-22T14:31:10.979Z</time></trkpt><trkpt lat="45.7278509" lon="9.1465223"><ele>322.4</ele><time>2026-04-22T14:31:11.978Z</time></trkpt><trkpt lat="45.7279417" lon="9.1466186"><ele>322.6</ele><time>2026-04-22T14:31:12.979Z</time></trkpt><trkpt lat="45.7280258" lon="9.1467079"><ele>322.79999999999995</ele><time>2026-04-22T14:31:13.979Z</time></trkpt><trkpt lat="45.7280953" lon="9.146784"><ele>323.0</ele><time>2026-04-22T14:31:14.978Z</time></trkpt><trkpt lat="45.7281567" lon="9.1468512"><ele>322.7142857142857</ele><time>2026-04-22T14:31:15.978Z</time></trkpt><trkpt lat="45.7282129" lon="9.1469095"><ele>322.42857142857144</ele><time>2026-04-22T14:31:16.978Z</time></trkpt><trkpt lat="45.7282678" lon="9.1469619"><ele>322.1428571428571</ele><time>2026-04-22T14:31:17.978Z</time></trkpt><trkpt lat="45.7283263" lon="9.1470134"><ele>321.8571428571429</ele><time>2026-04-22T14:31:18.978Z</time></trkpt><trkpt lat="45.7283844" lon="9.1470703"><ele>321.57142857142856</ele><time>2026-04-22T14:31:19.979Z</time></trkpt><trkpt lat="45.7284456" lon="9.1471288"><ele>321.2857142857143</ele><time>2026-04-22T14:31:20.977Z</time></trkpt><trkpt lat="45.7285109" lon="9.1471892"><ele>321.0</ele><time>2026-04-22T14:31:21.978Z</time></trkpt><trkpt lat="45.7285769" lon="9.1472559"><ele>321.6</ele><time>2026-04-22T14:31:22.977Z</time></trkpt><trkpt lat="45.7286443" lon="9.1473282"><ele>322.20000000000005</ele><time>2026-04-22T14:31:23.978Z</time></trkpt><trkpt lat="45.7287145" lon="9.1474037"><ele>322.79999999999995</ele><time>2026-04-22T14:31:24.978Z</time></trkpt><trkpt lat="45.7287864" lon="9.1474817"><ele>323.4</ele><time>2026-04-22T14:31:25.979Z</time></trkpt><trkpt lat="45.7288602" lon="9.1475624"><ele>324.0</ele><time>2026-04-22T14:31:26.979Z</time></trkpt><trkpt lat="45.7289366" lon="9.1476457"><ele>324.0</ele><time>2026-04-22T14:31:27.979Z</time></trkpt><trkpt lat="45.7290138" lon="9.1477287"><ele>324.0</ele><time>2026-04-22T14:31:28.978Z</time></trkpt><trkpt lat="45.7290896" lon="9.1478132"><ele>324.0</ele><time>2026-04-22T14:31:29.979Z</time></trkpt><trkpt lat="45.7291625" lon="9.147896"><ele>324.0</ele><time>2026-04-22T14:31:30.978Z</time></trkpt><trkpt lat="45.729232" lon="9.147974"><ele>324.0</ele><time>2026-04-22T14:31:31.977Z</time></trkpt><trkpt lat="45.7292998" lon="9.1480526"><ele>324.0</ele><time>2026-04-22T14:31:32.978Z</time></trkpt><trkpt lat="45.7293671" lon="9.1481256"><ele>324.0</ele><time>2026-04-22T14:31:33.978Z</time></trkpt><trkpt lat="45.7294347" lon="9.1481954"><ele>324.0</ele><time>2026-04-22T14:31:34.978Z</time></trkpt><trkpt lat="45.7294988" lon="9.1482636"><ele>324.0</ele><time>2026-04-22T14:31:35.979Z</time></trkpt><trkpt lat="45.7295587" lon="9.1483252"><ele>324.0</ele><time>2026-04-22T14:31:36.977Z</time></trkpt><trkpt lat="45.7296151" lon="9.1483879"><ele>324.0</ele><time>2026-04-22T14:31:37.977Z</time></trkpt><trkpt lat="45.729671" lon="9.148448"><ele>324.14285714285717</ele><time>2026-04-22T14:31:38.977Z</time></trkpt><trkpt lat="45.7297278" lon="9.1485077"><ele>324.2857142857143</ele><time>2026-04-22T14:31:39.979Z</time></trkpt><trkpt lat="45.7297841" lon="9.1485706"><ele>324.42857142857144</ele><time>2026-04-22T14:31:40.978Z</time></trkpt><trkpt lat="45.7298402" lon="9.1486358"><ele>324.57142857142856</ele><time>2026-04-22T14:31:41.978Z</time></trkpt><trkpt lat="45.7298967" lon="9.1487007"><ele>324.7142857142857</ele><time>2026-04-22T14:31:42.978Z</time></trkpt><trkpt lat="45.7299491" lon="9.1487544"><ele>324.85714285714283</ele><time>2026-04-22T14:31:43.979Z</time></trkpt><trkpt lat="45.7300245" lon="9.1488346"><ele>325.0</ele><time>2026-04-22T14:31:45.978Z</time></trkpt><trkpt lat="45.7300775" lon="9.1488918"><ele>325.0</ele><time>2026-04-22T14:31:47.978Z</time></trkpt><trkpt lat="45.7301275" lon="9.1489575"><ele>325.0</ele><time>2026-04-22T14:31:51.978Z</time></trkpt><trkpt lat="45.7301854" lon="9.1490342"><ele>325.0</ele><time>2026-04-22T14:31:59.978Z</time></trkpt><trkpt lat="45.7302507" lon="9.1491207"><ele>325.0</ele><time>2026-04-22T14:32:01.978Z</time></trkpt><trkpt lat="45.730316" lon="9.1491767"><ele>325.0</ele><time>2026-04-22T14:32:03.978Z</time></trkpt><trkpt lat="45.7303971" lon="9.1492576"><ele>325.0</ele><time>2026-04-22T14:32:06.978Z</time></trkpt><trkpt lat="45.7304712" lon="9.1493332"><ele>325.2</ele><time>2026-04-22T14:32:08.978Z</time></trkpt><trkpt lat="45.730551" lon="9.1494161"><ele>325.4</ele><time>2026-04-22T14:32:10.979Z</time></trkpt><trkpt lat="45.7306355" lon="9.1495008"><ele>325.6</ele><time>2026-04-22T14:32:12.978Z</time></trkpt><trkpt lat="45.7307261" lon="9.1495877"><ele>325.8</ele><time>2026-04-22T14:32:14.978Z</time></trkpt><trkpt lat="45.7307952" lon="9.1496694"><ele>326.0</ele><time>2026-04-22T14:32:16.978Z</time></trkpt><trkpt lat="45.7308683" lon="9.1497527"><ele>326.0</ele><time>2026-04-22T14:32:18.977Z</time></trkpt><trkpt lat="45.7309407" lon="9.1498508"><ele>326.0</ele><time>2026-04-22T14:32:20.978Z</time></trkpt><trkpt lat="45.7310233" lon="9.1499544"><ele>326.0</ele><time>2026-04-22T14:32:22.979Z</time></trkpt><trkpt lat="45.7311104" lon="9.1500577"><ele>326.0</ele><time>2026-04-22T14:32:24.977Z</time></trkpt><trkpt lat="45.7311698" lon="9.1501178"><ele>326.0</ele><time>2026-04-22T14:32:26.979Z</time></trkpt><trkpt lat="45.7312341" lon="9.150175"><ele>326.33333333333337</ele><time>2026-04-22T14:32:35.977Z</time></trkpt><trkpt lat="45.7313106" lon="9.1502605"><ele>326.6666666666667</ele><time>2026-04-22T14:32:38.979Z</time></trkpt><trkpt lat="45.7313702" lon="9.1503251"><ele>327.0</ele><time>2026-04-22T14:32:40.979Z</time></trkpt><trkpt lat="45.7314248" lon="9.1503902"><ele>327.3333333333333</ele><time>2026-04-22T14:32:43.979Z</time></trkpt><trkpt lat="45.7314759" lon="9.1504464"><ele>327.66666666666663</ele><time>2026-04-22T14:32:45.978Z</time></trkpt><trkpt lat="45.7315365" lon="9.1505132"><ele>328.0</ele><time>2026-04-22T14:32:47.979Z</time></trkpt><trkpt lat="45.7315932" lon="9.1505754"><ele>328.0</ele><time>2026-04-22T14:32:49.978Z</time></trkpt><trkpt lat="45.7316449" lon="9.1506349"><ele>328.0</ele><time>2026-04-22T14:32:51.979Z</time></trkpt><trkpt lat="45.7317034" lon="9.1506899"><ele>328.0</ele><time>2026-04-22T14:34:02.979Z</time></trkpt><trkpt lat="45.7317669" lon="9.1507616"><ele>328.0</ele><time>2026-04-22T14:34:04.978Z</time></trkpt><trkpt lat="45.7318593" lon="9.1508674"><ele>328.0</ele><time>2026-04-22T14:34:06.978Z</time></trkpt><trkpt lat="45.7319429" lon="9.1509713"><ele>328.0</ele><time>2026-04-22T14:34:08.978Z</time></trkpt><trkpt lat="45.7320109" lon="9.1510518"><ele>328.0</ele><time>2026-04-22T14:34:10.978Z</time></trkpt><trkpt lat="45.7320569" lon="9.1511391"><ele>328.0</ele><time>2026-04-22T14:34:12.978Z</time></trkpt><trkpt lat="45.7320551" lon="9.1512418"><ele>328.0</ele><time>2026-04-22T14:34:14.978Z</time></trkpt><trkpt lat="45.7320185" lon="9.1513546"><ele>328.0</ele><time>2026-04-22T14:34:16.978Z</time></trkpt><trkpt lat="45.7319592" lon="9.1514947"><ele>328.0</ele><time>2026-04-22T14:34:18.979Z</time></trkpt><trkpt lat="45.7319082" lon="9.1516457"><ele>327.71428571428567</ele><time>2026-04-22T14:34:20.978Z</time></trkpt><trkpt lat="45.7318704" lon="9.151736"><ele>327.42857142857144</ele><time>2026-04-22T14:34:21.977Z</time></trkpt><trkpt lat="45.7318318" lon="9.1518169"><ele>327.1428571428571</ele><time>2026-04-22T14:34:22.978Z</time></trkpt><trkpt lat="45.7317888" lon="9.1518956"><ele>326.85714285714283</ele><time>2026-04-22T14:34:23.978Z</time></trkpt><trkpt lat="45.7317318" lon="9.1519844"><ele>326.57142857142856</ele><time>2026-04-22T14:34:24.977Z</time></trkpt><trkpt lat="45.7316906" lon="9.1520722"><ele>326.2857142857143</ele><time>2026-04-22T14:34:25.978Z</time></trkpt><trkpt lat="45.7317372" lon="9.1521503"><ele>326.0</ele><time>2026-04-22T14:34:26.978Z</time></trkpt><trkpt lat="45.7316538" lon="9.1523291"><ele>326.20000000000005</ele><time>2026-04-22T14:34:28.978Z</time></trkpt><trkpt lat="45.7315978" lon="9.1524754"><ele>326.40000000000003</ele><time>2026-04-22T14:34:30.978Z</time></trkpt><trkpt lat="45.7315398" lon="9.1526263"><ele>326.6</ele><time>2026-04-22T14:34:32.979Z</time></trkpt><trkpt lat="45.7314793" lon="9.1527834"><ele>326.8</ele><time>2026-04-22T14:34:34.977Z</time></trkpt><trkpt lat="45.7314467" lon="9.1528673"><ele>327.0</ele><time>2026-04-22T14:34:35.978Z</time></trkpt><trkpt lat="45.7314134" lon="9.1529555"><ele>327.0</ele><time>2026-04-22T14:34:36.978Z</time></trkpt><trkpt lat="45.731378" lon="9.153047"><ele>327.0</ele><time>2026-04-22T14:34:37.978Z</time></trkpt><trkpt lat="45.731341" lon="9.1531445"><ele>327.0</ele><time>2026-04-22T14:34:38.977Z</time></trkpt><trkpt lat="45.7313054" lon="9.1532438"><ele>327.0</ele><time>2026-04-22T14:34:39.977Z</time></trkpt><trkpt lat="45.7312775" lon="9.1533426"><ele>327.0</ele><time>2026-04-22T14:34:40.977Z</time></trkpt><trkpt lat="45.7312461" lon="9.1534412"><ele>327.0</ele><time>2026-04-22T14:34:41.979Z</time></trkpt><trkpt lat="45.7312152" lon="9.1535389"><ele>327.3333333333333</ele><time>2026-04-22T14:34:42.977Z</time></trkpt><trkpt lat="45.7311886" lon="9.153635"><ele>327.6666666666667</ele><time>2026-04-22T14:34:43.979Z</time></trkpt><trkpt lat="45.731148" lon="9.1537782"><ele>328.0</ele><time>2026-04-22T14:34:45.977Z</time></trkpt><trkpt lat="45.7311147" lon="9.1538936"><ele>328.33333333333337</ele><time>2026-04-22T14:34:47.978Z</time></trkpt><trkpt lat="45.731089" lon="9.1540119"><ele>328.6666666666667</ele><time>2026-04-22T14:34:49.977Z</time></trkpt><trkpt lat="45.7310716" lon="9.1541445"><ele>329.0</ele><time>2026-04-22T14:34:51.978Z</time></trkpt><trkpt lat="45.7310546" lon="9.1542884"><ele>329.0</ele><time>2026-04-22T14:34:53.977Z</time></trkpt><trkpt lat="45.7310404" lon="9.1544053"><ele>329.0</ele><time>2026-04-22T14:34:55.978Z</time></trkpt><trkpt lat="45.7310203" lon="9.1545238"><ele>329.0</ele><time>2026-04-22T14:34:57.976Z</time></trkpt><trkpt lat="45.7309924" lon="9.1546771"><ele>329.0</ele><time>2026-04-22T14:34:59.977Z</time></trkpt><trkpt lat="45.7309715" lon="9.1547689"><ele>329.0</ele><time>2026-04-22T14:35:00.978Z</time></trkpt><trkpt lat="45.7309577" lon="9.1548618"><ele>329.0</ele><time>2026-04-22T14:35:01.978Z</time></trkpt><trkpt lat="45.730949" lon="9.1549671"><ele>329.33333333333337</ele><time>2026-04-22T14:35:02.978Z</time></trkpt><trkpt lat="45.7309325" lon="9.1550747"><ele>329.6666666666667</ele><time>2026-04-22T14:35:03.976Z</time></trkpt><trkpt lat="45.7309268" lon="9.1551955"><ele>330.0</ele><time>2026-04-22T14:35:04.977Z</time></trkpt><trkpt lat="45.7309291" lon="9.1553204"><ele>330.3333333333333</ele><time>2026-04-22T14:35:05.978Z</time></trkpt><trkpt lat="45.7309367" lon="9.1554522"><ele>330.66666666666663</ele><time>2026-04-22T14:35:06.977Z</time></trkpt><trkpt lat="45.730944" lon="9.1555695"><ele>331.0</ele><time>2026-04-22T14:35:07.978Z</time></trkpt><trkpt lat="45.7309515" lon="9.1556785"><ele>331.16666666666663</ele><time>2026-04-22T14:35:08.977Z</time></trkpt><trkpt lat="45.7309598" lon="9.1557872"><ele>331.3333333333333</ele><time>2026-04-22T14:35:09.978Z</time></trkpt><trkpt lat="45.7309691" lon="9.1558987"><ele>331.5</ele><time>2026-04-22T14:35:10.978Z</time></trkpt><trkpt lat="45.7309906" lon="9.1560184"><ele>331.6666666666667</ele><time>2026-04-22T14:35:11.978Z</time></trkpt><trkpt lat="45.7310134" lon="9.1561301"><ele>331.83333333333337</ele><time>2026-04-22T14:35:12.977Z</time></trkpt><trkpt lat="45.7310179" lon="9.1562503"><ele>332.0</ele><time>2026-04-22T14:35:13.977Z</time></trkpt><trkpt lat="45.7310194" lon="9.1563615"><ele>332.0</ele><time>2026-04-22T14:35:14.978Z</time></trkpt><trkpt lat="45.7310003" lon="9.156485"><ele>332.0</ele><time>2026-04-22T14:35:15.978Z</time></trkpt><trkpt lat="45.7310045" lon="9.1566097"><ele>332.0</ele><time>2026-04-22T14:35:16.977Z</time></trkpt><trkpt lat="45.7310129" lon="9.1567358"><ele>332.0</ele><time>2026-04-22T14:35:17.977Z</time></trkpt><trkpt lat="45.7310189" lon="9.1568595"><ele>332.0</ele><time>2026-04-22T14:35:18.977Z</time></trkpt><trkpt lat="45.731012" lon="9.15698"><ele>332.0</ele><time>2026-04-22T14:35:19.977Z</time></trkpt><trkpt lat="45.7309788" lon="9.1571207"><ele>332.5</ele><time>2026-04-22T14:35:21.976Z</time></trkpt><trkpt lat="45.7309514" lon="9.1572171"><ele>333.0</ele><time>2026-04-22T14:35:24.977Z</time></trkpt><trkpt lat="45.7309145" lon="9.1573171"><ele>333.5</ele><time>2026-04-22T14:35:26.978Z</time></trkpt><trkpt lat="45.7308396" lon="9.1574398"><ele>334.0</ele><time>2026-04-22T14:35:28.977Z</time></trkpt><trkpt lat="45.7307786" lon="9.1575081"><ele>334.5</ele><time>2026-04-22T14:35:30.976Z</time></trkpt><trkpt lat="45.7307213" lon="9.1575602"><ele>335.0</ele><time>2026-04-22T14:35:32.978Z</time></trkpt><trkpt lat="45.7306645" lon="9.1576061"><ele>335.0</ele><time>2026-04-22T14:35:34.977Z</time></trkpt><trkpt lat="45.7305928" lon="9.1576401"><ele>335.0</ele><time>2026-04-22T14:35:36.978Z</time></trkpt><trkpt lat="45.7305105" lon="9.1576646"><ele>335.0</ele><time>2026-04-22T14:35:38.977Z</time></trkpt><trkpt lat="45.7304254" lon="9.1576863"><ele>335.0</ele><time>2026-04-22T14:35:40.976Z</time></trkpt><trkpt lat="45.7303175" lon="9.1577236"><ele>335.0</ele><time>2026-04-22T14:35:42.977Z</time></trkpt><trkpt lat="45.7302558" lon="9.1577481"><ele>335.0</ele><time>2026-04-22T14:35:43.977Z</time></trkpt><trkpt lat="45.730184" lon="9.157782"><ele>335.5</ele><time>2026-04-22T14:35:44.978Z</time></trkpt><trkpt lat="45.7301153" lon="9.157841"><ele>336.0</ele><time>2026-04-22T14:35:45.978Z</time></trkpt><trkpt lat="45.7300521" lon="9.1578908"><ele>336.5</ele><time>2026-04-22T14:35:46.977Z</time></trkpt><trkpt lat="45.7299923" lon="9.1579517"><ele>337.0</ele><time>2026-04-22T14:35:47.978Z</time></trkpt><trkpt lat="45.7299362" lon="9.1580215"><ele>337.5</ele><time>2026-04-22T14:35:48.978Z</time></trkpt><trkpt lat="45.7298849" lon="9.158097"><ele>338.0</ele><time>2026-04-22T14:35:49.977Z</time></trkpt><trkpt lat="45.7298302" lon="9.1581884"><ele>336.79999999999995</ele><time>2026-04-22T14:35:50.977Z</time></trkpt><trkpt lat="45.7297795" lon="9.1582957"><ele>335.6</ele><time>2026-04-22T14:35:51.977Z</time></trkpt><trkpt lat="45.7297287" lon="9.158416"><ele>334.4</ele><time>2026-04-22T14:35:52.978Z</time></trkpt><trkpt lat="45.7296744" lon="9.1585476"><ele>333.20000000000005</ele><time>2026-04-22T14:35:53.978Z</time></trkpt><trkpt lat="45.7296209" lon="9.1586782"><ele>332.0</ele><time>2026-04-22T14:35:54.977Z</time></trkpt><trkpt lat="45.7295715" lon="9.1587977"><ele>332.0</ele><time>2026-04-22T14:35:55.977Z</time></trkpt><trkpt lat="45.7295237" lon="9.1589109"><ele>332.0</ele><time>2026-04-22T14:35:56.977Z</time></trkpt><trkpt lat="45.7294745" lon="9.1590296"><ele>332.0</ele><time>2026-04-22T14:35:57.978Z</time></trkpt><trkpt lat="45.7294231" lon="9.1591504"><ele>332.0</ele><time>2026-04-22T14:35:58.978Z</time></trkpt><trkpt lat="45.7293701" lon="9.1592709"><ele>332.0</ele><time>2026-04-22T14:35:59.976Z</time></trkpt><trkpt lat="45.7293073" lon="9.1593978"><ele>331.20000000000005</ele><time>2026-04-22T14:36:00.977Z</time></trkpt><trkpt lat="45.729241" lon="9.1595204"><ele>330.4</ele><time>2026-04-22T14:36:01.977Z</time></trkpt><trkpt lat="45.7291687" lon="9.1596397"><ele>329.6</ele><time>2026-04-22T14:36:02.978Z</time></trkpt><trkpt lat="45.7290931" lon="9.1597611"><ele>328.79999999999995</ele><time>2026-04-22T14:36:03.977Z</time></trkpt><trkpt lat="45.7290147" lon="9.1598822"><ele>328.0</ele><time>2026-04-22T14:36:04.977Z</time></trkpt><trkpt lat="45.7289321" lon="9.1600069"><ele>327.25</ele><time>2026-04-22T14:36:05.978Z</time></trkpt><trkpt lat="45.7288479" lon="9.1601326"><ele>326.5</ele><time>2026-04-22T14:36:06.977Z</time></trkpt><trkpt lat="45.7287645" lon="9.1602576"><ele>325.75</ele><time>2026-04-22T14:36:07.978Z</time></trkpt><trkpt lat="45.7286767" lon="9.1603894"><ele>325.0</ele><time>2026-04-22T14:36:08.977Z</time></trkpt><trkpt lat="45.7285939" lon="9.1605128"><ele>325.5</ele><time>2026-04-22T14:36:09.978Z</time></trkpt><trkpt lat="45.7285152" lon="9.160629"><ele>326.0</ele><time>2026-04-22T14:36:10.977Z</time></trkpt><trkpt lat="45.7284335" lon="9.1607484"><ele>326.5</ele><time>2026-04-22T14:36:11.976Z</time></trkpt><trkpt lat="45.728354" lon="9.1608646"><ele>327.0</ele><time>2026-04-22T14:36:12.977Z</time></trkpt><trkpt lat="45.7282756" lon="9.1609797"><ele>326.0</ele><time>2026-04-22T14:36:13.977Z</time></trkpt><trkpt lat="45.7282" lon="9.1610921"><ele>325.0</ele><time>2026-04-22T14:36:14.977Z</time></trkpt><trkpt lat="45.7281281" lon="9.1612007"><ele>324.0</ele><time>2026-04-22T14:36:15.977Z</time></trkpt><trkpt lat="45.7280636" lon="9.1612994"><ele>323.0</ele><time>2026-04-22T14:36:16.978Z</time></trkpt><trkpt lat="45.728007" lon="9.1613878"><ele>322.0</ele><time>2026-04-22T14:36:17.978Z</time></trkpt><trkpt lat="45.7279556" lon="9.1614685"><ele>321.16666666666663</ele><time>2026-04-22T14:36:18.977Z</time></trkpt><trkpt lat="45.7279063" lon="9.1615446"><ele>320.3333333333333</ele><time>2026-04-22T14:36:19.976Z</time></trkpt><trkpt lat="45.7278471" lon="9.1616349"><ele>319.5</ele><time>2026-04-22T14:36:21.978Z</time></trkpt><trkpt lat="45.727778" lon="9.1617252"><ele>318.6666666666667</ele><time>2026-04-22T14:36:24.977Z</time></trkpt><trkpt lat="45.7276958" lon="9.161817"><ele>317.83333333333337</ele><time>2026-04-22T14:36:26.977Z</time></trkpt><trkpt lat="45.7276453" lon="9.1618733"><ele>317.0</ele><time>2026-04-22T14:36:27.977Z</time></trkpt><trkpt lat="45.7275849" lon="9.1619358"><ele>316.8</ele><time>2026-04-22T14:36:28.977Z</time></trkpt><trkpt lat="45.7275182" lon="9.162002"><ele>316.6</ele><time>2026-04-22T14:36:29.978Z</time></trkpt><trkpt lat="45.7274461" lon="9.1620717"><ele>316.40000000000003</ele><time>2026-04-22T14:36:30.977Z</time></trkpt><trkpt lat="45.727371" lon="9.1621455"><ele>316.2</ele><time>2026-04-22T14:36:31.977Z</time></trkpt><trkpt lat="45.7272886" lon="9.1622291"><ele>316.0</ele><time>2026-04-22T14:36:32.978Z</time></trkpt><trkpt lat="45.7272104" lon="9.1623121"><ele>315.40000000000003</ele><time>2026-04-22T14:36:33.977Z</time></trkpt><trkpt lat="45.7271256" lon="9.1623966"><ele>314.8</ele><time>2026-04-22T14:36:34.978Z</time></trkpt><trkpt lat="45.7270382" lon="9.1624797"><ele>314.20000000000005</ele><time>2026-04-22T14:36:35.978Z</time></trkpt><trkpt lat="45.726951" lon="9.1625659"><ele>313.6</ele><time>2026-04-22T14:36:36.978Z</time></trkpt><trkpt lat="45.7268655" lon="9.1626485"><ele>313.0</ele><time>2026-04-22T14:36:37.976Z</time></trkpt><trkpt lat="45.7267795" lon="9.1627326"><ele>312.6</ele><time>2026-04-22T14:36:38.976Z</time></trkpt><trkpt lat="45.7266915" lon="9.1628193"><ele>312.20000000000005</ele><time>2026-04-22T14:36:39.978Z</time></trkpt><trkpt lat="45.7266012" lon="9.1629077"><ele>311.8</ele><time>2026-04-22T14:36:40.978Z</time></trkpt><trkpt lat="45.7265107" lon="9.1630057"><ele>311.40000000000003</ele><time>2026-04-22T14:36:41.976Z</time></trkpt><trkpt lat="45.7264199" lon="9.1630982"><ele>311.0</ele><time>2026-04-22T14:36:42.977Z</time></trkpt><trkpt lat="45.726327" lon="9.1631925"><ele>311.40000000000003</ele><time>2026-04-22T14:36:43.977Z</time></trkpt><trkpt lat="45.7262347" lon="9.1632871"><ele>311.8</ele><time>2026-04-22T14:36:44.977Z</time></trkpt><trkpt lat="45.7261419" lon="9.163384"><ele>312.20000000000005</ele><time>2026-04-22T14:36:45.978Z</time></trkpt><trkpt lat="45.7260532" lon="9.1634753"><ele>312.6</ele><time>2026-04-22T14:36:46.977Z</time></trkpt><trkpt lat="45.7259713" lon="9.1635591"><ele>313.0</ele><time>2026-04-22T14:36:47.978Z</time></trkpt><trkpt lat="45.7258904" lon="9.1636417"><ele>313.0</ele><time>2026-04-22T14:36:48.976Z</time></trkpt><trkpt lat="45.7258148" lon="9.163717"><ele>313.0</ele><time>2026-04-22T14:36:49.977Z</time></trkpt><trkpt lat="45.7257468" lon="9.1637859"><ele>313.0</ele><time>2026-04-22T14:36:50.976Z</time></trkpt><trkpt lat="45.7256772" lon="9.1638565"><ele>313.0</ele><time>2026-04-22T14:36:51.977Z</time></trkpt><trkpt lat="45.7256101" lon="9.1639244"><ele>313.0</ele><time>2026-04-22T14:36:52.976Z</time></trkpt><trkpt lat="45.7255424" lon="9.1639921"><ele>313.0</ele><time>2026-04-22T14:36:53.977Z</time></trkpt><trkpt lat="45.7254766" lon="9.164058"><ele>313.0</ele><time>2026-04-22T14:36:54.978Z</time></trkpt><trkpt lat="45.7254093" lon="9.164126"><ele>313.0</ele><time>2026-04-22T14:36:55.978Z</time></trkpt><trkpt lat="45.7253389" lon="9.1641974"><ele>313.0</ele><time>2026-04-22T14:36:56.976Z</time></trkpt><trkpt lat="45.725269" lon="9.1642665"><ele>313.0</ele><time>2026-04-22T14:36:57.978Z</time></trkpt><trkpt lat="45.7252008" lon="9.1643329"><ele>313.0</ele><time>2026-04-22T14:36:58.977Z</time></trkpt><trkpt lat="45.7251256" lon="9.1644069"><ele>313.0</ele><time>2026-04-22T14:36:59.977Z</time></trkpt><trkpt lat="45.7250499" lon="9.1644829"><ele>312.6</ele><time>2026-04-22T14:37:00.977Z</time></trkpt><trkpt lat="45.7249737" lon="9.1645552"><ele>312.20000000000005</ele><time>2026-04-22T14:37:01.978Z</time></trkpt><trkpt lat="45.7248919" lon="9.1646356"><ele>311.8</ele><time>2026-04-22T14:37:02.978Z</time></trkpt><trkpt lat="45.7248095" lon="9.1647126"><ele>311.40000000000003</ele><time>2026-04-22T14:37:03.977Z</time></trkpt><trkpt lat="45.7247243" lon="9.1647966"><ele>311.0</ele><time>2026-04-22T14:37:04.977Z</time></trkpt><trkpt lat="45.7246428" lon="9.1648766"><ele>311.0</ele><time>2026-04-22T14:37:05.977Z</time></trkpt><trkpt lat="45.7245653" lon="9.1649566"><ele>311.0</ele><time>2026-04-22T14:37:06.977Z</time></trkpt><trkpt lat="45.7244912" lon="9.1650311"><ele>311.0</ele><time>2026-04-22T14:37:07.976Z</time></trkpt><trkpt lat="45.7244203" lon="9.1651025"><ele>311.0</ele><time>2026-04-22T14:37:08.976Z</time></trkpt><trkpt lat="45.7243507" lon="9.1651741"><ele>311.0</ele><time>2026-04-22T14:37:09.977Z</time></trkpt><trkpt lat="45.7242874" lon="9.165236"><ele>311.0</ele><time>2026-04-22T14:37:10.978Z</time></trkpt><trkpt lat="45.7242263" lon="9.1652945"><ele>310.85714285714283</ele><time>2026-04-22T14:37:11.978Z</time></trkpt><trkpt lat="45.7241658" lon="9.1653548"><ele>310.7142857142857</ele><time>2026-04-22T14:37:12.978Z</time></trkpt><trkpt lat="45.7241086" lon="9.1654119"><ele>310.57142857142856</ele><time>2026-04-22T14:37:13.977Z</time></trkpt><trkpt lat="45.7240504" lon="9.1654693"><ele>310.42857142857144</ele><time>2026-04-22T14:37:14.977Z</time></trkpt><trkpt lat="45.7239919" lon="9.1655274"><ele>310.2857142857143</ele><time>2026-04-22T14:37:15.977Z</time></trkpt><trkpt lat="45.7239321" lon="9.1655877"><ele>310.14285714285717</ele><time>2026-04-22T14:37:16.976Z</time></trkpt><trkpt lat="45.7238706" lon="9.1656501"><ele>310.0</ele><time>2026-04-22T14:37:17.977Z</time></trkpt><trkpt lat="45.7238067" lon="9.1657126"><ele>310.0</ele><time>2026-04-22T14:37:18.978Z</time></trkpt><trkpt lat="45.7237425" lon="9.1657748"><ele>310.0</ele><time>2026-04-22T14:37:19.978Z</time></trkpt><trkpt lat="45.7236737" lon="9.1658432"><ele>310.0</ele><time>2026-04-22T14:37:20.978Z</time></trkpt><trkpt lat="45.7236057" lon="9.1659114"><ele>310.0</ele><time>2026-04-22T14:37:21.977Z</time></trkpt><trkpt lat="45.7235394" lon="9.1659826"><ele>310.0</ele><time>2026-04-22T14:37:22.976Z</time></trkpt><trkpt lat="45.7234694" lon="9.1660531"><ele>310.0</ele><time>2026-04-22T14:37:23.977Z</time></trkpt><trkpt lat="45.7233999" lon="9.1661197"><ele>309.66666666666663</ele><time>2026-04-22T14:37:24.977Z</time></trkpt><trkpt lat="45.7233324" lon="9.1661846"><ele>309.3333333333333</ele><time>2026-04-22T14:37:25.978Z</time></trkpt><trkpt lat="45.7232677" lon="9.1662481"><ele>309.0</ele><time>2026-04-22T14:37:26.977Z</time></trkpt><trkpt lat="45.7232032" lon="9.1663128"><ele>308.6666666666667</ele><time>2026-04-22T14:37:27.977Z</time></trkpt><trkpt lat="45.7231408" lon="9.1663751"><ele>308.33333333333337</ele><time>2026-04-22T14:37:28.978Z</time></trkpt><trkpt lat="45.7230767" lon="9.166435"><ele>308.0</ele><time>2026-04-22T14:37:29.978Z</time></trkpt><trkpt lat="45.72301" lon="9.166497"><ele>308.5</ele><time>2026-04-22T14:37:30.978Z</time></trkpt><trkpt lat="45.7229422" lon="9.1665531"><ele>309.0</ele><time>2026-04-22T14:37:31.978Z</time></trkpt><trkpt lat="45.7228722" lon="9.1666077"><ele>309.5</ele><time>2026-04-22T14:37:32.977Z</time></trkpt><trkpt lat="45.7227997" lon="9.1666622"><ele>310.0</ele><time>2026-04-22T14:37:33.978Z</time></trkpt><trkpt lat="45.7227266" lon="9.1667156"><ele>310.5</ele><time>2026-04-22T14:37:34.977Z</time></trkpt><trkpt lat="45.7226533" lon="9.1667689"><ele>311.0</ele><time>2026-04-22T14:37:35.978Z</time></trkpt><trkpt lat="45.722575" lon="9.1668255"><ele>311.2</ele><time>2026-04-22T14:37:36.978Z</time></trkpt><trkpt lat="45.722498" lon="9.1668809"><ele>311.40000000000003</ele><time>2026-04-22T14:37:37.977Z</time></trkpt><trkpt lat="45.7224276" lon="9.1669333"><ele>311.6</ele><time>2026-04-22T14:37:38.978Z</time></trkpt><trkpt lat="45.7223713" lon="9.1669906"><ele>311.8</ele><time>2026-04-22T14:37:39.976Z</time></trkpt><trkpt lat="45.7221879" lon="9.1670969"><ele>312.0</ele><time>2026-04-22T14:37:41.978Z</time></trkpt><trkpt lat="45.7221127" lon="9.167151"><ele>312.0</ele><time>2026-04-22T14:37:42.977Z</time></trkpt><trkpt lat="45.7220436" lon="9.1672011"><ele>312.0</ele><time>2026-04-22T14:37:43.977Z</time></trkpt><trkpt lat="45.721975" lon="9.1672528"><ele>312.0</ele><time>2026-04-22T14:37:44.977Z</time></trkpt><trkpt lat="45.721907" lon="9.1673021"><ele>312.0</ele><time>2026-04-22T14:37:45.978Z</time></trkpt><trkpt lat="45.7218402" lon="9.1673488"><ele>312.0</ele><time>2026-04-22T14:37:46.977Z</time></trkpt><trkpt lat="45.7217732" lon="9.1673951"><ele>312.0</ele><time>2026-04-22T14:37:47.977Z</time></trkpt><trkpt lat="45.7217073" lon="9.1674456"><ele>311.7142857142857</ele><time>2026-04-22T14:37:48.977Z</time></trkpt><trkpt lat="45.7216385" lon="9.1674977"><ele>311.4285714285714</ele><time>2026-04-22T14:37:49.978Z</time></trkpt><trkpt lat="45.7215686" lon="9.167548"><ele>311.1428571428571</ele><time>2026-04-22T14:37:50.977Z</time></trkpt><trkpt lat="45.7215033" lon="9.1675855"><ele>310.8571428571429</ele><time>2026-04-22T14:37:51.976Z</time></trkpt><trkpt lat="45.7214383" lon="9.1676122"><ele>310.57142857142856</ele><time>2026-04-22T14:37:52.977Z</time></trkpt><trkpt lat="45.7213741" lon="9.1676262"><ele>310.2857142857143</ele><time>2026-04-22T14:37:53.977Z</time></trkpt><trkpt lat="45.7213085" lon="9.167631"><ele>310.0</ele><time>2026-04-22T14:37:54.977Z</time></trkpt><trkpt lat="45.721245" lon="9.1676255"><ele>310.0</ele><time>2026-04-22T14:37:55.978Z</time></trkpt><trkpt lat="45.7211546" lon="9.1676211"><ele>310.0</ele><time>2026-04-22T14:37:57.977Z</time></trkpt><trkpt lat="45.7210948" lon="9.1676839"><ele>310.0</ele><time>2026-04-22T14:37:59.977Z</time></trkpt><trkpt lat="45.7210665" lon="9.1678065"><ele>310.0</ele><time>2026-04-22T14:38:01.977Z</time></trkpt><trkpt lat="45.7210557" lon="9.1679071"><ele>310.0</ele><time>2026-04-22T14:38:02.977Z</time></trkpt><trkpt lat="45.721041" lon="9.168023"><ele>310.0</ele><time>2026-04-22T14:38:03.978Z</time></trkpt><trkpt lat="45.7210261" lon="9.168139"><ele>309.66666666666663</ele><time>2026-04-22T14:38:04.978Z</time></trkpt><trkpt lat="45.7210096" lon="9.1682573"><ele>309.3333333333333</ele><time>2026-04-22T14:38:05.977Z</time></trkpt><trkpt lat="45.7209935" lon="9.1683743"><ele>309.0</ele><time>2026-04-22T14:38:06.977Z</time></trkpt><trkpt lat="45.7209769" lon="9.1684852"><ele>308.6666666666667</ele><time>2026-04-22T14:38:07.976Z</time></trkpt><trkpt lat="45.7209583" lon="9.1686019"><ele>308.33333333333337</ele><time>2026-04-22T14:38:08.977Z</time></trkpt><trkpt lat="45.7209395" lon="9.1687172"><ele>308.0</ele><time>2026-04-22T14:38:09.977Z</time></trkpt><trkpt lat="45.7209196" lon="9.1688363"><ele>308.0</ele><time>2026-04-22T14:38:10.977Z</time></trkpt><trkpt lat="45.7209" lon="9.1689538"><ele>308.0</ele><time>2026-04-22T14:38:11.977Z</time></trkpt><trkpt lat="45.7208791" lon="9.169065"><ele>308.0</ele><time>2026-04-22T14:38:12.977Z</time></trkpt><trkpt lat="45.720853" lon="9.1691643"><ele>308.0</ele><time>2026-04-22T14:38:13.977Z</time></trkpt><trkpt lat="45.72082" lon="9.1692543"><ele>308.0</ele><time>2026-04-22T14:38:14.978Z</time></trkpt><trkpt lat="45.7207806" lon="9.1693364"><ele>308.0</ele><time>2026-04-22T14:38:15.977Z</time></trkpt><trkpt lat="45.720715" lon="9.1694625"><ele>308.6666666666667</ele><time>2026-04-22T14:38:17.978Z</time></trkpt><trkpt lat="45.7207141" lon="9.1695777"><ele>309.33333333333337</ele><time>2026-04-22T14:38:20.977Z</time></trkpt><trkpt lat="45.7208082" lon="9.1696119"><ele>310.0</ele><time>2026-04-22T14:38:23.977Z</time></trkpt><trkpt lat="45.7208768" lon="9.1696319"><ele>310.6666666666667</ele><time>2026-04-22T14:38:25.978Z</time></trkpt><trkpt lat="45.7208971" lon="9.169742"><ele>311.3333333333333</ele><time>2026-04-22T14:38:28.977Z</time></trkpt><trkpt lat="45.7208641" lon="9.1698586"><ele>312.0</ele><time>2026-04-22T14:38:30.977Z</time></trkpt><trkpt lat="45.7208066" lon="9.1699967"><ele>312.1666666666667</ele><time>2026-04-22T14:38:32.977Z</time></trkpt><trkpt lat="45.7207633" lon="9.1701203"><ele>312.3333333333333</ele><time>2026-04-22T14:38:34.977Z</time></trkpt><trkpt lat="45.7207246" lon="9.1702341"><ele>312.5</ele><time>2026-04-22T14:38:36.978Z</time></trkpt><trkpt lat="45.7206941" lon="9.1703374"><ele>312.66666666666663</ele><time>2026-04-22T14:38:38.978Z</time></trkpt><trkpt lat="45.7207011" lon="9.1704436"><ele>312.8333333333333</ele><time>2026-04-22T14:38:40.977Z</time></trkpt><trkpt lat="45.7207611" lon="9.170537"><ele>313.0</ele><time>2026-04-22T14:38:42.978Z</time></trkpt><trkpt lat="45.7208144" lon="9.1705962"><ele>313.0</ele><time>2026-04-22T14:38:43.977Z</time></trkpt><trkpt lat="45.7208744" lon="9.1706635"><ele>313.0</ele><time>2026-04-22T14:38:44.978Z</time></trkpt><trkpt lat="45.7209328" lon="9.170738"><ele>313.0</ele><time>2026-04-22T14:38:45.977Z</time></trkpt><trkpt lat="45.7209887" lon="9.1708214"><ele>313.0</ele><time>2026-04-22T14:38:46.977Z</time></trkpt><trkpt lat="45.721035" lon="9.1709181"><ele>313.0</ele><time>2026-04-22T14:38:47.977Z</time></trkpt><trkpt lat="45.7210763" lon="9.1710214"><ele>313.0</ele><time>2026-04-22T14:38:48.977Z</time></trkpt><trkpt lat="45.7211093" lon="9.171133"><ele>314.16666666666663</ele><time>2026-04-22T14:38:49.977Z</time></trkpt><trkpt lat="45.7211378" lon="9.1712388"><ele>315.3333333333333</ele><time>2026-04-22T14:38:50.978Z</time></trkpt><trkpt lat="45.7211565" lon="9.1713267"><ele>316.5</ele><time>2026-04-22T14:38:51.977Z</time></trkpt><trkpt lat="45.7211562" lon="9.1714729"><ele>317.6666666666667</ele><time>2026-04-22T14:38:53.977Z</time></trkpt><trkpt lat="45.7211085" lon="9.1716274"><ele>318.83333333333337</ele><time>2026-04-22T14:38:55.978Z</time></trkpt><trkpt lat="45.7210606" lon="9.1717118"><ele>320.0</ele><time>2026-04-22T14:38:56.978Z</time></trkpt><trkpt lat="45.7210037" lon="9.1717893"><ele>320.1666666666667</ele><time>2026-04-22T14:38:57.978Z</time></trkpt><trkpt lat="45.7209397" lon="9.1718548"><ele>320.33333333333337</ele><time>2026-04-22T14:38:58.978Z</time></trkpt><trkpt lat="45.720875" lon="9.1719077"><ele>320.5</ele><time>2026-04-22T14:38:59.977Z</time></trkpt><trkpt lat="45.7208057" lon="9.1719566"><ele>320.6666666666667</ele><time>2026-04-22T14:39:00.977Z</time></trkpt><trkpt lat="45.7207344" lon="9.1720154"><ele>320.8333333333333</ele><time>2026-04-22T14:39:01.976Z</time></trkpt><trkpt lat="45.7206651" lon="9.1720854"><ele>321.0</ele><time>2026-04-22T14:39:02.976Z</time></trkpt><trkpt lat="45.7205903" lon="9.1721631"><ele>321.0</ele><time>2026-04-22T14:39:03.976Z</time></trkpt><trkpt lat="45.7205253" lon="9.1722406"><ele>321.0</ele><time>2026-04-22T14:39:04.977Z</time></trkpt><trkpt lat="45.7204683" lon="9.1723188"><ele>321.0</ele><time>2026-04-22T14:39:05.978Z</time></trkpt><trkpt lat="45.7204134" lon="9.1723925"><ele>321.0</ele><time>2026-04-22T14:39:06.976Z</time></trkpt><trkpt lat="45.720355" lon="9.1724762"><ele>321.0</ele><time>2026-04-22T14:39:07.978Z</time></trkpt><trkpt lat="45.7203047" lon="9.172568"><ele>321.0</ele><time>2026-04-22T14:39:08.977Z</time></trkpt><trkpt lat="45.7202583" lon="9.172672"><ele>321.4</ele><time>2026-04-22T14:39:09.977Z</time></trkpt><trkpt lat="45.7202118" lon="9.1727853"><ele>321.8</ele><time>2026-04-22T14:39:10.977Z</time></trkpt><trkpt lat="45.7201653" lon="9.1729083"><ele>322.2</ele><time>2026-04-22T14:39:11.976Z</time></trkpt><trkpt lat="45.7201181" lon="9.1730488"><ele>322.59999999999997</ele><time>2026-04-22T14:39:12.976Z</time></trkpt><trkpt lat="45.7200685" lon="9.1732076"><ele>323.0</ele><time>2026-04-22T14:39:13.977Z</time></trkpt><trkpt lat="45.7200159" lon="9.173375"><ele>323.0</ele><time>2026-04-22T14:39:14.977Z</time></trkpt><trkpt lat="45.7199669" lon="9.1735282"><ele>323.0</ele><time>2026-04-22T14:39:15.977Z</time></trkpt><trkpt lat="45.7199165" lon="9.1736785"><ele>323.0</ele><time>2026-04-22T14:39:16.977Z</time></trkpt><trkpt lat="45.7198672" lon="9.1738308"><ele>323.0</ele><time>2026-04-22T14:39:17.978Z</time></trkpt><trkpt lat="45.7198184" lon="9.173978"><ele>323.0</ele><time>2026-04-22T14:39:18.977Z</time></trkpt><trkpt lat="45.7197672" lon="9.1741249"><ele>323.0</ele><time>2026-04-22T14:39:19.977Z</time></trkpt><trkpt lat="45.7197195" lon="9.1742647"><ele>323.0</ele><time>2026-04-22T14:39:20.976Z</time></trkpt><trkpt lat="45.7196777" lon="9.1743848"><ele>323.0</ele><time>2026-04-22T14:39:21.978Z</time></trkpt><trkpt lat="45.7196459" lon="9.1744767"><ele>323.0</ele><time>2026-04-22T14:39:22.976Z</time></trkpt><trkpt lat="45.7195948" lon="9.1746102"><ele>323.0</ele><time>2026-04-22T14:39:24.978Z</time></trkpt><trkpt lat="45.7195213" lon="9.1746797"><ele>323.0</ele><time>2026-04-22T14:39:27.978Z</time></trkpt><trkpt lat="45.7194356" lon="9.1746969"><ele>323.0</ele><time>2026-04-22T14:39:29.977Z</time></trkpt><trkpt lat="45.7193698" lon="9.174683"><ele>323.0</ele><time>2026-04-22T14:39:30.977Z</time></trkpt><trkpt lat="45.7192913" lon="9.1746597"><ele>323.0</ele><time>2026-04-22T14:39:31.977Z</time></trkpt><trkpt lat="45.7191987" lon="9.174631"><ele>323.0</ele><time>2026-04-22T14:39:32.977Z</time></trkpt><trkpt lat="45.7191077" lon="9.1746068"><ele>323.59999999999997</ele><time>2026-04-22T14:39:33.978Z</time></trkpt><trkpt lat="45.7190117" lon="9.1745731"><ele>324.2</ele><time>2026-04-22T14:39:34.978Z</time></trkpt><trkpt lat="45.7188841" lon="9.174523"><ele>324.8</ele><time>2026-04-22T14:39:35.977Z</time></trkpt><trkpt lat="45.7187894" lon="9.1745105"><ele>325.4</ele><time>2026-04-22T14:39:36.977Z</time></trkpt><trkpt lat="45.7186844" lon="9.1744777"><ele>326.0</ele><time>2026-04-22T14:39:37.977Z</time></trkpt><trkpt lat="45.7185768" lon="9.1744393"><ele>325.8</ele><time>2026-04-22T14:39:38.977Z</time></trkpt><trkpt lat="45.7184703" lon="9.174418"><ele>325.6</ele><time>2026-04-22T14:39:39.978Z</time></trkpt><trkpt lat="45.7183619" lon="9.174394"><ele>325.4</ele><time>2026-04-22T14:39:40.976Z</time></trkpt><trkpt lat="45.7182506" lon="9.1743684"><ele>325.2</ele><time>2026-04-22T14:39:41.976Z</time></trkpt><trkpt lat="45.7181392" lon="9.1743389"><ele>325.0</ele><time>2026-04-22T14:39:42.978Z</time></trkpt><trkpt lat="45.7180292" lon="9.1743129"><ele>325.0</ele><time>2026-04-22T14:39:43.978Z</time></trkpt><trkpt lat="45.7179239" lon="9.1742849"><ele>325.0</ele><time>2026-04-22T14:39:44.977Z</time></trkpt><trkpt lat="45.717817" lon="9.1742581"><ele>325.0</ele><time>2026-04-22T14:39:45.977Z</time></trkpt><trkpt lat="45.7177141" lon="9.1742266"><ele>325.0</ele><time>2026-04-22T14:39:46.977Z</time></trkpt><trkpt lat="45.7176153" lon="9.1741789"><ele>325.0</ele><time>2026-04-22T14:39:47.977Z</time></trkpt><trkpt lat="45.7175155" lon="9.1741177"><ele>324.0</ele><time>2026-04-22T14:39:48.978Z</time></trkpt><trkpt lat="45.7174092" lon="9.1740492"><ele>323.0</ele><time>2026-04-22T14:39:49.977Z</time></trkpt><trkpt lat="45.7172958" lon="9.1739736"><ele>322.0</ele><time>2026-04-22T14:39:50.977Z</time></trkpt><trkpt lat="45.7171792" lon="9.173895"><ele>321.0</ele><time>2026-04-22T14:39:51.978Z</time></trkpt><trkpt lat="45.7170606" lon="9.1738231"><ele>320.75</ele><time>2026-04-22T14:39:52.977Z</time></trkpt><trkpt lat="45.7169412" lon="9.1737535"><ele>320.5</ele><time>2026-04-22T14:39:53.977Z</time></trkpt><trkpt lat="45.7168206" lon="9.1736918"><ele>320.25</ele><time>2026-04-22T14:39:54.978Z</time></trkpt><trkpt lat="45.7167035" lon="9.1736416"><ele>320.0</ele><time>2026-04-22T14:39:55.977Z</time></trkpt><trkpt lat="45.7165868" lon="9.1736046"><ele>319.25</ele><time>2026-04-22T14:39:56.977Z</time></trkpt><trkpt lat="45.7164682" lon="9.1735756"><ele>318.5</ele><time>2026-04-22T14:39:57.977Z</time></trkpt><trkpt lat="45.7163452" lon="9.173551"><ele>317.75</ele><time>2026-04-22T14:39:58.977Z</time></trkpt><trkpt lat="45.7162263" lon="9.1735284"><ele>317.0</ele><time>2026-04-22T14:39:59.978Z</time></trkpt><trkpt lat="45.7161145" lon="9.1735042"><ele>316.4</ele><time>2026-04-22T14:40:00.977Z</time></trkpt><trkpt lat="45.7160065" lon="9.1734905"><ele>315.79999999999995</ele><time>2026-04-22T14:40:01.977Z</time></trkpt><trkpt lat="45.715899" lon="9.1734922"><ele>315.2</ele><time>2026-04-22T14:40:02.977Z</time></trkpt><trkpt lat="45.7157905" lon="9.1735095"><ele>314.59999999999997</ele><time>2026-04-22T14:40:03.977Z</time></trkpt><trkpt lat="45.7156815" lon="9.1735418"><ele>314.0</ele><time>2026-04-22T14:40:04.977Z</time></trkpt><trkpt lat="45.7155734" lon="9.1735905"><ele>314.0</ele><time>2026-04-22T14:40:05.977Z</time></trkpt><trkpt lat="45.7154687" lon="9.1736396"><ele>314.0</ele><time>2026-04-22T14:40:06.976Z</time></trkpt><trkpt lat="45.7153648" lon="9.1736733"><ele>314.0</ele><time>2026-04-22T14:40:07.978Z</time></trkpt><trkpt lat="45.7152636" lon="9.1736881"><ele>314.0</ele><time>2026-04-22T14:40:08.978Z</time></trkpt><trkpt lat="45.7151643" lon="9.1736885"><ele>314.0</ele><time>2026-04-22T14:40:09.977Z</time></trkpt><trkpt lat="45.7150695" lon="9.1736678"><ele>314.25</ele><time>2026-04-22T14:40:10.977Z</time></trkpt><trkpt lat="45.7149758" lon="9.1736216"><ele>314.5</ele><time>2026-04-22T14:40:11.978Z</time></trkpt><trkpt lat="45.7148779" lon="9.1735547"><ele>314.75</ele><time>2026-04-22T14:40:12.977Z</time></trkpt><trkpt lat="45.7147721" lon="9.1734681"><ele>315.0</ele><time>2026-04-22T14:40:13.978Z</time></trkpt><trkpt lat="45.7146562" lon="9.1733744"><ele>315.0</ele><time>2026-04-22T14:40:14.977Z</time></trkpt><trkpt lat="45.7145384" lon="9.1732827"><ele>315.0</ele><time>2026-04-22T14:40:15.978Z</time></trkpt><trkpt lat="45.7144248" lon="9.1731977"><ele>315.0</ele><time>2026-04-22T14:40:16.976Z</time></trkpt><trkpt lat="45.7143122" lon="9.173126"><ele>315.0</ele><time>2026-04-22T14:40:17.976Z</time></trkpt><trkpt lat="45.7142102" lon="9.1730656"><ele>314.6666666666667</ele><time>2026-04-22T14:40:18.978Z</time></trkpt><trkpt lat="45.7141232" lon="9.1730246"><ele>314.3333333333333</ele><time>2026-04-22T14:40:19.978Z</time></trkpt><trkpt lat="45.7140426" lon="9.1730034"><ele>314.0</ele><time>2026-04-22T14:40:20.977Z</time></trkpt><trkpt lat="45.7139616" lon="9.1730028"><ele>313.66666666666663</ele><time>2026-04-22T14:40:21.978Z</time></trkpt><trkpt lat="45.7138781" lon="9.1730222"><ele>313.3333333333333</ele><time>2026-04-22T14:40:22.977Z</time></trkpt><trkpt lat="45.7137966" lon="9.1730612"><ele>313.0</ele><time>2026-04-22T14:40:23.977Z</time></trkpt><trkpt lat="45.7137156" lon="9.1731174"><ele>313.0</ele><time>2026-04-22T14:40:24.977Z</time></trkpt><trkpt lat="45.7136445" lon="9.1731875"><ele>313.0</ele><time>2026-04-22T14:40:25.977Z</time></trkpt><trkpt lat="45.7135798" lon="9.1732678"><ele>313.0</ele><time>2026-04-22T14:40:26.977Z</time></trkpt><trkpt lat="45.7135222" lon="9.17337"><ele>313.0</ele><time>2026-04-22T14:40:27.977Z</time></trkpt><trkpt lat="45.7134648" lon="9.1734765"><ele>313.0</ele><time>2026-04-22T14:40:28.977Z</time></trkpt><trkpt lat="45.7134097" lon="9.1735797"><ele>313.0</ele><time>2026-04-22T14:40:29.977Z</time></trkpt><trkpt lat="45.7133533" lon="9.1736746"><ele>312.8333333333333</ele><time>2026-04-22T14:40:30.976Z</time></trkpt><trkpt lat="45.7132897" lon="9.1737549"><ele>312.66666666666663</ele><time>2026-04-22T14:40:31.976Z</time></trkpt><trkpt lat="45.7132198" lon="9.1738235"><ele>312.5</ele><time>2026-04-22T14:40:32.977Z</time></trkpt><trkpt lat="45.7131481" lon="9.1738764"><ele>312.3333333333333</ele><time>2026-04-22T14:40:33.977Z</time></trkpt><trkpt lat="45.7130744" lon="9.1739098"><ele>312.1666666666667</ele><time>2026-04-22T14:40:34.976Z</time></trkpt><trkpt lat="45.7129984" lon="9.1739255"><ele>312.0</ele><time>2026-04-22T14:40:35.978Z</time></trkpt><trkpt lat="45.712917" lon="9.1739303"><ele>312.0</ele><time>2026-04-22T14:40:36.977Z</time></trkpt><trkpt lat="45.7128391" lon="9.1739201"><ele>312.0</ele><time>2026-04-22T14:40:37.977Z</time></trkpt><trkpt lat="45.712762" lon="9.1738946"><ele>312.0</ele><time>2026-04-22T14:40:38.977Z</time></trkpt><trkpt lat="45.7126819" lon="9.1738525"><ele>312.0</ele><time>2026-04-22T14:40:39.978Z</time></trkpt><trkpt lat="45.7125956" lon="9.1737969"><ele>312.0</ele><time>2026-04-22T14:40:40.977Z</time></trkpt><trkpt lat="45.712504" lon="9.1737395"><ele>312.0</ele><time>2026-04-22T14:40:41.977Z</time></trkpt><trkpt lat="45.7124099" lon="9.1736782"><ele>311.8</ele><time>2026-04-22T14:40:42.977Z</time></trkpt><trkpt lat="45.712321" lon="9.1736154"><ele>311.6</ele><time>2026-04-22T14:40:43.977Z</time></trkpt><trkpt lat="45.712228" lon="9.1735487"><ele>311.40000000000003</ele><time>2026-04-22T14:40:44.976Z</time></trkpt><trkpt lat="45.7121383" lon="9.1734694"><ele>311.2</ele><time>2026-04-22T14:40:45.976Z</time></trkpt><trkpt lat="45.712044" lon="9.1733864"><ele>311.0</ele><time>2026-04-22T14:40:46.978Z</time></trkpt><trkpt lat="45.711957" lon="9.1732734"><ele>308.75</ele><time>2026-04-22T14:40:47.977Z</time></trkpt><trkpt lat="45.7118624" lon="9.1731662"><ele>306.5</ele><time>2026-04-22T14:40:48.977Z</time></trkpt><trkpt lat="45.7117704" lon="9.1730583"><ele>304.25</ele><time>2026-04-22T14:40:49.978Z</time></trkpt><trkpt lat="45.7116846" lon="9.1729441"><ele>302.0</ele><time>2026-04-22T14:40:50.976Z</time></trkpt><trkpt lat="45.7115968" lon="9.1728331"><ele>302.0</ele><time>2026-04-22T14:40:51.976Z</time></trkpt><trkpt lat="45.7115167" lon="9.1727152"><ele>302.0</ele><time>2026-04-22T14:40:52.978Z</time></trkpt><trkpt lat="45.7114318" lon="9.1726021"><ele>302.0</ele><time>2026-04-22T14:40:53.978Z</time></trkpt><trkpt lat="45.7113398" lon="9.1724936"><ele>302.0</ele><time>2026-04-22T14:40:54.978Z</time></trkpt><trkpt lat="45.7112457" lon="9.172382"><ele>300.5</ele><time>2026-04-22T14:40:55.978Z</time></trkpt><trkpt lat="45.7111472" lon="9.1722616"><ele>299.0</ele><time>2026-04-22T14:40:56.977Z</time></trkpt><trkpt lat="45.7110483" lon="9.1721455"><ele>297.5</ele><time>2026-04-22T14:40:57.977Z</time></trkpt><trkpt lat="45.7109497" lon="9.1720404"><ele>296.0</ele><time>2026-04-22T14:40:58.977Z</time></trkpt><trkpt lat="45.7108524" lon="9.1719384"><ele>295.75</ele><time>2026-04-22T14:40:59.977Z</time></trkpt><trkpt lat="45.7107524" lon="9.1718443"><ele>295.5</ele><time>2026-04-22T14:41:00.978Z</time></trkpt><trkpt lat="45.7106487" lon="9.171758"><ele>295.25</ele><time>2026-04-22T14:41:01.977Z</time></trkpt><trkpt lat="45.7105436" lon="9.1716783"><ele>295.0</ele><time>2026-04-22T14:41:02.977Z</time></trkpt><trkpt lat="45.710436" lon="9.1716048"><ele>295.0</ele><time>2026-04-22T14:41:03.977Z</time></trkpt><trkpt lat="45.7103278" lon="9.1715375"><ele>295.0</ele><time>2026-04-22T14:41:04.976Z</time></trkpt><trkpt lat="45.7102222" lon="9.1714799"><ele>295.0</ele><time>2026-04-22T14:41:05.977Z</time></trkpt><trkpt lat="45.7101193" lon="9.171437"><ele>295.0</ele><time>2026-04-22T14:41:06.977Z</time></trkpt><trkpt lat="45.710017" lon="9.1714127"><ele>295.0</ele><time>2026-04-22T14:41:07.977Z</time></trkpt><trkpt lat="45.7099125" lon="9.1713953"><ele>294.75</ele><time>2026-04-22T14:41:08.978Z</time></trkpt><trkpt lat="45.7098048" lon="9.171388"><ele>294.5</ele><time>2026-04-22T14:41:09.977Z</time></trkpt><trkpt lat="45.7096909" lon="9.1713893"><ele>294.25</ele><time>2026-04-22T14:41:10.978Z</time></trkpt><trkpt lat="45.709572" lon="9.1713906"><ele>294.0</ele><time>2026-04-22T14:41:11.978Z</time></trkpt><trkpt lat="45.7094574" lon="9.1713873"><ele>293.5</ele><time>2026-04-22T14:41:12.977Z</time></trkpt><trkpt lat="45.7093479" lon="9.1713866"><ele>293.0</ele><time>2026-04-22T14:41:13.977Z</time></trkpt><trkpt lat="45.7092452" lon="9.1713872"><ele>292.5</ele><time>2026-04-22T14:41:14.977Z</time></trkpt><trkpt lat="45.7091545" lon="9.1713878"><ele>292.0</ele><time>2026-04-22T14:41:15.977Z</time></trkpt><trkpt lat="45.7090777" lon="9.1713883"><ele>291.5</ele><time>2026-04-22T14:41:16.977Z</time></trkpt><trkpt lat="45.7090124" lon="9.1713883"><ele>291.0</ele><time>2026-04-22T14:41:17.978Z</time></trkpt><trkpt lat="45.7089187" lon="9.1713689"><ele>291.0</ele><time>2026-04-22T14:41:19.977Z</time></trkpt><trkpt lat="45.7088536" lon="9.1713206"><ele>291.0</ele><time>2026-04-22T14:41:21.978Z</time></trkpt><trkpt lat="45.7088068" lon="9.1712099"><ele>291.0</ele><time>2026-04-22T14:41:23.976Z</time></trkpt><trkpt lat="45.7087901" lon="9.1711003"><ele>291.0</ele><time>2026-04-22T14:41:24.978Z</time></trkpt><trkpt lat="45.7087777" lon="9.170978"><ele>291.0</ele><time>2026-04-22T14:41:25.977Z</time></trkpt><trkpt lat="45.7087659" lon="9.1708631"><ele>291.0</ele><time>2026-04-22T14:41:26.977Z</time></trkpt><trkpt lat="45.7087473" lon="9.1707495"><ele>291.0</ele><time>2026-04-22T14:41:27.977Z</time></trkpt><trkpt lat="45.7087216" lon="9.1706503"><ele>291.0</ele><time>2026-04-22T14:41:28.978Z</time></trkpt><trkpt lat="45.7086873" lon="9.1705644"><ele>291.0</ele><time>2026-04-22T14:41:29.978Z</time></trkpt><trkpt lat="45.7086455" lon="9.1704925"><ele>291.0</ele><time>2026-04-22T14:41:30.978Z</time></trkpt><trkpt lat="45.7085571" lon="9.1703953"><ele>291.0</ele><time>2026-04-22T14:41:32.978Z</time></trkpt><trkpt lat="45.7085106" lon="9.1703333"><ele>291.0</ele><time>2026-04-22T14:41:37.978Z</time></trkpt><trkpt lat="45.7084376" lon="9.1702213"><ele>291.0</ele><time>2026-04-22T14:41:39.977Z</time></trkpt><trkpt lat="45.7083554" lon="9.1701027"><ele>291.0</ele><time>2026-04-22T14:41:41.978Z</time></trkpt><trkpt lat="45.708249" lon="9.1700764"><ele>291.0</ele><time>2026-04-22T14:41:43.976Z</time></trkpt><trkpt lat="45.7081553" lon="9.1701612"><ele>291.0</ele><time>2026-04-22T14:41:45.977Z</time></trkpt><trkpt lat="45.7081173" lon="9.1702969"><ele>291.0</ele><time>2026-04-22T14:41:47.976Z</time></trkpt><trkpt lat="45.7081408" lon="9.1704403"><ele>291.0</ele><time>2026-04-22T14:41:49.977Z</time></trkpt><trkpt lat="45.7082275" lon="9.1705801"><ele>291.0</ele><time>2026-04-22T14:41:51.978Z</time></trkpt><trkpt lat="45.7082912" lon="9.170654"><ele>291.0</ele><time>2026-04-22T14:41:52.977Z</time></trkpt><trkpt lat="45.7083613" lon="9.1707481"><ele>291.0</ele><time>2026-04-22T14:41:53.978Z</time></trkpt><trkpt lat="45.7084254" lon="9.1708686"><ele>291.0</ele><time>2026-04-22T14:41:54.977Z</time></trkpt><trkpt lat="45.708484" lon="9.1710114"><ele>291.0</ele><time>2026-04-22T14:41:55.977Z</time></trkpt><trkpt lat="45.7085397" lon="9.1711761"><ele>291.0</ele><time>2026-04-22T14:41:56.977Z</time></trkpt><trkpt lat="45.7085949" lon="9.1713631"><ele>291.0</ele><time>2026-04-22T14:41:57.977Z</time></trkpt><trkpt lat="45.7086537" lon="9.1715625"><ele>291.0</ele><time>2026-04-22T14:41:58.978Z</time></trkpt><trkpt lat="45.7087129" lon="9.1717699"><ele>291.25</ele><time>2026-04-22T14:41:59.978Z</time></trkpt><trkpt lat="45.7087712" lon="9.1719676"><ele>291.5</ele><time>2026-04-22T14:42:00.978Z</time></trkpt><trkpt lat="45.7088249" lon="9.1721639"><ele>291.75</ele><time>2026-04-22T14:42:01.977Z</time></trkpt><trkpt lat="45.7088774" lon="9.1723524"><ele>292.0</ele><time>2026-04-22T14:42:02.977Z</time></trkpt><trkpt lat="45.7089278" lon="9.1725432"><ele>292.0</ele><time>2026-04-22T14:42:03.978Z</time></trkpt><trkpt lat="45.7089789" lon="9.1727295"><ele>292.0</ele><time>2026-04-22T14:42:04.978Z</time></trkpt><trkpt lat="45.7090331" lon="9.1729155"><ele>292.0</ele><time>2026-04-22T14:42:05.978Z</time></trkpt><trkpt lat="45.7090853" lon="9.1731052"><ele>292.0</ele><time>2026-04-22T14:42:06.977Z</time></trkpt><trkpt lat="45.7091386" lon="9.173297"><ele>291.75</ele><time>2026-04-22T14:42:07.977Z</time></trkpt><trkpt lat="45.7091957" lon="9.1734895"><ele>291.5</ele><time>2026-04-22T14:42:08.977Z</time></trkpt><trkpt lat="45.7092519" lon="9.1736825"><ele>291.25</ele><time>2026-04-22T14:42:09.978Z</time></trkpt><trkpt lat="45.7093077" lon="9.1738777"><ele>291.0</ele><time>2026-04-22T14:42:10.976Z</time></trkpt><trkpt lat="45.7093652" lon="9.1740734"><ele>293.0</ele><time>2026-04-22T14:42:11.977Z</time></trkpt><trkpt lat="45.709422" lon="9.1742691"><ele>295.0</ele><time>2026-04-22T14:42:12.976Z</time></trkpt><trkpt lat="45.7094788" lon="9.174466"><ele>297.0</ele><time>2026-04-22T14:42:13.976Z</time></trkpt><trkpt lat="45.7095374" lon="9.1746629"><ele>299.0</ele><time>2026-04-22T14:42:14.978Z</time></trkpt><trkpt lat="45.7095969" lon="9.1748595"><ele>300.0</ele><time>2026-04-22T14:42:15.978Z</time></trkpt><trkpt lat="45.7096555" lon="9.1750576"><ele>301.0</ele><time>2026-04-22T14:42:16.977Z</time></trkpt><trkpt lat="45.7097149" lon="9.1752579"><ele>302.0</ele><time>2026-04-22T14:42:17.976Z</time></trkpt><trkpt lat="45.7097762" lon="9.1754597"><ele>302.0</ele><time>2026-04-22T14:42:18.977Z</time></trkpt><trkpt lat="45.7098369" lon="9.1756639"><ele>302.0</ele><time>2026-04-22T14:42:19.977Z</time></trkpt><trkpt lat="45.7098982" lon="9.1758684"><ele>302.0</ele><time>2026-04-22T14:42:20.977Z</time></trkpt><trkpt lat="45.7099585" lon="9.1760747"><ele>302.0</ele><time>2026-04-22T14:42:21.977Z</time></trkpt><trkpt lat="45.7100206" lon="9.1762836"><ele>302.0</ele><time>2026-04-22T14:42:22.978Z</time></trkpt><trkpt lat="45.710082" lon="9.1764957"><ele>302.0</ele><time>2026-04-22T14:42:23.976Z</time></trkpt><trkpt lat="45.7101472" lon="9.1767105"><ele>303.0</ele><time>2026-04-22T14:42:24.977Z</time></trkpt><trkpt lat="45.7102153" lon="9.1769257"><ele>304.0</ele><time>2026-04-22T14:42:25.977Z</time></trkpt><trkpt lat="45.7102835" lon="9.1771464"><ele>305.0</ele><time>2026-04-22T14:42:26.977Z</time></trkpt><trkpt lat="45.7103549" lon="9.1773664"><ele>306.0</ele><time>2026-04-22T14:42:27.978Z</time></trkpt><trkpt lat="45.710427" lon="9.1775852"><ele>307.0</ele><time>2026-04-22T14:42:28.977Z</time></trkpt><trkpt lat="45.7104973" lon="9.1778061"><ele>308.0</ele><time>2026-04-22T14:42:29.977Z</time></trkpt><trkpt lat="45.7105658" lon="9.1780282"><ele>308.6666666666667</ele><time>2026-04-22T14:42:30.978Z</time></trkpt><trkpt lat="45.7106338" lon="9.1782502"><ele>309.3333333333333</ele><time>2026-04-22T14:42:31.978Z</time></trkpt><trkpt lat="45.7106984" lon="9.1784667"><ele>310.0</ele><time>2026-04-22T14:42:32.978Z</time></trkpt><trkpt lat="45.710762" lon="9.178681"><ele>310.0</ele><time>2026-04-22T14:42:33.978Z</time></trkpt><trkpt lat="45.710824" lon="9.1788929"><ele>310.0</ele><time>2026-04-22T14:42:34.978Z</time></trkpt><trkpt lat="45.7108853" lon="9.1791026"><ele>310.0</ele><time>2026-04-22T14:42:35.978Z</time></trkpt><trkpt lat="45.710946" lon="9.1793107"><ele>309.5</ele><time>2026-04-22T14:42:36.977Z</time></trkpt><trkpt lat="45.7110049" lon="9.179512"><ele>309.0</ele><time>2026-04-22T14:42:37.977Z</time></trkpt><trkpt lat="45.7110579" lon="9.17969"><ele>308.5</ele><time>2026-04-22T14:42:38.977Z</time></trkpt><trkpt lat="45.7111072" lon="9.179856"><ele>308.0</ele><time>2026-04-22T14:42:39.977Z</time></trkpt><trkpt lat="45.711154" lon="9.1800132"><ele>307.25</ele><time>2026-04-22T14:42:40.978Z</time></trkpt><trkpt lat="45.7111973" lon="9.1801638"><ele>306.5</ele><time>2026-04-22T14:42:41.976Z</time></trkpt><trkpt lat="45.7112427" lon="9.1803182"><ele>305.75</ele><time>2026-04-22T14:42:42.976Z</time></trkpt><trkpt lat="45.7112909" lon="9.1804731"><ele>305.0</ele><time>2026-04-22T14:42:43.976Z</time></trkpt><trkpt lat="45.7113368" lon="9.1806293"><ele>304.0</ele><time>2026-04-22T14:42:44.977Z</time></trkpt><trkpt lat="45.7113846" lon="9.1807857"><ele>303.0</ele><time>2026-04-22T14:42:45.977Z</time></trkpt><trkpt lat="45.7114314" lon="9.1809461"><ele>302.0</ele><time>2026-04-22T14:42:46.978Z</time></trkpt><trkpt lat="45.7114797" lon="9.1811055"><ele>301.0</ele><time>2026-04-22T14:42:47.977Z</time></trkpt><trkpt lat="45.7115284" lon="9.1812706"><ele>301.0</ele><time>2026-04-22T14:42:48.977Z</time></trkpt><trkpt lat="45.7115768" lon="9.181437"><ele>301.0</ele><time>2026-04-22T14:42:49.978Z</time></trkpt><trkpt lat="45.7116259" lon="9.1816077"><ele>301.0</ele><time>2026-04-22T14:42:50.978Z</time></trkpt><trkpt lat="45.7116738" lon="9.1817817"><ele>301.0</ele><time>2026-04-22T14:42:51.976Z</time></trkpt><trkpt lat="45.7117238" lon="9.1819584"><ele>299.0</ele><time>2026-04-22T14:42:52.977Z</time></trkpt><trkpt lat="45.7117759" lon="9.1821364"><ele>297.0</ele><time>2026-04-22T14:42:53.977Z</time></trkpt><trkpt lat="45.7118309" lon="9.182318"><ele>295.0</ele><time>2026-04-22T14:42:54.976Z</time></trkpt><trkpt lat="45.7118853" lon="9.1825022"><ele>293.0</ele><time>2026-04-22T14:42:55.978Z</time></trkpt><trkpt lat="45.7119398" lon="9.1826897"><ele>292.75</ele><time>2026-04-22T14:42:56.976Z</time></trkpt><trkpt lat="45.7119966" lon="9.1828768"><ele>292.5</ele><time>2026-04-22T14:42:57.978Z</time></trkpt><trkpt lat="45.7120538" lon="9.1830668"><ele>292.25</ele><time>2026-04-22T14:42:58.977Z</time></trkpt><trkpt lat="45.7121122" lon="9.1832588"><ele>292.0</ele><time>2026-04-22T14:42:59.977Z</time></trkpt><trkpt lat="45.7121687" lon="9.1834543"><ele>286.66666666666663</ele><time>2026-04-22T14:43:00.977Z</time></trkpt><trkpt lat="45.7122287" lon="9.18365"><ele>281.3333333333333</ele><time>2026-04-22T14:43:01.976Z</time></trkpt><trkpt lat="45.7122878" lon="9.1838469"><ele>276.0</ele><time>2026-04-22T14:43:02.976Z</time></trkpt><trkpt lat="45.7123481" lon="9.1840456"><ele>275.6666666666667</ele><time>2026-04-22T14:43:03.977Z</time></trkpt><trkpt lat="45.7124085" lon="9.1842463"><ele>275.33333333333337</ele><time>2026-04-22T14:43:04.977Z</time></trkpt><trkpt lat="45.7124718" lon="9.1844451"><ele>275.0</ele><time>2026-04-22T14:43:05.977Z</time></trkpt><trkpt lat="45.7125407" lon="9.1846415"><ele>275.0</ele><time>2026-04-22T14:43:06.976Z</time></trkpt><trkpt lat="45.7126107" lon="9.1848381"><ele>275.0</ele><time>2026-04-22T14:43:07.977Z</time></trkpt><trkpt lat="45.7126843" lon="9.1850334"><ele>275.0</ele><time>2026-04-22T14:43:08.976Z</time></trkpt><trkpt lat="45.71276" lon="9.18523"><ele>275.33333333333337</ele><time>2026-04-22T14:43:09.977Z</time></trkpt><trkpt lat="45.7128355" lon="9.1854275"><ele>275.6666666666667</ele><time>2026-04-22T14:43:10.976Z</time></trkpt><trkpt lat="45.7129098" lon="9.1856259"><ele>276.0</ele><time>2026-04-22T14:43:11.977Z</time></trkpt><trkpt lat="45.7129862" lon="9.1858242"><ele>276.0</ele><time>2026-04-22T14:43:12.976Z</time></trkpt><trkpt lat="45.7130636" lon="9.1860227"><ele>276.0</ele><time>2026-04-22T14:43:13.976Z</time></trkpt><trkpt lat="45.7131407" lon="9.1862221"><ele>276.0</ele><time>2026-04-22T14:43:14.977Z</time></trkpt><trkpt lat="45.7132185" lon="9.1864212"><ele>275.3333333333333</ele><time>2026-04-22T14:43:15.975Z</time></trkpt><trkpt lat="45.7132957" lon="9.1866229"><ele>274.66666666666663</ele><time>2026-04-22T14:43:16.976Z</time></trkpt><trkpt lat="45.7133762" lon="9.1868287"><ele>274.0</ele><time>2026-04-22T14:43:17.975Z</time></trkpt><trkpt lat="45.7134549" lon="9.1870374"><ele>274.0</ele><time>2026-04-22T14:43:18.976Z</time></trkpt><trkpt lat="45.7135351" lon="9.1872489"><ele>274.0</ele><time>2026-04-22T14:43:19.975Z</time></trkpt><trkpt lat="45.7136151" lon="9.1874603"><ele>274.0</ele><time>2026-04-22T14:43:20.976Z</time></trkpt><trkpt lat="45.7136943" lon="9.187671"><ele>274.3333333333333</ele><time>2026-04-22T14:43:21.976Z</time></trkpt><trkpt lat="45.7137716" lon="9.1878828"><ele>274.6666666666667</ele><time>2026-04-22T14:43:22.975Z</time></trkpt><trkpt lat="45.7138487" lon="9.1880892"><ele>275.0</ele><time>2026-04-22T14:43:23.976Z</time></trkpt><trkpt lat="45.7139231" lon="9.1882922"><ele>275.0</ele><time>2026-04-22T14:43:24.977Z</time></trkpt><trkpt lat="45.7139942" lon="9.1884885"><ele>275.0</ele><time>2026-04-22T14:43:25.976Z</time></trkpt><trkpt lat="45.7140643" lon="9.1886831"><ele>275.0</ele><time>2026-04-22T14:43:26.976Z</time></trkpt><trkpt lat="45.7141342" lon="9.1888721"><ele>274.6666666666667</ele><time>2026-04-22T14:43:27.975Z</time></trkpt><trkpt lat="45.7142025" lon="9.1890637"><ele>274.3333333333333</ele><time>2026-04-22T14:43:28.977Z</time></trkpt><trkpt lat="45.7142708" lon="9.1892605"><ele>274.0</ele><time>2026-04-22T14:43:29.976Z</time></trkpt><trkpt lat="45.7143389" lon="9.1894594"><ele>274.3333333333333</ele><time>2026-04-22T14:43:30.975Z</time></trkpt><trkpt lat="45.7144068" lon="9.1896579"><ele>274.6666666666667</ele><time>2026-04-22T14:43:31.975Z</time></trkpt><trkpt lat="45.714477" lon="9.1898489"><ele>275.0</ele><time>2026-04-22T14:43:32.976Z</time></trkpt><trkpt lat="45.7145486" lon="9.1900364"><ele>275.0</ele><time>2026-04-22T14:43:33.976Z</time></trkpt><trkpt lat="45.7146225" lon="9.1902198"><ele>275.0</ele><time>2026-04-22T14:43:34.976Z</time></trkpt><trkpt lat="45.7146978" lon="9.1904017"><ele>275.0</ele><time>2026-04-22T14:43:35.976Z</time></trkpt><trkpt lat="45.7147734" lon="9.1905824"><ele>275.0</ele><time>2026-04-22T14:43:36.975Z</time></trkpt><trkpt lat="45.7148518" lon="9.1907621"><ele>275.0</ele><time>2026-04-22T14:43:37.976Z</time></trkpt><trkpt lat="45.7149285" lon="9.1909438"><ele>275.0</ele><time>2026-04-22T14:43:38.977Z</time></trkpt><trkpt lat="45.7150019" lon="9.1911285"><ele>275.0</ele><time>2026-04-22T14:43:39.977Z</time></trkpt><trkpt lat="45.7150747" lon="9.1913164"><ele>275.0</ele><time>2026-04-22T14:43:40.976Z</time></trkpt><trkpt lat="45.7151472" lon="9.1915063"><ele>275.0</ele><time>2026-04-22T14:43:41.976Z</time></trkpt><trkpt lat="45.7152214" lon="9.1916977"><ele>275.0</ele><time>2026-04-22T14:43:42.976Z</time></trkpt><trkpt lat="45.7152964" lon="9.19189"><ele>275.0</ele><time>2026-04-22T14:43:43.977Z</time></trkpt><trkpt lat="45.7153717" lon="9.1920845"><ele>274.6666666666667</ele><time>2026-04-22T14:43:44.977Z</time></trkpt><trkpt lat="45.7154478" lon="9.1922793"><ele>274.3333333333333</ele><time>2026-04-22T14:43:45.976Z</time></trkpt><trkpt lat="45.7155247" lon="9.192475"><ele>274.0</ele><time>2026-04-22T14:43:46.975Z</time></trkpt><trkpt lat="45.7156017" lon="9.1926724"><ele>274.0</ele><time>2026-04-22T14:43:47.976Z</time></trkpt><trkpt lat="45.7156792" lon="9.1928715"><ele>274.0</ele><time>2026-04-22T14:43:48.976Z</time></trkpt><trkpt lat="45.7157565" lon="9.1930713"><ele>274.0</ele><time>2026-04-22T14:43:49.976Z</time></trkpt><trkpt lat="45.7158333" lon="9.1932733"><ele>274.0</ele><time>2026-04-22T14:43:50.975Z</time></trkpt><trkpt lat="45.7159101" lon="9.1934774"><ele>274.0</ele><time>2026-04-22T14:43:51.977Z</time></trkpt><trkpt lat="45.7159842" lon="9.1936808"><ele>274.0</ele><time>2026-04-22T14:43:52.976Z</time></trkpt><trkpt lat="45.7160521" lon="9.1938656"><ele>274.5</ele><time>2026-04-22T14:43:53.976Z</time></trkpt><trkpt lat="45.7161162" lon="9.1940351"><ele>275.0</ele><time>2026-04-22T14:43:54.977Z</time></trkpt><trkpt lat="45.7161755" lon="9.1941916"><ele>275.5</ele><time>2026-04-22T14:43:55.977Z</time></trkpt><trkpt lat="45.7162312" lon="9.1943364"><ele>276.0</ele><time>2026-04-22T14:43:56.977Z</time></trkpt><trkpt lat="45.7162818" lon="9.1944682"><ele>276.0</ele><time>2026-04-22T14:43:57.976Z</time></trkpt><trkpt lat="45.7163267" lon="9.1945865"><ele>276.0</ele><time>2026-04-22T14:43:58.976Z</time></trkpt><trkpt lat="45.7163631" lon="9.194686"><ele>276.0</ele><time>2026-04-22T14:43:59.977Z</time></trkpt><trkpt lat="45.7163927" lon="9.1947725"><ele>276.0</ele><time>2026-04-22T14:44:00.975Z</time></trkpt><trkpt lat="45.7164375" lon="9.1949026"><ele>276.0</ele><time>2026-04-22T14:44:02.977Z</time></trkpt><trkpt lat="45.7164653" lon="9.1949933"><ele>276.0</ele><time>2026-04-22T14:44:04.976Z</time></trkpt><trkpt lat="45.7164976" lon="9.1951019"><ele>276.5</ele><time>2026-04-22T14:44:07.975Z</time></trkpt><trkpt lat="45.7165215" lon="9.1952162"><ele>277.0</ele><time>2026-04-22T14:44:19.976Z</time></trkpt><trkpt lat="45.7165528" lon="9.1953165"><ele>277.5</ele><time>2026-04-22T14:44:31.976Z</time></trkpt><trkpt lat="45.7165753" lon="9.1954384"><ele>278.0</ele><time>2026-04-22T14:44:33.977Z</time></trkpt><trkpt lat="45.7165911" lon="9.1955663"><ele>278.5</ele><time>2026-04-22T14:44:35.976Z</time></trkpt><trkpt lat="45.7166041" lon="9.1956778"><ele>279.0</ele><time>2026-04-22T14:44:37.976Z</time></trkpt><trkpt lat="45.7166102" lon="9.195784"><ele>279.5</ele><time>2026-04-22T14:44:39.976Z</time></trkpt><trkpt lat="45.7166083" lon="9.1958983"><ele>280.0</ele><time>2026-04-22T14:44:41.977Z</time></trkpt><trkpt lat="45.7166117" lon="9.1960251"><ele>280.5</ele><time>2026-04-22T14:44:43.975Z</time></trkpt><trkpt lat="45.7166072" lon="9.1961417"><ele>281.0</ele><time>2026-04-22T14:44:46.977Z</time></trkpt><trkpt lat="45.7165988" lon="9.196271"><ele>281.5</ele><time>2026-04-22T14:44:49.976Z</time></trkpt><trkpt lat="45.7165787" lon="9.1964066"><ele>282.0</ele><time>2026-04-22T14:44:51.976Z</time></trkpt><trkpt lat="45.7165553" lon="9.1965636"><ele>284.0</ele><time>2026-04-22T14:44:53.976Z</time></trkpt><trkpt lat="45.7165267" lon="9.196726"><ele>286.0</ele><time>2026-04-22T14:44:55.976Z</time></trkpt><trkpt lat="45.7164977" lon="9.1968825"><ele>288.0</ele><time>2026-04-22T14:44:57.976Z</time></trkpt><trkpt lat="45.7164683" lon="9.1970472"><ele>290.0</ele><time>2026-04-22T14:44:59.977Z</time></trkpt><trkpt lat="45.716453" lon="9.1971352"><ele>292.0</ele><time>2026-04-22T14:45:00.975Z</time></trkpt><trkpt lat="45.7164354" lon="9.1972286"><ele>292.0</ele><time>2026-04-22T14:45:01.975Z</time></trkpt><trkpt lat="45.7164174" lon="9.1973194"><ele>292.0</ele><time>2026-04-22T14:45:02.977Z</time></trkpt><trkpt lat="45.7163999" lon="9.1974171"><ele>292.0</ele><time>2026-04-22T14:45:03.976Z</time></trkpt><trkpt lat="45.7163767" lon="9.1975232"><ele>292.0</ele><time>2026-04-22T14:45:04.975Z</time></trkpt><trkpt lat="45.7163449" lon="9.197653"><ele>292.0</ele><time>2026-04-22T14:45:05.976Z</time></trkpt><trkpt lat="45.716307" lon="9.1977888"><ele>292.0</ele><time>2026-04-22T14:45:06.976Z</time></trkpt><trkpt lat="45.7162905" lon="9.1979455"><ele>292.6</ele><time>2026-04-22T14:45:07.976Z</time></trkpt><trkpt lat="45.7162618" lon="9.1980952"><ele>293.2</ele><time>2026-04-22T14:45:08.976Z</time></trkpt><trkpt lat="45.7162372" lon="9.198225"><ele>293.8</ele><time>2026-04-22T14:45:09.976Z</time></trkpt><trkpt lat="45.7162149" lon="9.1983471"><ele>294.4</ele><time>2026-04-22T14:45:10.976Z</time></trkpt><trkpt lat="45.7161912" lon="9.1984668"><ele>295.0</ele><time>2026-04-22T14:45:11.976Z</time></trkpt><trkpt lat="45.7161696" lon="9.1985786"><ele>295.3333333333333</ele><time>2026-04-22T14:45:12.975Z</time></trkpt><trkpt lat="45.7161494" lon="9.1986791"><ele>295.66666666666663</ele><time>2026-04-22T14:45:13.977Z</time></trkpt><trkpt lat="45.7161032" lon="9.1988281"><ele>296.0</ele><time>2026-04-22T14:45:15.976Z</time></trkpt><trkpt lat="45.7160376" lon="9.1989066"><ele>296.3333333333333</ele><time>2026-04-22T14:45:17.977Z</time></trkpt><trkpt lat="45.7159616" lon="9.198912"><ele>296.6666666666667</ele><time>2026-04-22T14:45:19.976Z</time></trkpt><trkpt lat="45.7159102" lon="9.1988465"><ele>297.0</ele><time>2026-04-22T14:45:21.975Z</time></trkpt><trkpt lat="45.7158998" lon="9.1987523"><ele>297.0</ele><time>2026-04-22T14:45:23.977Z</time></trkpt><trkpt lat="45.715929" lon="9.1986604"><ele>297.0</ele><time>2026-04-22T14:45:25.976Z</time></trkpt><trkpt lat="45.7159873" lon="9.1985836"><ele>297.0</ele><time>2026-04-22T14:45:27.977Z</time></trkpt><trkpt lat="45.7160577" lon="9.1984766"><ele>297.0</ele><time>2026-04-22T14:45:29.976Z</time></trkpt><trkpt lat="45.7160838" lon="9.1983908"><ele>297.0</ele><time>2026-04-22T14:45:30.976Z</time></trkpt><trkpt lat="45.7161011" lon="9.1982899"><ele>297.0</ele><time>2026-04-22T14:45:31.977Z</time></trkpt><trkpt lat="45.7161059" lon="9.1981896"><ele>296.6</ele><time>2026-04-22T14:45:32.977Z</time></trkpt><trkpt lat="45.7161032" lon="9.1980903"><ele>296.2</ele><time>2026-04-22T14:45:33.976Z</time></trkpt><trkpt lat="45.7160941" lon="9.197992"><ele>295.8</ele><time>2026-04-22T14:45:34.977Z</time></trkpt><trkpt lat="45.7161084" lon="9.1978247"><ele>295.4</ele><time>2026-04-22T14:45:36.977Z</time></trkpt><trkpt lat="45.7161855" lon="9.1977192"><ele>295.0</ele><time>2026-04-22T14:45:38.977Z</time></trkpt><trkpt lat="45.7162939" lon="9.1977014"><ele>295.0</ele><time>2026-04-22T14:45:40.976Z</time></trkpt><trkpt lat="45.7164171" lon="9.1977412"><ele>295.0</ele><time>2026-04-22T14:45:42.976Z</time></trkpt><trkpt lat="45.7165146" lon="9.1978255"><ele>295.0</ele><time>2026-04-22T14:45:44.976Z</time></trkpt><trkpt lat="45.7165497" lon="9.1979383"><ele>295.0</ele><time>2026-04-22T14:45:46.977Z</time></trkpt><trkpt lat="45.7165263" lon="9.1980831"><ele>295.0</ele><time>2026-04-22T14:45:48.976Z</time></trkpt><trkpt lat="45.7164977" lon="9.1981713"><ele>295.66666666666663</ele><time>2026-04-22T14:45:49.976Z</time></trkpt><trkpt lat="45.7164708" lon="9.1982681"><ele>296.3333333333333</ele><time>2026-04-22T14:45:50.976Z</time></trkpt><trkpt lat="45.7164539" lon="9.1983604"><ele>297.0</ele><time>2026-04-22T14:45:51.975Z</time></trkpt><trkpt lat="45.7164501" lon="9.198494"><ele>297.6666666666667</ele><time>2026-04-22T14:45:53.975Z</time></trkpt><trkpt lat="45.7164632" lon="9.1986201"><ele>298.33333333333337</ele><time>2026-04-22T14:45:56.975Z</time></trkpt><trkpt lat="45.7164908" lon="9.1987228"><ele>299.0</ele><time>2026-04-22T14:45:58.977Z</time></trkpt><trkpt lat="45.7165509" lon="9.1987629"><ele>299.0</ele><time>2026-04-22T14:46:00.975Z</time></trkpt><trkpt lat="45.7166125" lon="9.1987168"><ele>299.0</ele><time>2026-04-22T14:46:02.976Z</time></trkpt><trkpt lat="45.7166616" lon="9.1985763"><ele>299.0</ele><time>2026-04-22T14:46:04.976Z</time></trkpt><trkpt lat="45.7166747" lon="9.1984773"><ele>299.0</ele><time>2026-04-22T14:46:05.976Z</time></trkpt><trkpt lat="45.7166799" lon="9.1983871"><ele>299.0</ele><time>2026-04-22T14:46:06.976Z</time></trkpt><trkpt lat="45.7166862" lon="9.1982851"><ele>299.0</ele><time>2026-04-22T14:46:07.976Z</time></trkpt><trkpt lat="45.7167085" lon="9.1981907"><ele>299.0</ele><time>2026-04-22T14:46:08.977Z</time></trkpt><trkpt lat="45.7167331" lon="9.1980993"><ele>299.0</ele><time>2026-04-22T14:46:09.976Z</time></trkpt><trkpt lat="45.7167959" lon="9.1979317"><ele>299.0</ele><time>2026-04-22T14:46:11.976Z</time></trkpt><trkpt lat="45.7168416" lon="9.1978541"><ele>299.0</ele><time>2026-04-22T14:46:12.977Z</time></trkpt><trkpt lat="45.7168965" lon="9.1977795"><ele>299.0</ele><time>2026-04-22T14:46:13.977Z</time></trkpt><trkpt lat="45.7169602" lon="9.1977017"><ele>299.0</ele><time>2026-04-22T14:46:14.976Z</time></trkpt><trkpt lat="45.7170318" lon="9.1976168"><ele>299.0</ele><time>2026-04-22T14:46:15.976Z</time></trkpt><trkpt lat="45.7171069" lon="9.1975301"><ele>299.0</ele><time>2026-04-22T14:46:16.976Z</time></trkpt><trkpt lat="45.7171736" lon="9.1974417"><ele>299.0</ele><time>2026-04-22T14:46:17.976Z</time></trkpt><trkpt lat="45.717235" lon="9.1973657"><ele>299.0</ele><time>2026-04-22T14:46:18.976Z</time></trkpt><trkpt lat="45.7172985" lon="9.1972958"><ele>299.0</ele><time>2026-04-22T14:46:19.977Z</time></trkpt><trkpt lat="45.7173581" lon="9.1972398"><ele>299.0</ele><time>2026-04-22T14:46:20.976Z</time></trkpt><trkpt lat="45.7174654" lon="9.1971781"><ele>298.8</ele><time>2026-04-22T14:46:22.977Z</time></trkpt><trkpt lat="45.7175677" lon="9.1971704"><ele>298.59999999999997</ele><time>2026-04-22T14:46:24.977Z</time></trkpt><trkpt lat="45.7176875" lon="9.1972146"><ele>298.4</ele><time>2026-04-22T14:46:26.977Z</time></trkpt><trkpt lat="45.7177638" lon="9.1972603"><ele>298.2</ele><time>2026-04-22T14:46:27.976Z</time></trkpt><trkpt lat="45.7178463" lon="9.1973164"><ele>298.0</ele><time>2026-04-22T14:46:28.976Z</time></trkpt><trkpt lat="45.7179347" lon="9.1973796"><ele>298.0</ele><time>2026-04-22T14:46:29.976Z</time></trkpt><trkpt lat="45.7180284" lon="9.1974474"><ele>298.0</ele><time>2026-04-22T14:46:30.976Z</time></trkpt><trkpt lat="45.7181236" lon="9.1975131"><ele>298.0</ele><time>2026-04-22T14:46:31.975Z</time></trkpt><trkpt lat="45.7182239" lon="9.1975768"><ele>298.0</ele><time>2026-04-22T14:46:32.977Z</time></trkpt><trkpt lat="45.7183215" lon="9.1976262"><ele>298.0</ele><time>2026-04-22T14:46:33.977Z</time></trkpt><trkpt lat="45.718425" lon="9.197663"><ele>298.0</ele><time>2026-04-22T14:46:34.976Z</time></trkpt><trkpt lat="45.7185397" lon="9.1976882"><ele>298.0</ele><time>2026-04-22T14:46:35.976Z</time></trkpt><trkpt lat="45.7186524" lon="9.1976989"><ele>298.0</ele><time>2026-04-22T14:46:36.977Z</time></trkpt><trkpt lat="45.7187633" lon="9.197699"><ele>298.0</ele><time>2026-04-22T14:46:37.976Z</time></trkpt><trkpt lat="45.718882" lon="9.1976875"><ele>299.4</ele><time>2026-04-22T14:46:38.975Z</time></trkpt><trkpt lat="45.7190041" lon="9.1976655"><ele>300.8</ele><time>2026-04-22T14:46:39.976Z</time></trkpt><trkpt lat="45.7191221" lon="9.1976536"><ele>302.2</ele><time>2026-04-22T14:46:40.975Z</time></trkpt><trkpt lat="45.719222" lon="9.1976272"><ele>303.6</ele><time>2026-04-22T14:46:41.976Z</time></trkpt><trkpt lat="45.7193151" lon="9.1976105"><ele>305.0</ele><time>2026-04-22T14:46:42.976Z</time></trkpt><trkpt lat="45.719401" lon="9.1975984"><ele>306.0</ele><time>2026-04-22T14:46:43.976Z</time></trkpt><trkpt lat="45.7194775" lon="9.1975826"><ele>307.0</ele><time>2026-04-22T14:46:44.976Z</time></trkpt><trkpt lat="45.7195478" lon="9.1975633"><ele>308.0</ele><time>2026-04-22T14:46:45.975Z</time></trkpt><trkpt lat="45.7196243" lon="9.1975702"><ele>309.0</ele><time>2026-04-22T14:46:47.975Z</time></trkpt><trkpt lat="45.7196978" lon="9.1976367"><ele>310.0</ele><time>2026-04-22T14:46:50.977Z</time></trkpt><trkpt lat="45.7197138" lon="9.1977703"><ele>311.0</ele><time>2026-04-22T14:46:52.976Z</time></trkpt><trkpt lat="45.7197009" lon="9.1979422"><ele>311.0</ele><time>2026-04-22T14:46:54.976Z</time></trkpt><trkpt lat="45.7197041" lon="9.198111"><ele>311.0</ele><time>2026-04-22T14:46:56.976Z</time></trkpt><trkpt lat="45.7197089" lon="9.1982886"><ele>311.0</ele><time>2026-04-22T14:46:58.977Z</time></trkpt><trkpt lat="45.7197077" lon="9.1983805"><ele>311.0</ele><time>2026-04-22T14:46:59.977Z</time></trkpt><trkpt lat="45.7197069" lon="9.1985541"><ele>311.0</ele><time>2026-04-22T14:47:01.976Z</time></trkpt><trkpt lat="45.7196988" lon="9.1986959"><ele>311.1666666666667</ele><time>2026-04-22T14:47:03.977Z</time></trkpt><trkpt lat="45.7196992" lon="9.1988257"><ele>311.33333333333337</ele><time>2026-04-22T14:47:05.976Z</time></trkpt><trkpt lat="45.7197275" lon="9.1989363"><ele>311.5</ele><time>2026-04-22T14:47:07.977Z</time></trkpt><trkpt lat="45.7197821" lon="9.1989886"><ele>311.6666666666667</ele><time>2026-04-22T14:47:09.975Z</time></trkpt><trkpt lat="45.7198528" lon="9.1989899"><ele>311.8333333333333</ele><time>2026-04-22T14:47:11.975Z</time></trkpt><trkpt lat="45.7199659" lon="9.1989736"><ele>312.0</ele><time>2026-04-22T14:47:13.976Z</time></trkpt><trkpt lat="45.7200345" lon="9.1989693"><ele>312.0</ele><time>2026-04-22T14:47:14.977Z</time></trkpt><trkpt lat="45.720112" lon="9.1989761"><ele>312.0</ele><time>2026-04-22T14:47:15.976Z</time></trkpt><trkpt lat="45.720191" lon="9.1989909"><ele>312.0</ele><time>2026-04-22T14:47:16.976Z</time></trkpt><trkpt lat="45.7202729" lon="9.1990216"><ele>312.0</ele><time>2026-04-22T14:47:17.977Z</time></trkpt><trkpt lat="45.7203615" lon="9.1990658"><ele>312.0</ele><time>2026-04-22T14:47:18.976Z</time></trkpt><trkpt lat="45.7204557" lon="9.1991207"><ele>312.0</ele><time>2026-04-22T14:47:19.976Z</time></trkpt><trkpt lat="45.7205523" lon="9.1991782"><ele>312.2</ele><time>2026-04-22T14:47:20.975Z</time></trkpt><trkpt lat="45.7206517" lon="9.1992361"><ele>312.4</ele><time>2026-04-22T14:47:21.976Z</time></trkpt><trkpt lat="45.720754" lon="9.1992843"><ele>312.6</ele><time>2026-04-22T14:47:22.976Z</time></trkpt><trkpt lat="45.7208527" lon="9.1993237"><ele>312.8</ele><time>2026-04-22T14:47:23.977Z</time></trkpt><trkpt lat="45.7209523" lon="9.1993489"><ele>313.0</ele><time>2026-04-22T14:47:24.977Z</time></trkpt><trkpt lat="45.72105" lon="9.19936"><ele>313.2</ele><time>2026-04-22T14:47:25.976Z</time></trkpt><trkpt lat="45.7211458" lon="9.1993731"><ele>313.4</ele><time>2026-04-22T14:47:26.976Z</time></trkpt><trkpt lat="45.7212387" lon="9.1993836"><ele>313.59999999999997</ele><time>2026-04-22T14:47:27.976Z</time></trkpt><trkpt lat="45.7213177" lon="9.199393"><ele>313.8</ele><time>2026-04-22T14:47:28.976Z</time></trkpt><trkpt lat="45.7214281" lon="9.1994058"><ele>314.0</ele><time>2026-04-22T14:47:30.976Z</time></trkpt><trkpt lat="45.7215349" lon="9.199416"><ele>314.0</ele><time>2026-04-22T14:47:32.976Z</time></trkpt><trkpt lat="45.721657" lon="9.1994303"><ele>314.0</ele><time>2026-04-22T14:47:34.976Z</time></trkpt><trkpt lat="45.721727" lon="9.1994394"><ele>314.0</ele><time>2026-04-22T14:47:35.977Z</time></trkpt><trkpt lat="45.7218027" lon="9.199449"><ele>314.0</ele><time>2026-04-22T14:47:36.977Z</time></trkpt><trkpt lat="45.7218844" lon="9.1994585"><ele>314.0</ele><time>2026-04-22T14:47:37.976Z</time></trkpt><trkpt lat="45.7219706" lon="9.1994688"><ele>314.0</ele><time>2026-04-22T14:47:38.977Z</time></trkpt><trkpt lat="45.7220632" lon="9.1994811"><ele>314.5</ele><time>2026-04-22T14:47:39.975Z</time></trkpt><trkpt lat="45.7221545" lon="9.1994922"><ele>315.0</ele><time>2026-04-22T14:47:40.977Z</time></trkpt><trkpt lat="45.722242" lon="9.1995073"><ele>315.5</ele><time>2026-04-22T14:47:41.977Z</time></trkpt><trkpt lat="45.7223293" lon="9.1995212"><ele>316.0</ele><time>2026-04-22T14:47:42.976Z</time></trkpt><trkpt lat="45.7224117" lon="9.1995327"><ele>316.5</ele><time>2026-04-22T14:47:43.977Z</time></trkpt><trkpt lat="45.7224915" lon="9.199538"><ele>317.0</ele><time>2026-04-22T14:47:44.976Z</time></trkpt><trkpt lat="45.7225707" lon="9.199536"><ele>317.0</ele><time>2026-04-22T14:47:45.977Z</time></trkpt><trkpt lat="45.7226428" lon="9.1995319"><ele>317.0</ele><time>2026-04-22T14:47:46.977Z</time></trkpt><trkpt lat="45.7227059" lon="9.1995377"><ele>317.0</ele><time>2026-04-22T14:47:47.975Z</time></trkpt><trkpt lat="45.722804" lon="9.1995542"><ele>317.0</ele><time>2026-04-22T14:47:49.977Z</time></trkpt><trkpt lat="45.7229038" lon="9.1995765"><ele>317.0</ele><time>2026-04-22T14:47:51.977Z</time></trkpt><trkpt lat="45.7229699" lon="9.1995863"><ele>317.0</ele><time>2026-04-22T14:47:52.976Z</time></trkpt><trkpt lat="45.7230461" lon="9.1995944"><ele>317.4</ele><time>2026-04-22T14:47:53.975Z</time></trkpt><trkpt lat="45.7231347" lon="9.1996089"><ele>317.79999999999995</ele><time>2026-04-22T14:47:54.976Z</time></trkpt><trkpt lat="45.7232316" lon="9.1996139"><ele>318.2</ele><time>2026-04-22T14:47:55.977Z</time></trkpt><trkpt lat="45.7233282" lon="9.19962"><ele>318.59999999999997</ele><time>2026-04-22T14:47:56.977Z</time></trkpt><trkpt lat="45.7234248" lon="9.1996301"><ele>319.0</ele><time>2026-04-22T14:47:57.977Z</time></trkpt><trkpt lat="45.7235193" lon="9.19964"><ele>319.3333333333333</ele><time>2026-04-22T14:47:58.976Z</time></trkpt><trkpt lat="45.7236093" lon="9.199648"><ele>319.66666666666663</ele><time>2026-04-22T14:47:59.976Z</time></trkpt><trkpt lat="45.7236865" lon="9.1996559"><ele>320.0</ele><time>2026-04-22T14:48:00.976Z</time></trkpt><trkpt lat="45.7237828" lon="9.1996791"><ele>320.3333333333333</ele><time>2026-04-22T14:48:02.975Z</time></trkpt><trkpt lat="45.7238307" lon="9.1997404"><ele>320.6666666666667</ele><time>2026-04-22T14:48:04.975Z</time></trkpt><trkpt lat="45.7238542" lon="9.1998346"><ele>321.0</ele><time>2026-04-22T14:48:06.975Z</time></trkpt><trkpt lat="45.7238455" lon="9.2000073"><ele>320.8333333333333</ele><time>2026-04-22T14:48:08.975Z</time></trkpt><trkpt lat="45.7238275" lon="9.2001184"><ele>320.6666666666667</ele><time>2026-04-22T14:48:09.976Z</time></trkpt><trkpt lat="45.7238127" lon="9.2002287"><ele>320.5</ele><time>2026-04-22T14:48:10.976Z</time></trkpt><trkpt lat="45.7238037" lon="9.2003265"><ele>320.33333333333337</ele><time>2026-04-22T14:48:11.975Z</time></trkpt><trkpt lat="45.7237917" lon="9.200425"><ele>320.1666666666667</ele><time>2026-04-22T14:48:12.976Z</time></trkpt><trkpt lat="45.7237953" lon="9.200563"><ele>320.0</ele><time>2026-04-22T14:48:14.975Z</time></trkpt><trkpt lat="45.7237863" lon="9.2006809"><ele>320.0</ele><time>2026-04-22T14:48:16.976Z</time></trkpt><trkpt lat="45.7238425" lon="9.2007782"><ele>320.0</ele><time>2026-04-22T14:48:18.976Z</time></trkpt><trkpt lat="45.7239385" lon="9.2008257"><ele>320.0</ele><time>2026-04-22T14:48:20.976Z</time></trkpt><trkpt lat="45.7240685" lon="9.2008715"><ele>320.0</ele><time>2026-04-22T14:48:22.974Z</time></trkpt><trkpt lat="45.7241411" lon="9.2008945"><ele>320.0</ele><time>2026-04-22T14:48:23.974Z</time></trkpt><trkpt lat="45.7242063" lon="9.2009306"><ele>320.0</ele><time>2026-04-22T14:48:24.975Z</time></trkpt><trkpt lat="45.7243336" lon="9.2009954"><ele>320.0</ele><time>2026-04-22T14:48:26.975Z</time></trkpt><trkpt lat="45.7244037" lon="9.2010156"><ele>320.0</ele><time>2026-04-22T14:48:27.975Z</time></trkpt><trkpt lat="45.7244869" lon="9.2010387"><ele>320.0</ele><time>2026-04-22T14:48:28.976Z</time></trkpt><trkpt lat="45.7245588" lon="9.2010642"><ele>320.0</ele><time>2026-04-22T14:48:29.974Z</time></trkpt><trkpt lat="45.7246355" lon="9.2011014"><ele>320.0</ele><time>2026-04-22T14:48:30.976Z</time></trkpt><trkpt lat="45.7247034" lon="9.2011271"><ele>319.4</ele><time>2026-04-22T14:48:31.975Z</time></trkpt><trkpt lat="45.7247809" lon="9.201155"><ele>318.8</ele><time>2026-04-22T14:48:32.976Z</time></trkpt><trkpt lat="45.7248832" lon="9.2012177"><ele>318.2</ele><time>2026-04-22T14:48:34.975Z</time></trkpt><trkpt lat="45.7249769" lon="9.2012571"><ele>317.6</ele><time>2026-04-22T14:48:36.976Z</time></trkpt><trkpt lat="45.7251034" lon="9.201284"><ele>317.0</ele><time>2026-04-22T14:48:38.975Z</time></trkpt><trkpt lat="45.7251806" lon="9.20129"><ele>316.1666666666667</ele><time>2026-04-22T14:48:39.976Z</time></trkpt><trkpt lat="45.7252622" lon="9.2012987"><ele>315.33333333333337</ele><time>2026-04-22T14:48:40.976Z</time></trkpt><trkpt lat="45.7253386" lon="9.201303"><ele>314.5</ele><time>2026-04-22T14:48:41.975Z</time></trkpt><trkpt lat="45.725411" lon="9.2013129"><ele>313.6666666666667</ele><time>2026-04-22T14:48:42.975Z</time></trkpt><trkpt lat="45.7254773" lon="9.2013183"><ele>312.8333333333333</ele><time>2026-04-22T14:48:43.976Z</time></trkpt><trkpt lat="45.7255874" lon="9.2013312"><ele>312.0</ele><time>2026-04-22T14:48:45.975Z</time></trkpt><trkpt lat="45.7256618" lon="9.2013952"><ele>310.1666666666667</ele><time>2026-04-22T14:48:47.974Z</time></trkpt><trkpt lat="45.7257176" lon="9.2015077"><ele>308.3333333333333</ele><time>2026-04-22T14:48:49.975Z</time></trkpt><trkpt lat="45.7257406" lon="9.2015932"><ele>306.5</ele><time>2026-04-22T14:48:50.975Z</time></trkpt><trkpt lat="45.7257615" lon="9.2016985"><ele>304.66666666666663</ele><time>2026-04-22T14:48:51.975Z</time></trkpt><trkpt lat="45.725781" lon="9.2018172"><ele>302.8333333333333</ele><time>2026-04-22T14:48:52.975Z</time></trkpt><trkpt lat="45.7258039" lon="9.2019485"><ele>301.0</ele><time>2026-04-22T14:48:53.976Z</time></trkpt><trkpt lat="45.7258249" lon="9.2020955"><ele>301.0</ele><time>2026-04-22T14:48:54.975Z</time></trkpt><trkpt lat="45.7258473" lon="9.2022407"><ele>301.0</ele><time>2026-04-22T14:48:55.975Z</time></trkpt><trkpt lat="45.7258681" lon="9.202376"><ele>301.0</ele><time>2026-04-22T14:48:56.975Z</time></trkpt><trkpt lat="45.7258877" lon="9.2025101"><ele>301.0</ele><time>2026-04-22T14:48:57.976Z</time></trkpt><trkpt lat="45.7259054" lon="9.2026366"><ele>301.0</ele><time>2026-04-22T14:48:58.976Z</time></trkpt><trkpt lat="45.7259221" lon="9.2027545"><ele>301.0</ele><time>2026-04-22T14:48:59.975Z</time></trkpt><trkpt lat="45.7259352" lon="9.202861"><ele>301.0</ele><time>2026-04-22T14:49:00.976Z</time></trkpt><trkpt lat="45.7259473" lon="9.2029653"><ele>301.0</ele><time>2026-04-22T14:49:01.975Z</time></trkpt><trkpt lat="45.7259678" lon="9.2031233"><ele>301.0</ele><time>2026-04-22T14:49:03.975Z</time></trkpt><trkpt lat="45.7259853" lon="9.203219"><ele>301.0</ele><time>2026-04-22T14:49:05.976Z</time></trkpt><trkpt lat="45.7260063" lon="9.2033268"><ele>301.0</ele><time>2026-04-22T14:49:12.976Z</time></trkpt><trkpt lat="45.7260765" lon="9.203373"><ele>301.0</ele><time>2026-04-22T14:49:14.974Z</time></trkpt><trkpt lat="45.7261408" lon="9.203368"><ele>301.0</ele><time>2026-04-22T14:49:15.975Z</time></trkpt><trkpt lat="45.7262202" lon="9.2033484"><ele>301.0</ele><time>2026-04-22T14:49:16.975Z</time></trkpt><trkpt lat="45.7263118" lon="9.2033256"><ele>301.0</ele><time>2026-04-22T14:49:17.976Z</time></trkpt><trkpt lat="45.7264032" lon="9.203302"><ele>301.0</ele><time>2026-04-22T14:49:18.974Z</time></trkpt><trkpt lat="45.7264932" lon="9.2032816"><ele>301.0</ele><time>2026-04-22T14:49:19.975Z</time></trkpt><trkpt lat="45.726578" lon="9.2032674"><ele>301.0</ele><time>2026-04-22T14:49:20.974Z</time></trkpt><trkpt lat="45.7266574" lon="9.203256"><ele>301.0</ele><time>2026-04-22T14:49:21.974Z</time></trkpt><trkpt lat="45.7267291" lon="9.2032539"><ele>301.0</ele><time>2026-04-22T14:49:22.976Z</time></trkpt><trkpt lat="45.7267985" lon="9.2032618"><ele>301.0</ele><time>2026-04-22T14:49:23.975Z</time></trkpt><trkpt lat="45.7268645" lon="9.2032762"><ele>301.0</ele><time>2026-04-22T14:49:24.974Z</time></trkpt><trkpt lat="45.7269648" lon="9.2033063"><ele>301.0</ele><time>2026-04-22T14:49:26.974Z</time></trkpt><trkpt lat="45.7270449" lon="9.2032681"><ele>301.0</ele><time>2026-04-22T14:49:28.976Z</time></trkpt><trkpt lat="45.7271234" lon="9.2031503"><ele>301.0</ele><time>2026-04-22T14:49:30.975Z</time></trkpt><trkpt lat="45.7271656" lon="9.2030743"><ele>301.0</ele><time>2026-04-22T14:49:31.975Z</time></trkpt><trkpt lat="45.7272177" lon="9.2029902"><ele>301.0</ele><time>2026-04-22T14:49:32.976Z</time></trkpt><trkpt lat="45.7272777" lon="9.2029026"><ele>301.0</ele><time>2026-04-22T14:49:33.976Z</time></trkpt><trkpt lat="45.7273463" lon="9.2028072"><ele>301.0</ele><time>2026-04-22T14:49:34.975Z</time></trkpt><trkpt lat="45.7274188" lon="9.2027081"><ele>301.0</ele><time>2026-04-22T14:49:35.976Z</time></trkpt><trkpt lat="45.7274968" lon="9.2026075"><ele>301.0</ele><time>2026-04-22T14:49:36.976Z</time></trkpt><trkpt lat="45.7275781" lon="9.2025052"><ele>301.0</ele><time>2026-04-22T14:49:37.974Z</time></trkpt><trkpt lat="45.7276564" lon="9.2024033"><ele>301.0</ele><time>2026-04-22T14:49:38.976Z</time></trkpt><trkpt lat="45.7277354" lon="9.2023003"><ele>301.0</ele><time>2026-04-22T14:49:39.975Z</time></trkpt><trkpt lat="45.7278161" lon="9.2021976"><ele>300.2</ele><time>2026-04-22T14:49:40.976Z</time></trkpt><trkpt lat="45.7278971" lon="9.2020914"><ele>299.40000000000003</ele><time>2026-04-22T14:49:41.976Z</time></trkpt><trkpt lat="45.7279773" lon="9.2019803"><ele>298.6</ele><time>2026-04-22T14:49:42.975Z</time></trkpt><trkpt lat="45.7280587" lon="9.2018709"><ele>297.8</ele><time>2026-04-22T14:49:43.975Z</time></trkpt><trkpt lat="45.7281403" lon="9.2017606"><ele>297.0</ele><time>2026-04-22T14:49:44.975Z</time></trkpt><trkpt lat="45.7282193" lon="9.2016485"><ele>297.0</ele><time>2026-04-22T14:49:45.975Z</time></trkpt><trkpt lat="45.7282927" lon="9.201525"><ele>297.0</ele><time>2026-04-22T14:49:46.974Z</time></trkpt><trkpt lat="45.7283611" lon="9.2013939"><ele>297.0</ele><time>2026-04-22T14:49:47.976Z</time></trkpt><trkpt lat="45.7284277" lon="9.2012583"><ele>297.0</ele><time>2026-04-22T14:49:48.975Z</time></trkpt><trkpt lat="45.7284913" lon="9.2011213"><ele>297.0</ele><time>2026-04-22T14:49:49.975Z</time></trkpt><trkpt lat="45.7285513" lon="9.2009772"><ele>297.0</ele><time>2026-04-22T14:49:50.975Z</time></trkpt><trkpt lat="45.7286086" lon="9.2008255"><ele>297.0</ele><time>2026-04-22T14:49:51.975Z</time></trkpt><trkpt lat="45.7286664" lon="9.2006751"><ele>297.0</ele><time>2026-04-22T14:49:52.975Z</time></trkpt><trkpt lat="45.7287271" lon="9.2005262"><ele>295.0</ele><time>2026-04-22T14:49:53.975Z</time></trkpt><trkpt lat="45.7287903" lon="9.2003783"><ele>293.0</ele><time>2026-04-22T14:49:54.975Z</time></trkpt><trkpt lat="45.728857" lon="9.2002395"><ele>291.0</ele><time>2026-04-22T14:49:55.976Z</time></trkpt><trkpt lat="45.7289289" lon="9.2001046"><ele>289.0</ele><time>2026-04-22T14:49:56.975Z</time></trkpt><trkpt lat="45.7290076" lon="9.1999827"><ele>289.0</ele><time>2026-04-22T14:49:57.975Z</time></trkpt><trkpt lat="45.7290935" lon="9.1998726"><ele>289.0</ele><time>2026-04-22T14:49:58.975Z</time></trkpt><trkpt lat="45.7291861" lon="9.1997776"><ele>289.0</ele><time>2026-04-22T14:49:59.974Z</time></trkpt><trkpt lat="45.7292842" lon="9.1996951"><ele>289.0</ele><time>2026-04-22T14:50:00.975Z</time></trkpt><trkpt lat="45.7293872" lon="9.1996268"><ele>288.25</ele><time>2026-04-22T14:50:01.975Z</time></trkpt><trkpt lat="45.7294939" lon="9.1995696"><ele>287.5</ele><time>2026-04-22T14:50:02.976Z</time></trkpt><trkpt lat="45.7296029" lon="9.1995224"><ele>286.75</ele><time>2026-04-22T14:50:03.975Z</time></trkpt><trkpt lat="45.7297181" lon="9.1994973"><ele>286.0</ele><time>2026-04-22T14:50:04.975Z</time></trkpt><trkpt lat="45.7298363" lon="9.1994807"><ele>286.0</ele><time>2026-04-22T14:50:05.975Z</time></trkpt><trkpt lat="45.7299583" lon="9.1994664"><ele>286.0</ele><time>2026-04-22T14:50:06.975Z</time></trkpt><trkpt lat="45.730086" lon="9.199452"><ele>286.0</ele><time>2026-04-22T14:50:07.975Z</time></trkpt><trkpt lat="45.7302133" lon="9.1994379"><ele>286.0</ele><time>2026-04-22T14:50:08.975Z</time></trkpt><trkpt lat="45.7303453" lon="9.1994213"><ele>286.75</ele><time>2026-04-22T14:50:09.975Z</time></trkpt><trkpt lat="45.7304815" lon="9.1994066"><ele>287.5</ele><time>2026-04-22T14:50:10.976Z</time></trkpt><trkpt lat="45.7306242" lon="9.1993891"><ele>288.25</ele><time>2026-04-22T14:50:11.975Z</time></trkpt><trkpt lat="45.7307708" lon="9.1993749"><ele>289.0</ele><time>2026-04-22T14:50:12.975Z</time></trkpt><trkpt lat="45.730922" lon="9.1993568"><ele>288.3333333333333</ele><time>2026-04-22T14:50:13.975Z</time></trkpt><trkpt lat="45.731078" lon="9.1993384"><ele>287.6666666666667</ele><time>2026-04-22T14:50:14.975Z</time></trkpt><trkpt lat="45.7312379" lon="9.1993169"><ele>287.0</ele><time>2026-04-22T14:50:15.976Z</time></trkpt><trkpt lat="45.7313984" lon="9.1992953"><ele>287.0</ele><time>2026-04-22T14:50:16.976Z</time></trkpt><trkpt lat="45.7315604" lon="9.1992713"><ele>287.0</ele><time>2026-04-22T14:50:17.975Z</time></trkpt><trkpt lat="45.7317244" lon="9.199244"><ele>287.0</ele><time>2026-04-22T14:50:18.976Z</time></trkpt><trkpt lat="45.7318894" lon="9.1992118"><ele>289.0</ele><time>2026-04-22T14:50:19.976Z</time></trkpt><trkpt lat="45.7320543" lon="9.1991777"><ele>291.0</ele><time>2026-04-22T14:50:20.975Z</time></trkpt><trkpt lat="45.7322213" lon="9.1991429"><ele>293.0</ele><time>2026-04-22T14:50:21.975Z</time></trkpt><trkpt lat="45.7323882" lon="9.1991054"><ele>293.0</ele><time>2026-04-22T14:50:22.976Z</time></trkpt><trkpt lat="45.7325559" lon="9.199068"><ele>293.0</ele><time>2026-04-22T14:50:23.975Z</time></trkpt><trkpt lat="45.7327244" lon="9.199029"><ele>293.0</ele><time>2026-04-22T14:50:24.976Z</time></trkpt><trkpt lat="45.7328937" lon="9.1989876"><ele>294.0</ele><time>2026-04-22T14:50:25.975Z</time></trkpt><trkpt lat="45.7330627" lon="9.1989492"><ele>295.0</ele><time>2026-04-22T14:50:26.974Z</time></trkpt><trkpt lat="45.7332304" lon="9.1989102"><ele>296.0</ele><time>2026-04-22T14:50:27.975Z</time></trkpt><trkpt lat="45.7333949" lon="9.1988716"><ele>296.0</ele><time>2026-04-22T14:50:28.975Z</time></trkpt><trkpt lat="45.7335541" lon="9.1988355"><ele>296.0</ele><time>2026-04-22T14:50:29.975Z</time></trkpt><trkpt lat="45.7337094" lon="9.1987991"><ele>296.0</ele><time>2026-04-22T14:50:30.975Z</time></trkpt><trkpt lat="45.7338634" lon="9.1987662"><ele>296.33333333333337</ele><time>2026-04-22T14:50:31.975Z</time></trkpt><trkpt lat="45.7340152" lon="9.198735"><ele>296.6666666666667</ele><time>2026-04-22T14:50:32.975Z</time></trkpt><trkpt lat="45.7341652" lon="9.1987062"><ele>297.0</ele><time>2026-04-22T14:50:33.976Z</time></trkpt><trkpt lat="45.7343164" lon="9.1986777"><ele>297.0</ele><time>2026-04-22T14:50:34.974Z</time></trkpt><trkpt lat="45.7344691" lon="9.1986535"><ele>297.0</ele><time>2026-04-22T14:50:35.976Z</time></trkpt><trkpt lat="45.7346233" lon="9.1986278"><ele>297.0</ele><time>2026-04-22T14:50:36.976Z</time></trkpt><trkpt lat="45.7347747" lon="9.1986016"><ele>297.0</ele><time>2026-04-22T14:50:37.975Z</time></trkpt><trkpt lat="45.734921" lon="9.1985759"><ele>297.0</ele><time>2026-04-22T14:50:38.976Z</time></trkpt><trkpt lat="45.7350618" lon="9.1985513"><ele>297.0</ele><time>2026-04-22T14:50:39.975Z</time></trkpt><trkpt lat="45.7351985" lon="9.1985268"><ele>297.0</ele><time>2026-04-22T14:50:40.974Z</time></trkpt><trkpt lat="45.7353323" lon="9.1985069"><ele>296.75</ele><time>2026-04-22T14:50:41.976Z</time></trkpt><trkpt lat="45.7354623" lon="9.1984854"><ele>296.5</ele><time>2026-04-22T14:50:42.975Z</time></trkpt><trkpt lat="45.7355895" lon="9.1984622"><ele>296.25</ele><time>2026-04-22T14:50:43.975Z</time></trkpt><trkpt lat="45.7357126" lon="9.1984404"><ele>296.0</ele><time>2026-04-22T14:50:44.976Z</time></trkpt><trkpt lat="45.735834" lon="9.1984197"><ele>296.0</ele><time>2026-04-22T14:50:45.976Z</time></trkpt><trkpt lat="45.7359469" lon="9.1983984"><ele>296.0</ele><time>2026-04-22T14:50:46.976Z</time></trkpt><trkpt lat="45.7360526" lon="9.1983772"><ele>296.0</ele><time>2026-04-22T14:50:47.976Z</time></trkpt><trkpt lat="45.7361424" lon="9.1983639"><ele>296.0</ele><time>2026-04-22T14:50:48.976Z</time></trkpt><trkpt lat="45.7362227" lon="9.1983669"><ele>296.0</ele><time>2026-04-22T14:50:49.975Z</time></trkpt><trkpt lat="45.7362953" lon="9.1983805"><ele>296.5</ele><time>2026-04-22T14:50:50.975Z</time></trkpt><trkpt lat="45.7363576" lon="9.1984074"><ele>297.0</ele><time>2026-04-22T14:50:51.975Z</time></trkpt><trkpt lat="45.7364216" lon="9.1984423"><ele>297.5</ele><time>2026-04-22T14:50:52.975Z</time></trkpt><trkpt lat="45.7364854" lon="9.1984724"><ele>298.0</ele><time>2026-04-22T14:50:53.975Z</time></trkpt><trkpt lat="45.7365997" lon="9.1984646"><ele>298.5</ele><time>2026-04-22T14:50:55.975Z</time></trkpt><trkpt lat="45.7367175" lon="9.1983743"><ele>299.0</ele><time>2026-04-22T14:50:57.975Z</time></trkpt><trkpt lat="45.7367874" lon="9.1983229"><ele>299.0</ele><time>2026-04-22T14:50:58.975Z</time></trkpt><trkpt lat="45.7368675" lon="9.1982787"><ele>299.0</ele><time>2026-04-22T14:50:59.976Z</time></trkpt><trkpt lat="45.7369582" lon="9.1982452"><ele>299.0</ele><time>2026-04-22T14:51:00.975Z</time></trkpt><trkpt lat="45.7370577" lon="9.1982212"><ele>299.0</ele><time>2026-04-22T14:51:01.975Z</time></trkpt><trkpt lat="45.7371654" lon="9.1982018"><ele>299.0</ele><time>2026-04-22T14:51:02.976Z</time></trkpt><trkpt lat="45.7372788" lon="9.1981807"><ele>298.0</ele><time>2026-04-22T14:51:03.976Z</time></trkpt><trkpt lat="45.7373987" lon="9.1981565"><ele>297.0</ele><time>2026-04-22T14:51:04.976Z</time></trkpt><trkpt lat="45.7375208" lon="9.1981333"><ele>296.0</ele><time>2026-04-22T14:51:05.974Z</time></trkpt><trkpt lat="45.7376452" lon="9.1981085"><ele>295.0</ele><time>2026-04-22T14:51:06.975Z</time></trkpt><trkpt lat="45.7377703" lon="9.1980872"><ele>295.0</ele><time>2026-04-22T14:51:07.975Z</time></trkpt><trkpt lat="45.7378962" lon="9.1980636"><ele>295.0</ele><time>2026-04-22T14:51:08.976Z</time></trkpt><trkpt lat="45.7380225" lon="9.1980437"><ele>295.0</ele><time>2026-04-22T14:51:09.976Z</time></trkpt><trkpt lat="45.738151" lon="9.1980228"><ele>295.0</ele><time>2026-04-22T14:51:10.975Z</time></trkpt><trkpt lat="45.7382786" lon="9.1980057"><ele>295.0</ele><time>2026-04-22T14:51:11.975Z</time></trkpt><trkpt lat="45.7384069" lon="9.1979863"><ele>295.0</ele><time>2026-04-22T14:51:12.976Z</time></trkpt><trkpt lat="45.738537" lon="9.1979705"><ele>295.0</ele><time>2026-04-22T14:51:13.974Z</time></trkpt><trkpt lat="45.7386672" lon="9.1979592"><ele>295.0</ele><time>2026-04-22T14:51:14.976Z</time></trkpt><trkpt lat="45.7387999" lon="9.1979503"><ele>295.5</ele><time>2026-04-22T14:51:15.975Z</time></trkpt><trkpt lat="45.7389339" lon="9.1979422"><ele>296.0</ele><time>2026-04-22T14:51:16.974Z</time></trkpt><trkpt lat="45.7390705" lon="9.1979361"><ele>296.5</ele><time>2026-04-22T14:51:17.974Z</time></trkpt><trkpt lat="45.7392107" lon="9.1979315"><ele>297.0</ele><time>2026-04-22T14:51:18.975Z</time></trkpt><trkpt lat="45.7393553" lon="9.197927"><ele>297.6666666666667</ele><time>2026-04-22T14:51:19.975Z</time></trkpt><trkpt lat="45.7395032" lon="9.1979164"><ele>298.33333333333337</ele><time>2026-04-22T14:51:20.976Z</time></trkpt><trkpt lat="45.7396553" lon="9.1978965"><ele>299.0</ele><time>2026-04-22T14:51:21.975Z</time></trkpt><trkpt lat="45.7398112" lon="9.1978676"><ele>299.0</ele><time>2026-04-22T14:51:22.975Z</time></trkpt><trkpt lat="45.7399693" lon="9.1978316"><ele>299.0</ele><time>2026-04-22T14:51:23.976Z</time></trkpt><trkpt lat="45.7401278" lon="9.1977814"><ele>299.0</ele><time>2026-04-22T14:51:24.976Z</time></trkpt><trkpt lat="45.7402893" lon="9.1977184"><ele>300.0</ele><time>2026-04-22T14:51:25.976Z</time></trkpt><trkpt lat="45.7404546" lon="9.1976468"><ele>301.0</ele><time>2026-04-22T14:51:26.975Z</time></trkpt><trkpt lat="45.740624" lon="9.1975717"><ele>302.0</ele><time>2026-04-22T14:51:27.975Z</time></trkpt><trkpt lat="45.7407961" lon="9.1974936"><ele>302.0</ele><time>2026-04-22T14:51:28.976Z</time></trkpt><trkpt lat="45.7409706" lon="9.1974125"><ele>302.0</ele><time>2026-04-22T14:51:29.975Z</time></trkpt><trkpt lat="45.741142" lon="9.1973314"><ele>302.0</ele><time>2026-04-22T14:51:30.975Z</time></trkpt><trkpt lat="45.7413055" lon="9.1972616"><ele>301.0</ele><time>2026-04-22T14:51:31.975Z</time></trkpt><trkpt lat="45.7414621" lon="9.197203"><ele>300.0</ele><time>2026-04-22T14:51:32.976Z</time></trkpt><trkpt lat="45.7416121" lon="9.1971554"><ele>299.0</ele><time>2026-04-22T14:51:33.975Z</time></trkpt><trkpt lat="45.7417554" lon="9.1971187"><ele>299.75</ele><time>2026-04-22T14:51:34.975Z</time></trkpt><trkpt lat="45.741893" lon="9.1970952"><ele>300.5</ele><time>2026-04-22T14:51:35.975Z</time></trkpt><trkpt lat="45.7420269" lon="9.1970785"><ele>301.25</ele><time>2026-04-22T14:51:36.975Z</time></trkpt><trkpt lat="45.7421588" lon="9.1970705"><ele>302.0</ele><time>2026-04-22T14:51:37.975Z</time></trkpt><trkpt lat="45.7422908" lon="9.1970723"><ele>302.0</ele><time>2026-04-22T14:51:38.975Z</time></trkpt><trkpt lat="45.7424222" lon="9.1970779"><ele>302.0</ele><time>2026-04-22T14:51:39.974Z</time></trkpt><trkpt lat="45.7425544" lon="9.1970896"><ele>302.0</ele><time>2026-04-22T14:51:40.976Z</time></trkpt><trkpt lat="45.7426888" lon="9.1971032"><ele>302.0</ele><time>2026-04-22T14:51:41.974Z</time></trkpt><trkpt lat="45.7428285" lon="9.1971165"><ele>302.6666666666667</ele><time>2026-04-22T14:51:42.976Z</time></trkpt><trkpt lat="45.7429761" lon="9.1971269"><ele>303.3333333333333</ele><time>2026-04-22T14:51:43.976Z</time></trkpt><trkpt lat="45.7431302" lon="9.1971382"><ele>304.0</ele><time>2026-04-22T14:51:44.975Z</time></trkpt><trkpt lat="45.7432908" lon="9.1971526"><ele>304.0</ele><time>2026-04-22T14:51:45.976Z</time></trkpt><trkpt lat="45.7434572" lon="9.1971671"><ele>304.0</ele><time>2026-04-22T14:51:46.974Z</time></trkpt><trkpt lat="45.7436279" lon="9.1971834"><ele>304.0</ele><time>2026-04-22T14:51:47.975Z</time></trkpt><trkpt lat="45.7438027" lon="9.1972008"><ele>304.3333333333333</ele><time>2026-04-22T14:51:48.976Z</time></trkpt><trkpt lat="45.7439793" lon="9.1972219"><ele>304.6666666666667</ele><time>2026-04-22T14:51:49.976Z</time></trkpt><trkpt lat="45.7441533" lon="9.1972444"><ele>305.0</ele><time>2026-04-22T14:51:50.976Z</time></trkpt><trkpt lat="45.7443204" lon="9.1972693"><ele>307.33333333333337</ele><time>2026-04-22T14:51:51.976Z</time></trkpt><trkpt lat="45.7444787" lon="9.1972968"><ele>309.6666666666667</ele><time>2026-04-22T14:51:52.975Z</time></trkpt><trkpt lat="45.7446302" lon="9.1973259"><ele>312.0</ele><time>2026-04-22T14:51:53.975Z</time></trkpt><trkpt lat="45.7447725" lon="9.1973509"><ele>312.0</ele><time>2026-04-22T14:51:54.976Z</time></trkpt><trkpt lat="45.7449038" lon="9.1973727"><ele>312.0</ele><time>2026-04-22T14:51:55.974Z</time></trkpt><trkpt lat="45.7450218" lon="9.1973905"><ele>312.0</ele><time>2026-04-22T14:51:56.975Z</time></trkpt><trkpt lat="45.7451135" lon="9.197406"><ele>312.0</ele><time>2026-04-22T14:51:57.976Z</time></trkpt><trkpt lat="45.7451895" lon="9.1974191"><ele>312.0</ele><time>2026-04-22T14:51:58.975Z</time></trkpt><trkpt lat="45.7452548" lon="9.1974212"><ele>313.2</ele><time>2026-04-22T14:51:59.974Z</time></trkpt><trkpt lat="45.7453475" lon="9.1973539"><ele>314.4</ele><time>2026-04-22T14:52:01.975Z</time></trkpt><trkpt lat="45.7453641" lon="9.197218"><ele>315.6</ele><time>2026-04-22T14:52:03.975Z</time></trkpt><trkpt lat="45.7452981" lon="9.1970604"><ele>316.8</ele><time>2026-04-22T14:52:05.975Z</time></trkpt><trkpt lat="45.7452297" lon="9.1969695"><ele>318.0</ele><time>2026-04-22T14:52:06.974Z</time></trkpt><trkpt lat="45.7451525" lon="9.1968669"><ele>318.0</ele><time>2026-04-22T14:52:07.975Z</time></trkpt><trkpt lat="45.7450684" lon="9.1967505"><ele>318.0</ele><time>2026-04-22T14:52:08.974Z</time></trkpt><trkpt lat="45.7449783" lon="9.1966252"><ele>318.0</ele><time>2026-04-22T14:52:09.974Z</time></trkpt><trkpt lat="45.7448956" lon="9.1965107"><ele>318.0</ele><time>2026-04-22T14:52:10.974Z</time></trkpt><trkpt lat="45.7448195" lon="9.1964062"><ele>318.6</ele><time>2026-04-22T14:52:11.975Z</time></trkpt><trkpt lat="45.7447478" lon="9.1963146"><ele>319.20000000000005</ele><time>2026-04-22T14:52:12.975Z</time></trkpt><trkpt lat="45.7446926" lon="9.1962448"><ele>319.8</ele><time>2026-04-22T14:52:13.976Z</time></trkpt><trkpt lat="45.7446305" lon="9.1961099"><ele>320.40000000000003</ele><time>2026-04-22T14:52:15.975Z</time></trkpt><trkpt lat="45.7446484" lon="9.1959818"><ele>321.0</ele><time>2026-04-22T14:52:17.975Z</time></trkpt><trkpt lat="45.7447391" lon="9.1959148"><ele>321.0</ele><time>2026-04-22T14:52:19.975Z</time></trkpt><trkpt lat="45.7448765" lon="9.1958886"><ele>321.0</ele><time>2026-04-22T14:52:21.975Z</time></trkpt><trkpt lat="45.7449613" lon="9.1958778"><ele>321.0</ele><time>2026-04-22T14:52:22.976Z</time></trkpt><trkpt lat="45.7450624" lon="9.1958633"><ele>321.0</ele><time>2026-04-22T14:52:23.975Z</time></trkpt><trkpt lat="45.7451716" lon="9.1958425"><ele>321.0</ele><time>2026-04-22T14:52:24.975Z</time></trkpt><trkpt lat="45.7452807" lon="9.1958217"><ele>322.6</ele><time>2026-04-22T14:52:25.975Z</time></trkpt><trkpt lat="45.7453843" lon="9.1958025"><ele>324.20000000000005</ele><time>2026-04-22T14:52:26.976Z</time></trkpt><trkpt lat="45.7454831" lon="9.1957889"><ele>325.79999999999995</ele><time>2026-04-22T14:52:27.975Z</time></trkpt><trkpt lat="45.7455775" lon="9.1957728"><ele>327.4</ele><time>2026-04-22T14:52:28.975Z</time></trkpt><trkpt lat="45.7456573" lon="9.1957598"><ele>329.0</ele><time>2026-04-22T14:52:29.975Z</time></trkpt><trkpt lat="45.7457347" lon="9.1957405"><ele>329.0</ele><time>2026-04-22T14:52:30.975Z</time></trkpt><trkpt lat="45.7458112" lon="9.1957189"><ele>329.0</ele><time>2026-04-22T14:52:31.976Z</time></trkpt><trkpt lat="45.7458914" lon="9.1957014"><ele>329.0</ele><time>2026-04-22T14:52:32.975Z</time></trkpt><trkpt lat="45.7459719" lon="9.1956833"><ele>329.0</ele><time>2026-04-22T14:52:33.975Z</time></trkpt><trkpt lat="45.7460508" lon="9.1956705"><ele>329.0</ele><time>2026-04-22T14:52:34.974Z</time></trkpt><trkpt lat="45.7461309" lon="9.1956614"><ele>329.0</ele><time>2026-04-22T14:52:35.976Z</time></trkpt><trkpt lat="45.7462177" lon="9.1956558"><ele>328.79999999999995</ele><time>2026-04-22T14:52:36.976Z</time></trkpt><trkpt lat="45.7463087" lon="9.1956441"><ele>328.59999999999997</ele><time>2026-04-22T14:52:37.976Z</time></trkpt><trkpt lat="45.7464079" lon="9.1956331"><ele>328.4</ele><time>2026-04-22T14:52:38.975Z</time></trkpt><trkpt lat="45.7465076" lon="9.1956218"><ele>328.2</ele><time>2026-04-22T14:52:39.974Z</time></trkpt><trkpt lat="45.7466063" lon="9.1956041"><ele>328.0</ele><time>2026-04-22T14:52:40.975Z</time></trkpt><trkpt lat="45.7467104" lon="9.1955906"><ele>328.0</ele><time>2026-04-22T14:52:41.974Z</time></trkpt><trkpt lat="45.7468174" lon="9.195571"><ele>328.0</ele><time>2026-04-22T14:52:42.976Z</time></trkpt><trkpt lat="45.7469269" lon="9.195558"><ele>328.0</ele><time>2026-04-22T14:52:43.975Z</time></trkpt><trkpt lat="45.7470353" lon="9.1955487"><ele>328.0</ele><time>2026-04-22T14:52:44.975Z</time></trkpt><trkpt lat="45.7471457" lon="9.1955336"><ele>328.0</ele><time>2026-04-22T14:52:45.976Z</time></trkpt><trkpt lat="45.7472571" lon="9.1955192"><ele>328.5</ele><time>2026-04-22T14:52:46.975Z</time></trkpt><trkpt lat="45.747369" lon="9.1955055"><ele>329.0</ele><time>2026-04-22T14:52:47.974Z</time></trkpt><trkpt lat="45.7474802" lon="9.1954918"><ele>329.5</ele><time>2026-04-22T14:52:48.975Z</time></trkpt><trkpt lat="45.7475946" lon="9.1954793"><ele>330.0</ele><time>2026-04-22T14:52:49.975Z</time></trkpt><trkpt lat="45.7477086" lon="9.1954639"><ele>330.5</ele><time>2026-04-22T14:52:50.976Z</time></trkpt><trkpt lat="45.7478238" lon="9.1954518"><ele>331.0</ele><time>2026-04-22T14:52:51.976Z</time></trkpt><trkpt lat="45.7479378" lon="9.195439"><ele>331.5</ele><time>2026-04-22T14:52:52.975Z</time></trkpt><trkpt lat="45.7480541" lon="9.1954232"><ele>332.0</ele><time>2026-04-22T14:52:53.975Z</time></trkpt><trkpt lat="45.7481717" lon="9.1954064"><ele>332.0</ele><time>2026-04-22T14:52:54.974Z</time></trkpt><trkpt lat="45.7482907" lon="9.1953893"><ele>332.0</ele><time>2026-04-22T14:52:55.975Z</time></trkpt><trkpt lat="45.7484125" lon="9.1953718"><ele>332.0</ele><time>2026-04-22T14:52:56.975Z</time></trkpt><trkpt lat="45.7485336" lon="9.1953551"><ele>332.0</ele><time>2026-04-22T14:52:57.975Z</time></trkpt><trkpt lat="45.7486609" lon="9.1953365"><ele>331.75</ele><time>2026-04-22T14:52:58.976Z</time></trkpt><trkpt lat="45.7487923" lon="9.1953185"><ele>331.5</ele><time>2026-04-22T14:52:59.975Z</time></trkpt><trkpt lat="45.7489222" lon="9.1953013"><ele>331.25</ele><time>2026-04-22T14:53:00.975Z</time></trkpt><trkpt lat="45.7490516" lon="9.1952852"><ele>331.0</ele><time>2026-04-22T14:53:01.975Z</time></trkpt><trkpt lat="45.7491791" lon="9.1952731"><ele>331.0</ele><time>2026-04-22T14:53:02.976Z</time></trkpt><trkpt lat="45.7493047" lon="9.1952715"><ele>331.0</ele><time>2026-04-22T14:53:03.975Z</time></trkpt><trkpt lat="45.7494301" lon="9.1952836"><ele>331.0</ele><time>2026-04-22T14:53:04.975Z</time></trkpt><trkpt lat="45.749555" lon="9.1953032"><ele>331.0</ele><time>2026-04-22T14:53:05.975Z</time></trkpt><trkpt lat="45.7496794" lon="9.1953294"><ele>330.0</ele><time>2026-04-22T14:53:06.975Z</time></trkpt><trkpt lat="45.7498064" lon="9.1953625"><ele>329.0</ele><time>2026-04-22T14:53:07.974Z</time></trkpt><trkpt lat="45.749937" lon="9.1954016"><ele>328.0</ele><time>2026-04-22T14:53:08.976Z</time></trkpt><trkpt lat="45.7500702" lon="9.19544"><ele>327.0</ele><time>2026-04-22T14:53:09.974Z</time></trkpt><trkpt lat="45.7502074" lon="9.1954761"><ele>326.25</ele><time>2026-04-22T14:53:10.976Z</time></trkpt><trkpt lat="45.750347" lon="9.1955156"><ele>325.5</ele><time>2026-04-22T14:53:11.975Z</time></trkpt><trkpt lat="45.7504873" lon="9.1955579"><ele>324.75</ele><time>2026-04-22T14:53:12.975Z</time></trkpt><trkpt lat="45.7506287" lon="9.1956021"><ele>324.0</ele><time>2026-04-22T14:53:13.976Z</time></trkpt><trkpt lat="45.7507701" lon="9.1956446"><ele>323.75</ele><time>2026-04-22T14:53:14.975Z</time></trkpt><trkpt lat="45.7509124" lon="9.1956875"><ele>323.5</ele><time>2026-04-22T14:53:15.976Z</time></trkpt><trkpt lat="45.7510515" lon="9.1957257"><ele>323.25</ele><time>2026-04-22T14:53:16.975Z</time></trkpt><trkpt lat="45.7511874" lon="9.1957632"><ele>323.0</ele><time>2026-04-22T14:53:17.976Z</time></trkpt><trkpt lat="45.7513159" lon="9.1957969"><ele>323.0</ele><time>2026-04-22T14:53:18.975Z</time></trkpt><trkpt lat="45.7514391" lon="9.1958277"><ele>323.0</ele><time>2026-04-22T14:53:19.976Z</time></trkpt><trkpt lat="45.7515544" lon="9.1958587"><ele>323.0</ele><time>2026-04-22T14:53:20.975Z</time></trkpt><trkpt lat="45.7516548" lon="9.1958956"><ele>323.0</ele><time>2026-04-22T14:53:21.975Z</time></trkpt><trkpt lat="45.7517428" lon="9.1959312"><ele>323.0</ele><time>2026-04-22T14:53:22.975Z</time></trkpt><trkpt lat="45.7518207" lon="9.1959743"><ele>323.2</ele><time>2026-04-22T14:53:23.976Z</time></trkpt><trkpt lat="45.7518992" lon="9.1960217"><ele>323.4</ele><time>2026-04-22T14:53:24.975Z</time></trkpt><trkpt lat="45.7519817" lon="9.1960495"><ele>323.59999999999997</ele><time>2026-04-22T14:53:25.973Z</time></trkpt><trkpt lat="45.7520678" lon="9.196059"><ele>323.79999999999995</ele><time>2026-04-22T14:53:26.974Z</time></trkpt><trkpt lat="45.752164" lon="9.1960657"><ele>324.0</ele><time>2026-04-22T14:53:27.974Z</time></trkpt><trkpt lat="45.752267" lon="9.196082"><ele>324.0</ele><time>2026-04-22T14:53:28.973Z</time></trkpt><trkpt lat="45.7523795" lon="9.196103"><ele>324.0</ele><time>2026-04-22T14:53:29.974Z</time></trkpt><trkpt lat="45.7524986" lon="9.1961316"><ele>324.0</ele><time>2026-04-22T14:53:30.974Z</time></trkpt><trkpt lat="45.7526216" lon="9.1961651"><ele>324.0</ele><time>2026-04-22T14:53:31.973Z</time></trkpt><trkpt lat="45.7527444" lon="9.1961974"><ele>324.0</ele><time>2026-04-22T14:53:32.975Z</time></trkpt><trkpt lat="45.7528747" lon="9.1962322"><ele>324.0</ele><time>2026-04-22T14:53:33.974Z</time></trkpt><trkpt lat="45.7530124" lon="9.1962705"><ele>324.0</ele><time>2026-04-22T14:53:34.975Z</time></trkpt><trkpt lat="45.7531584" lon="9.1963115"><ele>324.0</ele><time>2026-04-22T14:53:35.974Z</time></trkpt><trkpt lat="45.753307" lon="9.1963538"><ele>324.0</ele><time>2026-04-22T14:53:36.974Z</time></trkpt><trkpt lat="45.7534615" lon="9.1963983"><ele>324.0</ele><time>2026-04-22T14:53:37.975Z</time></trkpt><trkpt lat="45.7536179" lon="9.1964424"><ele>324.0</ele><time>2026-04-22T14:53:38.974Z</time></trkpt><trkpt lat="45.7537718" lon="9.196487"><ele>326.3333333333333</ele><time>2026-04-22T14:53:39.975Z</time></trkpt><trkpt lat="45.753922" lon="9.1965323"><ele>328.66666666666663</ele><time>2026-04-22T14:53:40.975Z</time></trkpt><trkpt lat="45.7540691" lon="9.196578"><ele>331.0</ele><time>2026-04-22T14:53:41.975Z</time></trkpt><trkpt lat="45.7542141" lon="9.1966221"><ele>331.0</ele><time>2026-04-22T14:53:42.974Z</time></trkpt><trkpt lat="45.7543574" lon="9.1966655"><ele>331.0</ele><time>2026-04-22T14:53:43.975Z</time></trkpt><trkpt lat="45.7544972" lon="9.1967047"><ele>331.0</ele><time>2026-04-22T14:53:44.974Z</time></trkpt><trkpt lat="45.7546359" lon="9.196739"><ele>331.0</ele><time>2026-04-22T14:53:45.974Z</time></trkpt><trkpt lat="45.7547748" lon="9.1967746"><ele>330.5</ele><time>2026-04-22T14:53:46.973Z</time></trkpt><trkpt lat="45.754912" lon="9.1968092"><ele>330.0</ele><time>2026-04-22T14:53:47.973Z</time></trkpt><trkpt lat="45.7550448" lon="9.1968488"><ele>329.5</ele><time>2026-04-22T14:53:48.974Z</time></trkpt><trkpt lat="45.755175" lon="9.1968845"><ele>329.0</ele><time>2026-04-22T14:53:49.975Z</time></trkpt><trkpt lat="45.755297" lon="9.1969161"><ele>330.2</ele><time>2026-04-22T14:53:50.974Z</time></trkpt><trkpt lat="45.7554172" lon="9.196944"><ele>331.4</ele><time>2026-04-22T14:53:51.975Z</time></trkpt><trkpt lat="45.7555255" lon="9.1969721"><ele>332.6</ele><time>2026-04-22T14:53:52.974Z</time></trkpt><trkpt lat="45.7556181" lon="9.1969963"><ele>333.8</ele><time>2026-04-22T14:53:53.975Z</time></trkpt><trkpt lat="45.755692" lon="9.1970156"><ele>335.0</ele><time>2026-04-22T14:53:54.973Z</time></trkpt><trkpt lat="45.7558017" lon="9.1970205"><ele>335.0</ele><time>2026-04-22T14:53:56.975Z</time></trkpt><trkpt lat="45.7558805" lon="9.1969366"><ele>335.0</ele><time>2026-04-22T14:53:58.974Z</time></trkpt><trkpt lat="45.7559312" lon="9.196784"><ele>335.0</ele><time>2026-04-22T14:54:00.975Z</time></trkpt><trkpt lat="45.755964" lon="9.1967"><ele>335.0</ele><time>2026-04-22T14:54:01.974Z</time></trkpt><trkpt lat="45.7560039" lon="9.196612"><ele>335.0</ele><time>2026-04-22T14:54:02.975Z</time></trkpt><trkpt lat="45.7560479" lon="9.1965198"><ele>335.0</ele><time>2026-04-22T14:54:03.974Z</time></trkpt><trkpt lat="45.7560957" lon="9.1964263"><ele>338.2</ele><time>2026-04-22T14:54:04.974Z</time></trkpt><trkpt lat="45.7561475" lon="9.1963252"><ele>341.4</ele><time>2026-04-22T14:54:05.975Z</time></trkpt><trkpt lat="45.7562013" lon="9.1962217"><ele>344.6</ele><time>2026-04-22T14:54:06.974Z</time></trkpt><trkpt lat="45.7562569" lon="9.1961174"><ele>347.8</ele><time>2026-04-22T14:54:07.974Z</time></trkpt><trkpt lat="45.7563143" lon="9.1960084"><ele>351.0</ele><time>2026-04-22T14:54:08.975Z</time></trkpt><trkpt lat="45.7563705" lon="9.1958998"><ele>351.0</ele><time>2026-04-22T14:54:09.974Z</time></trkpt><trkpt lat="45.756422" lon="9.1957942"><ele>351.0</ele><time>2026-04-22T14:54:10.973Z</time></trkpt><trkpt lat="45.7564602" lon="9.1956862"><ele>351.0</ele><time>2026-04-22T14:54:11.975Z</time></trkpt><trkpt lat="45.7564739" lon="9.1955803"><ele>351.0</ele><time>2026-04-22T14:54:12.973Z</time></trkpt><trkpt lat="45.756476" lon="9.1954752"><ele>351.0</ele><time>2026-04-22T14:54:13.974Z</time></trkpt><trkpt lat="45.7564685" lon="9.1953764"><ele>351.0</ele><time>2026-04-22T14:54:14.974Z</time></trkpt><trkpt lat="45.7564287" lon="9.1952159"><ele>350.0</ele><time>2026-04-22T14:54:16.975Z</time></trkpt><trkpt lat="45.7563816" lon="9.1950646"><ele>349.0</ele><time>2026-04-22T14:54:18.975Z</time></trkpt><trkpt lat="45.7563685" lon="9.1949022"><ele>348.0</ele><time>2026-04-22T14:54:20.974Z</time></trkpt><trkpt lat="45.7563924" lon="9.1947415"><ele>347.0</ele><time>2026-04-22T14:54:22.974Z</time></trkpt><trkpt lat="45.7564216" lon="9.1946608"><ele>346.0</ele><time>2026-04-22T14:54:23.975Z</time></trkpt><trkpt lat="45.7564535" lon="9.1945807"><ele>344.5</ele><time>2026-04-22T14:54:24.975Z</time></trkpt><trkpt lat="45.7564979" lon="9.1945012"><ele>343.0</ele><time>2026-04-22T14:54:25.974Z</time></trkpt><trkpt lat="45.7565483" lon="9.1944257"><ele>341.5</ele><time>2026-04-22T14:54:26.974Z</time></trkpt><trkpt lat="45.7566098" lon="9.1943664"><ele>340.0</ele><time>2026-04-22T14:54:27.975Z</time></trkpt><trkpt lat="45.7566799" lon="9.1943182"><ele>338.5</ele><time>2026-04-22T14:54:28.974Z</time></trkpt><trkpt lat="45.7567604" lon="9.1942856"><ele>337.0</ele><time>2026-04-22T14:54:29.973Z</time></trkpt><trkpt lat="45.7568521" lon="9.194269"><ele>337.8</ele><time>2026-04-22T14:54:30.974Z</time></trkpt><trkpt lat="45.7569491" lon="9.1942626"><ele>338.6</ele><time>2026-04-22T14:54:31.974Z</time></trkpt><trkpt lat="45.7570432" lon="9.1942459"><ele>339.40000000000003</ele><time>2026-04-22T14:54:32.974Z</time></trkpt><trkpt lat="45.7571389" lon="9.1942127"><ele>340.20000000000005</ele><time>2026-04-22T14:54:33.973Z</time></trkpt><trkpt lat="45.7572386" lon="9.1941708"><ele>341.0</ele><time>2026-04-22T14:54:34.974Z</time></trkpt><trkpt lat="45.7573371" lon="9.1941215"><ele>341.0</ele><time>2026-04-22T14:54:35.974Z</time></trkpt><trkpt lat="45.7574314" lon="9.1940714"><ele>341.0</ele><time>2026-04-22T14:54:36.974Z</time></trkpt><trkpt lat="45.7575158" lon="9.1940109"><ele>341.0</ele><time>2026-04-22T14:54:37.973Z</time></trkpt><trkpt lat="45.7575913" lon="9.19393"><ele>341.0</ele><time>2026-04-22T14:54:38.974Z</time></trkpt><trkpt lat="45.7576603" lon="9.1938344"><ele>341.0</ele><time>2026-04-22T14:54:39.975Z</time></trkpt><trkpt lat="45.7577254" lon="9.1937306"><ele>339.4</ele><time>2026-04-22T14:54:40.973Z</time></trkpt><trkpt lat="45.7577893" lon="9.193621"><ele>337.8</ele><time>2026-04-22T14:54:41.974Z</time></trkpt><trkpt lat="45.7578577" lon="9.1935095"><ele>336.2</ele><time>2026-04-22T14:54:42.974Z</time></trkpt><trkpt lat="45.7579286" lon="9.1934003"><ele>334.59999999999997</ele><time>2026-04-22T14:54:43.974Z</time></trkpt><trkpt lat="45.757994" lon="9.1932946"><ele>333.0</ele><time>2026-04-22T14:54:44.973Z</time></trkpt><trkpt lat="45.758054" lon="9.193191"><ele>332.59999999999997</ele><time>2026-04-22T14:54:45.975Z</time></trkpt><trkpt lat="45.7581038" lon="9.1931053"><ele>332.2</ele><time>2026-04-22T14:54:46.975Z</time></trkpt><trkpt lat="45.7581508" lon="9.1930407"><ele>331.8</ele><time>2026-04-22T14:54:47.974Z</time></trkpt><trkpt lat="45.7582583" lon="9.192979"><ele>331.4</ele><time>2026-04-22T14:54:49.974Z</time></trkpt><trkpt lat="45.7583829" lon="9.1929953"><ele>331.0</ele><time>2026-04-22T14:54:51.974Z</time></trkpt><trkpt lat="45.7584857" lon="9.1930025"><ele>330.8333333333333</ele><time>2026-04-22T14:54:53.974Z</time></trkpt><trkpt lat="45.7585637" lon="9.1929352"><ele>330.66666666666663</ele><time>2026-04-22T14:54:55.973Z</time></trkpt><trkpt lat="45.75861" lon="9.1928046"><ele>330.5</ele><time>2026-04-22T14:54:57.975Z</time></trkpt><trkpt lat="45.7586248" lon="9.1927043"><ele>330.3333333333333</ele><time>2026-04-22T14:54:58.974Z</time></trkpt><trkpt lat="45.7586445" lon="9.1925904"><ele>330.1666666666667</ele><time>2026-04-22T14:54:59.975Z</time></trkpt><trkpt lat="45.7586614" lon="9.1924539"><ele>330.0</ele><time>2026-04-22T14:55:00.975Z</time></trkpt><trkpt lat="45.7586845" lon="9.1923063"><ele>329.8</ele><time>2026-04-22T14:55:01.973Z</time></trkpt><trkpt lat="45.7587093" lon="9.1921528"><ele>329.6</ele><time>2026-04-22T14:55:02.975Z</time></trkpt><trkpt lat="45.7587379" lon="9.1919989"><ele>329.4</ele><time>2026-04-22T14:55:03.973Z</time></trkpt><trkpt lat="45.7587638" lon="9.1918493"><ele>329.2</ele><time>2026-04-22T14:55:04.975Z</time></trkpt><trkpt lat="45.7587881" lon="9.1917206"><ele>329.0</ele><time>2026-04-22T14:55:05.973Z</time></trkpt><trkpt lat="45.758807" lon="9.1916185"><ele>328.83333333333337</ele><time>2026-04-22T14:55:06.973Z</time></trkpt><trkpt lat="45.7588344" lon="9.1914788"><ele>328.6666666666667</ele><time>2026-04-22T14:55:08.974Z</time></trkpt><trkpt lat="45.7588577" lon="9.1913699"><ele>328.5</ele><time>2026-04-22T14:55:10.974Z</time></trkpt><trkpt lat="45.7588766" lon="9.1912322"><ele>328.3333333333333</ele><time>2026-04-22T14:55:12.974Z</time></trkpt><trkpt lat="45.758892" lon="9.191125"><ele>328.16666666666663</ele><time>2026-04-22T14:55:13.974Z</time></trkpt><trkpt lat="45.7589116" lon="9.1910011"><ele>328.0</ele><time>2026-04-22T14:55:14.974Z</time></trkpt><trkpt lat="45.7589301" lon="9.1908574"><ele>328.0</ele><time>2026-04-22T14:55:15.975Z</time></trkpt><trkpt lat="45.758956" lon="9.1907021"><ele>328.0</ele><time>2026-04-22T14:55:16.974Z</time></trkpt><trkpt lat="45.7589839" lon="9.1905274"><ele>328.0</ele><time>2026-04-22T14:55:17.974Z</time></trkpt><trkpt lat="45.7590148" lon="9.1903422"><ele>328.0</ele><time>2026-04-22T14:55:18.973Z</time></trkpt><trkpt lat="45.7590502" lon="9.19014"><ele>327.75</ele><time>2026-04-22T14:55:19.973Z</time></trkpt><trkpt lat="45.759085" lon="9.1899309"><ele>327.5</ele><time>2026-04-22T14:55:20.973Z</time></trkpt><trkpt lat="45.7591161" lon="9.1897352"><ele>327.25</ele><time>2026-04-22T14:55:21.973Z</time></trkpt><trkpt lat="45.7591483" lon="9.1895506"><ele>327.0</ele><time>2026-04-22T14:55:22.975Z</time></trkpt><trkpt lat="45.7591743" lon="9.1893906"><ele>328.0</ele><time>2026-04-22T14:55:23.973Z</time></trkpt><trkpt lat="45.7591981" lon="9.1892596"><ele>329.0</ele><time>2026-04-22T14:55:24.973Z</time></trkpt><trkpt lat="45.759224" lon="9.1891525"><ele>330.0</ele><time>2026-04-22T14:55:25.974Z</time></trkpt><trkpt lat="45.7592586" lon="9.1890646"><ele>331.0</ele><time>2026-04-22T14:55:26.975Z</time></trkpt><trkpt lat="45.7593074" lon="9.1889889"><ele>332.0</ele><time>2026-04-22T14:55:27.975Z</time></trkpt><trkpt lat="45.7593704" lon="9.1889389"><ele>333.0</ele><time>2026-04-22T14:55:28.975Z</time></trkpt><trkpt lat="45.7594494" lon="9.1888994"><ele>333.75</ele><time>2026-04-22T14:55:29.973Z</time></trkpt><trkpt lat="45.7595391" lon="9.1888637"><ele>334.5</ele><time>2026-04-22T14:55:30.974Z</time></trkpt><trkpt lat="45.7596468" lon="9.1888252"><ele>335.25</ele><time>2026-04-22T14:55:31.974Z</time></trkpt><trkpt lat="45.759763" lon="9.1887835"><ele>336.0</ele><time>2026-04-22T14:55:32.975Z</time></trkpt><trkpt lat="45.7598898" lon="9.1887398"><ele>336.0</ele><time>2026-04-22T14:55:33.974Z</time></trkpt><trkpt lat="45.7600183" lon="9.1886956"><ele>336.0</ele><time>2026-04-22T14:55:34.975Z</time></trkpt><trkpt lat="45.7601418" lon="9.188651"><ele>336.0</ele><time>2026-04-22T14:55:35.974Z</time></trkpt><trkpt lat="45.7602618" lon="9.188606"><ele>336.0</ele><time>2026-04-22T14:55:36.974Z</time></trkpt><trkpt lat="45.7603733" lon="9.1885482"><ele>336.8</ele><time>2026-04-22T14:55:37.975Z</time></trkpt><trkpt lat="45.7604774" lon="9.1884773"><ele>337.6</ele><time>2026-04-22T14:55:38.974Z</time></trkpt><trkpt lat="45.7605727" lon="9.188397"><ele>338.4</ele><time>2026-04-22T14:55:39.974Z</time></trkpt><trkpt lat="45.7606559" lon="9.188306"><ele>339.2</ele><time>2026-04-22T14:55:40.974Z</time></trkpt><trkpt lat="45.7607301" lon="9.1882046"><ele>340.0</ele><time>2026-04-22T14:55:41.974Z</time></trkpt><trkpt lat="45.7607987" lon="9.1880937"><ele>340.0</ele><time>2026-04-22T14:55:42.974Z</time></trkpt><trkpt lat="45.7608651" lon="9.1879766"><ele>340.0</ele><time>2026-04-22T14:55:43.974Z</time></trkpt><trkpt lat="45.7609345" lon="9.187858"><ele>340.0</ele><time>2026-04-22T14:55:44.974Z</time></trkpt><trkpt lat="45.7610056" lon="9.1877392"><ele>340.0</ele><time>2026-04-22T14:55:45.974Z</time></trkpt><trkpt lat="45.761071" lon="9.1876204"><ele>340.0</ele><time>2026-04-22T14:55:46.975Z</time></trkpt><trkpt lat="45.7611278" lon="9.1874961"><ele>340.0</ele><time>2026-04-22T14:55:47.974Z</time></trkpt><trkpt lat="45.7611753" lon="9.187366"><ele>340.0</ele><time>2026-04-22T14:55:48.974Z</time></trkpt><trkpt lat="45.7612171" lon="9.1872307"><ele>340.0</ele><time>2026-04-22T14:55:49.974Z</time></trkpt><trkpt lat="45.7612479" lon="9.1870874"><ele>340.0</ele><time>2026-04-22T14:55:50.975Z</time></trkpt><trkpt lat="45.7612803" lon="9.1869416"><ele>340.0</ele><time>2026-04-22T14:55:51.973Z</time></trkpt><trkpt lat="45.7613148" lon="9.1867905"><ele>340.8</ele><time>2026-04-22T14:55:52.973Z</time></trkpt><trkpt lat="45.7613484" lon="9.1866348"><ele>341.6</ele><time>2026-04-22T14:55:53.975Z</time></trkpt><trkpt lat="45.7613811" lon="9.1864775"><ele>342.4</ele><time>2026-04-22T14:55:54.974Z</time></trkpt><trkpt lat="45.7614104" lon="9.1863224"><ele>343.2</ele><time>2026-04-22T14:55:55.974Z</time></trkpt><trkpt lat="45.7614361" lon="9.1861709"><ele>344.0</ele><time>2026-04-22T14:55:56.974Z</time></trkpt><trkpt lat="45.7614583" lon="9.1860177"><ele>345.2</ele><time>2026-04-22T14:55:57.974Z</time></trkpt><trkpt lat="45.761475" lon="9.1858599"><ele>346.4</ele><time>2026-04-22T14:55:58.974Z</time></trkpt><trkpt lat="45.7614898" lon="9.185706"><ele>347.6</ele><time>2026-04-22T14:55:59.974Z</time></trkpt><trkpt lat="45.7615072" lon="9.1855488"><ele>348.8</ele><time>2026-04-22T14:56:00.974Z</time></trkpt><trkpt lat="45.7615276" lon="9.1853903"><ele>350.0</ele><time>2026-04-22T14:56:01.973Z</time></trkpt><trkpt lat="45.7615469" lon="9.1852286"><ele>351.0</ele><time>2026-04-22T14:56:02.975Z</time></trkpt><trkpt lat="45.761567" lon="9.1850603"><ele>352.0</ele><time>2026-04-22T14:56:03.974Z</time></trkpt><trkpt lat="45.761588" lon="9.1848864"><ele>353.0</ele><time>2026-04-22T14:56:04.973Z</time></trkpt><trkpt lat="45.7616084" lon="9.1847117"><ele>354.0</ele><time>2026-04-22T14:56:05.974Z</time></trkpt><trkpt lat="45.7616308" lon="9.1845432"><ele>355.2</ele><time>2026-04-22T14:56:06.975Z</time></trkpt><trkpt lat="45.7616534" lon="9.1843815"><ele>356.4</ele><time>2026-04-22T14:56:07.975Z</time></trkpt><trkpt lat="45.7616776" lon="9.1842295"><ele>357.6</ele><time>2026-04-22T14:56:08.974Z</time></trkpt><trkpt lat="45.7617029" lon="9.184087"><ele>358.8</ele><time>2026-04-22T14:56:09.974Z</time></trkpt><trkpt lat="45.7617282" lon="9.1839497"><ele>360.0</ele><time>2026-04-22T14:56:10.974Z</time></trkpt><trkpt lat="45.7617554" lon="9.1838139"><ele>360.2</ele><time>2026-04-22T14:56:11.975Z</time></trkpt><trkpt lat="45.7617853" lon="9.1836806"><ele>360.4</ele><time>2026-04-22T14:56:12.975Z</time></trkpt><trkpt lat="45.761814" lon="9.1835401"><ele>360.6</ele><time>2026-04-22T14:56:13.974Z</time></trkpt><trkpt lat="45.7618413" lon="9.1833999"><ele>360.8</ele><time>2026-04-22T14:56:14.973Z</time></trkpt><trkpt lat="45.7618682" lon="9.1832691"><ele>361.0</ele><time>2026-04-22T14:56:15.974Z</time></trkpt><trkpt lat="45.7619072" lon="9.1831532"><ele>361.0</ele><time>2026-04-22T14:56:16.974Z</time></trkpt><trkpt lat="45.7619575" lon="9.1830536"><ele>361.0</ele><time>2026-04-22T14:56:17.974Z</time></trkpt><trkpt lat="45.7620217" lon="9.1829637"><ele>361.0</ele><time>2026-04-22T14:56:18.974Z</time></trkpt><trkpt lat="45.7620937" lon="9.1828912"><ele>361.0</ele><time>2026-04-22T14:56:19.974Z</time></trkpt><trkpt lat="45.7621704" lon="9.18283"><ele>361.0</ele><time>2026-04-22T14:56:20.974Z</time></trkpt><trkpt lat="45.7622538" lon="9.1827758"><ele>361.0</ele><time>2026-04-22T14:56:21.974Z</time></trkpt><trkpt lat="45.7623384" lon="9.1827304"><ele>361.0</ele><time>2026-04-22T14:56:22.974Z</time></trkpt><trkpt lat="45.7624253" lon="9.1826946"><ele>361.0</ele><time>2026-04-22T14:56:23.974Z</time></trkpt><trkpt lat="45.7625147" lon="9.1826664"><ele>361.0</ele><time>2026-04-22T14:56:24.974Z</time></trkpt><trkpt lat="45.7625994" lon="9.1826375"><ele>361.0</ele><time>2026-04-22T14:56:25.975Z</time></trkpt><trkpt lat="45.7626799" lon="9.182599"><ele>361.0</ele><time>2026-04-22T14:56:26.974Z</time></trkpt><trkpt lat="45.7627492" lon="9.1825461"><ele>361.0</ele><time>2026-04-22T14:56:27.974Z</time></trkpt><trkpt lat="45.7628097" lon="9.182479"><ele>360.66666666666663</ele><time>2026-04-22T14:56:28.975Z</time></trkpt><trkpt lat="45.7628635" lon="9.1824008"><ele>360.3333333333333</ele><time>2026-04-22T14:56:29.975Z</time></trkpt><trkpt lat="45.7629072" lon="9.1823176"><ele>360.0</ele><time>2026-04-22T14:56:30.974Z</time></trkpt><trkpt lat="45.7629791" lon="9.1822059"><ele>359.6666666666667</ele><time>2026-04-22T14:56:32.974Z</time></trkpt><trkpt lat="45.7630361" lon="9.1821194"><ele>359.33333333333337</ele><time>2026-04-22T14:56:34.974Z</time></trkpt><trkpt lat="45.7631117" lon="9.1820213"><ele>359.0</ele><time>2026-04-22T14:56:36.975Z</time></trkpt><trkpt lat="45.7632097" lon="9.1819273"><ele>358.83333333333337</ele><time>2026-04-22T14:56:38.974Z</time></trkpt><trkpt lat="45.7632735" lon="9.1818864"><ele>358.6666666666667</ele><time>2026-04-22T14:56:39.974Z</time></trkpt><trkpt lat="45.763344" lon="9.1818598"><ele>358.5</ele><time>2026-04-22T14:56:40.974Z</time></trkpt><trkpt lat="45.7634236" lon="9.1818462"><ele>358.3333333333333</ele><time>2026-04-22T14:56:41.974Z</time></trkpt><trkpt lat="45.7635058" lon="9.1818485"><ele>358.16666666666663</ele><time>2026-04-22T14:56:42.974Z</time></trkpt><trkpt lat="45.7635882" lon="9.1818656"><ele>358.0</ele><time>2026-04-22T14:56:43.975Z</time></trkpt><trkpt lat="45.7636722" lon="9.1818964"><ele>357.16666666666663</ele><time>2026-04-22T14:56:44.975Z</time></trkpt><trkpt lat="45.7637584" lon="9.1819326"><ele>356.3333333333333</ele><time>2026-04-22T14:56:45.974Z</time></trkpt><trkpt lat="45.7638416" lon="9.1819711"><ele>355.5</ele><time>2026-04-22T14:56:46.975Z</time></trkpt><trkpt lat="45.7639173" lon="9.18201"><ele>354.6666666666667</ele><time>2026-04-22T14:56:47.974Z</time></trkpt><trkpt lat="45.7639817" lon="9.1820567"><ele>353.83333333333337</ele><time>2026-04-22T14:56:48.974Z</time></trkpt><trkpt lat="45.7640344" lon="9.1821074"><ele>353.0</ele><time>2026-04-22T14:56:49.974Z</time></trkpt><trkpt lat="45.7641207" lon="9.1821915"><ele>353.0</ele><time>2026-04-22T14:56:51.975Z</time></trkpt><trkpt lat="45.7642039" lon="9.1822359"><ele>353.0</ele><time>2026-04-22T14:56:53.974Z</time></trkpt><trkpt lat="45.7643037" lon="9.1822562"><ele>353.0</ele><time>2026-04-22T14:56:55.974Z</time></trkpt><trkpt lat="45.764375" lon="9.1822156"><ele>353.0</ele><time>2026-04-22T14:56:57.973Z</time></trkpt><trkpt lat="45.764408" lon="9.1821179"><ele>353.0</ele><time>2026-04-22T14:56:59.973Z</time></trkpt><trkpt lat="45.7644095" lon="9.1819884"><ele>353.0</ele><time>2026-04-22T14:57:01.975Z</time></trkpt><trkpt lat="45.7644277" lon="9.1818507"><ele>353.0</ele><time>2026-04-22T14:57:03.975Z</time></trkpt><trkpt lat="45.7644365" lon="9.1817217"><ele>353.0</ele><time>2026-04-22T14:57:05.974Z</time></trkpt><trkpt lat="45.7643972" lon="9.1816398"><ele>353.0</ele><time>2026-04-22T14:57:07.975Z</time></trkpt><trkpt lat="45.7643295" lon="9.1816122"><ele>353.0</ele><time>2026-04-22T14:57:09.974Z</time></trkpt><trkpt lat="45.7642461" lon="9.1816492"><ele>353.0</ele><time>2026-04-22T14:57:11.975Z</time></trkpt><trkpt lat="45.7641554" lon="9.1816782"><ele>353.0</ele><time>2026-04-22T14:57:13.975Z</time></trkpt><trkpt lat="45.7640506" lon="9.1816549"><ele>353.0</ele><time>2026-04-22T14:57:15.974Z</time></trkpt><trkpt lat="45.7639375" lon="9.1815573"><ele>353.0</ele><time>2026-04-22T14:57:17.974Z</time></trkpt><trkpt lat="45.7638758" lon="9.1814844"><ele>353.0</ele><time>2026-04-22T14:57:18.975Z</time></trkpt><trkpt lat="45.7638034" lon="9.1814026"><ele>353.0</ele><time>2026-04-22T14:57:19.974Z</time></trkpt><trkpt lat="45.7637239" lon="9.1813081"><ele>353.0</ele><time>2026-04-22T14:57:20.974Z</time></trkpt><trkpt lat="45.7636356" lon="9.1812037"><ele>353.25</ele><time>2026-04-22T14:57:21.973Z</time></trkpt><trkpt lat="45.763545" lon="9.1810967"><ele>353.5</ele><time>2026-04-22T14:57:22.974Z</time></trkpt><trkpt lat="45.7634534" lon="9.1809861"><ele>353.75</ele><time>2026-04-22T14:57:23.975Z</time></trkpt><trkpt lat="45.7633611" lon="9.1808766"><ele>354.0</ele><time>2026-04-22T14:57:24.974Z</time></trkpt><trkpt lat="45.7632672" lon="9.1807679"><ele>353.0</ele><time>2026-04-22T14:57:25.974Z</time></trkpt><trkpt lat="45.7631754" lon="9.1806608"><ele>352.0</ele><time>2026-04-22T14:57:26.974Z</time></trkpt><trkpt lat="45.7630837" lon="9.1805497"><ele>351.0</ele><time>2026-04-22T14:57:27.973Z</time></trkpt><trkpt lat="45.7629965" lon="9.1804413"><ele>350.0</ele><time>2026-04-22T14:57:28.973Z</time></trkpt><trkpt lat="45.7629093" lon="9.1803374"><ele>350.0</ele><time>2026-04-22T14:57:29.975Z</time></trkpt><trkpt lat="45.7628243" lon="9.1802349"><ele>350.0</ele><time>2026-04-22T14:57:30.974Z</time></trkpt><trkpt lat="45.7627394" lon="9.180141"><ele>350.0</ele><time>2026-04-22T14:57:31.974Z</time></trkpt><trkpt lat="45.7626548" lon="9.1800552"><ele>350.0</ele><time>2026-04-22T14:57:32.974Z</time></trkpt><trkpt lat="45.7625648" lon="9.1799758"><ele>350.0</ele><time>2026-04-22T14:57:33.974Z</time></trkpt><trkpt lat="45.7624709" lon="9.1799056"><ele>348.0</ele><time>2026-04-22T14:57:34.974Z</time></trkpt><trkpt lat="45.7623717" lon="9.1798467"><ele>346.0</ele><time>2026-04-22T14:57:35.975Z</time></trkpt><trkpt lat="45.7622684" lon="9.1798004"><ele>344.0</ele><time>2026-04-22T14:57:36.974Z</time></trkpt><trkpt lat="45.7621647" lon="9.1797621"><ele>342.0</ele><time>2026-04-22T14:57:37.974Z</time></trkpt><trkpt lat="45.7620687" lon="9.1797341"><ele>340.0</ele><time>2026-04-22T14:57:38.974Z</time></trkpt><trkpt lat="45.7619732" lon="9.1797105"><ele>340.0</ele><time>2026-04-22T14:57:39.973Z</time></trkpt><trkpt lat="45.7618708" lon="9.1796959"><ele>340.0</ele><time>2026-04-22T14:57:40.975Z</time></trkpt><trkpt lat="45.7617662" lon="9.1796828"><ele>340.0</ele><time>2026-04-22T14:57:41.974Z</time></trkpt><trkpt lat="45.7616569" lon="9.1796704"><ele>340.0</ele><time>2026-04-22T14:57:42.974Z</time></trkpt><trkpt lat="45.7615459" lon="9.1796587"><ele>340.0</ele><time>2026-04-22T14:57:43.974Z</time></trkpt><trkpt lat="45.7614327" lon="9.1796421"><ele>340.25</ele><time>2026-04-22T14:57:44.975Z</time></trkpt><trkpt lat="45.7613198" lon="9.1796258"><ele>340.5</ele><time>2026-04-22T14:57:45.975Z</time></trkpt><trkpt lat="45.7612062" lon="9.1796079"><ele>340.75</ele><time>2026-04-22T14:57:46.974Z</time></trkpt><trkpt lat="45.7610912" lon="9.1795878"><ele>341.0</ele><time>2026-04-22T14:57:47.974Z</time></trkpt><trkpt lat="45.7609779" lon="9.1795605"><ele>340.5</ele><time>2026-04-22T14:57:48.973Z</time></trkpt><trkpt lat="45.7608665" lon="9.179529"><ele>340.0</ele><time>2026-04-22T14:57:49.974Z</time></trkpt><trkpt lat="45.7607575" lon="9.1794905"><ele>339.5</ele><time>2026-04-22T14:57:50.973Z</time></trkpt><trkpt lat="45.7606485" lon="9.1794558"><ele>339.0</ele><time>2026-04-22T14:57:51.974Z</time></trkpt><trkpt lat="45.7605375" lon="9.1794237"><ele>339.0</ele><time>2026-04-22T14:57:52.974Z</time></trkpt><trkpt lat="45.7604289" lon="9.1793959"><ele>339.0</ele><time>2026-04-22T14:57:53.974Z</time></trkpt><trkpt lat="45.7603179" lon="9.1793775"><ele>339.0</ele><time>2026-04-22T14:57:54.974Z</time></trkpt><trkpt lat="45.7602062" lon="9.1793647"><ele>339.0</ele><time>2026-04-22T14:57:55.975Z</time></trkpt><trkpt lat="45.7600862" lon="9.1793604"><ele>338.25</ele><time>2026-04-22T14:57:56.974Z</time></trkpt><trkpt lat="45.7599579" lon="9.1793611"><ele>337.5</ele><time>2026-04-22T14:57:57.973Z</time></trkpt><trkpt lat="45.7598263" lon="9.1793691"><ele>336.75</ele><time>2026-04-22T14:57:58.975Z</time></trkpt><trkpt lat="45.7596888" lon="9.179373"><ele>336.0</ele><time>2026-04-22T14:57:59.974Z</time></trkpt><trkpt lat="45.7595423" lon="9.1793763"><ele>336.0</ele><time>2026-04-22T14:58:00.975Z</time></trkpt><trkpt lat="45.7593903" lon="9.1793794"><ele>336.0</ele><time>2026-04-22T14:58:01.973Z</time></trkpt><trkpt lat="45.7592323" lon="9.1793849"><ele>336.0</ele><time>2026-04-22T14:58:02.975Z</time></trkpt><trkpt lat="45.7590711" lon="9.1793891"><ele>335.6666666666667</ele><time>2026-04-22T14:58:03.974Z</time></trkpt><trkpt lat="45.7589071" lon="9.1793972"><ele>335.33333333333337</ele><time>2026-04-22T14:58:04.974Z</time></trkpt><trkpt lat="45.7587472" lon="9.1794018"><ele>335.0</ele><time>2026-04-22T14:58:05.975Z</time></trkpt><trkpt lat="45.7585901" lon="9.1794109"><ele>335.0</ele><time>2026-04-22T14:58:06.974Z</time></trkpt><trkpt lat="45.7584413" lon="9.1794071"><ele>335.0</ele><time>2026-04-22T14:58:07.974Z</time></trkpt><trkpt lat="45.758297" lon="9.1794178"><ele>335.0</ele><time>2026-04-22T14:58:08.973Z</time></trkpt><trkpt lat="45.7581584" lon="9.1794216"><ele>335.0</ele><time>2026-04-22T14:58:09.973Z</time></trkpt><trkpt lat="45.7580265" lon="9.1794353"><ele>335.0</ele><time>2026-04-22T14:58:10.975Z</time></trkpt><trkpt lat="45.7578961" lon="9.1794631"><ele>335.0</ele><time>2026-04-22T14:58:11.974Z</time></trkpt><trkpt lat="45.7577657" lon="9.1795061"><ele>335.0</ele><time>2026-04-22T14:58:12.974Z</time></trkpt><trkpt lat="45.7576319" lon="9.1795645"><ele>335.0</ele><time>2026-04-22T14:58:13.974Z</time></trkpt><trkpt lat="45.757494" lon="9.1796337"><ele>335.0</ele><time>2026-04-22T14:58:14.975Z</time></trkpt><trkpt lat="45.7573445" lon="9.1797106"><ele>335.0</ele><time>2026-04-22T14:58:15.974Z</time></trkpt><trkpt lat="45.7571891" lon="9.1797904"><ele>335.0</ele><time>2026-04-22T14:58:16.974Z</time></trkpt><trkpt lat="45.7570235" lon="9.1798754"><ele>335.0</ele><time>2026-04-22T14:58:17.975Z</time></trkpt><trkpt lat="45.756853" lon="9.1799623"><ele>335.0</ele><time>2026-04-22T14:58:18.974Z</time></trkpt><trkpt lat="45.7566773" lon="9.1800552"><ele>335.0</ele><time>2026-04-22T14:58:19.975Z</time></trkpt><trkpt lat="45.7564925" lon="9.1801496"><ele>335.0</ele><time>2026-04-22T14:58:20.975Z</time></trkpt><trkpt lat="45.7563054" lon="9.1802501"><ele>335.0</ele><time>2026-04-22T14:58:21.973Z</time></trkpt><trkpt lat="45.7561139" lon="9.1803553"><ele>335.0</ele><time>2026-04-22T14:58:22.973Z</time></trkpt><trkpt lat="45.755929" lon="9.1804554"><ele>333.0</ele><time>2026-04-22T14:58:23.973Z</time></trkpt><trkpt lat="45.7557526" lon="9.1805516"><ele>331.0</ele><time>2026-04-22T14:58:24.973Z</time></trkpt><trkpt lat="45.755583" lon="9.1806376"><ele>329.0</ele><time>2026-04-22T14:58:25.973Z</time></trkpt><trkpt lat="45.7554287" lon="9.1807059"><ele>330.25</ele><time>2026-04-22T14:58:26.974Z</time></trkpt><trkpt lat="45.7552875" lon="9.180753"><ele>331.5</ele><time>2026-04-22T14:58:27.974Z</time></trkpt><trkpt lat="45.7551503" lon="9.1807834"><ele>332.75</ele><time>2026-04-22T14:58:28.975Z</time></trkpt><trkpt lat="45.7550204" lon="9.1807913"><ele>334.0</ele><time>2026-04-22T14:58:29.973Z</time></trkpt><trkpt lat="45.7548978" lon="9.1807968"><ele>334.0</ele><time>2026-04-22T14:58:30.974Z</time></trkpt><trkpt lat="45.7547798" lon="9.1808097"><ele>334.0</ele><time>2026-04-22T14:58:31.974Z</time></trkpt><trkpt lat="45.754666" lon="9.1808447"><ele>334.0</ele><time>2026-04-22T14:58:32.975Z</time></trkpt><trkpt lat="45.7545532" lon="9.1808953"><ele>334.0</ele><time>2026-04-22T14:58:33.974Z</time></trkpt><trkpt lat="45.7544436" lon="9.180963"><ele>332.75</ele><time>2026-04-22T14:58:34.974Z</time></trkpt><trkpt lat="45.7543369" lon="9.1810514"><ele>331.5</ele><time>2026-04-22T14:58:35.973Z</time></trkpt><trkpt lat="45.7542333" lon="9.1811527"><ele>330.25</ele><time>2026-04-22T14:58:36.974Z</time></trkpt><trkpt lat="45.7541329" lon="9.181261"><ele>329.0</ele><time>2026-04-22T14:58:37.974Z</time></trkpt><trkpt lat="45.7540433" lon="9.1813699"><ele>329.0</ele><time>2026-04-22T14:58:38.974Z</time></trkpt><trkpt lat="45.7539662" lon="9.1814618"><ele>329.0</ele><time>2026-04-22T14:58:39.974Z</time></trkpt><trkpt lat="45.7539054" lon="9.1815396"><ele>329.0</ele><time>2026-04-22T14:58:40.975Z</time></trkpt><trkpt lat="45.7538234" lon="9.1816396"><ele>329.0</ele><time>2026-04-22T14:58:42.974Z</time></trkpt><trkpt lat="45.7537571" lon="9.1817113"><ele>329.0</ele><time>2026-04-22T14:58:44.973Z</time></trkpt><trkpt lat="45.7536665" lon="9.1818114"><ele>330.0</ele><time>2026-04-22T14:58:46.974Z</time></trkpt><trkpt lat="45.7535999" lon="9.1819908"><ele>331.0</ele><time>2026-04-22T14:58:48.974Z</time></trkpt><trkpt lat="45.7535892" lon="9.1820902"><ele>332.0</ele><time>2026-04-22T14:58:49.974Z</time></trkpt><trkpt lat="45.7535854" lon="9.1821946"><ele>333.0</ele><time>2026-04-22T14:58:50.973Z</time></trkpt><trkpt lat="45.7535774" lon="9.1823051"><ele>334.0</ele><time>2026-04-22T14:58:51.975Z</time></trkpt><trkpt lat="45.7535531" lon="9.1824067"><ele>335.0</ele><time>2026-04-22T14:58:52.974Z</time></trkpt><trkpt lat="45.7535132" lon="9.1825019"><ele>337.4</ele><time>2026-04-22T14:58:53.974Z</time></trkpt><trkpt lat="45.7534544" lon="9.1825884"><ele>339.8</ele><time>2026-04-22T14:58:54.975Z</time></trkpt><trkpt lat="45.7533794" lon="9.1826639"><ele>342.20000000000005</ele><time>2026-04-22T14:58:55.974Z</time></trkpt><trkpt lat="45.7532877" lon="9.1827198"><ele>344.6</ele><time>2026-04-22T14:58:56.974Z</time></trkpt><trkpt lat="45.7531908" lon="9.182784"><ele>347.0</ele><time>2026-04-22T14:58:57.974Z</time></trkpt><trkpt lat="45.7530811" lon="9.1828504"><ele>347.0</ele><time>2026-04-22T14:58:58.973Z</time></trkpt><trkpt lat="45.7529635" lon="9.1829214"><ele>347.0</ele><time>2026-04-22T14:58:59.973Z</time></trkpt><trkpt lat="45.7528392" lon="9.1829975"><ele>347.0</ele><time>2026-04-22T14:59:00.974Z</time></trkpt><trkpt lat="45.7527052" lon="9.1830797"><ele>347.0</ele><time>2026-04-22T14:59:01.975Z</time></trkpt><trkpt lat="45.7525653" lon="9.1831641"><ele>349.75</ele><time>2026-04-22T14:59:02.975Z</time></trkpt><trkpt lat="45.7524218" lon="9.1832511"><ele>352.5</ele><time>2026-04-22T14:59:03.975Z</time></trkpt><trkpt lat="45.7522911" lon="9.1833305"><ele>355.25</ele><time>2026-04-22T14:59:04.973Z</time></trkpt><trkpt lat="45.7521691" lon="9.1834088"><ele>358.0</ele><time>2026-04-22T14:59:05.974Z</time></trkpt><trkpt lat="45.7520558" lon="9.1834926"><ele>358.0</ele><time>2026-04-22T14:59:06.974Z</time></trkpt><trkpt lat="45.7519482" lon="9.1835762"><ele>358.0</ele><time>2026-04-22T14:59:07.975Z</time></trkpt><trkpt lat="45.7518518" lon="9.1836699"><ele>358.0</ele><time>2026-04-22T14:59:08.975Z</time></trkpt><trkpt lat="45.7517645" lon="9.1837774"><ele>358.0</ele><time>2026-04-22T14:59:09.974Z</time></trkpt><trkpt lat="45.7516855" lon="9.1838915"><ele>359.4</ele><time>2026-04-22T14:59:10.975Z</time></trkpt><trkpt lat="45.7516161" lon="9.1840215"><ele>360.79999999999995</ele><time>2026-04-22T14:59:11.975Z</time></trkpt><trkpt lat="45.7515458" lon="9.1841354"><ele>362.2</ele><time>2026-04-22T14:59:12.974Z</time></trkpt><trkpt lat="45.7514612" lon="9.1842176"><ele>363.6</ele><time>2026-04-22T14:59:13.974Z</time></trkpt><trkpt lat="45.7513686" lon="9.1842818"><ele>365.0</ele><time>2026-04-22T14:59:14.975Z</time></trkpt><trkpt lat="45.7512671" lon="9.1843242"><ele>365.0</ele><time>2026-04-22T14:59:15.975Z</time></trkpt><trkpt lat="45.7511504" lon="9.1843473"><ele>365.0</ele><time>2026-04-22T14:59:16.974Z</time></trkpt><trkpt lat="45.7510277" lon="9.184373"><ele>365.0</ele><time>2026-04-22T14:59:17.973Z</time></trkpt><trkpt lat="45.750897" lon="9.1843947"><ele>365.0</ele><time>2026-04-22T14:59:18.974Z</time></trkpt><trkpt lat="45.75077" lon="9.1844182"><ele>363.0</ele><time>2026-04-22T14:59:19.975Z</time></trkpt><trkpt lat="45.750627" lon="9.18444"><ele>361.0</ele><time>2026-04-22T14:59:20.973Z</time></trkpt><trkpt lat="45.750473" lon="9.1844569"><ele>359.0</ele><time>2026-04-22T14:59:21.974Z</time></trkpt><trkpt lat="45.7503186" lon="9.1844738"><ele>360.75</ele><time>2026-04-22T14:59:22.974Z</time></trkpt><trkpt lat="45.7501757" lon="9.1844937"><ele>362.5</ele><time>2026-04-22T14:59:23.974Z</time></trkpt><trkpt lat="45.7500378" lon="9.1845099"><ele>364.25</ele><time>2026-04-22T14:59:24.974Z</time></trkpt><trkpt lat="45.7499056" lon="9.1845276"><ele>366.0</ele><time>2026-04-22T14:59:25.974Z</time></trkpt><trkpt lat="45.7497724" lon="9.1845491"><ele>366.0</ele><time>2026-04-22T14:59:26.974Z</time></trkpt><trkpt lat="45.7496414" lon="9.1845664"><ele>366.0</ele><time>2026-04-22T14:59:27.974Z</time></trkpt><trkpt lat="45.7495089" lon="9.1845841"><ele>366.0</ele><time>2026-04-22T14:59:28.974Z</time></trkpt><trkpt lat="45.7493744" lon="9.1846028"><ele>366.0</ele><time>2026-04-22T14:59:29.974Z</time></trkpt><trkpt lat="45.7492367" lon="9.1846203"><ele>367.25</ele><time>2026-04-22T14:59:30.974Z</time></trkpt><trkpt lat="45.7490973" lon="9.1846374"><ele>368.5</ele><time>2026-04-22T14:59:31.974Z</time></trkpt><trkpt lat="45.7489617" lon="9.1846571"><ele>369.75</ele><time>2026-04-22T14:59:32.974Z</time></trkpt><trkpt lat="45.7488255" lon="9.1846772"><ele>371.0</ele><time>2026-04-22T14:59:33.974Z</time></trkpt><trkpt lat="45.7486945" lon="9.1846934"><ele>371.0</ele><time>2026-04-22T14:59:34.974Z</time></trkpt><trkpt lat="45.7485664" lon="9.1847095"><ele>371.0</ele><time>2026-04-22T14:59:35.973Z</time></trkpt><trkpt lat="45.7484399" lon="9.1847259"><ele>371.0</ele><time>2026-04-22T14:59:36.974Z</time></trkpt><trkpt lat="45.7483167" lon="9.1847446"><ele>371.0</ele><time>2026-04-22T14:59:37.975Z</time></trkpt><trkpt lat="45.7481947" lon="9.1847578"><ele>370.20000000000005</ele><time>2026-04-22T14:59:38.974Z</time></trkpt><trkpt lat="45.7480739" lon="9.184773"><ele>369.40000000000003</ele><time>2026-04-22T14:59:39.975Z</time></trkpt><trkpt lat="45.7479608" lon="9.1847904"><ele>368.6</ele><time>2026-04-22T14:59:40.974Z</time></trkpt><trkpt lat="45.7478587" lon="9.1848149"><ele>367.8</ele><time>2026-04-22T14:59:41.974Z</time></trkpt><trkpt lat="45.7477673" lon="9.1848395"><ele>367.0</ele><time>2026-04-22T14:59:42.974Z</time></trkpt><trkpt lat="45.7476848" lon="9.1848553"><ele>366.66666666666663</ele><time>2026-04-22T14:59:43.974Z</time></trkpt><trkpt lat="45.7476064" lon="9.1848606"><ele>366.3333333333333</ele><time>2026-04-22T14:59:44.974Z</time></trkpt><trkpt lat="45.7475333" lon="9.1848554"><ele>366.0</ele><time>2026-04-22T14:59:45.974Z</time></trkpt><trkpt lat="45.7474696" lon="9.1848405"><ele>365.6666666666667</ele><time>2026-04-22T14:59:46.975Z</time></trkpt><trkpt lat="45.7473555" lon="9.1848311"><ele>365.33333333333337</ele><time>2026-04-22T14:59:48.973Z</time></trkpt><trkpt lat="45.7472659" lon="9.1849033"><ele>365.0</ele><time>2026-04-22T14:59:50.974Z</time></trkpt><trkpt lat="45.7472167" lon="9.1850529"><ele>364.83333333333337</ele><time>2026-04-22T14:59:52.974Z</time></trkpt><trkpt lat="45.7471983" lon="9.1851469"><ele>364.6666666666667</ele><time>2026-04-22T14:59:53.974Z</time></trkpt><trkpt lat="45.7471347" lon="9.1852978"><ele>364.5</ele><time>2026-04-22T14:59:55.974Z</time></trkpt><trkpt lat="45.7470869" lon="9.1853648"><ele>364.3333333333333</ele><time>2026-04-22T14:59:56.974Z</time></trkpt><trkpt lat="45.7470213" lon="9.1854308"><ele>364.16666666666663</ele><time>2026-04-22T14:59:57.974Z</time></trkpt><trkpt lat="45.7469477" lon="9.1855013"><ele>364.0</ele><time>2026-04-22T14:59:58.974Z</time></trkpt><trkpt lat="45.7468586" lon="9.1855722"><ele>364.0</ele><time>2026-04-22T14:59:59.975Z</time></trkpt><trkpt lat="45.746765" lon="9.1856488"><ele>364.0</ele><time>2026-04-22T15:00:00.974Z</time></trkpt><trkpt lat="45.7466615" lon="9.185733"><ele>364.0</ele><time>2026-04-22T15:00:01.975Z</time></trkpt><trkpt lat="45.7465557" lon="9.1858253"><ele>364.0</ele><time>2026-04-22T15:00:02.975Z</time></trkpt><trkpt lat="45.7464497" lon="9.1859197"><ele>363.5</ele><time>2026-04-22T15:00:03.974Z</time></trkpt><trkpt lat="45.746346" lon="9.1860104"><ele>363.0</ele><time>2026-04-22T15:00:04.975Z</time></trkpt><trkpt lat="45.7462465" lon="9.1860972"><ele>362.5</ele><time>2026-04-22T15:00:05.974Z</time></trkpt><trkpt lat="45.7461482" lon="9.1861774"><ele>362.0</ele><time>2026-04-22T15:00:06.975Z</time></trkpt><trkpt lat="45.7460542" lon="9.186255"><ele>362.0</ele><time>2026-04-22T15:00:07.974Z</time></trkpt><trkpt lat="45.7459622" lon="9.1863299"><ele>362.0</ele><time>2026-04-22T15:00:08.975Z</time></trkpt><trkpt lat="45.7458715" lon="9.1864042"><ele>362.0</ele><time>2026-04-22T15:00:09.975Z</time></trkpt><trkpt lat="45.7457814" lon="9.1864763"><ele>362.0</ele><time>2026-04-22T15:00:10.974Z</time></trkpt><trkpt lat="45.7456898" lon="9.1865419"><ele>362.0</ele><time>2026-04-22T15:00:11.975Z</time></trkpt><trkpt lat="45.745596" lon="9.1865939"><ele>362.0</ele><time>2026-04-22T15:00:12.975Z</time></trkpt><trkpt lat="45.7455004" lon="9.1866309"><ele>362.0</ele><time>2026-04-22T15:00:13.974Z</time></trkpt><trkpt lat="45.7454045" lon="9.186659"><ele>362.0</ele><time>2026-04-22T15:00:14.974Z</time></trkpt><trkpt lat="45.745308" lon="9.1866812"><ele>362.0</ele><time>2026-04-22T15:00:15.974Z</time></trkpt><trkpt lat="45.7452108" lon="9.1866872"><ele>362.0</ele><time>2026-04-22T15:00:16.973Z</time></trkpt><trkpt lat="45.7451132" lon="9.1866841"><ele>361.8</ele><time>2026-04-22T15:00:17.975Z</time></trkpt><trkpt lat="45.7450106" lon="9.1866696"><ele>361.6</ele><time>2026-04-22T15:00:18.975Z</time></trkpt><trkpt lat="45.7449037" lon="9.1866509"><ele>361.40000000000003</ele><time>2026-04-22T15:00:19.974Z</time></trkpt><trkpt lat="45.7447996" lon="9.1866254"><ele>361.20000000000005</ele><time>2026-04-22T15:00:20.975Z</time></trkpt><trkpt lat="45.7446962" lon="9.1866005"><ele>361.0</ele><time>2026-04-22T15:00:21.975Z</time></trkpt><trkpt lat="45.7445935" lon="9.1865752"><ele>361.0</ele><time>2026-04-22T15:00:22.974Z</time></trkpt><trkpt lat="45.7444884" lon="9.1865493"><ele>361.0</ele><time>2026-04-22T15:00:23.975Z</time></trkpt><trkpt lat="45.7443859" lon="9.186524"><ele>361.0</ele><time>2026-04-22T15:00:24.975Z</time></trkpt><trkpt lat="45.7442824" lon="9.186501"><ele>361.0</ele><time>2026-04-22T15:00:25.975Z</time></trkpt><trkpt lat="45.7441796" lon="9.1864809"><ele>361.0</ele><time>2026-04-22T15:00:26.973Z</time></trkpt><trkpt lat="45.7440831" lon="9.1864602"><ele>360.8333333333333</ele><time>2026-04-22T15:00:27.974Z</time></trkpt><trkpt lat="45.7440001" lon="9.1864398"><ele>360.66666666666663</ele><time>2026-04-22T15:00:28.974Z</time></trkpt><trkpt lat="45.7439276" lon="9.1864248"><ele>360.5</ele><time>2026-04-22T15:00:29.974Z</time></trkpt><trkpt lat="45.743859" lon="9.1864103"><ele>360.3333333333333</ele><time>2026-04-22T15:00:30.974Z</time></trkpt><trkpt lat="45.7437858" lon="9.1863938"><ele>360.1666666666667</ele><time>2026-04-22T15:00:31.975Z</time></trkpt><trkpt lat="45.7437085" lon="9.1863751"><ele>360.0</ele><time>2026-04-22T15:00:32.974Z</time></trkpt><trkpt lat="45.7436248" lon="9.1863606"><ele>359.6666666666667</ele><time>2026-04-22T15:00:33.974Z</time></trkpt><trkpt lat="45.743541" lon="9.1863478"><ele>359.3333333333333</ele><time>2026-04-22T15:00:34.974Z</time></trkpt><trkpt lat="45.7434522" lon="9.1863288"><ele>359.0</ele><time>2026-04-22T15:00:35.975Z</time></trkpt><trkpt lat="45.7433687" lon="9.1862963"><ele>358.66666666666663</ele><time>2026-04-22T15:00:36.975Z</time></trkpt><trkpt lat="45.7432872" lon="9.1862461"><ele>358.3333333333333</ele><time>2026-04-22T15:00:37.974Z</time></trkpt><trkpt lat="45.7432034" lon="9.1861749"><ele>358.0</ele><time>2026-04-22T15:00:38.974Z</time></trkpt><trkpt lat="45.7431193" lon="9.1860907"><ele>358.0</ele><time>2026-04-22T15:00:39.974Z</time></trkpt><trkpt lat="45.7430384" lon="9.1860069"><ele>358.0</ele><time>2026-04-22T15:00:40.973Z</time></trkpt><trkpt lat="45.7429617" lon="9.1859263"><ele>358.0</ele><time>2026-04-22T15:00:41.974Z</time></trkpt><trkpt lat="45.7428876" lon="9.1858528"><ele>358.0</ele><time>2026-04-22T15:00:42.974Z</time></trkpt><trkpt lat="45.7428229" lon="9.1857797"><ele>358.0</ele><time>2026-04-22T15:00:43.973Z</time></trkpt><trkpt lat="45.742773" lon="9.1857123"><ele>358.0</ele><time>2026-04-22T15:00:44.974Z</time></trkpt><trkpt lat="45.7427308" lon="9.1856412"><ele>357.5</ele><time>2026-04-22T15:00:45.974Z</time></trkpt><trkpt lat="45.7426854" lon="9.1855621"><ele>357.0</ele><time>2026-04-22T15:00:46.973Z</time></trkpt><trkpt lat="45.7426328" lon="9.1854963"><ele>356.5</ele><time>2026-04-22T15:00:47.975Z</time></trkpt><trkpt lat="45.7425696" lon="9.1854419"><ele>356.0</ele><time>2026-04-22T15:00:48.974Z</time></trkpt><trkpt lat="45.7424954" lon="9.1853864"><ele>355.5</ele><time>2026-04-22T15:00:49.975Z</time></trkpt><trkpt lat="45.7424138" lon="9.1853295"><ele>355.0</ele><time>2026-04-22T15:00:50.975Z</time></trkpt><trkpt lat="45.7423286" lon="9.1852611"><ele>355.0</ele><time>2026-04-22T15:00:51.975Z</time></trkpt><trkpt lat="45.7422408" lon="9.1851838"><ele>355.0</ele><time>2026-04-22T15:00:52.974Z</time></trkpt><trkpt lat="45.7421562" lon="9.1851038"><ele>355.0</ele><time>2026-04-22T15:00:53.974Z</time></trkpt><trkpt lat="45.7420716" lon="9.1850189"><ele>355.0</ele><time>2026-04-22T15:00:54.974Z</time></trkpt><trkpt lat="45.7419857" lon="9.1849292"><ele>355.0</ele><time>2026-04-22T15:00:55.974Z</time></trkpt><trkpt lat="45.7418972" lon="9.1848379"><ele>354.5</ele><time>2026-04-22T15:00:56.975Z</time></trkpt><trkpt lat="45.7418052" lon="9.1847404"><ele>354.0</ele><time>2026-04-22T15:00:57.974Z</time></trkpt><trkpt lat="45.7417094" lon="9.184642"><ele>353.5</ele><time>2026-04-22T15:00:58.973Z</time></trkpt><trkpt lat="45.741611" lon="9.184543"><ele>353.0</ele><time>2026-04-22T15:00:59.973Z</time></trkpt><trkpt lat="45.7415121" lon="9.1844441"><ele>353.0</ele><time>2026-04-22T15:01:00.975Z</time></trkpt><trkpt lat="45.741413" lon="9.1843622"><ele>353.0</ele><time>2026-04-22T15:01:01.974Z</time></trkpt><trkpt lat="45.7413069" lon="9.1843006"><ele>353.0</ele><time>2026-04-22T15:01:02.975Z</time></trkpt><trkpt lat="45.741192" lon="9.1842517"><ele>353.0</ele><time>2026-04-22T15:01:03.975Z</time></trkpt><trkpt lat="45.741069" lon="9.1842115"><ele>351.25</ele><time>2026-04-22T15:01:04.974Z</time></trkpt><trkpt lat="45.7409433" lon="9.1841786"><ele>349.5</ele><time>2026-04-22T15:01:05.974Z</time></trkpt><trkpt lat="45.7408178" lon="9.1841437"><ele>347.75</ele><time>2026-04-22T15:01:06.973Z</time></trkpt><trkpt lat="45.7406949" lon="9.1840997"><ele>346.0</ele><time>2026-04-22T15:01:07.974Z</time></trkpt><trkpt lat="45.7405723" lon="9.1840445"><ele>342.5</ele><time>2026-04-22T15:01:08.974Z</time></trkpt><trkpt lat="45.7404542" lon="9.1839697"><ele>339.0</ele><time>2026-04-22T15:01:09.973Z</time></trkpt><trkpt lat="45.7403435" lon="9.1838739"><ele>335.5</ele><time>2026-04-22T15:01:10.973Z</time></trkpt><trkpt lat="45.7402396" lon="9.1837574"><ele>332.0</ele><time>2026-04-22T15:01:11.975Z</time></trkpt><trkpt lat="45.7401423" lon="9.1836168"><ele>331.25</ele><time>2026-04-22T15:01:12.974Z</time></trkpt><trkpt lat="45.740046" lon="9.1834661"><ele>330.5</ele><time>2026-04-22T15:01:13.975Z</time></trkpt><trkpt lat="45.7399536" lon="9.1833166"><ele>329.75</ele><time>2026-04-22T15:01:14.975Z</time></trkpt><trkpt lat="45.7398559" lon="9.1831829"><ele>329.0</ele><time>2026-04-22T15:01:15.974Z</time></trkpt><trkpt lat="45.7397501" lon="9.1830661"><ele>333.25</ele><time>2026-04-22T15:01:16.973Z</time></trkpt><trkpt lat="45.7396347" lon="9.1829653"><ele>337.5</ele><time>2026-04-22T15:01:17.974Z</time></trkpt><trkpt lat="45.7395118" lon="9.1828912"><ele>341.75</ele><time>2026-04-22T15:01:18.974Z</time></trkpt><trkpt lat="45.7393812" lon="9.1828354"><ele>346.0</ele><time>2026-04-22T15:01:19.974Z</time></trkpt><trkpt lat="45.7392425" lon="9.1827997"><ele>346.75</ele><time>2026-04-22T15:01:20.974Z</time></trkpt><trkpt lat="45.7390975" lon="9.1827696"><ele>347.5</ele><time>2026-04-22T15:01:21.974Z</time></trkpt><trkpt lat="45.7389495" lon="9.182748"><ele>348.25</ele><time>2026-04-22T15:01:22.975Z</time></trkpt><trkpt lat="45.7387991" lon="9.1827295"><ele>349.0</ele><time>2026-04-22T15:01:23.975Z</time></trkpt><trkpt lat="45.7386481" lon="9.182717"><ele>349.25</ele><time>2026-04-22T15:01:24.974Z</time></trkpt><trkpt lat="45.7384945" lon="9.1827191"><ele>349.5</ele><time>2026-04-22T15:01:25.974Z</time></trkpt><trkpt lat="45.7383484" lon="9.1827193"><ele>349.75</ele><time>2026-04-22T15:01:26.973Z</time></trkpt><trkpt lat="45.7382091" lon="9.1827204"><ele>350.0</ele><time>2026-04-22T15:01:27.974Z</time></trkpt><trkpt lat="45.7380819" lon="9.1827233"><ele>350.0</ele><time>2026-04-22T15:01:28.974Z</time></trkpt><trkpt lat="45.7379742" lon="9.1827271"><ele>350.0</ele><time>2026-04-22T15:01:29.974Z</time></trkpt><trkpt lat="45.7378774" lon="9.1827155"><ele>350.0</ele><time>2026-04-22T15:01:30.974Z</time></trkpt><trkpt lat="45.7377919" lon="9.1826778"><ele>350.0</ele><time>2026-04-22T15:01:31.974Z</time></trkpt><trkpt lat="45.737716" lon="9.182618"><ele>350.0</ele><time>2026-04-22T15:01:32.974Z</time></trkpt><trkpt lat="45.7376455" lon="9.1825286"><ele>350.0</ele><time>2026-04-22T15:01:33.974Z</time></trkpt><trkpt lat="45.7375915" lon="9.1824255"><ele>350.0</ele><time>2026-04-22T15:01:34.974Z</time></trkpt><trkpt lat="45.7375474" lon="9.1822975"><ele>350.0</ele><time>2026-04-22T15:01:35.974Z</time></trkpt><trkpt lat="45.7375073" lon="9.1821452"><ele>350.0</ele><time>2026-04-22T15:01:36.974Z</time></trkpt><trkpt lat="45.7374667" lon="9.1819758"><ele>350.0</ele><time>2026-04-22T15:01:37.973Z</time></trkpt><trkpt lat="45.7374261" lon="9.1817979"><ele>350.25</ele><time>2026-04-22T15:01:38.974Z</time></trkpt><trkpt lat="45.7373821" lon="9.181622"><ele>350.5</ele><time>2026-04-22T15:01:39.974Z</time></trkpt><trkpt lat="45.7373379" lon="9.1814437"><ele>350.75</ele><time>2026-04-22T15:01:40.974Z</time></trkpt><trkpt lat="45.7372908" lon="9.1812669"><ele>351.0</ele><time>2026-04-22T15:01:41.974Z</time></trkpt><trkpt lat="45.7372433" lon="9.1810856"><ele>351.75</ele><time>2026-04-22T15:01:42.974Z</time></trkpt><trkpt lat="45.7371973" lon="9.1809098"><ele>352.5</ele><time>2026-04-22T15:01:43.974Z</time></trkpt><trkpt lat="45.7371536" lon="9.1807425"><ele>353.25</ele><time>2026-04-22T15:01:44.973Z</time></trkpt><trkpt lat="45.7371123" lon="9.1805853"><ele>354.0</ele><time>2026-04-22T15:01:45.974Z</time></trkpt><trkpt lat="45.7370713" lon="9.1804376"><ele>354.0</ele><time>2026-04-22T15:01:46.974Z</time></trkpt><trkpt lat="45.7370345" lon="9.1802882"><ele>354.0</ele><time>2026-04-22T15:01:47.975Z</time></trkpt><trkpt lat="45.7370006" lon="9.1801374"><ele>354.0</ele><time>2026-04-22T15:01:48.974Z</time></trkpt><trkpt lat="45.7369696" lon="9.179985"><ele>354.0</ele><time>2026-04-22T15:01:49.975Z</time></trkpt><trkpt lat="45.7369425" lon="9.1798341"><ele>354.0</ele><time>2026-04-22T15:01:50.975Z</time></trkpt><trkpt lat="45.736916" lon="9.1796873"><ele>353.4</ele><time>2026-04-22T15:01:51.974Z</time></trkpt><trkpt lat="45.7368783" lon="9.1795511"><ele>352.79999999999995</ele><time>2026-04-22T15:01:52.974Z</time></trkpt><trkpt lat="45.7368344" lon="9.1794243"><ele>352.20000000000005</ele><time>2026-04-22T15:01:53.975Z</time></trkpt><trkpt lat="45.7367913" lon="9.1793041"><ele>351.6</ele><time>2026-04-22T15:01:54.974Z</time></trkpt><trkpt lat="45.736755" lon="9.1791775"><ele>351.0</ele><time>2026-04-22T15:01:55.974Z</time></trkpt><trkpt lat="45.7367207" lon="9.1790459"><ele>350.4</ele><time>2026-04-22T15:01:56.973Z</time></trkpt><trkpt lat="45.7366863" lon="9.1789115"><ele>349.8</ele><time>2026-04-22T15:01:57.974Z</time></trkpt><trkpt lat="45.7366515" lon="9.1787749"><ele>349.2</ele><time>2026-04-22T15:01:58.975Z</time></trkpt><trkpt lat="45.7366166" lon="9.1786357"><ele>348.59999999999997</ele><time>2026-04-22T15:01:59.975Z</time></trkpt><trkpt lat="45.7365823" lon="9.1784952"><ele>348.0</ele><time>2026-04-22T15:02:00.974Z</time></trkpt><trkpt lat="45.7365479" lon="9.1783555"><ele>348.0</ele><time>2026-04-22T15:02:01.974Z</time></trkpt><trkpt lat="45.7365142" lon="9.1782163"><ele>348.0</ele><time>2026-04-22T15:02:02.974Z</time></trkpt><trkpt lat="45.7364811" lon="9.1780737"><ele>348.0</ele><time>2026-04-22T15:02:03.974Z</time></trkpt><trkpt lat="45.7364453" lon="9.1779298"><ele>348.0</ele><time>2026-04-22T15:02:04.975Z</time></trkpt><trkpt lat="45.7364119" lon="9.1777863"><ele>348.0</ele><time>2026-04-22T15:02:05.973Z</time></trkpt><trkpt lat="45.7363787" lon="9.1776414"><ele>348.0</ele><time>2026-04-22T15:02:06.974Z</time></trkpt><trkpt lat="45.7363496" lon="9.1774968"><ele>348.0</ele><time>2026-04-22T15:02:07.974Z</time></trkpt><trkpt lat="45.7363206" lon="9.1773483"><ele>348.0</ele><time>2026-04-22T15:02:08.974Z</time></trkpt><trkpt lat="45.7362932" lon="9.1772019"><ele>348.0</ele><time>2026-04-22T15:02:09.974Z</time></trkpt><trkpt lat="45.736267" lon="9.1770498"><ele>348.0</ele><time>2026-04-22T15:02:10.973Z</time></trkpt><trkpt lat="45.7362419" lon="9.176901"><ele>348.0</ele><time>2026-04-22T15:02:11.974Z</time></trkpt><trkpt lat="45.7362163" lon="9.1767516"><ele>348.0</ele><time>2026-04-22T15:02:12.974Z</time></trkpt><trkpt lat="45.7361975" lon="9.1765998"><ele>348.0</ele><time>2026-04-22T15:02:13.975Z</time></trkpt><trkpt lat="45.7361836" lon="9.1764446"><ele>348.0</ele><time>2026-04-22T15:02:14.974Z</time></trkpt><trkpt lat="45.7361715" lon="9.1762822"><ele>348.0</ele><time>2026-04-22T15:02:15.973Z</time></trkpt><trkpt lat="45.7361627" lon="9.1761192"><ele>348.25</ele><time>2026-04-22T15:02:16.974Z</time></trkpt><trkpt lat="45.7361591" lon="9.1759465"><ele>348.5</ele><time>2026-04-22T15:02:17.974Z</time></trkpt><trkpt lat="45.7361593" lon="9.1757738"><ele>348.75</ele><time>2026-04-22T15:02:18.974Z</time></trkpt><trkpt lat="45.7361594" lon="9.1755983"><ele>349.0</ele><time>2026-04-22T15:02:19.975Z</time></trkpt><trkpt lat="45.7361587" lon="9.1754228"><ele>349.0</ele><time>2026-04-22T15:02:20.974Z</time></trkpt><trkpt lat="45.7361587" lon="9.1752521"><ele>349.0</ele><time>2026-04-22T15:02:21.974Z</time></trkpt><trkpt lat="45.7361592" lon="9.1750843"><ele>349.0</ele><time>2026-04-22T15:02:22.974Z</time></trkpt><trkpt lat="45.7361602" lon="9.1749194"><ele>349.0</ele><time>2026-04-22T15:02:23.975Z</time></trkpt><trkpt lat="45.7361617" lon="9.1747598"><ele>349.8333333333333</ele><time>2026-04-22T15:02:24.974Z</time></trkpt><trkpt lat="45.7361627" lon="9.1746159"><ele>350.66666666666663</ele><time>2026-04-22T15:02:25.974Z</time></trkpt><trkpt lat="45.7361649" lon="9.1745013"><ele>351.5</ele><time>2026-04-22T15:02:26.975Z</time></trkpt><trkpt lat="45.7361769" lon="9.1743979"><ele>352.3333333333333</ele><time>2026-04-22T15:02:27.974Z</time></trkpt><trkpt lat="45.7361986" lon="9.1742902"><ele>353.1666666666667</ele><time>2026-04-22T15:02:28.974Z</time></trkpt><trkpt lat="45.736208" lon="9.1741926"><ele>354.0</ele><time>2026-04-22T15:02:29.974Z</time></trkpt><trkpt lat="45.7362037" lon="9.1740809"><ele>354.6</ele><time>2026-04-22T15:02:30.974Z</time></trkpt><trkpt lat="45.7361922" lon="9.1739593"><ele>355.2</ele><time>2026-04-22T15:02:31.974Z</time></trkpt><trkpt lat="45.7361783" lon="9.1738163"><ele>355.8</ele><time>2026-04-22T15:02:32.975Z</time></trkpt><trkpt lat="45.7361716" lon="9.1736613"><ele>356.40000000000003</ele><time>2026-04-22T15:02:33.975Z</time></trkpt><trkpt lat="45.7361676" lon="9.1734905"><ele>357.0</ele><time>2026-04-22T15:02:34.974Z</time></trkpt><trkpt lat="45.7361621" lon="9.173303"><ele>357.75</ele><time>2026-04-22T15:02:35.974Z</time></trkpt><trkpt lat="45.7361586" lon="9.1731009"><ele>358.5</ele><time>2026-04-22T15:02:36.975Z</time></trkpt><trkpt lat="45.7361616" lon="9.1728887"><ele>359.25</ele><time>2026-04-22T15:02:37.974Z</time></trkpt><trkpt lat="45.7361634" lon="9.1726648"><ele>360.0</ele><time>2026-04-22T15:02:38.975Z</time></trkpt><trkpt lat="45.7361655" lon="9.1724315"><ele>358.6666666666667</ele><time>2026-04-22T15:02:39.974Z</time></trkpt><trkpt lat="45.7361667" lon="9.1722055"><ele>357.33333333333337</ele><time>2026-04-22T15:02:40.974Z</time></trkpt><trkpt lat="45.736166" lon="9.1719873"><ele>356.0</ele><time>2026-04-22T15:02:41.975Z</time></trkpt><trkpt lat="45.7361678" lon="9.1717773"><ele>356.0</ele><time>2026-04-22T15:02:42.974Z</time></trkpt><trkpt lat="45.7361703" lon="9.171575"><ele>356.0</ele><time>2026-04-22T15:02:43.974Z</time></trkpt><trkpt lat="45.73617" lon="9.1713767"><ele>356.0</ele><time>2026-04-22T15:02:44.974Z</time></trkpt><trkpt lat="45.7361678" lon="9.1711844"><ele>356.0</ele><time>2026-04-22T15:02:45.974Z</time></trkpt><trkpt lat="45.7361675" lon="9.1709903"><ele>355.5</ele><time>2026-04-22T15:02:46.974Z</time></trkpt><trkpt lat="45.7361673" lon="9.1707917"><ele>355.0</ele><time>2026-04-22T15:02:47.974Z</time></trkpt><trkpt lat="45.7361668" lon="9.1705882"><ele>354.5</ele><time>2026-04-22T15:02:48.975Z</time></trkpt><trkpt lat="45.7361697" lon="9.1703811"><ele>354.0</ele><time>2026-04-22T15:02:49.974Z</time></trkpt><trkpt lat="45.7361706" lon="9.1701713"><ele>351.75</ele><time>2026-04-22T15:02:50.974Z</time></trkpt><trkpt lat="45.7361706" lon="9.1699626"><ele>349.5</ele><time>2026-04-22T15:02:51.975Z</time></trkpt><trkpt lat="45.7361693" lon="9.1697532"><ele>347.25</ele><time>2026-04-22T15:02:52.975Z</time></trkpt><trkpt lat="45.7361695" lon="9.1695448"><ele>345.0</ele><time>2026-04-22T15:02:53.974Z</time></trkpt><trkpt lat="45.7361682" lon="9.1693384"><ele>344.25</ele><time>2026-04-22T15:02:54.975Z</time></trkpt><trkpt lat="45.7361683" lon="9.1691353"><ele>343.5</ele><time>2026-04-22T15:02:55.973Z</time></trkpt><trkpt lat="45.7361695" lon="9.1689338"><ele>342.75</ele><time>2026-04-22T15:02:56.974Z</time></trkpt><trkpt lat="45.7361714" lon="9.1687334"><ele>342.0</ele><time>2026-04-22T15:02:57.974Z</time></trkpt><trkpt lat="45.7361735" lon="9.1685358"><ele>342.0</ele><time>2026-04-22T15:02:58.975Z</time></trkpt><trkpt lat="45.7361739" lon="9.1683411"><ele>342.0</ele><time>2026-04-22T15:02:59.974Z</time></trkpt><trkpt lat="45.7361727" lon="9.1681498"><ele>342.0</ele><time>2026-04-22T15:03:00.974Z</time></trkpt><trkpt lat="45.7361712" lon="9.1679643"><ele>342.0</ele><time>2026-04-22T15:03:01.975Z</time></trkpt><trkpt lat="45.7361718" lon="9.1677853"><ele>342.0</ele><time>2026-04-22T15:03:02.975Z</time></trkpt><trkpt lat="45.7361719" lon="9.1676079"><ele>342.0</ele><time>2026-04-22T15:03:03.974Z</time></trkpt><trkpt lat="45.7361727" lon="9.167435"><ele>342.0</ele><time>2026-04-22T15:03:04.975Z</time></trkpt><trkpt lat="45.7361727" lon="9.1672688"><ele>342.0</ele><time>2026-04-22T15:03:05.975Z</time></trkpt><trkpt lat="45.7361689" lon="9.1671079"><ele>342.0</ele><time>2026-04-22T15:03:06.974Z</time></trkpt><trkpt lat="45.7361581" lon="9.1669571"><ele>342.0</ele><time>2026-04-22T15:03:07.974Z</time></trkpt><trkpt lat="45.7361368" lon="9.1668106"><ele>342.0</ele><time>2026-04-22T15:03:08.974Z</time></trkpt><trkpt lat="45.7360966" lon="9.1666777"><ele>342.0</ele><time>2026-04-22T15:03:09.974Z</time></trkpt><trkpt lat="45.7360449" lon="9.1665523"><ele>342.0</ele><time>2026-04-22T15:03:10.975Z</time></trkpt><trkpt lat="45.7359814" lon="9.1664368"><ele>339.20000000000005</ele><time>2026-04-22T15:03:11.974Z</time></trkpt><trkpt lat="45.7359051" lon="9.1663436"><ele>336.4</ele><time>2026-04-22T15:03:12.973Z</time></trkpt><trkpt lat="45.7358171" lon="9.1662684"><ele>333.6</ele><time>2026-04-22T15:03:13.974Z</time></trkpt><trkpt lat="45.7357148" lon="9.1662059"><ele>330.79999999999995</ele><time>2026-04-22T15:03:14.974Z</time></trkpt><trkpt lat="45.7356023" lon="9.1661545"><ele>328.0</ele><time>2026-04-22T15:03:15.975Z</time></trkpt><trkpt lat="45.7354883" lon="9.1661118"><ele>328.0</ele><time>2026-04-22T15:03:16.974Z</time></trkpt><trkpt lat="45.7353775" lon="9.1660761"><ele>328.0</ele><time>2026-04-22T15:03:17.975Z</time></trkpt><trkpt lat="45.7352759" lon="9.166047"><ele>328.0</ele><time>2026-04-22T15:03:18.973Z</time></trkpt><trkpt lat="45.7351887" lon="9.1660246"><ele>328.0</ele><time>2026-04-22T15:03:19.974Z</time></trkpt><trkpt lat="45.7350863" lon="9.1660007"><ele>328.0</ele><time>2026-04-22T15:03:21.974Z</time></trkpt><trkpt lat="45.7350219" lon="9.1659785"><ele>328.66666666666663</ele><time>2026-04-22T15:03:24.975Z</time></trkpt><trkpt lat="45.7349513" lon="9.1659345"><ele>329.3333333333333</ele><time>2026-04-22T15:03:30.974Z</time></trkpt><trkpt lat="45.7348555" lon="9.1658588"><ele>330.0</ele><time>2026-04-22T15:03:32.973Z</time></trkpt><trkpt lat="45.7347635" lon="9.1657646"><ele>330.6666666666667</ele><time>2026-04-22T15:03:34.974Z</time></trkpt><trkpt lat="45.7347132" lon="9.1656988"><ele>331.33333333333337</ele><time>2026-04-22T15:03:35.974Z</time></trkpt><trkpt lat="45.7346614" lon="9.1656208"><ele>332.0</ele><time>2026-04-22T15:03:36.975Z</time></trkpt><trkpt lat="45.7346121" lon="9.165536"><ele>331.5</ele><time>2026-04-22T15:03:37.974Z</time></trkpt><trkpt lat="45.7345628" lon="9.1654527"><ele>331.0</ele><time>2026-04-22T15:03:38.974Z</time></trkpt><trkpt lat="45.7345117" lon="9.1653617"><ele>330.5</ele><time>2026-04-22T15:03:39.975Z</time></trkpt><trkpt lat="45.7344571" lon="9.165266"><ele>330.0</ele><time>2026-04-22T15:03:40.974Z</time></trkpt><trkpt lat="45.7343996" lon="9.165165"><ele>329.5</ele><time>2026-04-22T15:03:41.975Z</time></trkpt><trkpt lat="45.7343429" lon="9.1650612"><ele>329.0</ele><time>2026-04-22T15:03:42.975Z</time></trkpt><trkpt lat="45.7342831" lon="9.1649602"><ele>327.4</ele><time>2026-04-22T15:03:43.973Z</time></trkpt><trkpt lat="45.7342222" lon="9.1648546"><ele>325.79999999999995</ele><time>2026-04-22T15:03:44.974Z</time></trkpt><trkpt lat="45.7341612" lon="9.1647467"><ele>324.20000000000005</ele><time>2026-04-22T15:03:45.974Z</time></trkpt><trkpt lat="45.7341009" lon="9.1646391"><ele>322.6</ele><time>2026-04-22T15:03:46.974Z</time></trkpt><trkpt lat="45.7340441" lon="9.1645293"><ele>321.0</ele><time>2026-04-22T15:03:47.975Z</time></trkpt><trkpt lat="45.7339986" lon="9.1644198"><ele>321.0</ele><time>2026-04-22T15:03:48.974Z</time></trkpt><trkpt lat="45.7339689" lon="9.1643097"><ele>321.0</ele><time>2026-04-22T15:03:49.973Z</time></trkpt><trkpt lat="45.7339562" lon="9.1641918"><ele>321.0</ele><time>2026-04-22T15:03:50.974Z</time></trkpt><trkpt lat="45.7339534" lon="9.1640645"><ele>321.0</ele><time>2026-04-22T15:03:51.973Z</time></trkpt><trkpt lat="45.7339515" lon="9.1639296"><ele>321.0</ele><time>2026-04-22T15:03:52.975Z</time></trkpt><trkpt lat="45.7339539" lon="9.1637868"><ele>321.0</ele><time>2026-04-22T15:03:53.975Z</time></trkpt><trkpt lat="45.7339548" lon="9.1636382"><ele>321.20000000000005</ele><time>2026-04-22T15:03:54.975Z</time></trkpt><trkpt lat="45.7339568" lon="9.163485"><ele>321.40000000000003</ele><time>2026-04-22T15:03:55.974Z</time></trkpt><trkpt lat="45.7339593" lon="9.1633317"><ele>321.6</ele><time>2026-04-22T15:03:56.975Z</time></trkpt><trkpt lat="45.7339629" lon="9.1631847"><ele>321.8</ele><time>2026-04-22T15:03:57.974Z</time></trkpt><trkpt lat="45.733967" lon="9.1630462"><ele>322.0</ele><time>2026-04-22T15:03:58.974Z</time></trkpt><trkpt lat="45.7339689" lon="9.1629116"><ele>322.0</ele><time>2026-04-22T15:03:59.974Z</time></trkpt><trkpt lat="45.733973" lon="9.1627811"><ele>322.0</ele><time>2026-04-22T15:04:00.974Z</time></trkpt><trkpt lat="45.7339768" lon="9.1626523"><ele>322.0</ele><time>2026-04-22T15:04:01.973Z</time></trkpt><trkpt lat="45.7339823" lon="9.1625243"><ele>322.0</ele><time>2026-04-22T15:04:02.973Z</time></trkpt><trkpt lat="45.7339871" lon="9.1623977"><ele>322.0</ele><time>2026-04-22T15:04:03.975Z</time></trkpt><trkpt lat="45.7339902" lon="9.162272"><ele>322.0</ele><time>2026-04-22T15:04:04.975Z</time></trkpt><trkpt lat="45.7339906" lon="9.1621564"><ele>322.16666666666663</ele><time>2026-04-22T15:04:05.974Z</time></trkpt><trkpt lat="45.7339836" lon="9.1620488"><ele>322.3333333333333</ele><time>2026-04-22T15:04:06.974Z</time></trkpt><trkpt lat="45.7339677" lon="9.1619533"><ele>322.5</ele><time>2026-04-22T15:04:07.974Z</time></trkpt><trkpt lat="45.7338974" lon="9.161802"><ele>322.6666666666667</ele><time>2026-04-22T15:04:09.974Z</time></trkpt><trkpt lat="45.7338481" lon="9.1617426"><ele>322.83333333333337</ele><time>2026-04-22T15:04:10.974Z</time></trkpt><trkpt lat="45.7337977" lon="9.1616877"><ele>323.0</ele><time>2026-04-22T15:04:11.975Z</time></trkpt><trkpt lat="45.7337043" lon="9.1615874"><ele>323.2</ele><time>2026-04-22T15:04:13.974Z</time></trkpt><trkpt lat="45.7336517" lon="9.1614784"><ele>323.4</ele><time>2026-04-22T15:04:15.974Z</time></trkpt><trkpt lat="45.7335756" lon="9.1613701"><ele>323.59999999999997</ele><time>2026-04-22T15:04:17.973Z</time></trkpt><trkpt lat="45.7334646" lon="9.1613126"><ele>323.79999999999995</ele><time>2026-04-22T15:04:19.975Z</time></trkpt><trkpt lat="45.7333975" lon="9.1612819"><ele>324.0</ele><time>2026-04-22T15:04:20.975Z</time></trkpt><trkpt lat="45.7333264" lon="9.1612362"><ele>324.0</ele><time>2026-04-22T15:04:21.974Z</time></trkpt><trkpt lat="45.7332546" lon="9.161176"><ele>324.0</ele><time>2026-04-22T15:04:22.975Z</time></trkpt><trkpt lat="45.7331837" lon="9.1611083"><ele>324.0</ele><time>2026-04-22T15:04:23.974Z</time></trkpt><trkpt lat="45.733115" lon="9.1610415"><ele>324.0</ele><time>2026-04-22T15:04:24.974Z</time></trkpt><trkpt lat="45.7330457" lon="9.160975"><ele>324.0</ele><time>2026-04-22T15:04:25.975Z</time></trkpt><trkpt lat="45.7329782" lon="9.1609137"><ele>324.0</ele><time>2026-04-22T15:04:26.974Z</time></trkpt><trkpt lat="45.7329098" lon="9.1608506"><ele>324.0</ele><time>2026-04-22T15:04:27.974Z</time></trkpt><trkpt lat="45.7328422" lon="9.1607881"><ele>324.0</ele><time>2026-04-22T15:04:28.975Z</time></trkpt><trkpt lat="45.7327769" lon="9.160725"><ele>324.0</ele><time>2026-04-22T15:04:29.974Z</time></trkpt><trkpt lat="45.7327116" lon="9.1606597"><ele>324.0</ele><time>2026-04-22T15:04:30.973Z</time></trkpt><trkpt lat="45.7326504" lon="9.160593"><ele>324.0</ele><time>2026-04-22T15:04:31.975Z</time></trkpt><trkpt lat="45.7325912" lon="9.1605219"><ele>324.0</ele><time>2026-04-22T15:04:32.975Z</time></trkpt><trkpt lat="45.7325313" lon="9.1604466"><ele>324.5</ele><time>2026-04-22T15:04:33.974Z</time></trkpt><trkpt lat="45.7324716" lon="9.1603705"><ele>325.0</ele><time>2026-04-22T15:04:34.973Z</time></trkpt><trkpt lat="45.7324116" lon="9.1602908"><ele>325.5</ele><time>2026-04-22T15:04:35.975Z</time></trkpt><trkpt lat="45.7323503" lon="9.1602102"><ele>326.0</ele><time>2026-04-22T15:04:36.974Z</time></trkpt><trkpt lat="45.7322913" lon="9.16013"><ele>326.5</ele><time>2026-04-22T15:04:37.973Z</time></trkpt><trkpt lat="45.7322371" lon="9.1600552"><ele>327.0</ele><time>2026-04-22T15:04:38.973Z</time></trkpt><trkpt lat="45.7321882" lon="9.159987"><ele>327.0</ele><time>2026-04-22T15:04:39.974Z</time></trkpt><trkpt lat="45.7321398" lon="9.1599228"><ele>327.0</ele><time>2026-04-22T15:04:40.974Z</time></trkpt><trkpt lat="45.7320885" lon="9.1598562"><ele>327.0</ele><time>2026-04-22T15:04:41.974Z</time></trkpt><trkpt lat="45.7320367" lon="9.1597883"><ele>327.0</ele><time>2026-04-22T15:04:42.975Z</time></trkpt><trkpt lat="45.7319836" lon="9.1597183"><ele>327.0</ele><time>2026-04-22T15:04:43.974Z</time></trkpt><trkpt lat="45.7319292" lon="9.1596464"><ele>327.0</ele><time>2026-04-22T15:04:44.974Z</time></trkpt><trkpt lat="45.7318731" lon="9.1595729"><ele>327.0</ele><time>2026-04-22T15:04:45.974Z</time></trkpt><trkpt lat="45.7318163" lon="9.1594972"><ele>327.20000000000005</ele><time>2026-04-22T15:04:46.975Z</time></trkpt><trkpt lat="45.7317547" lon="9.1594167"><ele>327.4</ele><time>2026-04-22T15:04:47.975Z</time></trkpt><trkpt lat="45.7316903" lon="9.1593271"><ele>327.6</ele><time>2026-04-22T15:04:48.974Z</time></trkpt><trkpt lat="45.7316241" lon="9.1592328"><ele>327.79999999999995</ele><time>2026-04-22T15:04:49.975Z</time></trkpt><trkpt lat="45.7315562" lon="9.159138"><ele>328.0</ele><time>2026-04-22T15:04:50.973Z</time></trkpt><trkpt lat="45.7314921" lon="9.1590474"><ele>328.16666666666663</ele><time>2026-04-22T15:04:51.975Z</time></trkpt><trkpt lat="45.7314335" lon="9.1589545"><ele>328.3333333333333</ele><time>2026-04-22T15:04:52.974Z</time></trkpt><trkpt lat="45.7313839" lon="9.1588552"><ele>328.5</ele><time>2026-04-22T15:04:53.974Z</time></trkpt><trkpt lat="45.7313388" lon="9.1587532"><ele>328.6666666666667</ele><time>2026-04-22T15:04:54.974Z</time></trkpt><trkpt lat="45.7312984" lon="9.1586493"><ele>328.83333333333337</ele><time>2026-04-22T15:04:55.973Z</time></trkpt><trkpt lat="45.7312637" lon="9.158545"><ele>329.0</ele><time>2026-04-22T15:04:56.974Z</time></trkpt><trkpt lat="45.7312342" lon="9.158447"><ele>329.0</ele><time>2026-04-22T15:04:57.975Z</time></trkpt><trkpt lat="45.7312098" lon="9.1583511"><ele>329.0</ele><time>2026-04-22T15:04:58.973Z</time></trkpt><trkpt lat="45.7311883" lon="9.1582599"><ele>329.0</ele><time>2026-04-22T15:04:59.973Z</time></trkpt><trkpt lat="45.7311641" lon="9.1581091"><ele>329.0</ele><time>2026-04-22T15:05:01.973Z</time></trkpt><trkpt lat="45.7311523" lon="9.1579823"><ele>329.0</ele><time>2026-04-22T15:05:03.974Z</time></trkpt><trkpt lat="45.7311419" lon="9.1578641"><ele>329.0</ele><time>2026-04-22T15:05:05.973Z</time></trkpt><trkpt lat="45.7311362" lon="9.1577655"><ele>329.6666666666667</ele><time>2026-04-22T15:05:07.973Z</time></trkpt><trkpt lat="45.731134" lon="9.1576584"><ele>330.33333333333337</ele><time>2026-04-22T15:05:11.974Z</time></trkpt><trkpt lat="45.7311335" lon="9.1575329"><ele>331.0</ele><time>2026-04-22T15:05:15.973Z</time></trkpt><trkpt lat="45.7311267" lon="9.1574318"><ele>331.6666666666667</ele><time>2026-04-22T15:05:17.974Z</time></trkpt><trkpt lat="45.7311135" lon="9.1573197"><ele>332.3333333333333</ele><time>2026-04-22T15:05:19.974Z</time></trkpt><trkpt lat="45.7311015" lon="9.1572266"><ele>333.0</ele><time>2026-04-22T15:05:21.974Z</time></trkpt><trkpt lat="45.7310793" lon="9.1571143"><ele>333.2</ele><time>2026-04-22T15:05:23.973Z</time></trkpt><trkpt lat="45.731061" lon="9.1569505"><ele>333.4</ele><time>2026-04-22T15:05:25.973Z</time></trkpt><trkpt lat="45.731051" lon="9.1568599"><ele>333.59999999999997</ele><time>2026-04-22T15:05:26.973Z</time></trkpt><trkpt lat="45.7310417" lon="9.1567695"><ele>333.79999999999995</ele><time>2026-04-22T15:05:27.973Z</time></trkpt><trkpt lat="45.731028" lon="9.1565979"><ele>334.0</ele><time>2026-04-22T15:05:29.973Z</time></trkpt><trkpt lat="45.7310199" lon="9.1564302"><ele>333.6</ele><time>2026-04-22T15:05:31.973Z</time></trkpt><trkpt lat="45.7310182" lon="9.1562524"><ele>333.2</ele><time>2026-04-22T15:05:33.973Z</time></trkpt><trkpt lat="45.7310101" lon="9.1560708"><ele>332.8</ele><time>2026-04-22T15:05:35.974Z</time></trkpt><trkpt lat="45.7310037" lon="9.1559769"><ele>332.40000000000003</ele><time>2026-04-22T15:05:36.973Z</time></trkpt><trkpt lat="45.7309969" lon="9.1558865"><ele>332.0</ele><time>2026-04-22T15:05:37.974Z</time></trkpt><trkpt lat="45.7309882" lon="9.1557221"><ele>331.83333333333337</ele><time>2026-04-22T15:05:39.973Z</time></trkpt><trkpt lat="45.7309758" lon="9.1555866"><ele>331.6666666666667</ele><time>2026-04-22T15:05:41.972Z</time></trkpt><trkpt lat="45.7309732" lon="9.1554847"><ele>331.5</ele><time>2026-04-22T15:05:43.973Z</time></trkpt><trkpt lat="45.7309637" lon="9.1553926"><ele>331.3333333333333</ele><time>2026-04-22T15:05:46.973Z</time></trkpt><trkpt lat="45.7309627" lon="9.1552836"><ele>331.16666666666663</ele><time>2026-04-22T15:06:00.972Z</time></trkpt><trkpt lat="45.7309612" lon="9.1551831"><ele>331.0</ele><time>2026-04-22T15:06:02.974Z</time></trkpt><trkpt lat="45.730962" lon="9.1550637"><ele>331.0</ele><time>2026-04-22T15:06:04.973Z</time></trkpt><trkpt lat="45.730967" lon="9.1549322"><ele>331.0</ele><time>2026-04-22T15:06:06.974Z</time></trkpt><trkpt lat="45.7309154" lon="9.1548431"><ele>331.0</ele><time>2026-04-22T15:06:08.974Z</time></trkpt><trkpt lat="45.7307978" lon="9.1548261"><ele>331.0</ele><time>2026-04-22T15:06:10.974Z</time></trkpt><trkpt lat="45.7307291" lon="9.154806"><ele>331.0</ele><time>2026-04-22T15:06:11.972Z</time></trkpt><trkpt lat="45.7306532" lon="9.1547849"><ele>331.0</ele><time>2026-04-22T15:06:12.973Z</time></trkpt><trkpt lat="45.7305754" lon="9.1547679"><ele>331.16666666666663</ele><time>2026-04-22T15:06:13.973Z</time></trkpt><trkpt lat="45.7304937" lon="9.1547394"><ele>331.3333333333333</ele><time>2026-04-22T15:06:14.973Z</time></trkpt><trkpt lat="45.7304073" lon="9.1547177"><ele>331.5</ele><time>2026-04-22T15:06:15.973Z</time></trkpt><trkpt lat="45.7303204" lon="9.1547044"><ele>331.6666666666667</ele><time>2026-04-22T15:06:16.973Z</time></trkpt><trkpt lat="45.7302299" lon="9.1547015"><ele>331.83333333333337</ele><time>2026-04-22T15:06:17.972Z</time></trkpt><trkpt lat="45.7301399" lon="9.1547016"><ele>332.0</ele><time>2026-04-22T15:06:18.973Z</time></trkpt><trkpt lat="45.7300494" lon="9.1547111"><ele>332.0</ele><time>2026-04-22T15:06:19.973Z</time></trkpt><trkpt lat="45.7299582" lon="9.1547364"><ele>332.0</ele><time>2026-04-22T15:06:20.974Z</time></trkpt><trkpt lat="45.7298672" lon="9.154777"><ele>332.0</ele><time>2026-04-22T15:06:21.973Z</time></trkpt><trkpt lat="45.7297779" lon="9.1548308"><ele>332.0</ele><time>2026-04-22T15:06:22.973Z</time></trkpt><trkpt lat="45.7296893" lon="9.1548857"><ele>332.0</ele><time>2026-04-22T15:06:23.974Z</time></trkpt><trkpt lat="45.7296087" lon="9.154937"><ele>331.83333333333337</ele><time>2026-04-22T15:06:24.973Z</time></trkpt><trkpt lat="45.7295395" lon="9.1549826"><ele>331.6666666666667</ele><time>2026-04-22T15:06:25.972Z</time></trkpt><trkpt lat="45.7294747" lon="9.1550043"><ele>331.5</ele><time>2026-04-22T15:06:26.972Z</time></trkpt><trkpt lat="45.7293533" lon="9.1549714"><ele>331.3333333333333</ele><time>2026-04-22T15:06:28.972Z</time></trkpt><trkpt lat="45.729298" lon="9.1549178"><ele>331.16666666666663</ele><time>2026-04-22T15:06:29.974Z</time></trkpt><trkpt lat="45.7292473" lon="9.1548397"><ele>331.0</ele><time>2026-04-22T15:06:30.973Z</time></trkpt><trkpt lat="45.7291918" lon="9.154745"><ele>331.75</ele><time>2026-04-22T15:06:31.973Z</time></trkpt><trkpt lat="45.729136" lon="9.1546243"><ele>332.5</ele><time>2026-04-22T15:06:32.973Z</time></trkpt><trkpt lat="45.7290712" lon="9.1544955"><ele>333.25</ele><time>2026-04-22T15:06:33.973Z</time></trkpt><trkpt lat="45.7290005" lon="9.1543598"><ele>334.0</ele><time>2026-04-22T15:06:34.973Z</time></trkpt><trkpt lat="45.7289249" lon="9.1542157"><ele>334.0</ele><time>2026-04-22T15:06:35.973Z</time></trkpt><trkpt lat="45.7288473" lon="9.1540754"><ele>334.0</ele><time>2026-04-22T15:06:36.973Z</time></trkpt><trkpt lat="45.7287713" lon="9.1539371"><ele>334.0</ele><time>2026-04-22T15:06:37.973Z</time></trkpt><trkpt lat="45.7286981" lon="9.1538025"><ele>334.0</ele><time>2026-04-22T15:06:38.974Z</time></trkpt><trkpt lat="45.7286258" lon="9.1536713"><ele>334.25</ele><time>2026-04-22T15:06:39.973Z</time></trkpt><trkpt lat="45.728555" lon="9.1535361"><ele>334.5</ele><time>2026-04-22T15:06:40.973Z</time></trkpt><trkpt lat="45.7284877" lon="9.1534005"><ele>334.75</ele><time>2026-04-22T15:06:41.974Z</time></trkpt><trkpt lat="45.7284247" lon="9.1532684"><ele>335.0</ele><time>2026-04-22T15:06:42.973Z</time></trkpt><trkpt lat="45.7283596" lon="9.1531346"><ele>335.0</ele><time>2026-04-22T15:06:43.974Z</time></trkpt><trkpt lat="45.7282984" lon="9.153"><ele>335.0</ele><time>2026-04-22T15:06:44.974Z</time></trkpt><trkpt lat="45.7282399" lon="9.1528621"><ele>335.0</ele><time>2026-04-22T15:06:45.974Z</time></trkpt><trkpt lat="45.728186" lon="9.1527285"><ele>335.0</ele><time>2026-04-22T15:06:46.973Z</time></trkpt><trkpt lat="45.7281321" lon="9.1526"><ele>335.0</ele><time>2026-04-22T15:06:47.974Z</time></trkpt><trkpt lat="45.7280814" lon="9.1524729"><ele>334.8</ele><time>2026-04-22T15:06:48.974Z</time></trkpt><trkpt lat="45.7280339" lon="9.1523495"><ele>334.6</ele><time>2026-04-22T15:06:49.974Z</time></trkpt><trkpt lat="45.7279825" lon="9.1522278"><ele>334.4</ele><time>2026-04-22T15:06:50.973Z</time></trkpt><trkpt lat="45.7279215" lon="9.1521176"><ele>334.2</ele><time>2026-04-22T15:06:51.974Z</time></trkpt><trkpt lat="45.7278563" lon="9.1520158"><ele>334.0</ele><time>2026-04-22T15:06:52.973Z</time></trkpt><trkpt lat="45.7277878" lon="9.1519208"><ele>334.0</ele><time>2026-04-22T15:06:53.973Z</time></trkpt><trkpt lat="45.7277168" lon="9.1518291"><ele>334.0</ele><time>2026-04-22T15:06:54.972Z</time></trkpt><trkpt lat="45.7276386" lon="9.1517487"><ele>334.0</ele><time>2026-04-22T15:06:55.974Z</time></trkpt><trkpt lat="45.7275539" lon="9.15168"><ele>334.0</ele><time>2026-04-22T15:06:56.972Z</time></trkpt><trkpt lat="45.7274638" lon="9.1516252"><ele>334.0</ele><time>2026-04-22T15:06:57.973Z</time></trkpt><trkpt lat="45.7273673" lon="9.1515756"><ele>333.25</ele><time>2026-04-22T15:06:58.974Z</time></trkpt><trkpt lat="45.727267" lon="9.1515271"><ele>332.5</ele><time>2026-04-22T15:06:59.974Z</time></trkpt><trkpt lat="45.7271617" lon="9.151477"><ele>331.75</ele><time>2026-04-22T15:07:00.973Z</time></trkpt><trkpt lat="45.727052" lon="9.1514276"><ele>331.0</ele><time>2026-04-22T15:07:01.973Z</time></trkpt><trkpt lat="45.7269381" lon="9.1513806"><ele>331.5</ele><time>2026-04-22T15:07:02.974Z</time></trkpt><trkpt lat="45.7268226" lon="9.151329"><ele>332.0</ele><time>2026-04-22T15:07:03.972Z</time></trkpt><trkpt lat="45.7267093" lon="9.15128"><ele>332.5</ele><time>2026-04-22T15:07:04.973Z</time></trkpt><trkpt lat="45.7265976" lon="9.1512319"><ele>333.0</ele><time>2026-04-22T15:07:05.973Z</time></trkpt><trkpt lat="45.7264839" lon="9.1511828"><ele>333.0</ele><time>2026-04-22T15:07:06.973Z</time></trkpt><trkpt lat="45.7263725" lon="9.151134"><ele>333.0</ele><time>2026-04-22T15:07:07.974Z</time></trkpt><trkpt lat="45.7262607" lon="9.1510834"><ele>333.0</ele><time>2026-04-22T15:07:08.973Z</time></trkpt><trkpt lat="45.7261485" lon="9.1510352"><ele>333.0</ele><time>2026-04-22T15:07:09.972Z</time></trkpt><trkpt lat="45.7260373" lon="9.1509862"><ele>333.25</ele><time>2026-04-22T15:07:10.973Z</time></trkpt><trkpt lat="45.7259274" lon="9.1509395"><ele>333.5</ele><time>2026-04-22T15:07:11.974Z</time></trkpt><trkpt lat="45.7258179" lon="9.1508914"><ele>333.75</ele><time>2026-04-22T15:07:12.974Z</time></trkpt><trkpt lat="45.7257072" lon="9.1508447"><ele>334.0</ele><time>2026-04-22T15:07:13.973Z</time></trkpt><trkpt lat="45.725599" lon="9.1507972"><ele>334.0</ele><time>2026-04-22T15:07:14.972Z</time></trkpt><trkpt lat="45.725492" lon="9.1507497"><ele>334.0</ele><time>2026-04-22T15:07:15.972Z</time></trkpt><trkpt lat="45.7253845" lon="9.1507045"><ele>334.0</ele><time>2026-04-22T15:07:16.972Z</time></trkpt><trkpt lat="45.7252795" lon="9.1506584"><ele>334.0</ele><time>2026-04-22T15:07:17.973Z</time></trkpt><trkpt lat="45.7251721" lon="9.1506144"><ele>334.0</ele><time>2026-04-22T15:07:18.973Z</time></trkpt><trkpt lat="45.7250638" lon="9.1505671"><ele>332.5</ele><time>2026-04-22T15:07:19.973Z</time></trkpt><trkpt lat="45.7249551" lon="9.1505195"><ele>331.0</ele><time>2026-04-22T15:07:20.972Z</time></trkpt><trkpt lat="45.7248449" lon="9.1504686"><ele>329.5</ele><time>2026-04-22T15:07:21.973Z</time></trkpt><trkpt lat="45.7247347" lon="9.1504175"><ele>328.0</ele><time>2026-04-22T15:07:22.973Z</time></trkpt><trkpt lat="45.7246256" lon="9.1503639"><ele>328.0</ele><time>2026-04-22T15:07:23.973Z</time></trkpt><trkpt lat="45.7245185" lon="9.1503074"><ele>328.0</ele><time>2026-04-22T15:07:24.974Z</time></trkpt><trkpt lat="45.7244133" lon="9.1502486"><ele>328.0</ele><time>2026-04-22T15:07:25.972Z</time></trkpt><trkpt lat="45.7243091" lon="9.1501878"><ele>328.0</ele><time>2026-04-22T15:07:26.974Z</time></trkpt><trkpt lat="45.7242067" lon="9.1501291"><ele>327.59999999999997</ele><time>2026-04-22T15:07:27.972Z</time></trkpt><trkpt lat="45.7241042" lon="9.1500695"><ele>327.2</ele><time>2026-04-22T15:07:28.973Z</time></trkpt><trkpt lat="45.7240013" lon="9.150013"><ele>326.8</ele><time>2026-04-22T15:07:29.973Z</time></trkpt><trkpt lat="45.7238997" lon="9.1499585"><ele>326.4</ele><time>2026-04-22T15:07:30.972Z</time></trkpt><trkpt lat="45.723798" lon="9.1499077"><ele>326.0</ele><time>2026-04-22T15:07:31.972Z</time></trkpt><trkpt lat="45.7236924" lon="9.1498677"><ele>326.0</ele><time>2026-04-22T15:07:32.973Z</time></trkpt><trkpt lat="45.7235847" lon="9.1498373"><ele>326.0</ele><time>2026-04-22T15:07:33.973Z</time></trkpt><trkpt lat="45.7234747" lon="9.1498073"><ele>326.0</ele><time>2026-04-22T15:07:34.973Z</time></trkpt><trkpt lat="45.7233652" lon="9.1497809"><ele>326.0</ele><time>2026-04-22T15:07:35.973Z</time></trkpt><trkpt lat="45.7232604" lon="9.1497573"><ele>326.0</ele><time>2026-04-22T15:07:36.973Z</time></trkpt><trkpt lat="45.7231584" lon="9.1497324"><ele>326.5</ele><time>2026-04-22T15:07:37.973Z</time></trkpt><trkpt lat="45.7230594" lon="9.1497091"><ele>327.0</ele><time>2026-04-22T15:07:38.973Z</time></trkpt><trkpt lat="45.7229668" lon="9.1496874"><ele>327.5</ele><time>2026-04-22T15:07:39.974Z</time></trkpt><trkpt lat="45.7228791" lon="9.1496654"><ele>328.0</ele><time>2026-04-22T15:07:40.973Z</time></trkpt><trkpt lat="45.7227959" lon="9.1496459"><ele>328.5</ele><time>2026-04-22T15:07:41.973Z</time></trkpt><trkpt lat="45.7227163" lon="9.1496238"><ele>329.0</ele><time>2026-04-22T15:07:42.974Z</time></trkpt><trkpt lat="45.7226443" lon="9.1496032"><ele>329.33333333333337</ele><time>2026-04-22T15:07:43.973Z</time></trkpt><trkpt lat="45.7225781" lon="9.1495853"><ele>329.6666666666667</ele><time>2026-04-22T15:07:44.974Z</time></trkpt><trkpt lat="45.7225151" lon="9.1495678"><ele>330.0</ele><time>2026-04-22T15:07:45.973Z</time></trkpt><trkpt lat="45.722414" lon="9.1495425"><ele>330.3333333333333</ele><time>2026-04-22T15:07:47.973Z</time></trkpt><trkpt lat="45.7223356" lon="9.1495234"><ele>330.66666666666663</ele><time>2026-04-22T15:07:49.973Z</time></trkpt><trkpt lat="45.7222559" lon="9.1494999"><ele>331.0</ele><time>2026-04-22T15:07:52.972Z</time></trkpt><trkpt lat="45.7221571" lon="9.1494953"><ele>331.0</ele><time>2026-04-22T15:08:58.973Z</time></trkpt><trkpt lat="45.7220548" lon="9.1494705"><ele>331.0</ele><time>2026-04-22T15:09:00.973Z</time></trkpt><trkpt lat="45.7219894" lon="9.1494192"><ele>331.0</ele><time>2026-04-22T15:09:02.974Z</time></trkpt><trkpt lat="45.7219681" lon="9.1493164"><ele>331.0</ele><time>2026-04-22T15:09:04.973Z</time></trkpt><trkpt lat="45.7220012" lon="9.1491936"><ele>331.0</ele><time>2026-04-22T15:09:06.973Z</time></trkpt><trkpt lat="45.7220379" lon="9.1491117"><ele>331.0</ele><time>2026-04-22T15:09:07.973Z</time></trkpt><trkpt lat="45.7220783" lon="9.1490126"><ele>329.8</ele><time>2026-04-22T15:09:08.973Z</time></trkpt><trkpt lat="45.7221294" lon="9.1488925"><ele>328.6</ele><time>2026-04-22T15:09:09.973Z</time></trkpt><trkpt lat="45.7221853" lon="9.1487604"><ele>327.4</ele><time>2026-04-22T15:09:10.972Z</time></trkpt><trkpt lat="45.7222451" lon="9.1486284"><ele>326.2</ele><time>2026-04-22T15:09:11.973Z</time></trkpt><trkpt lat="45.722313" lon="9.1484958"><ele>325.0</ele><time>2026-04-22T15:09:12.974Z</time></trkpt><trkpt lat="45.7223873" lon="9.1483659"><ele>325.0</ele><time>2026-04-22T15:09:13.973Z</time></trkpt><trkpt lat="45.7224679" lon="9.1482359"><ele>325.0</ele><time>2026-04-22T15:09:14.974Z</time></trkpt><trkpt lat="45.7225558" lon="9.1481079"><ele>325.0</ele><time>2026-04-22T15:09:15.973Z</time></trkpt><trkpt lat="45.7226464" lon="9.1479802"><ele>325.0</ele><time>2026-04-22T15:09:16.972Z</time></trkpt><trkpt lat="45.7227405" lon="9.1478474"><ele>323.0</ele><time>2026-04-22T15:09:17.973Z</time></trkpt><trkpt lat="45.7228305" lon="9.1477177"><ele>321.0</ele><time>2026-04-22T15:09:18.973Z</time></trkpt><trkpt lat="45.7229181" lon="9.1475874"><ele>319.0</ele><time>2026-04-22T15:09:19.974Z</time></trkpt><trkpt lat="45.7230086" lon="9.1474615"><ele>317.0</ele><time>2026-04-22T15:09:20.973Z</time></trkpt><trkpt lat="45.7230946" lon="9.1473326"><ele>316.25</ele><time>2026-04-22T15:09:21.973Z</time></trkpt><trkpt lat="45.7231826" lon="9.1472022"><ele>315.5</ele><time>2026-04-22T15:09:22.974Z</time></trkpt><trkpt lat="45.7232713" lon="9.1470739"><ele>314.75</ele><time>2026-04-22T15:09:23.973Z</time></trkpt><trkpt lat="45.7233584" lon="9.1469477"><ele>314.0</ele><time>2026-04-22T15:09:24.973Z</time></trkpt><trkpt lat="45.7234447" lon="9.146823"><ele>314.0</ele><time>2026-04-22T15:09:25.973Z</time></trkpt><trkpt lat="45.7235311" lon="9.1467007"><ele>314.0</ele><time>2026-04-22T15:09:26.974Z</time></trkpt><trkpt lat="45.7236143" lon="9.1465788"><ele>314.0</ele><time>2026-04-22T15:09:27.974Z</time></trkpt><trkpt lat="45.7236967" lon="9.1464575"><ele>314.0</ele><time>2026-04-22T15:09:28.973Z</time></trkpt><trkpt lat="45.7237769" lon="9.1463364"><ele>314.0</ele><time>2026-04-22T15:09:29.972Z</time></trkpt><trkpt lat="45.723855" lon="9.1462184"><ele>314.0</ele><time>2026-04-22T15:09:30.974Z</time></trkpt><trkpt lat="45.723934" lon="9.1461044"><ele>314.0</ele><time>2026-04-22T15:09:31.972Z</time></trkpt><trkpt lat="45.7240117" lon="9.1459917"><ele>314.0</ele><time>2026-04-22T15:09:32.974Z</time></trkpt><trkpt lat="45.7240903" lon="9.1458832"><ele>314.0</ele><time>2026-04-22T15:09:33.973Z</time></trkpt><trkpt lat="45.7241694" lon="9.1457774"><ele>314.0</ele><time>2026-04-22T15:09:34.974Z</time></trkpt><trkpt lat="45.7242459" lon="9.1456753"><ele>314.0</ele><time>2026-04-22T15:09:35.973Z</time></trkpt><trkpt lat="45.724317" lon="9.145576"><ele>314.0</ele><time>2026-04-22T15:09:36.973Z</time></trkpt><trkpt lat="45.7243834" lon="9.1454859"><ele>314.0</ele><time>2026-04-22T15:09:37.974Z</time></trkpt><trkpt lat="45.7244386" lon="9.1454081"><ele>314.0</ele><time>2026-04-22T15:09:38.974Z</time></trkpt><trkpt lat="45.724518" lon="9.1453062"><ele>314.1666666666667</ele><time>2026-04-22T15:09:40.972Z</time></trkpt><trkpt lat="45.7245849" lon="9.1452247"><ele>314.33333333333337</ele><time>2026-04-22T15:09:43.973Z</time></trkpt><trkpt lat="45.724636" lon="9.1451698"><ele>314.5</ele><time>2026-04-22T15:09:45.973Z</time></trkpt><trkpt lat="45.7247017" lon="9.1450817"><ele>314.6666666666667</ele><time>2026-04-22T15:09:48.974Z</time></trkpt><trkpt lat="45.7247511" lon="9.1450153"><ele>314.8333333333333</ele><time>2026-04-22T15:09:51.973Z</time></trkpt><trkpt lat="45.7247992" lon="9.1449507"><ele>315.0</ele><time>2026-04-22T15:09:55.972Z</time></trkpt><trkpt lat="45.72483" lon="9.1448518"><ele>315.0</ele><time>2026-04-22T15:10:09.974Z</time></trkpt><trkpt lat="45.7249001" lon="9.1447753"><ele>315.0</ele><time>2026-04-22T15:10:11.973Z</time></trkpt><trkpt lat="45.7249614" lon="9.1447032"><ele>315.0</ele><time>2026-04-22T15:10:13.973Z</time></trkpt><trkpt lat="45.7250166" lon="9.1446449"><ele>315.0</ele><time>2026-04-22T15:10:24.974Z</time></trkpt><trkpt lat="45.7250746" lon="9.1445853"><ele>315.0</ele><time>2026-04-22T15:10:26.973Z</time></trkpt><trkpt lat="45.7251275" lon="9.1445131"><ele>315.0</ele><time>2026-04-22T15:10:28.973Z</time></trkpt><trkpt lat="45.7251805" lon="9.1444459"><ele>315.1666666666667</ele><time>2026-04-22T15:10:31.972Z</time></trkpt><trkpt lat="45.7252308" lon="9.1443622"><ele>315.3333333333333</ele><time>2026-04-22T15:10:38.973Z</time></trkpt><trkpt lat="45.7252872" lon="9.1442812"><ele>315.5</ele><time>2026-04-22T15:10:51.974Z</time></trkpt><trkpt lat="45.7253446" lon="9.1442038"><ele>315.66666666666663</ele><time>2026-04-22T15:10:53.974Z</time></trkpt><trkpt lat="45.7254182" lon="9.1441285"><ele>315.8333333333333</ele><time>2026-04-22T15:10:55.973Z</time></trkpt><trkpt lat="45.7254733" lon="9.1440582"><ele>316.0</ele><time>2026-04-22T15:10:57.973Z</time></trkpt><trkpt lat="45.7255396" lon="9.1439811"><ele>316.0</ele><time>2026-04-22T15:10:59.974Z</time></trkpt><trkpt lat="45.7256166" lon="9.1438964"><ele>316.0</ele><time>2026-04-22T15:11:01.974Z</time></trkpt><trkpt lat="45.7257177" lon="9.1438313"><ele>316.0</ele><time>2026-04-22T15:11:03.973Z</time></trkpt><trkpt lat="45.7258189" lon="9.1437895"><ele>316.0</ele><time>2026-04-22T15:11:05.973Z</time></trkpt><trkpt lat="45.7258814" lon="9.1437046"><ele>316.0</ele><time>2026-04-22T15:11:07.973Z</time></trkpt><trkpt lat="45.7259144" lon="9.1435636"><ele>316.0</ele><time>2026-04-22T15:11:09.973Z</time></trkpt><trkpt lat="45.7259802" lon="9.1433997"><ele>316.0</ele><time>2026-04-22T15:11:11.972Z</time></trkpt><trkpt lat="45.7260275" lon="9.1433079"><ele>316.0</ele><time>2026-04-22T15:11:12.973Z</time></trkpt><trkpt lat="45.7260756" lon="9.1432122"><ele>316.0</ele><time>2026-04-22T15:11:13.974Z</time></trkpt><trkpt lat="45.7261221" lon="9.143125"><ele>316.0</ele><time>2026-04-22T15:11:14.972Z</time></trkpt><trkpt lat="45.7261649" lon="9.1430374"><ele>316.0</ele><time>2026-04-22T15:11:15.973Z</time></trkpt><trkpt lat="45.7262076" lon="9.142949"><ele>317.3333333333333</ele><time>2026-04-22T15:11:16.974Z</time></trkpt><trkpt lat="45.7262492" lon="9.1428609"><ele>318.66666666666663</ele><time>2026-04-22T15:11:17.972Z</time></trkpt><trkpt lat="45.726291" lon="9.142773"><ele>320.0</ele><time>2026-04-22T15:11:18.973Z</time></trkpt><trkpt lat="45.7263327" lon="9.1426816"><ele>321.3333333333333</ele><time>2026-04-22T15:11:19.973Z</time></trkpt><trkpt lat="45.726374" lon="9.1425881"><ele>322.6666666666667</ele><time>2026-04-22T15:11:20.973Z</time></trkpt><trkpt lat="45.7264156" lon="9.1424889"><ele>324.0</ele><time>2026-04-22T15:11:21.973Z</time></trkpt><trkpt lat="45.7264569" lon="9.1423903"><ele>323.57142857142856</ele><time>2026-04-22T15:11:22.973Z</time></trkpt><trkpt lat="45.7265005" lon="9.1422922"><ele>323.1428571428571</ele><time>2026-04-22T15:11:23.973Z</time></trkpt><trkpt lat="45.7265434" lon="9.1421999"><ele>322.71428571428567</ele><time>2026-04-22T15:11:24.973Z</time></trkpt><trkpt lat="45.7265819" lon="9.1421154"><ele>322.2857142857143</ele><time>2026-04-22T15:11:25.973Z</time></trkpt><trkpt lat="45.7266163" lon="9.1420343"><ele>321.85714285714283</ele><time>2026-04-22T15:11:26.973Z</time></trkpt><trkpt lat="45.7266464" lon="9.1419509"><ele>321.4285714285714</ele><time>2026-04-22T15:11:27.974Z</time></trkpt><trkpt lat="45.7266826" lon="9.1418546"><ele>321.0</ele><time>2026-04-22T15:11:28.974Z</time></trkpt><trkpt lat="45.7267299" lon="9.14174"><ele>321.0</ele><time>2026-04-22T15:11:29.972Z</time></trkpt><trkpt lat="45.7267828" lon="9.141609"><ele>321.0</ele><time>2026-04-22T15:11:30.973Z</time></trkpt><trkpt lat="45.7268389" lon="9.1414638"><ele>321.0</ele><time>2026-04-22T15:11:31.972Z</time></trkpt><trkpt lat="45.7269009" lon="9.1413099"><ele>321.0</ele><time>2026-04-22T15:11:32.973Z</time></trkpt><trkpt lat="45.7269658" lon="9.1411559"><ele>321.5</ele><time>2026-04-22T15:11:33.973Z</time></trkpt><trkpt lat="45.7270287" lon="9.1410064"><ele>322.0</ele><time>2026-04-22T15:11:34.972Z</time></trkpt><trkpt lat="45.7270898" lon="9.1408606"><ele>322.5</ele><time>2026-04-22T15:11:35.972Z</time></trkpt><trkpt lat="45.7271497" lon="9.1407147"><ele>323.0</ele><time>2026-04-22T15:11:36.973Z</time></trkpt><trkpt lat="45.7272109" lon="9.1405696"><ele>323.0</ele><time>2026-04-22T15:11:37.974Z</time></trkpt><trkpt lat="45.7272712" lon="9.1404302"><ele>323.0</ele><time>2026-04-22T15:11:38.973Z</time></trkpt><trkpt lat="45.7273312" lon="9.1402917"><ele>323.0</ele><time>2026-04-22T15:11:39.972Z</time></trkpt><trkpt lat="45.7273886" lon="9.1401543"><ele>323.0</ele><time>2026-04-22T15:11:40.972Z</time></trkpt><trkpt lat="45.7274441" lon="9.1400164"><ele>322.75</ele><time>2026-04-22T15:11:41.974Z</time></trkpt><trkpt lat="45.7275002" lon="9.1398776"><ele>322.5</ele><time>2026-04-22T15:11:42.973Z</time></trkpt><trkpt lat="45.7275557" lon="9.1397357"><ele>322.25</ele><time>2026-04-22T15:11:43.973Z</time></trkpt><trkpt lat="45.7276135" lon="9.1395927"><ele>322.0</ele><time>2026-04-22T15:11:44.973Z</time></trkpt><trkpt lat="45.7276749" lon="9.1394452"><ele>322.5</ele><time>2026-04-22T15:11:45.973Z</time></trkpt><trkpt lat="45.7277387" lon="9.1392906"><ele>323.0</ele><time>2026-04-22T15:11:46.973Z</time></trkpt><trkpt lat="45.7278036" lon="9.1391351"><ele>323.5</ele><time>2026-04-22T15:11:47.972Z</time></trkpt><trkpt lat="45.7278697" lon="9.1389785"><ele>324.0</ele><time>2026-04-22T15:11:48.973Z</time></trkpt><trkpt lat="45.7279378" lon="9.1388177"><ele>324.0</ele><time>2026-04-22T15:11:49.973Z</time></trkpt><trkpt lat="45.7280047" lon="9.1386538"><ele>324.0</ele><time>2026-04-22T15:11:50.974Z</time></trkpt><trkpt lat="45.72807" lon="9.1384947"><ele>324.0</ele><time>2026-04-22T15:11:51.974Z</time></trkpt><trkpt lat="45.7281339" lon="9.1383379"><ele>324.0</ele><time>2026-04-22T15:11:52.974Z</time></trkpt><trkpt lat="45.7281983" lon="9.1381842"><ele>323.5</ele><time>2026-04-22T15:11:53.974Z</time></trkpt><trkpt lat="45.7282611" lon="9.1380308"><ele>323.0</ele><time>2026-04-22T15:11:54.972Z</time></trkpt><trkpt lat="45.7283247" lon="9.1378818"><ele>322.5</ele><time>2026-04-22T15:11:55.973Z</time></trkpt><trkpt lat="45.7283868" lon="9.1377351"><ele>322.0</ele><time>2026-04-22T15:11:56.973Z</time></trkpt><trkpt lat="45.7284484" lon="9.1375874"><ele>322.0</ele><time>2026-04-22T15:11:57.974Z</time></trkpt><trkpt lat="45.7285097" lon="9.1374433"><ele>322.0</ele><time>2026-04-22T15:11:58.974Z</time></trkpt><trkpt lat="45.7285691" lon="9.1373005"><ele>322.0</ele><time>2026-04-22T15:11:59.973Z</time></trkpt><trkpt lat="45.7286294" lon="9.137158"><ele>322.0</ele><time>2026-04-22T15:12:00.973Z</time></trkpt><trkpt lat="45.7286888" lon="9.1370172"><ele>322.40000000000003</ele><time>2026-04-22T15:12:01.973Z</time></trkpt><trkpt lat="45.7287462" lon="9.1368808"><ele>322.8</ele><time>2026-04-22T15:12:02.973Z</time></trkpt><trkpt lat="45.7288046" lon="9.1367447"><ele>323.2</ele><time>2026-04-22T15:12:03.973Z</time></trkpt><trkpt lat="45.7288638" lon="9.1366085"><ele>323.6</ele><time>2026-04-22T15:12:04.973Z</time></trkpt><trkpt lat="45.7289222" lon="9.1364769"><ele>324.0</ele><time>2026-04-22T15:12:05.973Z</time></trkpt><trkpt lat="45.7289822" lon="9.1363464"><ele>324.0</ele><time>2026-04-22T15:12:06.974Z</time></trkpt><trkpt lat="45.7290486" lon="9.1362194"><ele>324.0</ele><time>2026-04-22T15:12:07.974Z</time></trkpt><trkpt lat="45.7291218" lon="9.1360979"><ele>324.0</ele><time>2026-04-22T15:12:08.974Z</time></trkpt><trkpt lat="45.729204" lon="9.1359837"><ele>324.0</ele><time>2026-04-22T15:12:09.973Z</time></trkpt><trkpt lat="45.7292916" lon="9.135866"><ele>324.0</ele><time>2026-04-22T15:12:10.974Z</time></trkpt><trkpt lat="45.7293871" lon="9.1357518"><ele>324.0</ele><time>2026-04-22T15:12:11.973Z</time></trkpt><trkpt lat="45.7294859" lon="9.1356388"><ele>324.0</ele><time>2026-04-22T15:12:12.974Z</time></trkpt><trkpt lat="45.7295857" lon="9.13553"><ele>324.0</ele><time>2026-04-22T15:12:13.973Z</time></trkpt><trkpt lat="45.7296803" lon="9.135424"><ele>324.2</ele><time>2026-04-22T15:12:14.974Z</time></trkpt><trkpt lat="45.7297704" lon="9.1353221"><ele>324.4</ele><time>2026-04-22T15:12:15.973Z</time></trkpt><trkpt lat="45.7298571" lon="9.1352242"><ele>324.6</ele><time>2026-04-22T15:12:16.974Z</time></trkpt><trkpt lat="45.7299395" lon="9.1351318"><ele>324.8</ele><time>2026-04-22T15:12:17.973Z</time></trkpt><trkpt lat="45.7300201" lon="9.135046"><ele>325.0</ele><time>2026-04-22T15:12:18.974Z</time></trkpt><trkpt lat="45.7300963" lon="9.1349683"><ele>325.0</ele><time>2026-04-22T15:12:19.974Z</time></trkpt><trkpt lat="45.7301633" lon="9.1349012"><ele>325.0</ele><time>2026-04-22T15:12:20.973Z</time></trkpt><trkpt lat="45.730216" lon="9.1348453"><ele>325.0</ele><time>2026-04-22T15:12:21.974Z</time></trkpt><trkpt lat="45.7302977" lon="9.1347588"><ele>325.0</ele><time>2026-04-22T15:12:23.972Z</time></trkpt><trkpt lat="45.7303566" lon="9.134703"><ele>325.0</ele><time>2026-04-22T15:12:26.972Z</time></trkpt><trkpt lat="45.7304214" lon="9.1346534"><ele>325.0</ele><time>2026-04-22T15:12:29.973Z</time></trkpt><trkpt lat="45.7304991" lon="9.1346074"><ele>325.16666666666663</ele><time>2026-04-22T15:12:31.972Z</time></trkpt><trkpt lat="45.7305444" lon="9.1345234"><ele>325.3333333333333</ele><time>2026-04-22T15:12:33.973Z</time></trkpt><trkpt lat="45.7305273" lon="9.1344266"><ele>325.5</ele><time>2026-04-22T15:12:35.974Z</time></trkpt><trkpt lat="45.7304575" lon="9.1343811"><ele>325.6666666666667</ele><time>2026-04-22T15:12:37.974Z</time></trkpt><trkpt lat="45.730359" lon="9.134389"><ele>325.83333333333337</ele><time>2026-04-22T15:12:39.972Z</time></trkpt><trkpt lat="45.7302465" lon="9.134371"><ele>326.0</ele><time>2026-04-22T15:12:41.973Z</time></trkpt><trkpt lat="45.7301406" lon="9.1343018"><ele>326.0</ele><time>2026-04-22T15:12:43.973Z</time></trkpt><trkpt lat="45.7300881" lon="9.1342497"><ele>326.0</ele><time>2026-04-22T15:12:44.972Z</time></trkpt><trkpt lat="45.7300295" lon="9.1341955"><ele>326.0</ele><time>2026-04-22T15:12:45.974Z</time></trkpt><trkpt lat="45.7299702" lon="9.1341378"><ele>326.0</ele><time>2026-04-22T15:12:46.974Z</time></trkpt><trkpt lat="45.729909" lon="9.1340754"><ele>326.0</ele><time>2026-04-22T15:12:47.973Z</time></trkpt><trkpt lat="45.7298468" lon="9.1340161"><ele>326.0</ele><time>2026-04-22T15:12:48.974Z</time></trkpt><trkpt lat="45.7297545" lon="9.13393"><ele>326.5</ele><time>2026-04-22T15:12:50.972Z</time></trkpt><trkpt lat="45.7297021" lon="9.1338603"><ele>327.0</ele><time>2026-04-22T15:12:52.973Z</time></trkpt><trkpt lat="45.7297214" lon="9.1337329"><ele>327.5</ele><time>2026-04-22T15:12:55.973Z</time></trkpt><trkpt lat="45.7297973" lon="9.1336087"><ele>328.0</ele><time>2026-04-22T15:12:57.974Z</time></trkpt><trkpt lat="45.7298483" lon="9.1335217"><ele>328.5</ele><time>2026-04-22T15:12:58.973Z</time></trkpt><trkpt lat="45.7299054" lon="9.1334233"><ele>329.0</ele><time>2026-04-22T15:12:59.974Z</time></trkpt><trkpt lat="45.7299647" lon="9.1333112"><ele>328.75</ele><time>2026-04-22T15:13:00.974Z</time></trkpt><trkpt lat="45.730029" lon="9.1331869"><ele>328.5</ele><time>2026-04-22T15:13:01.974Z</time></trkpt><trkpt lat="45.7300977" lon="9.1330561"><ele>328.25</ele><time>2026-04-22T15:13:02.973Z</time></trkpt><trkpt lat="45.7301699" lon="9.1329204"><ele>328.0</ele><time>2026-04-22T15:13:03.973Z</time></trkpt><trkpt lat="45.7302435" lon="9.132784"><ele>327.79999999999995</ele><time>2026-04-22T15:13:04.972Z</time></trkpt><trkpt lat="45.7303151" lon="9.1326512"><ele>327.6</ele><time>2026-04-22T15:13:05.973Z</time></trkpt><trkpt lat="45.7303843" lon="9.1325208"><ele>327.4</ele><time>2026-04-22T15:13:06.973Z</time></trkpt><trkpt lat="45.7304523" lon="9.1323978"><ele>327.20000000000005</ele><time>2026-04-22T15:13:07.974Z</time></trkpt><trkpt lat="45.7305149" lon="9.1322786"><ele>327.0</ele><time>2026-04-22T15:13:08.973Z</time></trkpt><trkpt lat="45.7305742" lon="9.1321704"><ele>327.5</ele><time>2026-04-22T15:13:09.973Z</time></trkpt><trkpt lat="45.7306259" lon="9.1320786"><ele>328.0</ele><time>2026-04-22T15:13:10.974Z</time></trkpt><trkpt lat="45.730669" lon="9.1319995"><ele>328.5</ele><time>2026-04-22T15:13:11.973Z</time></trkpt><trkpt lat="45.730717" lon="9.1318742"><ele>329.0</ele><time>2026-04-22T15:13:13.974Z</time></trkpt><trkpt lat="45.7307032" lon="9.1317799"><ele>329.5</ele><time>2026-04-22T15:13:15.973Z</time></trkpt><trkpt lat="45.7306215" lon="9.1316999"><ele>330.0</ele><time>2026-04-22T15:13:17.974Z</time></trkpt><trkpt lat="45.7305546" lon="9.1316531"><ele>330.0</ele><time>2026-04-22T15:13:18.973Z</time></trkpt><trkpt lat="45.7304868" lon="9.1315999"><ele>330.0</ele><time>2026-04-22T15:13:19.974Z</time></trkpt><trkpt lat="45.7304256" lon="9.1315465"><ele>330.0</ele><time>2026-04-22T15:13:20.974Z</time></trkpt><trkpt lat="45.7303622" lon="9.1314911"><ele>330.0</ele><time>2026-04-22T15:13:21.974Z</time></trkpt><trkpt lat="45.7302947" lon="9.131428"><ele>330.0</ele><time>2026-04-22T15:13:22.974Z</time></trkpt><trkpt lat="45.7302252" lon="9.1313527"><ele>330.0</ele><time>2026-04-22T15:13:23.974Z</time></trkpt><trkpt lat="45.730153" lon="9.1312605"><ele>330.5</ele><time>2026-04-22T15:13:24.974Z</time></trkpt><trkpt lat="45.7300749" lon="9.1311574"><ele>331.0</ele><time>2026-04-22T15:13:25.973Z</time></trkpt><trkpt lat="45.7299903" lon="9.1310461"><ele>331.5</ele><time>2026-04-22T15:13:26.973Z</time></trkpt><trkpt lat="45.7299013" lon="9.1309321"><ele>332.0</ele><time>2026-04-22T15:13:27.972Z</time></trkpt><trkpt lat="45.7298137" lon="9.1308235"><ele>332.20000000000005</ele><time>2026-04-22T15:13:28.973Z</time></trkpt><trkpt lat="45.729733" lon="9.1307214"><ele>332.4</ele><time>2026-04-22T15:13:29.974Z</time></trkpt><trkpt lat="45.7296593" lon="9.1306236"><ele>332.6</ele><time>2026-04-22T15:13:30.973Z</time></trkpt><trkpt lat="45.7296009" lon="9.1305464"><ele>332.79999999999995</ele><time>2026-04-22T15:13:31.974Z</time></trkpt><trkpt lat="45.7295436" lon="9.130403"><ele>333.0</ele><time>2026-04-22T15:13:33.973Z</time></trkpt><trkpt lat="45.7295438" lon="9.1302321"><ele>333.0</ele><time>2026-04-22T15:13:35.973Z</time></trkpt><trkpt lat="45.7295696" lon="9.1301281"><ele>333.0</ele><time>2026-04-22T15:13:36.972Z</time></trkpt><trkpt lat="45.7296113" lon="9.1300114"><ele>333.0</ele><time>2026-04-22T15:13:37.973Z</time></trkpt><trkpt lat="45.7296555" lon="9.1298902"><ele>333.0</ele><time>2026-04-22T15:13:38.974Z</time></trkpt><trkpt lat="45.7297009" lon="9.1297678"><ele>333.0</ele><time>2026-04-22T15:13:39.973Z</time></trkpt><trkpt lat="45.7297456" lon="9.1296374"><ele>333.5</ele><time>2026-04-22T15:13:40.974Z</time></trkpt><trkpt lat="45.7297926" lon="9.1294976"><ele>334.0</ele><time>2026-04-22T15:13:41.973Z</time></trkpt><trkpt lat="45.7298436" lon="9.1293496"><ele>334.5</ele><time>2026-04-22T15:13:42.974Z</time></trkpt><trkpt lat="45.7298965" lon="9.1291964"><ele>335.0</ele><time>2026-04-22T15:13:43.973Z</time></trkpt><trkpt lat="45.729948" lon="9.1290395"><ele>335.0</ele><time>2026-04-22T15:13:44.974Z</time></trkpt><trkpt lat="45.7300004" lon="9.128883"><ele>335.0</ele><time>2026-04-22T15:13:45.973Z</time></trkpt><trkpt lat="45.7300498" lon="9.1287338"><ele>335.0</ele><time>2026-04-22T15:13:46.973Z</time></trkpt><trkpt lat="45.7301001" lon="9.128587"><ele>335.0</ele><time>2026-04-22T15:13:47.974Z</time></trkpt><trkpt lat="45.730148" lon="9.1284446"><ele>335.0</ele><time>2026-04-22T15:13:48.973Z</time></trkpt><trkpt lat="45.7301912" lon="9.1283069"><ele>335.0</ele><time>2026-04-22T15:13:49.973Z</time></trkpt><trkpt lat="45.7302245" lon="9.1281689"><ele>335.0</ele><time>2026-04-22T15:13:50.973Z</time></trkpt><trkpt lat="45.7302431" lon="9.1280358"><ele>335.0</ele><time>2026-04-22T15:13:51.973Z</time></trkpt><trkpt lat="45.7302504" lon="9.1279031"><ele>335.0</ele><time>2026-04-22T15:13:52.973Z</time></trkpt><trkpt lat="45.7302455" lon="9.1277713"><ele>335.6666666666667</ele><time>2026-04-22T15:13:53.973Z</time></trkpt><trkpt lat="45.7302285" lon="9.1276377"><ele>336.33333333333337</ele><time>2026-04-22T15:13:54.973Z</time></trkpt><trkpt lat="45.7302083" lon="9.127508"><ele>337.0</ele><time>2026-04-22T15:13:55.973Z</time></trkpt><trkpt lat="45.7301905" lon="9.1273896"><ele>337.6666666666667</ele><time>2026-04-22T15:13:56.974Z</time></trkpt><trkpt lat="45.7301757" lon="9.1272801"><ele>338.3333333333333</ele><time>2026-04-22T15:13:57.973Z</time></trkpt><trkpt lat="45.7301528" lon="9.1271428"><ele>339.0</ele><time>2026-04-22T15:13:59.974Z</time></trkpt><trkpt lat="45.7301391" lon="9.1270363"><ele>339.0</ele><time>2026-04-22T15:14:01.972Z</time></trkpt><trkpt lat="45.7301701" lon="9.1269352"><ele>339.0</ele><time>2026-04-22T15:14:03.973Z</time></trkpt><trkpt lat="45.7302579" lon="9.1268914"><ele>339.0</ele><time>2026-04-22T15:14:05.973Z</time></trkpt><trkpt lat="45.7303255" lon="9.1268924"><ele>339.0</ele><time>2026-04-22T15:14:06.973Z</time></trkpt><trkpt lat="45.7304348" lon="9.126849"><ele>339.0</ele><time>2026-04-22T15:14:08.973Z</time></trkpt><trkpt lat="45.7305037" lon="9.1267324"><ele>339.3333333333333</ele><time>2026-04-22T15:14:10.973Z</time></trkpt><trkpt lat="45.730526" lon="9.1265496"><ele>339.6666666666667</ele><time>2026-04-22T15:14:12.973Z</time></trkpt><trkpt lat="45.7305431" lon="9.1264467"><ele>340.0</ele><time>2026-04-22T15:14:13.974Z</time></trkpt><trkpt lat="45.7305677" lon="9.1263495"><ele>340.33333333333337</ele><time>2026-04-22T15:14:14.974Z</time></trkpt><trkpt lat="45.730598" lon="9.1262622"><ele>340.6666666666667</ele><time>2026-04-22T15:14:15.972Z</time></trkpt><trkpt lat="45.7306394" lon="9.1261867"><ele>341.0</ele><time>2026-04-22T15:14:16.972Z</time></trkpt><trkpt lat="45.7306874" lon="9.1261165"><ele>341.0</ele><time>2026-04-22T15:14:17.973Z</time></trkpt><trkpt lat="45.7307448" lon="9.1260598"><ele>341.0</ele><time>2026-04-22T15:14:18.973Z</time></trkpt><trkpt lat="45.7308085" lon="9.1260229"><ele>341.0</ele><time>2026-04-22T15:14:19.974Z</time></trkpt><trkpt lat="45.7308767" lon="9.1260018"><ele>341.0</ele><time>2026-04-22T15:14:20.973Z</time></trkpt><trkpt lat="45.7309479" lon="9.1260037"><ele>341.0</ele><time>2026-04-22T15:14:21.974Z</time></trkpt><trkpt lat="45.731022" lon="9.1260254"><ele>341.0</ele><time>2026-04-22T15:14:22.974Z</time></trkpt><trkpt lat="45.731105" lon="9.126056"><ele>341.0</ele><time>2026-04-22T15:14:23.972Z</time></trkpt><trkpt lat="45.7311957" lon="9.1260895"><ele>341.6666666666667</ele><time>2026-04-22T15:14:24.974Z</time></trkpt><trkpt lat="45.7312884" lon="9.1261211"><ele>342.33333333333337</ele><time>2026-04-22T15:14:25.974Z</time></trkpt><trkpt lat="45.7313819" lon="9.1261552"><ele>343.0</ele><time>2026-04-22T15:14:26.973Z</time></trkpt><trkpt lat="45.7314643" lon="9.1261816"><ele>343.6666666666667</ele><time>2026-04-22T15:14:27.974Z</time></trkpt><trkpt lat="45.7315395" lon="9.1262062"><ele>344.3333333333333</ele><time>2026-04-22T15:14:28.973Z</time></trkpt><trkpt lat="45.7316082" lon="9.1262168"><ele>345.0</ele><time>2026-04-22T15:14:29.973Z</time></trkpt><trkpt lat="45.7316777" lon="9.1262047"><ele>345.0</ele><time>2026-04-22T15:14:30.974Z</time></trkpt><trkpt lat="45.7317473" lon="9.1261818"><ele>345.0</ele><time>2026-04-22T15:14:31.974Z</time></trkpt><trkpt lat="45.7318191" lon="9.12614"><ele>345.0</ele><time>2026-04-22T15:14:32.972Z</time></trkpt><trkpt lat="45.7318902" lon="9.1260869"><ele>345.0</ele><time>2026-04-22T15:14:33.974Z</time></trkpt><trkpt lat="45.7319599" lon="9.1260238"><ele>345.0</ele><time>2026-04-22T15:14:34.973Z</time></trkpt><trkpt lat="45.7320212" lon="9.1259517"><ele>345.0</ele><time>2026-04-22T15:14:35.972Z</time></trkpt><trkpt lat="45.732077" lon="9.1258653"><ele>346.2</ele><time>2026-04-22T15:14:36.972Z</time></trkpt><trkpt lat="45.7321247" lon="9.1257723"><ele>347.4</ele><time>2026-04-22T15:14:37.974Z</time></trkpt><trkpt lat="45.7321708" lon="9.1256612"><ele>348.6</ele><time>2026-04-22T15:14:38.974Z</time></trkpt><trkpt lat="45.7322188" lon="9.1255472"><ele>349.8</ele><time>2026-04-22T15:14:39.974Z</time></trkpt><trkpt lat="45.7322703" lon="9.1254304"><ele>351.0</ele><time>2026-04-22T15:14:40.974Z</time></trkpt><trkpt lat="45.7323217" lon="9.1253101"><ele>352.1666666666667</ele><time>2026-04-22T15:14:41.973Z</time></trkpt><trkpt lat="45.7323665" lon="9.1251913"><ele>353.3333333333333</ele><time>2026-04-22T15:14:42.973Z</time></trkpt><trkpt lat="45.7324048" lon="9.1250667"><ele>354.5</ele><time>2026-04-22T15:14:43.973Z</time></trkpt><trkpt lat="45.7324431" lon="9.1249423"><ele>355.66666666666663</ele><time>2026-04-22T15:14:44.973Z</time></trkpt><trkpt lat="45.7324759" lon="9.1248258"><ele>356.8333333333333</ele><time>2026-04-22T15:14:45.972Z</time></trkpt><trkpt lat="45.7324975" lon="9.1247266"><ele>358.0</ele><time>2026-04-22T15:14:46.973Z</time></trkpt><trkpt lat="45.7325203" lon="9.1246407"><ele>358.79999999999995</ele><time>2026-04-22T15:14:47.972Z</time></trkpt><trkpt lat="45.7325626" lon="9.124504"><ele>359.6</ele><time>2026-04-22T15:14:49.973Z</time></trkpt><trkpt lat="45.732544" lon="9.1243945"><ele>360.4</ele><time>2026-04-22T15:14:52.973Z</time></trkpt><trkpt lat="45.7324574" lon="9.124363"><ele>361.20000000000005</ele><time>2026-04-22T15:14:54.973Z</time></trkpt><trkpt lat="45.7323137" lon="9.1243722"><ele>362.0</ele><time>2026-04-22T15:14:56.973Z</time></trkpt><trkpt lat="45.7322196" lon="9.1243854"><ele>362.0</ele><time>2026-04-22T15:14:57.974Z</time></trkpt><trkpt lat="45.7321147" lon="9.1243978"><ele>362.0</ele><time>2026-04-22T15:14:58.973Z</time></trkpt><trkpt lat="45.7320183" lon="9.1244051"><ele>362.0</ele><time>2026-04-22T15:14:59.974Z</time></trkpt><trkpt lat="45.7319248" lon="9.1244094"><ele>362.0</ele><time>2026-04-22T15:15:00.974Z</time></trkpt><trkpt lat="45.7318362" lon="9.1244125"><ele>362.0</ele><time>2026-04-22T15:15:01.973Z</time></trkpt><trkpt lat="45.731751" lon="9.1244112"><ele>361.5</ele><time>2026-04-22T15:15:02.974Z</time></trkpt><trkpt lat="45.7316717" lon="9.1243948"><ele>361.0</ele><time>2026-04-22T15:15:03.972Z</time></trkpt><trkpt lat="45.7315977" lon="9.1243669"><ele>360.5</ele><time>2026-04-22T15:15:04.972Z</time></trkpt><trkpt lat="45.7315212" lon="9.1243207"><ele>360.0</ele><time>2026-04-22T15:15:05.973Z</time></trkpt><trkpt lat="45.7314477" lon="9.1242514"><ele>359.5</ele><time>2026-04-22T15:15:06.973Z</time></trkpt><trkpt lat="45.7313718" lon="9.1241776"><ele>359.0</ele><time>2026-04-22T15:15:07.973Z</time></trkpt><trkpt lat="45.7312984" lon="9.1241011"><ele>358.0</ele><time>2026-04-22T15:15:08.972Z</time></trkpt><trkpt lat="45.7312241" lon="9.1240246"><ele>357.0</ele><time>2026-04-22T15:15:09.973Z</time></trkpt><trkpt lat="45.731149" lon="9.1239489"><ele>356.0</ele><time>2026-04-22T15:15:10.972Z</time></trkpt><trkpt lat="45.7310721" lon="9.1238756"><ele>355.0</ele><time>2026-04-22T15:15:11.972Z</time></trkpt><trkpt lat="45.7309934" lon="9.1238094"><ele>354.0</ele><time>2026-04-22T15:15:12.972Z</time></trkpt><trkpt lat="45.7309084" lon="9.1237542"><ele>354.0</ele><time>2026-04-22T15:15:13.972Z</time></trkpt><trkpt lat="45.7308194" lon="9.1237098"><ele>354.0</ele><time>2026-04-22T15:15:14.973Z</time></trkpt><trkpt lat="45.7307272" lon="9.123682"><ele>354.0</ele><time>2026-04-22T15:15:15.972Z</time></trkpt><trkpt lat="45.730636" lon="9.1236671"><ele>354.0</ele><time>2026-04-22T15:15:16.973Z</time></trkpt><trkpt lat="45.730556" lon="9.12365"><ele>354.0</ele><time>2026-04-22T15:15:17.972Z</time></trkpt><trkpt lat="45.7304855" lon="9.1236244"><ele>354.0</ele><time>2026-04-22T15:15:18.973Z</time></trkpt><trkpt lat="45.7304162" lon="9.1235898"><ele>354.0</ele><time>2026-04-22T15:15:19.972Z</time></trkpt><trkpt lat="45.730347" lon="9.123539"><ele>354.0</ele><time>2026-04-22T15:15:20.973Z</time></trkpt><trkpt lat="45.7302784" lon="9.1234706"><ele>354.0</ele><time>2026-04-22T15:15:21.973Z</time></trkpt><trkpt lat="45.7302086" lon="9.1233819"><ele>354.0</ele><time>2026-04-22T15:15:22.973Z</time></trkpt><trkpt lat="45.7301354" lon="9.1232792"><ele>354.0</ele><time>2026-04-22T15:15:23.972Z</time></trkpt><trkpt lat="45.7300587" lon="9.1231797"><ele>353.2</ele><time>2026-04-22T15:15:24.973Z</time></trkpt><trkpt lat="45.7299753" lon="9.1230809"><ele>352.4</ele><time>2026-04-22T15:15:25.972Z</time></trkpt><trkpt lat="45.7298917" lon="9.1229857"><ele>351.6</ele><time>2026-04-22T15:15:26.971Z</time></trkpt><trkpt lat="45.7298128" lon="9.122891"><ele>350.8</ele><time>2026-04-22T15:15:27.972Z</time></trkpt><trkpt lat="45.7297356" lon="9.1227996"><ele>350.0</ele><time>2026-04-22T15:15:28.971Z</time></trkpt><trkpt lat="45.7296619" lon="9.1227051"><ele>350.0</ele><time>2026-04-22T15:15:29.971Z</time></trkpt><trkpt lat="45.729589" lon="9.1226059"><ele>350.0</ele><time>2026-04-22T15:15:30.971Z</time></trkpt><trkpt lat="45.7295196" lon="9.1224975"><ele>350.0</ele><time>2026-04-22T15:15:31.973Z</time></trkpt><trkpt lat="45.7294516" lon="9.122381"><ele>350.0</ele><time>2026-04-22T15:15:32.973Z</time></trkpt><trkpt lat="45.7293827" lon="9.1222688"><ele>350.0</ele><time>2026-04-22T15:15:33.972Z</time></trkpt><trkpt lat="45.7293145" lon="9.12216"><ele>349.6</ele><time>2026-04-22T15:15:34.973Z</time></trkpt><trkpt lat="45.729251" lon="9.1220462"><ele>349.2</ele><time>2026-04-22T15:15:35.972Z</time></trkpt><trkpt lat="45.7291895" lon="9.121932"><ele>348.79999999999995</ele><time>2026-04-22T15:15:36.972Z</time></trkpt><trkpt lat="45.729132" lon="9.1218173"><ele>348.4</ele><time>2026-04-22T15:15:37.972Z</time></trkpt><trkpt lat="45.7290799" lon="9.1216941"><ele>348.0</ele><time>2026-04-22T15:15:38.972Z</time></trkpt><trkpt lat="45.729028" lon="9.1215651"><ele>348.0</ele><time>2026-04-22T15:15:39.973Z</time></trkpt><trkpt lat="45.7289756" lon="9.1214319"><ele>348.0</ele><time>2026-04-22T15:15:40.972Z</time></trkpt><trkpt lat="45.7289241" lon="9.1212975"><ele>348.0</ele><time>2026-04-22T15:15:41.972Z</time></trkpt><trkpt lat="45.7288751" lon="9.1211707"><ele>348.0</ele><time>2026-04-22T15:15:42.972Z</time></trkpt><trkpt lat="45.7288317" lon="9.1210516"><ele>348.0</ele><time>2026-04-22T15:15:43.972Z</time></trkpt><trkpt lat="45.7287931" lon="9.1209489"><ele>348.0</ele><time>2026-04-22T15:15:44.972Z</time></trkpt><trkpt lat="45.7287628" lon="9.1208674"><ele>348.0</ele><time>2026-04-22T15:15:45.972Z</time></trkpt><trkpt lat="45.728722" lon="9.1207638"><ele>348.0</ele><time>2026-04-22T15:15:47.971Z</time></trkpt><trkpt lat="45.7286924" lon="9.1206755"><ele>348.0</ele><time>2026-04-22T15:15:49.972Z</time></trkpt><trkpt lat="45.7286526" lon="9.1205754"><ele>348.0</ele><time>2026-04-22T15:15:53.971Z</time></trkpt><trkpt lat="45.7285966" lon="9.1204926"><ele>348.0</ele><time>2026-04-22T15:15:55.972Z</time></trkpt><trkpt lat="45.7285439" lon="9.1203433"><ele>347.3333333333333</ele><time>2026-04-22T15:15:57.972Z</time></trkpt><trkpt lat="45.7285065" lon="9.1202425"><ele>346.6666666666667</ele><time>2026-04-22T15:15:58.973Z</time></trkpt><trkpt lat="45.7284585" lon="9.1201375"><ele>346.0</ele><time>2026-04-22T15:15:59.973Z</time></trkpt><trkpt lat="45.7284086" lon="9.12003"><ele>345.33333333333337</ele><time>2026-04-22T15:16:00.972Z</time></trkpt><trkpt lat="45.728356" lon="9.1199096"><ele>344.6666666666667</ele><time>2026-04-22T15:16:01.973Z</time></trkpt><trkpt lat="45.7283133" lon="9.119797"><ele>344.0</ele><time>2026-04-22T15:16:02.973Z</time></trkpt><trkpt lat="45.7282791" lon="9.1196946"><ele>344.0</ele><time>2026-04-22T15:16:03.973Z</time></trkpt><trkpt lat="45.728254" lon="9.1196085"><ele>344.0</ele><time>2026-04-22T15:16:04.971Z</time></trkpt><trkpt lat="45.7282187" lon="9.1194939"><ele>344.0</ele><time>2026-04-22T15:16:06.972Z</time></trkpt><trkpt lat="45.7281828" lon="9.1193748"><ele>344.0</ele><time>2026-04-22T15:16:08.972Z</time></trkpt><trkpt lat="45.7281118" lon="9.1192099"><ele>344.0</ele><time>2026-04-22T15:16:10.971Z</time></trkpt><trkpt lat="45.7280702" lon="9.1191186"><ele>344.83333333333337</ele><time>2026-04-22T15:16:11.972Z</time></trkpt><trkpt lat="45.7280243" lon="9.1190211"><ele>345.6666666666667</ele><time>2026-04-22T15:16:12.973Z</time></trkpt><trkpt lat="45.7279757" lon="9.1189258"><ele>346.5</ele><time>2026-04-22T15:16:13.973Z</time></trkpt><trkpt lat="45.7279255" lon="9.1188282"><ele>347.3333333333333</ele><time>2026-04-22T15:16:14.973Z</time></trkpt><trkpt lat="45.7278756" lon="9.1187259"><ele>348.16666666666663</ele><time>2026-04-22T15:16:15.973Z</time></trkpt><trkpt lat="45.7278281" lon="9.1186239"><ele>349.0</ele><time>2026-04-22T15:16:16.973Z</time></trkpt><trkpt lat="45.7277761" lon="9.1185211"><ele>347.66666666666663</ele><time>2026-04-22T15:16:17.972Z</time></trkpt><trkpt lat="45.727724" lon="9.1184149"><ele>346.3333333333333</ele><time>2026-04-22T15:16:18.972Z</time></trkpt><trkpt lat="45.727669" lon="9.11831"><ele>345.0</ele><time>2026-04-22T15:16:19.972Z</time></trkpt><trkpt lat="45.7276149" lon="9.1182055"><ele>343.6666666666667</ele><time>2026-04-22T15:16:20.972Z</time></trkpt><trkpt lat="45.7275592" lon="9.1181007"><ele>342.33333333333337</ele><time>2026-04-22T15:16:21.972Z</time></trkpt><trkpt lat="45.7275142" lon="9.118014"><ele>341.0</ele><time>2026-04-22T15:16:22.973Z</time></trkpt><trkpt lat="45.7274704" lon="9.1179337"><ele>341.0</ele><time>2026-04-22T15:16:23.972Z</time></trkpt><trkpt lat="45.7274261" lon="9.1178302"><ele>341.0</ele><time>2026-04-22T15:16:25.971Z</time></trkpt><trkpt lat="45.7273634" lon="9.1177129"><ele>341.0</ele><time>2026-04-22T15:16:27.972Z</time></trkpt><trkpt lat="45.7272888" lon="9.1175746"><ele>341.0</ele><time>2026-04-22T15:16:29.972Z</time></trkpt><trkpt lat="45.7272461" lon="9.1174869"><ele>341.0</ele><time>2026-04-22T15:16:30.973Z</time></trkpt><trkpt lat="45.7271973" lon="9.1173939"><ele>341.5</ele><time>2026-04-22T15:16:31.972Z</time></trkpt><trkpt lat="45.7271444" lon="9.1173004"><ele>342.0</ele><time>2026-04-22T15:16:32.972Z</time></trkpt><trkpt lat="45.7270912" lon="9.1172122"><ele>342.5</ele><time>2026-04-22T15:16:33.973Z</time></trkpt><trkpt lat="45.7270355" lon="9.1171248"><ele>343.0</ele><time>2026-04-22T15:16:34.972Z</time></trkpt><trkpt lat="45.7269813" lon="9.1170354"><ele>343.5</ele><time>2026-04-22T15:16:35.973Z</time></trkpt><trkpt lat="45.7269317" lon="9.116939"><ele>344.0</ele><time>2026-04-22T15:16:36.973Z</time></trkpt><trkpt lat="45.7268843" lon="9.1168413"><ele>343.1666666666667</ele><time>2026-04-22T15:16:37.973Z</time></trkpt><trkpt lat="45.7268364" lon="9.1167537"><ele>342.33333333333337</ele><time>2026-04-22T15:16:38.972Z</time></trkpt><trkpt lat="45.7267853" lon="9.1166749"><ele>341.5</ele><time>2026-04-22T15:16:39.971Z</time></trkpt><trkpt lat="45.7267324" lon="9.1166034"><ele>340.6666666666667</ele><time>2026-04-22T15:16:40.973Z</time></trkpt><trkpt lat="45.7266713" lon="9.1165398"><ele>339.8333333333333</ele><time>2026-04-22T15:16:41.972Z</time></trkpt><trkpt lat="45.726603" lon="9.1164801"><ele>339.0</ele><time>2026-04-22T15:16:42.972Z</time></trkpt><trkpt lat="45.7265314" lon="9.1164201"><ele>339.0</ele><time>2026-04-22T15:16:43.973Z</time></trkpt><trkpt lat="45.7264568" lon="9.1163642"><ele>339.0</ele><time>2026-04-22T15:16:44.973Z</time></trkpt><trkpt lat="45.7263808" lon="9.1163103"><ele>339.0</ele><time>2026-04-22T15:16:45.971Z</time></trkpt><trkpt lat="45.7263053" lon="9.1162551"><ele>339.0</ele><time>2026-04-22T15:16:46.972Z</time></trkpt><trkpt lat="45.7262268" lon="9.1162078"><ele>339.0</ele><time>2026-04-22T15:16:47.971Z</time></trkpt><trkpt lat="45.726146" lon="9.1161669"><ele>339.0</ele><time>2026-04-22T15:16:48.971Z</time></trkpt><trkpt lat="45.7260683" lon="9.1161289"><ele>337.8333333333333</ele><time>2026-04-22T15:16:49.973Z</time></trkpt><trkpt lat="45.7259929" lon="9.1160915"><ele>336.6666666666667</ele><time>2026-04-22T15:16:50.972Z</time></trkpt><trkpt lat="45.7259246" lon="9.116042"><ele>335.5</ele><time>2026-04-22T15:16:51.972Z</time></trkpt><trkpt lat="45.725863" lon="9.1159789"><ele>334.33333333333337</ele><time>2026-04-22T15:16:52.972Z</time></trkpt><trkpt lat="45.7258073" lon="9.115899"><ele>333.1666666666667</ele><time>2026-04-22T15:16:53.972Z</time></trkpt><trkpt lat="45.7257556" lon="9.1158057"><ele>332.0</ele><time>2026-04-22T15:16:54.973Z</time></trkpt><trkpt lat="45.7257117" lon="9.1156973"><ele>332.0</ele><time>2026-04-22T15:16:55.973Z</time></trkpt><trkpt lat="45.7256694" lon="9.1155731"><ele>332.0</ele><time>2026-04-22T15:16:56.972Z</time></trkpt><trkpt lat="45.7256254" lon="9.1154344"><ele>332.0</ele><time>2026-04-22T15:16:57.972Z</time></trkpt><trkpt lat="45.7255803" lon="9.1152868"><ele>332.0</ele><time>2026-04-22T15:16:58.973Z</time></trkpt><trkpt lat="45.725538" lon="9.1151424"><ele>332.0</ele><time>2026-04-22T15:16:59.973Z</time></trkpt><trkpt lat="45.7254966" lon="9.1149985"><ele>332.40000000000003</ele><time>2026-04-22T15:17:00.973Z</time></trkpt><trkpt lat="45.7254559" lon="9.1148564"><ele>332.8</ele><time>2026-04-22T15:17:01.971Z</time></trkpt><trkpt lat="45.7254121" lon="9.1147203"><ele>333.2</ele><time>2026-04-22T15:17:02.972Z</time></trkpt><trkpt lat="45.7253624" lon="9.1145898"><ele>333.6</ele><time>2026-04-22T15:17:03.972Z</time></trkpt><trkpt lat="45.7253045" lon="9.1144723"><ele>334.0</ele><time>2026-04-22T15:17:04.973Z</time></trkpt><trkpt lat="45.7252341" lon="9.114363"><ele>333.79999999999995</ele><time>2026-04-22T15:17:05.973Z</time></trkpt><trkpt lat="45.7251577" lon="9.114258"><ele>333.59999999999997</ele><time>2026-04-22T15:17:06.972Z</time></trkpt><trkpt lat="45.7250778" lon="9.1141592"><ele>333.4</ele><time>2026-04-22T15:17:07.973Z</time></trkpt><trkpt lat="45.725001" lon="9.1140669"><ele>333.2</ele><time>2026-04-22T15:17:08.973Z</time></trkpt><trkpt lat="45.7249274" lon="9.1139829"><ele>333.0</ele><time>2026-04-22T15:17:09.972Z</time></trkpt><trkpt lat="45.7248576" lon="9.1138978"><ele>333.0</ele><time>2026-04-22T15:17:10.973Z</time></trkpt><trkpt lat="45.7247911" lon="9.11381"><ele>333.0</ele><time>2026-04-22T15:17:11.972Z</time></trkpt><trkpt lat="45.7247278" lon="9.1137211"><ele>333.0</ele><time>2026-04-22T15:17:12.972Z</time></trkpt><trkpt lat="45.7246629" lon="9.1136322"><ele>333.0</ele><time>2026-04-22T15:17:13.973Z</time></trkpt><trkpt lat="45.7246086" lon="9.113548"><ele>333.0</ele><time>2026-04-22T15:17:14.972Z</time></trkpt><trkpt lat="45.7245618" lon="9.1134666"><ele>333.0</ele><time>2026-04-22T15:17:15.972Z</time></trkpt><trkpt lat="45.7245184" lon="9.113396"><ele>333.0</ele><time>2026-04-22T15:17:16.972Z</time></trkpt><trkpt lat="45.7244689" lon="9.1132819"><ele>333.0</ele><time>2026-04-22T15:17:18.973Z</time></trkpt><trkpt lat="45.7244683" lon="9.1131775"><ele>333.0</ele><time>2026-04-22T15:17:20.971Z</time></trkpt><trkpt lat="45.7245175" lon="9.1130759"><ele>333.0</ele><time>2026-04-22T15:17:22.972Z</time></trkpt><trkpt lat="45.7245712" lon="9.1130058"><ele>333.0</ele><time>2026-04-22T15:17:23.972Z</time></trkpt><trkpt lat="45.7246358" lon="9.1129277"><ele>333.0</ele><time>2026-04-22T15:17:24.973Z</time></trkpt><trkpt lat="45.7246996" lon="9.1128626"><ele>333.5</ele><time>2026-04-22T15:17:25.972Z</time></trkpt><trkpt lat="45.7247637" lon="9.1127969"><ele>334.0</ele><time>2026-04-22T15:17:26.972Z</time></trkpt><trkpt lat="45.7248306" lon="9.1127302"><ele>334.5</ele><time>2026-04-22T15:17:27.972Z</time></trkpt><trkpt lat="45.7248973" lon="9.1126671"><ele>335.0</ele><time>2026-04-22T15:17:28.972Z</time></trkpt><trkpt lat="45.7249668" lon="9.1126112"><ele>335.5</ele><time>2026-04-22T15:17:29.973Z</time></trkpt><trkpt lat="45.7250437" lon="9.1125704"><ele>336.0</ele><time>2026-04-22T15:17:30.972Z</time></trkpt><trkpt lat="45.7251239" lon="9.1125307"><ele>336.0</ele><time>2026-04-22T15:17:31.972Z</time></trkpt><trkpt lat="45.7251997" lon="9.1124875"><ele>336.0</ele><time>2026-04-22T15:17:32.973Z</time></trkpt><trkpt lat="45.7252721" lon="9.1124461"><ele>336.0</ele><time>2026-04-22T15:17:33.972Z</time></trkpt><trkpt lat="45.7253385" lon="9.1124097"><ele>336.0</ele><time>2026-04-22T15:17:34.973Z</time></trkpt><trkpt lat="45.7254015" lon="9.1123709"><ele>336.0</ele><time>2026-04-22T15:17:35.972Z</time></trkpt><trkpt lat="45.7254641" lon="9.1123295"><ele>336.0</ele><time>2026-04-22T15:17:36.973Z</time></trkpt><trkpt lat="45.7255313" lon="9.1122897"><ele>336.0</ele><time>2026-04-22T15:17:37.972Z</time></trkpt><trkpt lat="45.7256044" lon="9.1122498"><ele>336.0</ele><time>2026-04-22T15:17:38.971Z</time></trkpt><trkpt lat="45.7256836" lon="9.1122024"><ele>336.0</ele><time>2026-04-22T15:17:39.972Z</time></trkpt><trkpt lat="45.7257719" lon="9.1121442"><ele>336.0</ele><time>2026-04-22T15:17:40.971Z</time></trkpt><trkpt lat="45.7258651" lon="9.1120812"><ele>336.0</ele><time>2026-04-22T15:17:41.972Z</time></trkpt><trkpt lat="45.7259538" lon="9.1120213"><ele>336.0</ele><time>2026-04-22T15:17:42.972Z</time></trkpt><trkpt lat="45.7260443" lon="9.1119656"><ele>337.4</ele><time>2026-04-22T15:17:43.973Z</time></trkpt><trkpt lat="45.7261344" lon="9.1119069"><ele>338.8</ele><time>2026-04-22T15:17:44.973Z</time></trkpt><trkpt lat="45.7262233" lon="9.1118458"><ele>340.2</ele><time>2026-04-22T15:17:45.972Z</time></trkpt><trkpt lat="45.7263129" lon="9.1117786"><ele>341.59999999999997</ele><time>2026-04-22T15:17:46.973Z</time></trkpt><trkpt lat="45.7264056" lon="9.1117136"><ele>343.0</ele><time>2026-04-22T15:17:47.972Z</time></trkpt><trkpt lat="45.7264991" lon="9.1116532"><ele>343.0</ele><time>2026-04-22T15:17:48.972Z</time></trkpt><trkpt lat="45.7265872" lon="9.1115971"><ele>343.0</ele><time>2026-04-22T15:17:49.972Z</time></trkpt><trkpt lat="45.7266632" lon="9.1115483"><ele>343.0</ele><time>2026-04-22T15:17:50.971Z</time></trkpt><trkpt lat="45.7267314" lon="9.1115072"><ele>343.0</ele><time>2026-04-22T15:17:51.973Z</time></trkpt><trkpt lat="45.7267914" lon="9.1114777"><ele>343.0</ele><time>2026-04-22T15:17:52.972Z</time></trkpt><trkpt lat="45.7268783" lon="9.1114738"><ele>343.0</ele><time>2026-04-22T15:17:54.972Z</time></trkpt><trkpt lat="45.7269455" lon="9.1115109"><ele>343.79999999999995</ele><time>2026-04-22T15:17:56.972Z</time></trkpt><trkpt lat="45.7270103" lon="9.1116301"><ele>344.6</ele><time>2026-04-22T15:17:58.973Z</time></trkpt><trkpt lat="45.7270513" lon="9.1117206"><ele>345.4</ele><time>2026-04-22T15:17:59.973Z</time></trkpt><trkpt lat="45.7270981" lon="9.1118275"><ele>346.20000000000005</ele><time>2026-04-22T15:18:00.972Z</time></trkpt><trkpt lat="45.727151" lon="9.1119496"><ele>347.0</ele><time>2026-04-22T15:18:01.972Z</time></trkpt><trkpt lat="45.7272113" lon="9.1120801"><ele>347.0</ele><time>2026-04-22T15:18:02.972Z</time></trkpt><trkpt lat="45.7272705" lon="9.112206"><ele>347.0</ele><time>2026-04-22T15:18:03.971Z</time></trkpt><trkpt lat="45.7273289" lon="9.1123291"><ele>347.0</ele><time>2026-04-22T15:18:04.972Z</time></trkpt><trkpt lat="45.7273836" lon="9.1124551"><ele>347.0</ele><time>2026-04-22T15:18:05.973Z</time></trkpt><trkpt lat="45.727436" lon="9.112578"><ele>347.0</ele><time>2026-04-22T15:18:06.973Z</time></trkpt><trkpt lat="45.7274848" lon="9.1126893"><ele>346.6666666666667</ele><time>2026-04-22T15:18:07.972Z</time></trkpt><trkpt lat="45.727532" lon="9.1127923"><ele>346.33333333333337</ele><time>2026-04-22T15:18:08.972Z</time></trkpt><trkpt lat="45.7275749" lon="9.1128937"><ele>346.0</ele><time>2026-04-22T15:18:09.972Z</time></trkpt><trkpt lat="45.7276162" lon="9.1129933"><ele>345.6666666666667</ele><time>2026-04-22T15:18:10.973Z</time></trkpt><trkpt lat="45.7276579" lon="9.1130859"><ele>345.3333333333333</ele><time>2026-04-22T15:18:11.973Z</time></trkpt><trkpt lat="45.7276984" lon="9.1131732"><ele>345.0</ele><time>2026-04-22T15:18:12.972Z</time></trkpt><trkpt lat="45.7277408" lon="9.1132612"><ele>345.0</ele><time>2026-04-22T15:18:13.972Z</time></trkpt><trkpt lat="45.727782" lon="9.113355"><ele>345.0</ele><time>2026-04-22T15:18:14.972Z</time></trkpt><trkpt lat="45.7278242" lon="9.1134548"><ele>345.0</ele><time>2026-04-22T15:18:15.971Z</time></trkpt><trkpt lat="45.727862" lon="9.1135636"><ele>345.0</ele><time>2026-04-22T15:18:16.972Z</time></trkpt><trkpt lat="45.7278976" lon="9.1136691"><ele>345.0</ele><time>2026-04-22T15:18:17.972Z</time></trkpt><trkpt lat="45.7279359" lon="9.1137743"><ele>345.0</ele><time>2026-04-22T15:18:18.972Z</time></trkpt><trkpt lat="45.7279801" lon="9.1138782"><ele>345.0</ele><time>2026-04-22T15:18:19.972Z</time></trkpt><trkpt lat="45.7280279" lon="9.1139838"><ele>345.0</ele><time>2026-04-22T15:18:20.972Z</time></trkpt><trkpt lat="45.7280789" lon="9.1140883"><ele>345.0</ele><time>2026-04-22T15:18:21.972Z</time></trkpt><trkpt lat="45.7281339" lon="9.1141886"><ele>345.0</ele><time>2026-04-22T15:18:22.973Z</time></trkpt><trkpt lat="45.7281886" lon="9.1142845"><ele>345.0</ele><time>2026-04-22T15:18:23.973Z</time></trkpt><trkpt lat="45.7282402" lon="9.1143735"><ele>345.0</ele><time>2026-04-22T15:18:24.972Z</time></trkpt><trkpt lat="45.728297" lon="9.1144548"><ele>344.3333333333333</ele><time>2026-04-22T15:18:25.973Z</time></trkpt><trkpt lat="45.728359" lon="9.114524"><ele>343.6666666666667</ele><time>2026-04-22T15:18:26.972Z</time></trkpt><trkpt lat="45.728422" lon="9.1145846"><ele>343.0</ele><time>2026-04-22T15:18:27.972Z</time></trkpt><trkpt lat="45.7284851" lon="9.1146332"><ele>342.33333333333337</ele><time>2026-04-22T15:18:28.971Z</time></trkpt><trkpt lat="45.7285555" lon="9.1146798"><ele>341.6666666666667</ele><time>2026-04-22T15:18:29.972Z</time></trkpt><trkpt lat="45.7286269" lon="9.1147244"><ele>341.0</ele><time>2026-04-22T15:18:30.971Z</time></trkpt><trkpt lat="45.7287044" lon="9.1147729"><ele>341.0</ele><time>2026-04-22T15:18:31.972Z</time></trkpt><trkpt lat="45.7287833" lon="9.1148257"><ele>341.0</ele><time>2026-04-22T15:18:32.972Z</time></trkpt><trkpt lat="45.7288651" lon="9.1148865"><ele>341.0</ele><time>2026-04-22T15:18:33.972Z</time></trkpt><trkpt lat="45.7289409" lon="9.1149463"><ele>341.0</ele><time>2026-04-22T15:18:34.972Z</time></trkpt><trkpt lat="45.7290197" lon="9.1150049"><ele>341.0</ele><time>2026-04-22T15:18:35.973Z</time></trkpt><trkpt lat="45.7290928" lon="9.1150648"><ele>341.0</ele><time>2026-04-22T15:18:36.972Z</time></trkpt><trkpt lat="45.7291682" lon="9.1151202"><ele>342.0</ele><time>2026-04-22T15:18:37.971Z</time></trkpt><trkpt lat="45.7292412" lon="9.1151725"><ele>343.0</ele><time>2026-04-22T15:18:38.971Z</time></trkpt><trkpt lat="45.7293139" lon="9.1152274"><ele>344.0</ele><time>2026-04-22T15:18:39.972Z</time></trkpt><trkpt lat="45.7293843" lon="9.1152819"><ele>345.0</ele><time>2026-04-22T15:18:40.971Z</time></trkpt><trkpt lat="45.7294483" lon="9.1153353"><ele>346.0</ele><time>2026-04-22T15:18:41.971Z</time></trkpt><trkpt lat="45.7295051" lon="9.1153922"><ele>347.0</ele><time>2026-04-22T15:18:42.971Z</time></trkpt><trkpt lat="45.7295522" lon="9.1154544"><ele>346.0</ele><time>2026-04-22T15:18:43.973Z</time></trkpt><trkpt lat="45.7295906" lon="9.1155293"><ele>345.0</ele><time>2026-04-22T15:18:44.972Z</time></trkpt><trkpt lat="45.7296372" lon="9.115607"><ele>344.0</ele><time>2026-04-22T15:18:45.972Z</time></trkpt><trkpt lat="45.7296893" lon="9.1156823"><ele>343.0</ele><time>2026-04-22T15:18:46.972Z</time></trkpt><trkpt lat="45.729735" lon="9.1157558"><ele>342.0</ele><time>2026-04-22T15:18:47.973Z</time></trkpt><trkpt lat="45.7297988" lon="9.1158755"><ele>341.0</ele><time>2026-04-22T15:18:49.972Z</time></trkpt><trkpt lat="45.7298299" lon="9.1160202"><ele>341.0</ele><time>2026-04-22T15:18:51.972Z</time></trkpt><trkpt lat="45.7298366" lon="9.116112"><ele>341.0</ele><time>2026-04-22T15:18:52.971Z</time></trkpt><trkpt lat="45.7298743" lon="9.1162782"><ele>341.0</ele><time>2026-04-22T15:18:54.973Z</time></trkpt><trkpt lat="45.729965" lon="9.1163953"><ele>341.0</ele><time>2026-04-22T15:18:56.972Z</time></trkpt><trkpt lat="45.7300298" lon="9.1164215"><ele>341.0</ele><time>2026-04-22T15:18:57.972Z</time></trkpt><trkpt lat="45.7301018" lon="9.1164315"><ele>341.0</ele><time>2026-04-22T15:18:58.972Z</time></trkpt><trkpt lat="45.7301774" lon="9.1164306"><ele>340.0</ele><time>2026-04-22T15:18:59.972Z</time></trkpt><trkpt lat="45.7302543" lon="9.1164177"><ele>339.0</ele><time>2026-04-22T15:19:00.972Z</time></trkpt><trkpt lat="45.7303357" lon="9.1164014"><ele>338.0</ele><time>2026-04-22T15:19:01.972Z</time></trkpt><trkpt lat="45.7304137" lon="9.1163973"><ele>337.0</ele><time>2026-04-22T15:19:02.971Z</time></trkpt><trkpt lat="45.7304915" lon="9.1163941"><ele>336.0</ele><time>2026-04-22T15:19:03.972Z</time></trkpt><trkpt lat="45.7305666" lon="9.1163937"><ele>335.0</ele><time>2026-04-22T15:19:04.972Z</time></trkpt><trkpt lat="45.7306364" lon="9.1163935"><ele>335.0</ele><time>2026-04-22T15:19:05.972Z</time></trkpt><trkpt lat="45.7307363" lon="9.1163933"><ele>335.0</ele><time>2026-04-22T15:19:07.973Z</time></trkpt><trkpt lat="45.7308082" lon="9.1163939"><ele>335.0</ele><time>2026-04-22T15:19:10.972Z</time></trkpt><trkpt lat="45.7309054" lon="9.1163857"><ele>335.0</ele><time>2026-04-22T15:19:14.973Z</time></trkpt><trkpt lat="45.7309892" lon="9.1163786"><ele>335.0</ele><time>2026-04-22T15:19:16.971Z</time></trkpt><trkpt lat="45.7310632" lon="9.1163244"><ele>335.0</ele><time>2026-04-22T15:19:19.972Z</time></trkpt><trkpt lat="45.731068" lon="9.1162332"><ele>335.0</ele><time>2026-04-22T15:19:21.972Z</time></trkpt><trkpt lat="45.7310199" lon="9.1160817"><ele>335.0</ele><time>2026-04-22T15:19:23.972Z</time></trkpt><trkpt lat="45.7309845" lon="9.1159785"><ele>335.0</ele><time>2026-04-22T15:19:24.973Z</time></trkpt><trkpt lat="45.7309395" lon="9.1158605"><ele>335.0</ele><time>2026-04-22T15:19:25.972Z</time></trkpt><trkpt lat="45.7308903" lon="9.1157336"><ele>335.0</ele><time>2026-04-22T15:19:26.972Z</time></trkpt><trkpt lat="45.7308427" lon="9.1156025"><ele>335.0</ele><time>2026-04-22T15:19:27.971Z</time></trkpt><trkpt lat="45.730794" lon="9.1154712"><ele>335.0</ele><time>2026-04-22T15:19:28.972Z</time></trkpt><trkpt lat="45.7307485" lon="9.1153357"><ele>335.0</ele><time>2026-04-22T15:19:29.973Z</time></trkpt><trkpt lat="45.7307026" lon="9.1151992"><ele>335.0</ele><time>2026-04-22T15:19:30.972Z</time></trkpt><trkpt lat="45.7306584" lon="9.1150623"><ele>335.0</ele><time>2026-04-22T15:19:31.973Z</time></trkpt><trkpt lat="45.7306146" lon="9.1149213"><ele>335.0</ele><time>2026-04-22T15:19:32.972Z</time></trkpt><trkpt lat="45.7305722" lon="9.1147799"><ele>335.0</ele><time>2026-04-22T15:19:33.971Z</time></trkpt><trkpt lat="45.7305323" lon="9.1146406"><ele>335.0</ele><time>2026-04-22T15:19:34.973Z</time></trkpt><trkpt lat="45.7304976" lon="9.1145049"><ele>335.0</ele><time>2026-04-22T15:19:35.971Z</time></trkpt><trkpt lat="45.7304691" lon="9.1143713"><ele>335.0</ele><time>2026-04-22T15:19:36.972Z</time></trkpt><trkpt lat="45.7304428" lon="9.1142388"><ele>335.0</ele><time>2026-04-22T15:19:37.972Z</time></trkpt><trkpt lat="45.7304262" lon="9.1141059"><ele>335.0</ele><time>2026-04-22T15:19:38.972Z</time></trkpt><trkpt lat="45.7304224" lon="9.1139722"><ele>335.0</ele><time>2026-04-22T15:19:39.972Z</time></trkpt><trkpt lat="45.730424" lon="9.1138317"><ele>335.0</ele><time>2026-04-22T15:19:40.972Z</time></trkpt><trkpt lat="45.7304359" lon="9.113685"><ele>335.0</ele><time>2026-04-22T15:19:41.973Z</time></trkpt><trkpt lat="45.7304549" lon="9.1135355"><ele>333.8</ele><time>2026-04-22T15:19:42.973Z</time></trkpt><trkpt lat="45.7304761" lon="9.1133895"><ele>332.6</ele><time>2026-04-22T15:19:43.971Z</time></trkpt><trkpt lat="45.7304914" lon="9.1132444"><ele>331.4</ele><time>2026-04-22T15:19:44.971Z</time></trkpt><trkpt lat="45.7305046" lon="9.1131011"><ele>330.2</ele><time>2026-04-22T15:19:45.973Z</time></trkpt><trkpt lat="45.7305109" lon="9.1129634"><ele>329.0</ele><time>2026-04-22T15:19:46.972Z</time></trkpt><trkpt lat="45.7305075" lon="9.112828"><ele>328.0</ele><time>2026-04-22T15:19:47.972Z</time></trkpt><trkpt lat="45.730492" lon="9.1126995"><ele>327.0</ele><time>2026-04-22T15:19:48.973Z</time></trkpt><trkpt lat="45.7304716" lon="9.1125737"><ele>326.0</ele><time>2026-04-22T15:19:49.973Z</time></trkpt><trkpt lat="45.7304394" lon="9.1124465"><ele>325.0</ele><time>2026-04-22T15:19:50.973Z</time></trkpt><trkpt lat="45.7303982" lon="9.1123172"><ele>324.0</ele><time>2026-04-22T15:19:51.973Z</time></trkpt><trkpt lat="45.7303529" lon="9.1121816"><ele>323.4</ele><time>2026-04-22T15:19:52.971Z</time></trkpt><trkpt lat="45.7303032" lon="9.1120418"><ele>322.79999999999995</ele><time>2026-04-22T15:19:53.973Z</time></trkpt><trkpt lat="45.730254" lon="9.1119058"><ele>322.20000000000005</ele><time>2026-04-22T15:19:54.973Z</time></trkpt><trkpt lat="45.7301993" lon="9.1117749"><ele>321.6</ele><time>2026-04-22T15:19:55.973Z</time></trkpt><trkpt lat="45.7301394" lon="9.111652"><ele>321.0</ele><time>2026-04-22T15:19:56.972Z</time></trkpt><trkpt lat="45.7300692" lon="9.1115331"><ele>320.25</ele><time>2026-04-22T15:19:57.973Z</time></trkpt><trkpt lat="45.7299922" lon="9.1114128"><ele>319.5</ele><time>2026-04-22T15:19:58.973Z</time></trkpt><trkpt lat="45.729911" lon="9.1112961"><ele>318.75</ele><time>2026-04-22T15:19:59.972Z</time></trkpt><trkpt lat="45.7298195" lon="9.1111776"><ele>318.0</ele><time>2026-04-22T15:20:00.972Z</time></trkpt><trkpt lat="45.7297306" lon="9.1110615"><ele>318.0</ele><time>2026-04-22T15:20:01.972Z</time></trkpt><trkpt lat="45.7296439" lon="9.1109483"><ele>318.0</ele><time>2026-04-22T15:20:02.973Z</time></trkpt><trkpt lat="45.7295616" lon="9.1108356"><ele>318.0</ele><time>2026-04-22T15:20:03.972Z</time></trkpt><trkpt lat="45.7294939" lon="9.1107187"><ele>318.0</ele><time>2026-04-22T15:20:04.972Z</time></trkpt><trkpt lat="45.7294386" lon="9.1105907"><ele>318.0</ele><time>2026-04-22T15:20:05.973Z</time></trkpt><trkpt lat="45.7293906" lon="9.1104534"><ele>317.0</ele><time>2026-04-22T15:20:06.973Z</time></trkpt><trkpt lat="45.7293533" lon="9.1103068"><ele>316.0</ele><time>2026-04-22T15:20:07.972Z</time></trkpt><trkpt lat="45.7293218" lon="9.1101485"><ele>315.0</ele><time>2026-04-22T15:20:08.973Z</time></trkpt><trkpt lat="45.7292921" lon="9.1099851"><ele>314.0</ele><time>2026-04-22T15:20:09.972Z</time></trkpt><trkpt lat="45.7292645" lon="9.1098269"><ele>312.8</ele><time>2026-04-22T15:20:10.973Z</time></trkpt><trkpt lat="45.7292397" lon="9.1096731"><ele>311.59999999999997</ele><time>2026-04-22T15:20:11.972Z</time></trkpt><trkpt lat="45.7292128" lon="9.1095262"><ele>310.4</ele><time>2026-04-22T15:20:12.972Z</time></trkpt><trkpt lat="45.7291891" lon="9.1093999"><ele>309.2</ele><time>2026-04-22T15:20:13.972Z</time></trkpt><trkpt lat="45.7291727" lon="9.1092924"><ele>308.0</ele><time>2026-04-22T15:20:14.972Z</time></trkpt><trkpt lat="45.7291664" lon="9.1091994"><ele>306.8</ele><time>2026-04-22T15:20:15.972Z</time></trkpt><trkpt lat="45.7291799" lon="9.1090501"><ele>305.6</ele><time>2026-04-22T15:20:17.972Z</time></trkpt><trkpt lat="45.7292256" lon="9.1089175"><ele>304.4</ele><time>2026-04-22T15:20:19.972Z</time></trkpt><trkpt lat="45.7292776" lon="9.1087754"><ele>303.2</ele><time>2026-04-22T15:20:21.972Z</time></trkpt><trkpt lat="45.7292803" lon="9.1086472"><ele>302.0</ele><time>2026-04-22T15:20:23.973Z</time></trkpt><trkpt lat="45.7292255" lon="9.1085234"><ele>302.0</ele><time>2026-04-22T15:20:25.972Z</time></trkpt><trkpt lat="45.7291224" lon="9.1084056"><ele>302.0</ele><time>2026-04-22T15:20:27.972Z</time></trkpt><trkpt lat="45.7290651" lon="9.1083271"><ele>302.0</ele><time>2026-04-22T15:20:28.973Z</time></trkpt><trkpt lat="45.7290092" lon="9.1082337"><ele>302.0</ele><time>2026-04-22T15:20:29.972Z</time></trkpt><trkpt lat="45.7289652" lon="9.1081286"><ele>302.0</ele><time>2026-04-22T15:20:30.972Z</time></trkpt><trkpt lat="45.7289312" lon="9.1080059"><ele>301.8</ele><time>2026-04-22T15:20:31.972Z</time></trkpt><trkpt lat="45.7289074" lon="9.1078653"><ele>301.6</ele><time>2026-04-22T15:20:32.973Z</time></trkpt><trkpt lat="45.7288846" lon="9.1077123"><ele>301.40000000000003</ele><time>2026-04-22T15:20:33.971Z</time></trkpt><trkpt lat="45.7288569" lon="9.1075511"><ele>301.2</ele><time>2026-04-22T15:20:34.971Z</time></trkpt><trkpt lat="45.7288284" lon="9.1073918"><ele>301.0</ele><time>2026-04-22T15:20:35.972Z</time></trkpt><trkpt lat="45.7288019" lon="9.1072386"><ele>301.0</ele><time>2026-04-22T15:20:36.973Z</time></trkpt><trkpt lat="45.7287732" lon="9.1070902"><ele>301.0</ele><time>2026-04-22T15:20:37.973Z</time></trkpt><trkpt lat="45.7287453" lon="9.1069462"><ele>301.0</ele><time>2026-04-22T15:20:38.973Z</time></trkpt><trkpt lat="45.7287137" lon="9.106816"><ele>301.0</ele><time>2026-04-22T15:20:39.972Z</time></trkpt><trkpt lat="45.7286715" lon="9.1066977"><ele>301.0</ele><time>2026-04-22T15:20:40.973Z</time></trkpt><trkpt lat="45.728615" lon="9.1065907"><ele>299.8</ele><time>2026-04-22T15:20:41.972Z</time></trkpt><trkpt lat="45.7285444" lon="9.1064913"><ele>298.6</ele><time>2026-04-22T15:20:42.972Z</time></trkpt><trkpt lat="45.7284638" lon="9.1064019"><ele>297.4</ele><time>2026-04-22T15:20:43.972Z</time></trkpt><trkpt lat="45.7283741" lon="9.1063288"><ele>296.2</ele><time>2026-04-22T15:20:44.972Z</time></trkpt><trkpt lat="45.7282752" lon="9.1062683"><ele>295.0</ele><time>2026-04-22T15:20:45.973Z</time></trkpt><trkpt lat="45.7281725" lon="9.1062182"><ele>295.0</ele><time>2026-04-22T15:20:46.971Z</time></trkpt><trkpt lat="45.7280679" lon="9.1061847"><ele>295.0</ele><time>2026-04-22T15:20:47.973Z</time></trkpt><trkpt lat="45.7279647" lon="9.1061642"><ele>295.0</ele><time>2026-04-22T15:20:48.972Z</time></trkpt><trkpt lat="45.7278597" lon="9.1061541"><ele>295.0</ele><time>2026-04-22T15:20:49.973Z</time></trkpt><trkpt lat="45.7277564" lon="9.1061614"><ele>295.0</ele><time>2026-04-22T15:20:50.973Z</time></trkpt><trkpt lat="45.7276575" lon="9.1061966"><ele>294.8</ele><time>2026-04-22T15:20:51.971Z</time></trkpt><trkpt lat="45.7275644" lon="9.1062568"><ele>294.6</ele><time>2026-04-22T15:20:52.973Z</time></trkpt><trkpt lat="45.7274809" lon="9.1063406"><ele>294.4</ele><time>2026-04-22T15:20:53.972Z</time></trkpt><trkpt lat="45.7274037" lon="9.1064524"><ele>294.2</ele><time>2026-04-22T15:20:54.973Z</time></trkpt><trkpt lat="45.727332" lon="9.106583"><ele>294.0</ele><time>2026-04-22T15:20:55.972Z</time></trkpt><trkpt lat="45.7272619" lon="9.1067311"><ele>294.0</ele><time>2026-04-22T15:20:56.973Z</time></trkpt><trkpt lat="45.727194" lon="9.1068813"><ele>294.0</ele><time>2026-04-22T15:20:57.972Z</time></trkpt><trkpt lat="45.7271294" lon="9.1070288"><ele>294.0</ele><time>2026-04-22T15:20:58.972Z</time></trkpt><trkpt lat="45.7270705" lon="9.1071652"><ele>294.0</ele><time>2026-04-22T15:20:59.972Z</time></trkpt><trkpt lat="45.7270126" lon="9.1072778"><ele>294.0</ele><time>2026-04-22T15:21:00.973Z</time></trkpt><trkpt lat="45.726944" lon="9.1073769"><ele>294.0</ele><time>2026-04-22T15:21:01.971Z</time></trkpt><trkpt lat="45.7268691" lon="9.1074527"><ele>294.0</ele><time>2026-04-22T15:21:02.971Z</time></trkpt><trkpt lat="45.7267813" lon="9.1075083"><ele>294.0</ele><time>2026-04-22T15:21:03.971Z</time></trkpt><trkpt lat="45.7266929" lon="9.107541"><ele>294.0</ele><time>2026-04-22T15:21:04.972Z</time></trkpt><trkpt lat="45.7265965" lon="9.1075473"><ele>294.0</ele><time>2026-04-22T15:21:05.972Z</time></trkpt><trkpt lat="45.7264936" lon="9.1075281"><ele>294.0</ele><time>2026-04-22T15:21:06.972Z</time></trkpt><trkpt lat="45.726386" lon="9.1074899"><ele>294.0</ele><time>2026-04-22T15:21:07.972Z</time></trkpt><trkpt lat="45.7262759" lon="9.1074308"><ele>294.0</ele><time>2026-04-22T15:21:08.972Z</time></trkpt><trkpt lat="45.7261595" lon="9.1073527"><ele>292.25</ele><time>2026-04-22T15:21:09.972Z</time></trkpt><trkpt lat="45.7260411" lon="9.1072581"><ele>290.5</ele><time>2026-04-22T15:21:10.972Z</time></trkpt><trkpt lat="45.7259147" lon="9.1071548"><ele>288.75</ele><time>2026-04-22T15:21:11.972Z</time></trkpt><trkpt lat="45.7257844" lon="9.1070434"><ele>287.0</ele><time>2026-04-22T15:21:12.972Z</time></trkpt><trkpt lat="45.7256467" lon="9.1069257"><ele>287.0</ele><time>2026-04-22T15:21:13.973Z</time></trkpt><trkpt lat="45.7255053" lon="9.1068088"><ele>287.0</ele><time>2026-04-22T15:21:14.972Z</time></trkpt><trkpt lat="45.72536" lon="9.1066935"><ele>287.0</ele><time>2026-04-22T15:21:15.972Z</time></trkpt><trkpt lat="45.7252108" lon="9.1065732"><ele>284.6666666666667</ele><time>2026-04-22T15:21:16.971Z</time></trkpt><trkpt lat="45.7250608" lon="9.1064507"><ele>282.3333333333333</ele><time>2026-04-22T15:21:17.973Z</time></trkpt><trkpt lat="45.7249169" lon="9.106333"><ele>280.0</ele><time>2026-04-22T15:21:18.973Z</time></trkpt><trkpt lat="45.7247764" lon="9.1062148"><ele>280.0</ele><time>2026-04-22T15:21:19.971Z</time></trkpt><trkpt lat="45.7246392" lon="9.1060992"><ele>280.0</ele><time>2026-04-22T15:21:20.971Z</time></trkpt><trkpt lat="45.7245049" lon="9.105989"><ele>280.0</ele><time>2026-04-22T15:21:21.972Z</time></trkpt><trkpt lat="45.724374" lon="9.1058806"><ele>279.5</ele><time>2026-04-22T15:21:22.972Z</time></trkpt><trkpt lat="45.7242438" lon="9.1057796"><ele>279.0</ele><time>2026-04-22T15:21:23.973Z</time></trkpt><trkpt lat="45.7241186" lon="9.10568"><ele>278.5</ele><time>2026-04-22T15:21:24.971Z</time></trkpt><trkpt lat="45.7239972" lon="9.1055772"><ele>278.0</ele><time>2026-04-22T15:21:25.971Z</time></trkpt><trkpt lat="45.7238836" lon="9.1054713"><ele>276.75</ele><time>2026-04-22T15:21:26.972Z</time></trkpt><trkpt lat="45.7237724" lon="9.1053583"><ele>275.5</ele><time>2026-04-22T15:21:27.973Z</time></trkpt><trkpt lat="45.7236654" lon="9.1052277"><ele>274.25</ele><time>2026-04-22T15:21:28.973Z</time></trkpt><trkpt lat="45.7235599" lon="9.1050814"><ele>273.0</ele><time>2026-04-22T15:21:29.973Z</time></trkpt><trkpt lat="45.7234542" lon="9.1049274"><ele>270.6666666666667</ele><time>2026-04-22T15:21:30.973Z</time></trkpt><trkpt lat="45.7233471" lon="9.1047787"><ele>268.33333333333337</ele><time>2026-04-22T15:21:31.973Z</time></trkpt><trkpt lat="45.7232296" lon="9.1046384"><ele>266.0</ele><time>2026-04-22T15:21:32.972Z</time></trkpt><trkpt lat="45.723101" lon="9.1045078"><ele>266.0</ele><time>2026-04-22T15:21:33.972Z</time></trkpt><trkpt lat="45.7229617" lon="9.1043835"><ele>266.0</ele><time>2026-04-22T15:21:34.972Z</time></trkpt><trkpt lat="45.7228136" lon="9.1042609"><ele>266.0</ele><time>2026-04-22T15:21:35.973Z</time></trkpt><trkpt lat="45.722657" lon="9.104139"><ele>267.0</ele><time>2026-04-22T15:21:36.973Z</time></trkpt><trkpt lat="45.7224953" lon="9.1040143"><ele>268.0</ele><time>2026-04-22T15:21:37.973Z</time></trkpt><trkpt lat="45.7223364" lon="9.1038916"><ele>269.0</ele><time>2026-04-22T15:21:38.972Z</time></trkpt><trkpt lat="45.7221801" lon="9.1037716"><ele>269.0</ele><time>2026-04-22T15:21:39.972Z</time></trkpt><trkpt lat="45.7220274" lon="9.1036557"><ele>269.0</ele><time>2026-04-22T15:21:40.972Z</time></trkpt><trkpt lat="45.7218781" lon="9.103541"><ele>269.0</ele><time>2026-04-22T15:21:41.972Z</time></trkpt><trkpt lat="45.7217326" lon="9.1034331"><ele>267.75</ele><time>2026-04-22T15:21:42.972Z</time></trkpt><trkpt lat="45.7216036" lon="9.1033351"><ele>266.5</ele><time>2026-04-22T15:21:43.972Z</time></trkpt><trkpt lat="45.7214857" lon="9.1032299"><ele>265.25</ele><time>2026-04-22T15:21:44.972Z</time></trkpt><trkpt lat="45.721377" lon="9.1031106"><ele>264.0</ele><time>2026-04-22T15:21:45.972Z</time></trkpt><trkpt lat="45.7212704" lon="9.1029793"><ele>264.0</ele><time>2026-04-22T15:21:46.971Z</time></trkpt><trkpt lat="45.7211682" lon="9.1028321"><ele>264.0</ele><time>2026-04-22T15:21:47.973Z</time></trkpt><trkpt lat="45.7210633" lon="9.1026827"><ele>264.0</ele><time>2026-04-22T15:21:48.972Z</time></trkpt><trkpt lat="45.7209549" lon="9.1025301"><ele>264.0</ele><time>2026-04-22T15:21:49.972Z</time></trkpt><trkpt lat="45.7208488" lon="9.1023789"><ele>262.25</ele><time>2026-04-22T15:21:50.972Z</time></trkpt><trkpt lat="45.7207464" lon="9.1022355"><ele>260.5</ele><time>2026-04-22T15:21:51.972Z</time></trkpt><trkpt lat="45.7206544" lon="9.102103"><ele>258.75</ele><time>2026-04-22T15:21:52.972Z</time></trkpt><trkpt lat="45.7205753" lon="9.1019929"><ele>257.0</ele><time>2026-04-22T15:21:53.971Z</time></trkpt><trkpt lat="45.7205056" lon="9.1018978"><ele>257.0</ele><time>2026-04-22T15:21:54.973Z</time></trkpt><trkpt lat="45.7204457" lon="9.1018168"><ele>257.0</ele><time>2026-04-22T15:21:55.972Z</time></trkpt><trkpt lat="45.7203971" lon="9.1017421"><ele>257.0</ele><time>2026-04-22T15:21:56.972Z</time></trkpt><trkpt lat="45.7203379" lon="9.1016093"><ele>257.0</ele><time>2026-04-22T15:21:58.972Z</time></trkpt><trkpt lat="45.7203169" lon="9.1014473"><ele>257.0</ele><time>2026-04-22T15:22:00.972Z</time></trkpt><trkpt lat="45.720304" lon="9.1012871"><ele>256.5</ele><time>2026-04-22T15:22:02.973Z</time></trkpt><trkpt lat="45.7202438" lon="9.1011874"><ele>256.0</ele><time>2026-04-22T15:22:04.972Z</time></trkpt><trkpt lat="45.7201306" lon="9.10116"><ele>255.5</ele><time>2026-04-22T15:22:06.972Z</time></trkpt><trkpt lat="45.7200632" lon="9.1011744"><ele>255.0</ele><time>2026-04-22T15:22:07.972Z</time></trkpt><trkpt lat="45.719986" lon="9.1011806"><ele>254.50000000000003</ele><time>2026-04-22T15:22:08.972Z</time></trkpt><trkpt lat="45.7199008" lon="9.1011619"><ele>254.0</ele><time>2026-04-22T15:22:09.972Z</time></trkpt><trkpt lat="45.7198085" lon="9.1011233"><ele>253.25</ele><time>2026-04-22T15:22:10.972Z</time></trkpt><trkpt lat="45.7197092" lon="9.1010755"><ele>252.5</ele><time>2026-04-22T15:22:11.971Z</time></trkpt><trkpt lat="45.7196033" lon="9.1010251"><ele>251.75</ele><time>2026-04-22T15:22:12.972Z</time></trkpt><trkpt lat="45.7194935" lon="9.1009684"><ele>251.0</ele><time>2026-04-22T15:22:13.972Z</time></trkpt><trkpt lat="45.7193793" lon="9.100906"><ele>251.0</ele><time>2026-04-22T15:22:14.972Z</time></trkpt><trkpt lat="45.7192653" lon="9.1008405"><ele>251.0</ele><time>2026-04-22T15:22:15.972Z</time></trkpt><trkpt lat="45.719149" lon="9.1007758"><ele>251.0</ele><time>2026-04-22T15:22:16.972Z</time></trkpt><trkpt lat="45.7190345" lon="9.1007062"><ele>251.0</ele><time>2026-04-22T15:22:17.973Z</time></trkpt><trkpt lat="45.7189189" lon="9.1006384"><ele>250.25</ele><time>2026-04-22T15:22:18.973Z</time></trkpt><trkpt lat="45.7188047" lon="9.1005714"><ele>249.5</ele><time>2026-04-22T15:22:19.971Z</time></trkpt><trkpt lat="45.7186947" lon="9.1005089"><ele>248.75</ele><time>2026-04-22T15:22:20.971Z</time></trkpt><trkpt lat="45.7185891" lon="9.1004489"><ele>248.0</ele><time>2026-04-22T15:22:21.972Z</time></trkpt><trkpt lat="45.7184906" lon="9.1003918"><ele>248.00000000000003</ele><time>2026-04-22T15:22:22.973Z</time></trkpt><trkpt lat="45.7183966" lon="9.1003378"><ele>248.0</ele><time>2026-04-22T15:22:23.971Z</time></trkpt><trkpt lat="45.7183118" lon="9.1002856"><ele>248.0</ele><time>2026-04-22T15:22:24.972Z</time></trkpt><trkpt lat="45.718233" lon="9.100237"><ele>248.0</ele><time>2026-04-22T15:22:25.973Z</time></trkpt><trkpt lat="45.7181624" lon="9.1001978"><ele>248.00000000000003</ele><time>2026-04-22T15:22:26.972Z</time></trkpt><trkpt lat="45.7181008" lon="9.1001621"><ele>248.0</ele><time>2026-04-22T15:22:27.972Z</time></trkpt><trkpt lat="45.7180032" lon="9.1001017"><ele>248.00000000000003</ele><time>2026-04-22T15:22:29.973Z</time></trkpt><trkpt lat="45.7179395" lon="9.1000713"><ele>248.0</ele><time>2026-04-22T15:22:31.972Z</time></trkpt><trkpt lat="45.7178595" lon="9.1000464"><ele>248.0</ele><time>2026-04-22T15:22:53.972Z</time></trkpt><trkpt lat="45.7177509" lon="9.1000136"><ele>248.0</ele><time>2026-04-22T15:22:55.973Z</time></trkpt><trkpt lat="45.717684" lon="9.0999964"><ele>248.00000000000003</ele><time>2026-04-22T15:22:56.972Z</time></trkpt><trkpt lat="45.7176184" lon="9.0999777"><ele>248.0</ele><time>2026-04-22T15:22:57.971Z</time></trkpt><trkpt lat="45.7175518" lon="9.0999589"><ele>248.00000000000003</ele><time>2026-04-22T15:22:58.973Z</time></trkpt><trkpt lat="45.7174815" lon="9.0999434"><ele>248.0</ele><time>2026-04-22T15:22:59.972Z</time></trkpt><trkpt lat="45.717411" lon="9.0999238"><ele>248.0</ele><time>2026-04-22T15:23:00.973Z</time></trkpt><trkpt lat="45.7173357" lon="9.0999024"><ele>248.0</ele><time>2026-04-22T15:23:01.973Z</time></trkpt><trkpt lat="45.717257" lon="9.0998788"><ele>248.00000000000003</ele><time>2026-04-22T15:23:02.973Z</time></trkpt><trkpt lat="45.7171771" lon="9.0998539"><ele>248.0</ele><time>2026-04-22T15:23:03.972Z</time></trkpt><trkpt lat="45.7170924" lon="9.0998296"><ele>248.0</ele><time>2026-04-22T15:23:04.971Z</time></trkpt><trkpt lat="45.7170044" lon="9.0998086"><ele>248.0</ele><time>2026-04-22T15:23:05.973Z</time></trkpt><trkpt lat="45.7169133" lon="9.0997853"><ele>248.0</ele><time>2026-04-22T15:23:06.972Z</time></trkpt><trkpt lat="45.7168216" lon="9.0997634"><ele>248.0</ele><time>2026-04-22T15:23:07.972Z</time></trkpt><trkpt lat="45.7167272" lon="9.0997455"><ele>248.0</ele><time>2026-04-22T15:23:08.972Z</time></trkpt><trkpt lat="45.7166312" lon="9.0997378"><ele>248.60000000000002</ele><time>2026-04-22T15:23:09.972Z</time></trkpt><trkpt lat="45.7165372" lon="9.099737"><ele>249.20000000000002</ele><time>2026-04-22T15:23:10.972Z</time></trkpt><trkpt lat="45.716442" lon="9.0997451"><ele>249.8</ele><time>2026-04-22T15:23:11.972Z</time></trkpt><trkpt lat="45.7163476" lon="9.0997583"><ele>250.4</ele><time>2026-04-22T15:23:12.971Z</time></trkpt><trkpt lat="45.7162528" lon="9.09977"><ele>251.0</ele><time>2026-04-22T15:23:13.972Z</time></trkpt><trkpt lat="45.7161564" lon="9.0997799"><ele>250.8</ele><time>2026-04-22T15:23:14.972Z</time></trkpt><trkpt lat="45.7160533" lon="9.099782"><ele>250.60000000000002</ele><time>2026-04-22T15:23:15.972Z</time></trkpt><trkpt lat="45.715951" lon="9.0997795"><ele>250.4</ele><time>2026-04-22T15:23:16.973Z</time></trkpt><trkpt lat="45.7158485" lon="9.0997723"><ele>250.2</ele><time>2026-04-22T15:23:17.972Z</time></trkpt><trkpt lat="45.7157449" lon="9.0997637"><ele>250.0</ele><time>2026-04-22T15:23:18.972Z</time></trkpt><trkpt lat="45.7156405" lon="9.0997544"><ele>250.0</ele><time>2026-04-22T15:23:19.972Z</time></trkpt><trkpt lat="45.7155337" lon="9.0997431"><ele>250.0</ele><time>2026-04-22T15:23:20.972Z</time></trkpt><trkpt lat="45.7154319" lon="9.0997321"><ele>250.0</ele><time>2026-04-22T15:23:21.972Z</time></trkpt><trkpt lat="45.7153284" lon="9.0997205"><ele>250.0</ele><time>2026-04-22T15:23:22.973Z</time></trkpt><trkpt lat="45.7152212" lon="9.0997095"><ele>250.0</ele><time>2026-04-22T15:23:23.971Z</time></trkpt><trkpt lat="45.7151216" lon="9.0996975"><ele>249.66666666666666</ele><time>2026-04-22T15:23:24.973Z</time></trkpt><trkpt lat="45.7150294" lon="9.0996845"><ele>249.33333333333331</ele><time>2026-04-22T15:23:25.973Z</time></trkpt><trkpt lat="45.7149452" lon="9.0996703"><ele>249.0</ele><time>2026-04-22T15:23:26.972Z</time></trkpt><trkpt lat="45.7148634" lon="9.0996573"><ele>248.66666666666669</ele><time>2026-04-22T15:23:27.973Z</time></trkpt><trkpt lat="45.7147814" lon="9.0996375"><ele>248.33333333333334</ele><time>2026-04-22T15:23:28.972Z</time></trkpt><trkpt lat="45.7146984" lon="9.0996094"><ele>248.0</ele><time>2026-04-22T15:23:29.973Z</time></trkpt><trkpt lat="45.7146105" lon="9.0995739"><ele>248.0</ele><time>2026-04-22T15:23:30.972Z</time></trkpt><trkpt lat="45.7145178" lon="9.0995315"><ele>248.0</ele><time>2026-04-22T15:23:31.972Z</time></trkpt><trkpt lat="45.7144267" lon="9.0994893"><ele>248.0</ele><time>2026-04-22T15:23:32.972Z</time></trkpt><trkpt lat="45.7143309" lon="9.0994448"><ele>248.0</ele><time>2026-04-22T15:23:33.973Z</time></trkpt><trkpt lat="45.7142344" lon="9.0994001"><ele>248.0</ele><time>2026-04-22T15:23:34.972Z</time></trkpt><trkpt lat="45.7141398" lon="9.0993545"><ele>248.2</ele><time>2026-04-22T15:23:35.971Z</time></trkpt><trkpt lat="45.7140422" lon="9.0993065"><ele>248.4</ele><time>2026-04-22T15:23:36.972Z</time></trkpt><trkpt lat="45.7139466" lon="9.0992603"><ele>248.59999999999997</ele><time>2026-04-22T15:23:37.972Z</time></trkpt><trkpt lat="45.7138476" lon="9.0992124"><ele>248.79999999999998</ele><time>2026-04-22T15:23:38.972Z</time></trkpt><trkpt lat="45.713746" lon="9.0991641"><ele>249.0</ele><time>2026-04-22T15:23:39.972Z</time></trkpt><trkpt lat="45.7136496" lon="9.0991204"><ele>249.39999999999998</ele><time>2026-04-22T15:23:40.972Z</time></trkpt><trkpt lat="45.7135509" lon="9.0990829"><ele>249.79999999999998</ele><time>2026-04-22T15:23:41.972Z</time></trkpt><trkpt lat="45.7134552" lon="9.0990572"><ele>250.20000000000002</ele><time>2026-04-22T15:23:42.973Z</time></trkpt><trkpt lat="45.7133583" lon="9.0990422"><ele>250.60000000000002</ele><time>2026-04-22T15:23:43.972Z</time></trkpt><trkpt lat="45.7132548" lon="9.0990336"><ele>251.0</ele><time>2026-04-22T15:23:44.972Z</time></trkpt><trkpt lat="45.7131469" lon="9.0990265"><ele>251.0</ele><time>2026-04-22T15:23:45.973Z</time></trkpt><trkpt lat="45.7130485" lon="9.0990004"><ele>251.00000000000003</ele><time>2026-04-22T15:23:46.973Z</time></trkpt><trkpt lat="45.7129509" lon="9.098954"><ele>251.00000000000003</ele><time>2026-04-22T15:23:47.972Z</time></trkpt><trkpt lat="45.712862" lon="9.0988912"><ele>251.0</ele><time>2026-04-22T15:23:48.972Z</time></trkpt><trkpt lat="45.7127834" lon="9.0988127"><ele>251.0</ele><time>2026-04-22T15:23:49.972Z</time></trkpt><trkpt lat="45.7127136" lon="9.0987141"><ele>251.0</ele><time>2026-04-22T15:23:50.972Z</time></trkpt><trkpt lat="45.7126562" lon="9.0985953"><ele>251.00000000000003</ele><time>2026-04-22T15:23:51.972Z</time></trkpt><trkpt lat="45.7126114" lon="9.0984577"><ele>251.00000000000003</ele><time>2026-04-22T15:23:52.971Z</time></trkpt><trkpt lat="45.7125801" lon="9.0983151"><ele>251.0</ele><time>2026-04-22T15:23:53.972Z</time></trkpt><trkpt lat="45.7125587" lon="9.0981629"><ele>251.0</ele><time>2026-04-22T15:23:54.972Z</time></trkpt><trkpt lat="45.7125518" lon="9.0979928"><ele>252.25</ele><time>2026-04-22T15:23:55.972Z</time></trkpt><trkpt lat="45.7125617" lon="9.0978291"><ele>253.5</ele><time>2026-04-22T15:23:56.973Z</time></trkpt><trkpt lat="45.7125864" lon="9.0976722"><ele>254.75</ele><time>2026-04-22T15:23:57.971Z</time></trkpt><trkpt lat="45.7126275" lon="9.0975177"><ele>256.0</ele><time>2026-04-22T15:23:58.972Z</time></trkpt><trkpt lat="45.712684" lon="9.0973701"><ele>258.25</ele><time>2026-04-22T15:23:59.972Z</time></trkpt><trkpt lat="45.7127569" lon="9.0972293"><ele>260.5</ele><time>2026-04-22T15:24:00.973Z</time></trkpt><trkpt lat="45.7128379" lon="9.0971079"><ele>262.75</ele><time>2026-04-22T15:24:01.972Z</time></trkpt><trkpt lat="45.7129243" lon="9.0970008"><ele>265.0</ele><time>2026-04-22T15:24:02.972Z</time></trkpt><trkpt lat="45.7130304" lon="9.0969066"><ele>265.0</ele><time>2026-04-22T15:24:03.972Z</time></trkpt><trkpt lat="45.7131422" lon="9.0968368"><ele>265.0</ele><time>2026-04-22T15:24:04.972Z</time></trkpt><trkpt lat="45.7132619" lon="9.0967803"><ele>265.0</ele><time>2026-04-22T15:24:05.972Z</time></trkpt><trkpt lat="45.7133962" lon="9.0967259"><ele>265.0</ele><time>2026-04-22T15:24:06.973Z</time></trkpt><trkpt lat="45.7135351" lon="9.0966737"><ele>265.5</ele><time>2026-04-22T15:24:07.972Z</time></trkpt><trkpt lat="45.7136745" lon="9.0966225"><ele>266.0</ele><time>2026-04-22T15:24:08.973Z</time></trkpt><trkpt lat="45.7138065" lon="9.0965753"><ele>266.5</ele><time>2026-04-22T15:24:09.972Z</time></trkpt><trkpt lat="45.7139328" lon="9.0965333"><ele>267.0</ele><time>2026-04-22T15:24:10.972Z</time></trkpt><trkpt lat="45.7140535" lon="9.096492"><ele>267.0</ele><time>2026-04-22T15:24:11.972Z</time></trkpt><trkpt lat="45.7141579" lon="9.0964466"><ele>267.0</ele><time>2026-04-22T15:24:12.973Z</time></trkpt><trkpt lat="45.7142505" lon="9.0963873"><ele>267.0</ele><time>2026-04-22T15:24:13.973Z</time></trkpt><trkpt lat="45.71433" lon="9.0963149"><ele>267.0</ele><time>2026-04-22T15:24:14.972Z</time></trkpt><trkpt lat="45.7143816" lon="9.0962441"><ele>267.0</ele><time>2026-04-22T15:24:15.973Z</time></trkpt><trkpt lat="45.7144625" lon="9.096098"><ele>266.5</ele><time>2026-04-22T15:24:16.973Z</time></trkpt><trkpt lat="45.7145016" lon="9.0959784"><ele>266.0</ele><time>2026-04-22T15:24:17.972Z</time></trkpt><trkpt lat="45.7145244" lon="9.0958541"><ele>265.5</ele><time>2026-04-22T15:24:18.973Z</time></trkpt><trkpt lat="45.7145271" lon="9.0957276"><ele>265.0</ele><time>2026-04-22T15:24:19.972Z</time></trkpt><trkpt lat="45.7145213" lon="9.095609"><ele>264.5</ele><time>2026-04-22T15:24:20.972Z</time></trkpt><trkpt lat="45.7144912" lon="9.0954988"><ele>264.0</ele><time>2026-04-22T15:24:21.971Z</time></trkpt><trkpt lat="45.7144478" lon="9.095393"><ele>267.4</ele><time>2026-04-22T15:24:22.973Z</time></trkpt><trkpt lat="45.7143955" lon="9.0952988"><ele>270.79999999999995</ele><time>2026-04-22T15:24:23.972Z</time></trkpt><trkpt lat="45.7143313" lon="9.0952231"><ele>274.20000000000005</ele><time>2026-04-22T15:24:24.972Z</time></trkpt><trkpt lat="45.7142538" lon="9.0951656"><ele>277.6</ele><time>2026-04-22T15:24:25.972Z</time></trkpt><trkpt lat="45.7141635" lon="9.0951271"><ele>281.0</ele><time>2026-04-22T15:24:26.972Z</time></trkpt><trkpt lat="45.714061" lon="9.0951053"><ele>281.0</ele><time>2026-04-22T15:24:27.973Z</time></trkpt><trkpt lat="45.7139501" lon="9.0950957"><ele>281.0</ele><time>2026-04-22T15:24:28.972Z</time></trkpt><trkpt lat="45.7138254" lon="9.095094"><ele>281.0</ele><time>2026-04-22T15:24:29.972Z</time></trkpt><trkpt lat="45.7136943" lon="9.0950917"><ele>281.0</ele><time>2026-04-22T15:24:30.972Z</time></trkpt><trkpt lat="45.7135527" lon="9.0950892"><ele>283.0</ele><time>2026-04-22T15:24:31.972Z</time></trkpt><trkpt lat="45.7134033" lon="9.0950899"><ele>285.0</ele><time>2026-04-22T15:24:32.971Z</time></trkpt><trkpt lat="45.7132468" lon="9.0950907"><ele>287.0</ele><time>2026-04-22T15:24:33.972Z</time></trkpt><trkpt lat="45.713078" lon="9.0950933"><ele>287.0</ele><time>2026-04-22T15:24:34.973Z</time></trkpt><trkpt lat="45.7129033" lon="9.0950886"><ele>287.0</ele><time>2026-04-22T15:24:35.972Z</time></trkpt><trkpt lat="45.7127229" lon="9.095089"><ele>287.0</ele><time>2026-04-22T15:24:36.973Z</time></trkpt><trkpt lat="45.7125434" lon="9.0950901"><ele>287.0</ele><time>2026-04-22T15:24:37.972Z</time></trkpt><trkpt lat="45.7123685" lon="9.0950936"><ele>287.0</ele><time>2026-04-22T15:24:38.973Z</time></trkpt><trkpt lat="45.7121985" lon="9.0950929"><ele>287.0</ele><time>2026-04-22T15:24:39.972Z</time></trkpt><trkpt lat="45.7120319" lon="9.0950919"><ele>287.6666666666667</ele><time>2026-04-22T15:24:40.971Z</time></trkpt><trkpt lat="45.7118706" lon="9.0950917"><ele>288.3333333333333</ele><time>2026-04-22T15:24:41.972Z</time></trkpt><trkpt lat="45.7117094" lon="9.0950952"><ele>289.0</ele><time>2026-04-22T15:24:42.972Z</time></trkpt><trkpt lat="45.7115637" lon="9.0950998"><ele>289.0</ele><time>2026-04-22T15:24:43.972Z</time></trkpt><trkpt lat="45.711424" lon="9.0951095"><ele>289.0</ele><time>2026-04-22T15:24:44.973Z</time></trkpt><trkpt lat="45.7112937" lon="9.0951105"><ele>289.0</ele><time>2026-04-22T15:24:45.972Z</time></trkpt><trkpt lat="45.7111673" lon="9.0951115"><ele>289.0</ele><time>2026-04-22T15:24:46.972Z</time></trkpt><trkpt lat="45.711046" lon="9.0951099"><ele>290.0</ele><time>2026-04-22T15:24:47.972Z</time></trkpt><trkpt lat="45.7109268" lon="9.0951081"><ele>291.0</ele><time>2026-04-22T15:24:48.973Z</time></trkpt><trkpt lat="45.7108078" lon="9.0951127"><ele>292.0</ele><time>2026-04-22T15:24:49.973Z</time></trkpt><trkpt lat="45.7106926" lon="9.0951156"><ele>293.0</ele><time>2026-04-22T15:24:50.972Z</time></trkpt><trkpt lat="45.7105816" lon="9.0951192"><ele>293.0</ele><time>2026-04-22T15:24:51.973Z</time></trkpt><trkpt lat="45.7104759" lon="9.0951082"><ele>293.0</ele><time>2026-04-22T15:24:52.972Z</time></trkpt><trkpt lat="45.7103756" lon="9.0950849"><ele>293.0</ele><time>2026-04-22T15:24:53.972Z</time></trkpt><trkpt lat="45.7102814" lon="9.0950343"><ele>293.0</ele><time>2026-04-22T15:24:54.973Z</time></trkpt><trkpt lat="45.7101965" lon="9.0949586"><ele>293.0</ele><time>2026-04-22T15:24:55.973Z</time></trkpt><trkpt lat="45.7101296" lon="9.0948682"><ele>293.6</ele><time>2026-04-22T15:24:56.971Z</time></trkpt><trkpt lat="45.7100714" lon="9.0947569"><ele>294.20000000000005</ele><time>2026-04-22T15:24:57.971Z</time></trkpt><trkpt lat="45.7100257" lon="9.0946354"><ele>294.8</ele><time>2026-04-22T15:24:58.973Z</time></trkpt><trkpt lat="45.7099913" lon="9.0944967"><ele>295.40000000000003</ele><time>2026-04-22T15:24:59.973Z</time></trkpt><trkpt lat="45.7099771" lon="9.0943422"><ele>296.0</ele><time>2026-04-22T15:25:00.971Z</time></trkpt><trkpt lat="45.7099607" lon="9.0941668"><ele>296.2</ele><time>2026-04-22T15:25:01.972Z</time></trkpt><trkpt lat="45.7099452" lon="9.0940089"><ele>296.40000000000003</ele><time>2026-04-22T15:25:02.973Z</time></trkpt><trkpt lat="45.7099237" lon="9.0938609"><ele>296.6</ele><time>2026-04-22T15:25:03.972Z</time></trkpt><trkpt lat="45.7098825" lon="9.0937245"><ele>296.8</ele><time>2026-04-22T15:25:04.972Z</time></trkpt><trkpt lat="45.7098275" lon="9.0936006"><ele>297.0</ele><time>2026-04-22T15:25:05.972Z</time></trkpt><trkpt lat="45.7097557" lon="9.0934906"><ele>297.0</ele><time>2026-04-22T15:25:06.972Z</time></trkpt><trkpt lat="45.7096753" lon="9.0933808"><ele>297.0</ele><time>2026-04-22T15:25:07.971Z</time></trkpt><trkpt lat="45.7095913" lon="9.0932782"><ele>297.0</ele><time>2026-04-22T15:25:08.971Z</time></trkpt><trkpt lat="45.7095102" lon="9.0931817"><ele>297.0</ele><time>2026-04-22T15:25:09.972Z</time></trkpt><trkpt lat="45.709426" lon="9.0931009"><ele>297.0</ele><time>2026-04-22T15:25:10.972Z</time></trkpt><trkpt lat="45.709335" lon="9.0930466"><ele>300.4</ele><time>2026-04-22T15:25:11.973Z</time></trkpt><trkpt lat="45.7092387" lon="9.0930221"><ele>303.79999999999995</ele><time>2026-04-22T15:25:12.972Z</time></trkpt><trkpt lat="45.7091413" lon="9.0930274"><ele>307.2</ele><time>2026-04-22T15:25:13.972Z</time></trkpt><trkpt lat="45.7090427" lon="9.0930609"><ele>310.59999999999997</ele><time>2026-04-22T15:25:14.973Z</time></trkpt><trkpt lat="45.7089376" lon="9.093118"><ele>314.0</ele><time>2026-04-22T15:25:15.972Z</time></trkpt><trkpt lat="45.7088243" lon="9.0931854"><ele>312.5</ele><time>2026-04-22T15:25:16.971Z</time></trkpt><trkpt lat="45.7087024" lon="9.0932579"><ele>311.0</ele><time>2026-04-22T15:25:17.971Z</time></trkpt><trkpt lat="45.7085752" lon="9.0933346"><ele>309.5</ele><time>2026-04-22T15:25:18.973Z</time></trkpt><trkpt lat="45.7084438" lon="9.0934057"><ele>308.0</ele><time>2026-04-22T15:25:19.972Z</time></trkpt><trkpt lat="45.7083101" lon="9.0934629"><ele>308.0</ele><time>2026-04-22T15:25:20.972Z</time></trkpt><trkpt lat="45.70817" lon="9.0935076"><ele>308.0</ele><time>2026-04-22T15:25:21.972Z</time></trkpt><trkpt lat="45.7080241" lon="9.0935435"><ele>308.0</ele><time>2026-04-22T15:25:22.972Z</time></trkpt><trkpt lat="45.7078799" lon="9.0935774"><ele>308.0</ele><time>2026-04-22T15:25:23.973Z</time></trkpt><trkpt lat="45.7077403" lon="9.0936089"><ele>308.75</ele><time>2026-04-22T15:25:24.972Z</time></trkpt><trkpt lat="45.7076055" lon="9.093636"><ele>309.5</ele><time>2026-04-22T15:25:25.971Z</time></trkpt><trkpt lat="45.7074759" lon="9.0936638"><ele>310.25</ele><time>2026-04-22T15:25:26.972Z</time></trkpt><trkpt lat="45.7073528" lon="9.0936868"><ele>311.0</ele><time>2026-04-22T15:25:27.972Z</time></trkpt><trkpt lat="45.7072333" lon="9.093714"><ele>311.0</ele><time>2026-04-22T15:25:28.972Z</time></trkpt><trkpt lat="45.707117" lon="9.0937404"><ele>311.0</ele><time>2026-04-22T15:25:29.973Z</time></trkpt><trkpt lat="45.7070014" lon="9.0937503"><ele>311.0</ele><time>2026-04-22T15:25:30.972Z</time></trkpt><trkpt lat="45.7068892" lon="9.0937547"><ele>311.0</ele><time>2026-04-22T15:25:31.973Z</time></trkpt><trkpt lat="45.7067793" lon="9.0937562"><ele>311.40000000000003</ele><time>2026-04-22T15:25:32.972Z</time></trkpt><trkpt lat="45.7066688" lon="9.0937498"><ele>311.8</ele><time>2026-04-22T15:25:33.971Z</time></trkpt><trkpt lat="45.7065569" lon="9.0937431"><ele>312.20000000000005</ele><time>2026-04-22T15:25:34.973Z</time></trkpt><trkpt lat="45.7064477" lon="9.0937401"><ele>312.6</ele><time>2026-04-22T15:25:35.972Z</time></trkpt><trkpt lat="45.7063421" lon="9.0937345"><ele>313.0</ele><time>2026-04-22T15:25:36.972Z</time></trkpt><trkpt lat="45.7062361" lon="9.0937418"><ele>313.0</ele><time>2026-04-22T15:25:37.972Z</time></trkpt><trkpt lat="45.7061356" lon="9.093763"><ele>313.0</ele><time>2026-04-22T15:25:38.973Z</time></trkpt><trkpt lat="45.7060388" lon="9.0937888"><ele>313.0</ele><time>2026-04-22T15:25:39.972Z</time></trkpt><trkpt lat="45.7059439" lon="9.0938255"><ele>313.0</ele><time>2026-04-22T15:25:40.972Z</time></trkpt><trkpt lat="45.7058546" lon="9.0938669"><ele>313.0</ele><time>2026-04-22T15:25:41.972Z</time></trkpt><trkpt lat="45.7057703" lon="9.0939129"><ele>312.57142857142856</ele><time>2026-04-22T15:25:42.971Z</time></trkpt><trkpt lat="45.705693" lon="9.0939559"><ele>312.14285714285717</ele><time>2026-04-22T15:25:43.971Z</time></trkpt><trkpt lat="45.705619" lon="9.0939951"><ele>311.7142857142857</ele><time>2026-04-22T15:25:44.973Z</time></trkpt><trkpt lat="45.7055477" lon="9.0940333"><ele>311.2857142857143</ele><time>2026-04-22T15:25:45.973Z</time></trkpt><trkpt lat="45.7054806" lon="9.0940696"><ele>310.85714285714283</ele><time>2026-04-22T15:25:46.973Z</time></trkpt><trkpt lat="45.7054159" lon="9.0941024"><ele>310.42857142857144</ele><time>2026-04-22T15:25:47.972Z</time></trkpt><trkpt lat="45.70535" lon="9.0941251"><ele>310.0</ele><time>2026-04-22T15:25:48.973Z</time></trkpt><trkpt lat="45.7052299" lon="9.0941429"><ele>309.2</ele><time>2026-04-22T15:25:50.972Z</time></trkpt><trkpt lat="45.7051158" lon="9.0941092"><ele>308.4</ele><time>2026-04-22T15:25:52.972Z</time></trkpt><trkpt lat="45.7050574" lon="9.0940604"><ele>307.6</ele><time>2026-04-22T15:25:53.971Z</time></trkpt><trkpt lat="45.7050052" lon="9.0940014"><ele>306.8</ele><time>2026-04-22T15:25:54.972Z</time></trkpt><trkpt lat="45.7049305" lon="9.0938704"><ele>306.0</ele><time>2026-04-22T15:25:56.971Z</time></trkpt><trkpt lat="45.7048883" lon="9.0937477"><ele>305.6</ele><time>2026-04-22T15:25:58.973Z</time></trkpt><trkpt lat="45.7048668" lon="9.0936622"><ele>305.20000000000005</ele><time>2026-04-22T15:26:01.973Z</time></trkpt><trkpt lat="45.7048443" lon="9.0935478"><ele>304.79999999999995</ele><time>2026-04-22T15:26:17.973Z</time></trkpt><trkpt lat="45.7048181" lon="9.0934121"><ele>304.4</ele><time>2026-04-22T15:26:19.972Z</time></trkpt><trkpt lat="45.7047799" lon="9.0932546"><ele>304.0</ele><time>2026-04-22T15:26:21.972Z</time></trkpt><trkpt lat="45.7047414" lon="9.0930935"><ele>303.5</ele><time>2026-04-22T15:26:23.971Z</time></trkpt><trkpt lat="45.7047015" lon="9.0929198"><ele>303.0</ele><time>2026-04-22T15:26:25.972Z</time></trkpt><trkpt lat="45.7046802" lon="9.0928247"><ele>302.5</ele><time>2026-04-22T15:26:26.972Z</time></trkpt><trkpt lat="45.7046615" lon="9.092731"><ele>302.0</ele><time>2026-04-22T15:26:27.971Z</time></trkpt><trkpt lat="45.7046424" lon="9.0926402"><ele>301.5</ele><time>2026-04-22T15:26:28.972Z</time></trkpt><trkpt lat="45.704621" lon="9.0925444"><ele>301.0</ele><time>2026-04-22T15:26:29.971Z</time></trkpt><trkpt lat="45.7046014" lon="9.0924459"><ele>300.66666666666663</ele><time>2026-04-22T15:26:30.972Z</time></trkpt><trkpt lat="45.7045789" lon="9.0923429"><ele>300.3333333333333</ele><time>2026-04-22T15:26:31.972Z</time></trkpt><trkpt lat="45.7045592" lon="9.0922397"><ele>300.0</ele><time>2026-04-22T15:26:32.971Z</time></trkpt><trkpt lat="45.7045386" lon="9.092132"><ele>299.6666666666667</ele><time>2026-04-22T15:26:33.971Z</time></trkpt><trkpt lat="45.7045167" lon="9.0920264"><ele>299.33333333333337</ele><time>2026-04-22T15:26:34.972Z</time></trkpt><trkpt lat="45.7044951" lon="9.0919138"><ele>299.0</ele><time>2026-04-22T15:26:35.972Z</time></trkpt><trkpt lat="45.7044733" lon="9.0918069"><ele>299.0</ele><time>2026-04-22T15:26:36.97Z</time></trkpt><trkpt lat="45.7044553" lon="9.0917125"><ele>299.0</ele><time>2026-04-22T15:26:37.972Z</time></trkpt><trkpt lat="45.7044456" lon="9.0916166"><ele>299.0</ele><time>2026-04-22T15:26:38.971Z</time></trkpt><trkpt lat="45.7044415" lon="9.0915207"><ele>299.0</ele><time>2026-04-22T15:26:39.971Z</time></trkpt><trkpt lat="45.7044455" lon="9.0914197"><ele>299.0</ele><time>2026-04-22T15:26:40.971Z</time></trkpt><trkpt lat="45.7044524" lon="9.09132"><ele>299.0</ele><time>2026-04-22T15:26:41.972Z</time></trkpt><trkpt lat="45.7044502" lon="9.0911502"><ele>298.8</ele><time>2026-04-22T15:26:43.971Z</time></trkpt><trkpt lat="45.7043918" lon="9.0910125"><ele>298.59999999999997</ele><time>2026-04-22T15:26:45.971Z</time></trkpt><trkpt lat="45.7042909" lon="9.0908947"><ele>298.4</ele><time>2026-04-22T15:26:47.971Z</time></trkpt><trkpt lat="45.7042493" lon="9.090801"><ele>298.2</ele><time>2026-04-22T15:26:48.972Z</time></trkpt><trkpt lat="45.7042151" lon="9.0906892"><ele>298.0</ele><time>2026-04-22T15:26:49.972Z</time></trkpt><trkpt lat="45.7041792" lon="9.0905629"><ele>298.0</ele><time>2026-04-22T15:26:50.971Z</time></trkpt><trkpt lat="45.7041437" lon="9.090433"><ele>298.0</ele><time>2026-04-22T15:26:51.971Z</time></trkpt><trkpt lat="45.7041098" lon="9.0902971"><ele>298.0</ele><time>2026-04-22T15:26:52.971Z</time></trkpt><trkpt lat="45.7040762" lon="9.0901544"><ele>298.0</ele><time>2026-04-22T15:26:53.97Z</time></trkpt><trkpt lat="45.7040455" lon="9.0900141"><ele>298.0</ele><time>2026-04-22T15:26:54.97Z</time></trkpt><trkpt lat="45.7040163" lon="9.0898691"><ele>297.8</ele><time>2026-04-22T15:26:55.971Z</time></trkpt><trkpt lat="45.7039813" lon="9.0897248"><ele>297.6</ele><time>2026-04-22T15:26:56.971Z</time></trkpt><trkpt lat="45.7039477" lon="9.0895826"><ele>297.4</ele><time>2026-04-22T15:26:57.97Z</time></trkpt><trkpt lat="45.7039081" lon="9.0894396"><ele>297.2</ele><time>2026-04-22T15:26:58.971Z</time></trkpt><trkpt lat="45.7038829" lon="9.0892944"><ele>297.0</ele><time>2026-04-22T15:26:59.972Z</time></trkpt><trkpt lat="45.7038552" lon="9.0891524"><ele>296.8</ele><time>2026-04-22T15:27:00.972Z</time></trkpt><trkpt lat="45.7038212" lon="9.0890079"><ele>296.6</ele><time>2026-04-22T15:27:01.972Z</time></trkpt><trkpt lat="45.7037834" lon="9.0888618"><ele>296.40000000000003</ele><time>2026-04-22T15:27:02.971Z</time></trkpt><trkpt lat="45.7037497" lon="9.0887176"><ele>296.2</ele><time>2026-04-22T15:27:03.971Z</time></trkpt><trkpt lat="45.703715" lon="9.0885721"><ele>296.0</ele><time>2026-04-22T15:27:04.97Z</time></trkpt><trkpt lat="45.7036839" lon="9.0884198"><ele>296.0</ele><time>2026-04-22T15:27:05.971Z</time></trkpt><trkpt lat="45.7036507" lon="9.0882723"><ele>296.0</ele><time>2026-04-22T15:27:06.971Z</time></trkpt><trkpt lat="45.7036161" lon="9.0881272"><ele>296.0</ele><time>2026-04-22T15:27:07.971Z</time></trkpt><trkpt lat="45.7035794" lon="9.0879804"><ele>296.0</ele><time>2026-04-22T15:27:08.972Z</time></trkpt><trkpt lat="45.7035494" lon="9.0878299"><ele>296.0</ele><time>2026-04-22T15:27:09.971Z</time></trkpt><trkpt lat="45.7035148" lon="9.0876831"><ele>296.40000000000003</ele><time>2026-04-22T15:27:10.971Z</time></trkpt><trkpt lat="45.7034832" lon="9.087536"><ele>296.8</ele><time>2026-04-22T15:27:11.972Z</time></trkpt><trkpt lat="45.7034488" lon="9.0873928"><ele>297.20000000000005</ele><time>2026-04-22T15:27:12.971Z</time></trkpt><trkpt lat="45.7034167" lon="9.0872462"><ele>297.6</ele><time>2026-04-22T15:27:13.971Z</time></trkpt><trkpt lat="45.7033863" lon="9.0870977"><ele>298.0</ele><time>2026-04-22T15:27:14.971Z</time></trkpt><trkpt lat="45.703358" lon="9.0869552"><ele>298.4</ele><time>2026-04-22T15:27:15.971Z</time></trkpt><trkpt lat="45.7033263" lon="9.0868127"><ele>298.8</ele><time>2026-04-22T15:27:16.971Z</time></trkpt><trkpt lat="45.703291" lon="9.0866688"><ele>299.2</ele><time>2026-04-22T15:27:17.97Z</time></trkpt><trkpt lat="45.7032555" lon="9.0865207"><ele>299.6</ele><time>2026-04-22T15:27:18.972Z</time></trkpt><trkpt lat="45.7032224" lon="9.0863654"><ele>300.0</ele><time>2026-04-22T15:27:19.971Z</time></trkpt><trkpt lat="45.7031874" lon="9.0862038"><ele>300.25</ele><time>2026-04-22T15:27:20.972Z</time></trkpt><trkpt lat="45.7031496" lon="9.0860481"><ele>300.5</ele><time>2026-04-22T15:27:21.971Z</time></trkpt><trkpt lat="45.7031156" lon="9.0858864"><ele>300.75</ele><time>2026-04-22T15:27:22.97Z</time></trkpt><trkpt lat="45.7030804" lon="9.0857315"><ele>301.0</ele><time>2026-04-22T15:27:23.971Z</time></trkpt><trkpt lat="45.7030491" lon="9.0855865"><ele>301.2</ele><time>2026-04-22T15:27:24.971Z</time></trkpt><trkpt lat="45.7030222" lon="9.0854508"><ele>301.40000000000003</ele><time>2026-04-22T15:27:25.972Z</time></trkpt><trkpt lat="45.702997" lon="9.0853307"><ele>301.6</ele><time>2026-04-22T15:27:26.971Z</time></trkpt><trkpt lat="45.7029763" lon="9.0852289"><ele>301.8</ele><time>2026-04-22T15:27:27.972Z</time></trkpt><trkpt lat="45.7029565" lon="9.0851372"><ele>302.0</ele><time>2026-04-22T15:27:28.97Z</time></trkpt><trkpt lat="45.70292" lon="9.084967"><ele>302.0</ele><time>2026-04-22T15:27:30.971Z</time></trkpt><trkpt lat="45.7028978" lon="9.0848701"><ele>302.0</ele><time>2026-04-22T15:27:31.971Z</time></trkpt><trkpt lat="45.702874" lon="9.0847653"><ele>302.0</ele><time>2026-04-22T15:27:32.971Z</time></trkpt><trkpt lat="45.7028491" lon="9.0846484"><ele>302.0</ele><time>2026-04-22T15:27:33.971Z</time></trkpt><trkpt lat="45.7028196" lon="9.0845201"><ele>302.0</ele><time>2026-04-22T15:27:34.972Z</time></trkpt><trkpt lat="45.702789" lon="9.0843845"><ele>302.0</ele><time>2026-04-22T15:27:35.972Z</time></trkpt><trkpt lat="45.7027593" lon="9.0842385"><ele>302.2</ele><time>2026-04-22T15:27:36.971Z</time></trkpt><trkpt lat="45.7027287" lon="9.0840923"><ele>302.4</ele><time>2026-04-22T15:27:37.971Z</time></trkpt><trkpt lat="45.7026959" lon="9.083944"><ele>302.6</ele><time>2026-04-22T15:27:38.971Z</time></trkpt><trkpt lat="45.7026614" lon="9.0837922"><ele>302.8</ele><time>2026-04-22T15:27:39.97Z</time></trkpt><trkpt lat="45.7026267" lon="9.0836372"><ele>303.0</ele><time>2026-04-22T15:27:40.972Z</time></trkpt><trkpt lat="45.7025926" lon="9.0834853"><ele>303.0</ele><time>2026-04-22T15:27:41.971Z</time></trkpt><trkpt lat="45.7025595" lon="9.0833319"><ele>303.0</ele><time>2026-04-22T15:27:42.972Z</time></trkpt><trkpt lat="45.7025255" lon="9.0831831"><ele>303.0</ele><time>2026-04-22T15:27:43.971Z</time></trkpt><trkpt lat="45.7024906" lon="9.0830362"><ele>303.0</ele><time>2026-04-22T15:27:44.971Z</time></trkpt><trkpt lat="45.702457" lon="9.0828914"><ele>303.0</ele><time>2026-04-22T15:27:45.971Z</time></trkpt><trkpt lat="45.702424" lon="9.0827462"><ele>303.2</ele><time>2026-04-22T15:27:46.971Z</time></trkpt><trkpt lat="45.7023908" lon="9.0826056"><ele>303.4</ele><time>2026-04-22T15:27:47.972Z</time></trkpt><trkpt lat="45.7023603" lon="9.0824666"><ele>303.59999999999997</ele><time>2026-04-22T15:27:48.97Z</time></trkpt><trkpt lat="45.7023277" lon="9.0823348"><ele>303.8</ele><time>2026-04-22T15:27:49.972Z</time></trkpt><trkpt lat="45.7022977" lon="9.0822133"><ele>304.0</ele><time>2026-04-22T15:27:50.971Z</time></trkpt><trkpt lat="45.7022726" lon="9.0820983"><ele>304.0</ele><time>2026-04-22T15:27:51.971Z</time></trkpt><trkpt lat="45.7022506" lon="9.0819927"><ele>304.0</ele><time>2026-04-22T15:27:52.972Z</time></trkpt><trkpt lat="45.7022311" lon="9.0818971"><ele>304.0</ele><time>2026-04-22T15:27:53.971Z</time></trkpt><trkpt lat="45.702201" lon="9.0817541"><ele>304.0</ele><time>2026-04-22T15:27:55.972Z</time></trkpt><trkpt lat="45.7021764" lon="9.0816404"><ele>304.0</ele><time>2026-04-22T15:27:58.971Z</time></trkpt><trkpt lat="45.7021437" lon="9.0815034"><ele>304.0</ele><time>2026-04-22T15:28:05.971Z</time></trkpt><trkpt lat="45.7021132" lon="9.0813561"><ele>303.7142857142857</ele><time>2026-04-22T15:28:07.972Z</time></trkpt><trkpt lat="45.702092" lon="9.0812674"><ele>303.42857142857144</ele><time>2026-04-22T15:28:08.972Z</time></trkpt><trkpt lat="45.7020717" lon="9.0811765"><ele>303.14285714285717</ele><time>2026-04-22T15:28:09.971Z</time></trkpt><trkpt lat="45.7020488" lon="9.0810804"><ele>302.8571428571429</ele><time>2026-04-22T15:28:10.971Z</time></trkpt><trkpt lat="45.7020258" lon="9.0809779"><ele>302.57142857142856</ele><time>2026-04-22T15:28:11.97Z</time></trkpt><trkpt lat="45.7020031" lon="9.0808714"><ele>302.28571428571433</ele><time>2026-04-22T15:28:12.971Z</time></trkpt><trkpt lat="45.701978" lon="9.0807649"><ele>302.0</ele><time>2026-04-22T15:28:13.971Z</time></trkpt><trkpt lat="45.7019536" lon="9.0806494"><ele>301.8</ele><time>2026-04-22T15:28:14.97Z</time></trkpt><trkpt lat="45.7019246" lon="9.0805301"><ele>301.6</ele><time>2026-04-22T15:28:15.971Z</time></trkpt><trkpt lat="45.7018932" lon="9.0804019"><ele>301.40000000000003</ele><time>2026-04-22T15:28:16.97Z</time></trkpt><trkpt lat="45.7018602" lon="9.0802701"><ele>301.2</ele><time>2026-04-22T15:28:17.972Z</time></trkpt><trkpt lat="45.7018286" lon="9.0801317"><ele>301.0</ele><time>2026-04-22T15:28:18.972Z</time></trkpt><trkpt lat="45.7017994" lon="9.0799904"><ele>301.2</ele><time>2026-04-22T15:28:19.971Z</time></trkpt><trkpt lat="45.7017706" lon="9.0798401"><ele>301.40000000000003</ele><time>2026-04-22T15:28:20.971Z</time></trkpt><trkpt lat="45.7017375" lon="9.0796921"><ele>301.6</ele><time>2026-04-22T15:28:21.971Z</time></trkpt><trkpt lat="45.7017038" lon="9.0795519"><ele>301.8</ele><time>2026-04-22T15:28:22.97Z</time></trkpt><trkpt lat="45.7016689" lon="9.0794084"><ele>302.0</ele><time>2026-04-22T15:28:23.971Z</time></trkpt><trkpt lat="45.7016339" lon="9.0792615"><ele>302.0</ele><time>2026-04-22T15:28:24.971Z</time></trkpt><trkpt lat="45.7016" lon="9.0791143"><ele>302.0</ele><time>2026-04-22T15:28:25.971Z</time></trkpt><trkpt lat="45.7015672" lon="9.0789651"><ele>302.0</ele><time>2026-04-22T15:28:26.971Z</time></trkpt><trkpt lat="45.7015355" lon="9.0788171"><ele>302.0</ele><time>2026-04-22T15:28:27.971Z</time></trkpt><trkpt lat="45.7015021" lon="9.0786702"><ele>302.0</ele><time>2026-04-22T15:28:28.97Z</time></trkpt><trkpt lat="45.7014648" lon="9.0785163"><ele>301.8</ele><time>2026-04-22T15:28:29.972Z</time></trkpt><trkpt lat="45.7014381" lon="9.078379"><ele>301.6</ele><time>2026-04-22T15:28:30.971Z</time></trkpt><trkpt lat="45.7014051" lon="9.0782377"><ele>301.40000000000003</ele><time>2026-04-22T15:28:31.971Z</time></trkpt><trkpt lat="45.7013773" lon="9.078095"><ele>301.2</ele><time>2026-04-22T15:28:32.972Z</time></trkpt><trkpt lat="45.7013353" lon="9.0779598"><ele>301.0</ele><time>2026-04-22T15:28:33.972Z</time></trkpt><trkpt lat="45.7013034" lon="9.0778211"><ele>300.8</ele><time>2026-04-22T15:28:34.971Z</time></trkpt><trkpt lat="45.7012719" lon="9.0776825"><ele>300.6</ele><time>2026-04-22T15:28:35.97Z</time></trkpt><trkpt lat="45.7012381" lon="9.07755"><ele>300.4</ele><time>2026-04-22T15:28:36.972Z</time></trkpt><trkpt lat="45.7012094" lon="9.0774116"><ele>300.2</ele><time>2026-04-22T15:28:37.971Z</time></trkpt><trkpt lat="45.7011832" lon="9.0772747"><ele>300.0</ele><time>2026-04-22T15:28:38.971Z</time></trkpt><trkpt lat="45.7011477" lon="9.0771371"><ele>300.4</ele><time>2026-04-22T15:28:39.972Z</time></trkpt><trkpt lat="45.7011164" lon="9.0769939"><ele>300.8</ele><time>2026-04-22T15:28:40.972Z</time></trkpt><trkpt lat="45.7010839" lon="9.0768505"><ele>301.2</ele><time>2026-04-22T15:28:41.972Z</time></trkpt><trkpt lat="45.7010477" lon="9.0766997"><ele>301.6</ele><time>2026-04-22T15:28:42.972Z</time></trkpt><trkpt lat="45.7010084" lon="9.0765483"><ele>302.0</ele><time>2026-04-22T15:28:43.971Z</time></trkpt><trkpt lat="45.7009608" lon="9.0763941"><ele>302.5</ele><time>2026-04-22T15:28:44.972Z</time></trkpt><trkpt lat="45.700895" lon="9.0762547"><ele>303.0</ele><time>2026-04-22T15:28:45.972Z</time></trkpt><trkpt lat="45.7008304" lon="9.0761104"><ele>303.5</ele><time>2026-04-22T15:28:46.971Z</time></trkpt><trkpt lat="45.7007649" lon="9.0759663"><ele>304.0</ele><time>2026-04-22T15:28:47.972Z</time></trkpt><trkpt lat="45.7006941" lon="9.0758231"><ele>304.25</ele><time>2026-04-22T15:28:48.971Z</time></trkpt><trkpt lat="45.700617" lon="9.0756815"><ele>304.5</ele><time>2026-04-22T15:28:49.972Z</time></trkpt><trkpt lat="45.7005414" lon="9.0755389"><ele>304.75</ele><time>2026-04-22T15:28:50.971Z</time></trkpt><trkpt lat="45.7004661" lon="9.0753988"><ele>305.0</ele><time>2026-04-22T15:28:51.972Z</time></trkpt><trkpt lat="45.7003887" lon="9.075257"><ele>305.0</ele><time>2026-04-22T15:28:52.971Z</time></trkpt><trkpt lat="45.7003104" lon="9.0751131"><ele>305.0</ele><time>2026-04-22T15:28:53.972Z</time></trkpt><trkpt lat="45.7002312" lon="9.0749677"><ele>305.0</ele><time>2026-04-22T15:28:54.972Z</time></trkpt><trkpt lat="45.7001523" lon="9.0748191"><ele>305.0</ele><time>2026-04-22T15:28:55.97Z</time></trkpt><trkpt lat="45.7000753" lon="9.0746696"><ele>304.75</ele><time>2026-04-22T15:28:56.971Z</time></trkpt><trkpt lat="45.6999991" lon="9.0745235"><ele>304.5</ele><time>2026-04-22T15:28:57.971Z</time></trkpt><trkpt lat="45.6999249" lon="9.0743812"><ele>304.25</ele><time>2026-04-22T15:28:58.971Z</time></trkpt><trkpt lat="45.699852" lon="9.0742427"><ele>304.0</ele><time>2026-04-22T15:28:59.972Z</time></trkpt><trkpt lat="45.699783" lon="9.0741098"><ele>304.0</ele><time>2026-04-22T15:29:00.971Z</time></trkpt><trkpt lat="45.6997167" lon="9.0739767"><ele>304.0</ele><time>2026-04-22T15:29:01.972Z</time></trkpt><trkpt lat="45.6996516" lon="9.0738451"><ele>304.0</ele><time>2026-04-22T15:29:02.971Z</time></trkpt><trkpt lat="45.6995887" lon="9.0737067"><ele>304.0</ele><time>2026-04-22T15:29:03.97Z</time></trkpt><trkpt lat="45.6995264" lon="9.0735655"><ele>304.0</ele><time>2026-04-22T15:29:04.971Z</time></trkpt><trkpt lat="45.6994654" lon="9.0734243"><ele>304.0</ele><time>2026-04-22T15:29:05.97Z</time></trkpt><trkpt lat="45.699403" lon="9.0732812"><ele>304.0</ele><time>2026-04-22T15:29:06.972Z</time></trkpt><trkpt lat="45.6993411" lon="9.0731358"><ele>304.0</ele><time>2026-04-22T15:29:07.971Z</time></trkpt><trkpt lat="45.6992799" lon="9.0729885"><ele>302.5</ele><time>2026-04-22T15:29:08.971Z</time></trkpt><trkpt lat="45.699218" lon="9.0728417"><ele>301.0</ele><time>2026-04-22T15:29:09.971Z</time></trkpt><trkpt lat="45.699156" lon="9.0726976"><ele>299.5</ele><time>2026-04-22T15:29:10.97Z</time></trkpt><trkpt lat="45.6990962" lon="9.0725584"><ele>298.0</ele><time>2026-04-22T15:29:11.97Z</time></trkpt><trkpt lat="45.6990373" lon="9.0724218"><ele>297.8</ele><time>2026-04-22T15:29:12.971Z</time></trkpt><trkpt lat="45.6989805" lon="9.0722861"><ele>297.6</ele><time>2026-04-22T15:29:13.971Z</time></trkpt><trkpt lat="45.6989259" lon="9.0721496"><ele>297.4</ele><time>2026-04-22T15:29:14.971Z</time></trkpt><trkpt lat="45.6988703" lon="9.0720127"><ele>297.2</ele><time>2026-04-22T15:29:15.971Z</time></trkpt><trkpt lat="45.6988152" lon="9.0718792"><ele>297.0</ele><time>2026-04-22T15:29:16.971Z</time></trkpt><trkpt lat="45.698765" lon="9.0717616"><ele>297.0</ele><time>2026-04-22T15:29:17.971Z</time></trkpt><trkpt lat="45.6987269" lon="9.0716717"><ele>297.0</ele><time>2026-04-22T15:29:18.971Z</time></trkpt><trkpt lat="45.6986636" lon="9.0715249"><ele>297.0</ele><time>2026-04-22T15:29:20.972Z</time></trkpt><trkpt lat="45.6986303" lon="9.0714437"><ele>297.0</ele><time>2026-04-22T15:29:21.971Z</time></trkpt><trkpt lat="45.698595" lon="9.0713535"><ele>297.0</ele><time>2026-04-22T15:29:22.972Z</time></trkpt><trkpt lat="45.6985547" lon="9.0712564"><ele>297.0</ele><time>2026-04-22T15:29:23.971Z</time></trkpt><trkpt lat="45.6985091" lon="9.0711502"><ele>295.8</ele><time>2026-04-22T15:29:24.971Z</time></trkpt><trkpt lat="45.6984632" lon="9.0710375"><ele>294.6</ele><time>2026-04-22T15:29:25.971Z</time></trkpt><trkpt lat="45.6984124" lon="9.0709164"><ele>293.40000000000003</ele><time>2026-04-22T15:29:26.971Z</time></trkpt><trkpt lat="45.6983623" lon="9.0707915"><ele>292.2</ele><time>2026-04-22T15:29:27.972Z</time></trkpt><trkpt lat="45.6983081" lon="9.0706574"><ele>291.0</ele><time>2026-04-22T15:29:28.971Z</time></trkpt><trkpt lat="45.6982507" lon="9.0705253"><ele>290.40000000000003</ele><time>2026-04-22T15:29:29.971Z</time></trkpt><trkpt lat="45.6981988" lon="9.0703899"><ele>289.8</ele><time>2026-04-22T15:29:30.972Z</time></trkpt><trkpt lat="45.6981488" lon="9.0702602"><ele>289.20000000000005</ele><time>2026-04-22T15:29:31.971Z</time></trkpt><trkpt lat="45.6980987" lon="9.0701346"><ele>288.6</ele><time>2026-04-22T15:29:32.971Z</time></trkpt><trkpt lat="45.6980482" lon="9.0700111"><ele>288.0</ele><time>2026-04-22T15:29:33.971Z</time></trkpt><trkpt lat="45.6979963" lon="9.0698874"><ele>286.6</ele><time>2026-04-22T15:29:34.971Z</time></trkpt><trkpt lat="45.6979434" lon="9.0697569"><ele>285.20000000000005</ele><time>2026-04-22T15:29:35.972Z</time></trkpt><trkpt lat="45.69789" lon="9.0696244"><ele>283.8</ele><time>2026-04-22T15:29:36.971Z</time></trkpt><trkpt lat="45.697834" lon="9.0694881"><ele>282.40000000000003</ele><time>2026-04-22T15:29:37.971Z</time></trkpt><trkpt lat="45.6977778" lon="9.0693461"><ele>281.0</ele><time>2026-04-22T15:29:38.971Z</time></trkpt><trkpt lat="45.6977171" lon="9.0692024"><ele>280.5</ele><time>2026-04-22T15:29:39.971Z</time></trkpt><trkpt lat="45.6976485" lon="9.069061"><ele>280.0</ele><time>2026-04-22T15:29:40.971Z</time></trkpt><trkpt lat="45.6975769" lon="9.0689169"><ele>279.5</ele><time>2026-04-22T15:29:41.97Z</time></trkpt><trkpt lat="45.6975046" lon="9.0687687"><ele>279.0</ele><time>2026-04-22T15:29:42.971Z</time></trkpt><trkpt lat="45.6974355" lon="9.0686099"><ele>279.0</ele><time>2026-04-22T15:29:43.972Z</time></trkpt><trkpt lat="45.6973696" lon="9.068452"><ele>279.0</ele><time>2026-04-22T15:29:44.972Z</time></trkpt><trkpt lat="45.6973052" lon="9.0682946"><ele>279.0</ele><time>2026-04-22T15:29:45.971Z</time></trkpt><trkpt lat="45.6972394" lon="9.0681416"><ele>279.0</ele><time>2026-04-22T15:29:46.971Z</time></trkpt><trkpt lat="45.6971764" lon="9.0679922"><ele>279.5</ele><time>2026-04-22T15:29:47.97Z</time></trkpt><trkpt lat="45.6971128" lon="9.0678408"><ele>280.0</ele><time>2026-04-22T15:29:48.971Z</time></trkpt><trkpt lat="45.6970504" lon="9.0676935"><ele>280.5</ele><time>2026-04-22T15:29:49.971Z</time></trkpt><trkpt lat="45.6969921" lon="9.0675506"><ele>281.0</ele><time>2026-04-22T15:29:50.972Z</time></trkpt><trkpt lat="45.6969362" lon="9.0674132"><ele>281.6</ele><time>2026-04-22T15:29:51.97Z</time></trkpt><trkpt lat="45.6968866" lon="9.0672807"><ele>282.20000000000005</ele><time>2026-04-22T15:29:52.972Z</time></trkpt><trkpt lat="45.6968418" lon="9.067142"><ele>282.79999999999995</ele><time>2026-04-22T15:29:53.972Z</time></trkpt><trkpt lat="45.696807" lon="9.0670009"><ele>283.4</ele><time>2026-04-22T15:29:54.971Z</time></trkpt><trkpt lat="45.696782" lon="9.066857"><ele>284.0</ele><time>2026-04-22T15:29:55.972Z</time></trkpt><trkpt lat="45.6967643" lon="9.066707"><ele>284.5</ele><time>2026-04-22T15:29:56.971Z</time></trkpt><trkpt lat="45.696755" lon="9.0665482"><ele>285.0</ele><time>2026-04-22T15:29:57.971Z</time></trkpt><trkpt lat="45.6967439" lon="9.0663862"><ele>285.5</ele><time>2026-04-22T15:29:58.97Z</time></trkpt><trkpt lat="45.6967318" lon="9.0662237"><ele>286.0</ele><time>2026-04-22T15:29:59.972Z</time></trkpt><trkpt lat="45.6967193" lon="9.0660601"><ele>286.0</ele><time>2026-04-22T15:30:00.971Z</time></trkpt><trkpt lat="45.6967072" lon="9.065902"><ele>286.0</ele><time>2026-04-22T15:30:01.972Z</time></trkpt><trkpt lat="45.6966954" lon="9.0657498"><ele>286.0</ele><time>2026-04-22T15:30:02.971Z</time></trkpt><trkpt lat="45.6966836" lon="9.0656037"><ele>286.0</ele><time>2026-04-22T15:30:03.971Z</time></trkpt><trkpt lat="45.6966716" lon="9.0654618"><ele>286.0</ele><time>2026-04-22T15:30:04.971Z</time></trkpt><trkpt lat="45.6966757" lon="9.0653357"><ele>286.0</ele><time>2026-04-22T15:30:05.971Z</time></trkpt><trkpt lat="45.6966634" lon="9.0652012"><ele>286.0</ele><time>2026-04-22T15:30:06.971Z</time></trkpt><trkpt lat="45.6966533" lon="9.0650748"><ele>286.0</ele><time>2026-04-22T15:30:07.972Z</time></trkpt><trkpt lat="45.696644" lon="9.064957"><ele>286.0</ele><time>2026-04-22T15:30:08.971Z</time></trkpt><trkpt lat="45.6966314" lon="9.0648445"><ele>286.0</ele><time>2026-04-22T15:30:09.97Z</time></trkpt><trkpt lat="45.6966277" lon="9.0647383"><ele>286.0</ele><time>2026-04-22T15:30:10.972Z</time></trkpt><trkpt lat="45.6966199" lon="9.0645881"><ele>286.0</ele><time>2026-04-22T15:30:12.971Z</time></trkpt><trkpt lat="45.696606" lon="9.0644226"><ele>286.0</ele><time>2026-04-22T15:30:14.971Z</time></trkpt><trkpt lat="45.6965948" lon="9.0643058"><ele>286.0</ele><time>2026-04-22T15:30:15.971Z</time></trkpt><trkpt lat="45.6965844" lon="9.0641729"><ele>286.0</ele><time>2026-04-22T15:30:16.972Z</time></trkpt><trkpt lat="45.6965762" lon="9.0640453"><ele>286.0</ele><time>2026-04-22T15:30:17.971Z</time></trkpt><trkpt lat="45.696567" lon="9.0639284"><ele>285.99999999999994</ele><time>2026-04-22T15:30:18.971Z</time></trkpt><trkpt lat="45.69656" lon="9.0638233"><ele>286.0</ele><time>2026-04-22T15:30:19.971Z</time></trkpt><trkpt lat="45.696554" lon="9.063732"><ele>286.0</ele><time>2026-04-22T15:30:20.971Z</time></trkpt><trkpt lat="45.6965453" lon="9.0636373"><ele>286.0</ele><time>2026-04-22T15:30:21.972Z</time></trkpt><trkpt lat="45.696536" lon="9.0635381"><ele>286.0</ele><time>2026-04-22T15:30:22.972Z</time></trkpt><trkpt lat="45.6965265" lon="9.063427"><ele>285.99999999999994</ele><time>2026-04-22T15:30:23.97Z</time></trkpt><trkpt lat="45.6965179" lon="9.0633058"><ele>286.0</ele><time>2026-04-22T15:30:24.97Z</time></trkpt><trkpt lat="45.6965095" lon="9.0631737"><ele>285.8</ele><time>2026-04-22T15:30:25.971Z</time></trkpt><trkpt lat="45.6965" lon="9.0630315"><ele>285.6</ele><time>2026-04-22T15:30:26.972Z</time></trkpt><trkpt lat="45.6964925" lon="9.0628868"><ele>285.4</ele><time>2026-04-22T15:30:27.972Z</time></trkpt><trkpt lat="45.6964779" lon="9.0627379"><ele>285.2</ele><time>2026-04-22T15:30:28.972Z</time></trkpt><trkpt lat="45.6964646" lon="9.0625858"><ele>285.0</ele><time>2026-04-22T15:30:29.971Z</time></trkpt><trkpt lat="45.6964548" lon="9.0624275"><ele>285.6</ele><time>2026-04-22T15:30:30.971Z</time></trkpt><trkpt lat="45.6964428" lon="9.0622728"><ele>286.2</ele><time>2026-04-22T15:30:31.971Z</time></trkpt><trkpt lat="45.696431" lon="9.062121"><ele>286.8</ele><time>2026-04-22T15:30:32.971Z</time></trkpt><trkpt lat="45.6964171" lon="9.0619741"><ele>287.4</ele><time>2026-04-22T15:30:33.972Z</time></trkpt><trkpt lat="45.6964052" lon="9.0618361"><ele>288.0</ele><time>2026-04-22T15:30:34.971Z</time></trkpt><trkpt lat="45.6963959" lon="9.0617098"><ele>287.8333333333333</ele><time>2026-04-22T15:30:35.97Z</time></trkpt><trkpt lat="45.6963877" lon="9.0616053"><ele>287.6666666666667</ele><time>2026-04-22T15:30:36.972Z</time></trkpt><trkpt lat="45.6963806" lon="9.0615142"><ele>287.5</ele><time>2026-04-22T15:30:37.971Z</time></trkpt><trkpt lat="45.6963698" lon="9.0613794"><ele>287.33333333333337</ele><time>2026-04-22T15:30:39.972Z</time></trkpt><trkpt lat="45.6963555" lon="9.0612686"><ele>287.1666666666667</ele><time>2026-04-22T15:30:42.972Z</time></trkpt><trkpt lat="45.6963442" lon="9.0611484"><ele>287.0</ele><time>2026-04-22T15:31:20.971Z</time></trkpt><trkpt lat="45.6963311" lon="9.0610061"><ele>287.0</ele><time>2026-04-22T15:31:22.971Z</time></trkpt><trkpt lat="45.6963205" lon="9.0608497"><ele>287.0</ele><time>2026-04-22T15:31:24.97Z</time></trkpt><trkpt lat="45.6963124" lon="9.0607131"><ele>287.0</ele><time>2026-04-22T15:31:26.972Z</time></trkpt><trkpt lat="45.6963053" lon="9.0606142"><ele>287.0</ele><time>2026-04-22T15:31:28.972Z</time></trkpt><trkpt lat="45.6963097" lon="9.060479"><ele>287.0</ele><time>2026-04-22T15:31:31.972Z</time></trkpt><trkpt lat="45.6962938" lon="9.0603152"><ele>287.14285714285717</ele><time>2026-04-22T15:31:33.972Z</time></trkpt><trkpt lat="45.6962769" lon="9.0602049"><ele>287.2857142857143</ele><time>2026-04-22T15:31:34.971Z</time></trkpt><trkpt lat="45.6962607" lon="9.0600921"><ele>287.42857142857144</ele><time>2026-04-22T15:31:35.97Z</time></trkpt><trkpt lat="45.6962456" lon="9.0599901"><ele>287.57142857142856</ele><time>2026-04-22T15:31:36.971Z</time></trkpt><trkpt lat="45.6962295" lon="9.0599007"><ele>287.7142857142857</ele><time>2026-04-22T15:31:37.972Z</time></trkpt><trkpt lat="45.6962147" lon="9.0598051"><ele>287.8571428571429</ele><time>2026-04-22T15:31:38.971Z</time></trkpt><trkpt lat="45.6961906" lon="9.0596902"><ele>288.0</ele><time>2026-04-22T15:31:39.971Z</time></trkpt><trkpt lat="45.6961727" lon="9.059586"><ele>288.2</ele><time>2026-04-22T15:31:40.971Z</time></trkpt><trkpt lat="45.6961515" lon="9.0594711"><ele>288.4</ele><time>2026-04-22T15:31:41.971Z</time></trkpt><trkpt lat="45.6961313" lon="9.0593462"><ele>288.59999999999997</ele><time>2026-04-22T15:31:42.971Z</time></trkpt><trkpt lat="45.696111" lon="9.0592122"><ele>288.8</ele><time>2026-04-22T15:31:43.971Z</time></trkpt><trkpt lat="45.6960873" lon="9.0590649"><ele>289.0</ele><time>2026-04-22T15:31:44.971Z</time></trkpt><trkpt lat="45.6960641" lon="9.0589232"><ele>288.3333333333333</ele><time>2026-04-22T15:31:45.971Z</time></trkpt><trkpt lat="45.6960404" lon="9.0587862"><ele>287.66666666666663</ele><time>2026-04-22T15:31:46.972Z</time></trkpt><trkpt lat="45.6960164" lon="9.0586522"><ele>287.0</ele><time>2026-04-22T15:31:47.971Z</time></trkpt><trkpt lat="45.6959938" lon="9.0585242"><ele>286.3333333333333</ele><time>2026-04-22T15:31:48.972Z</time></trkpt><trkpt lat="45.6959738" lon="9.0584074"><ele>285.6666666666667</ele><time>2026-04-22T15:31:49.972Z</time></trkpt><trkpt lat="45.6959576" lon="9.0583085"><ele>285.0</ele><time>2026-04-22T15:31:50.97Z</time></trkpt><trkpt lat="45.6959328" lon="9.0581506"><ele>284.8</ele><time>2026-04-22T15:31:52.971Z</time></trkpt><trkpt lat="45.695903" lon="9.0579905"><ele>284.6</ele><time>2026-04-22T15:31:54.971Z</time></trkpt><trkpt lat="45.6958754" lon="9.0578429"><ele>284.4</ele><time>2026-04-22T15:31:56.972Z</time></trkpt><trkpt lat="45.6958536" lon="9.0577213"><ele>284.2</ele><time>2026-04-22T15:31:58.97Z</time></trkpt><trkpt lat="45.6958323" lon="9.0575994"><ele>284.0</ele><time>2026-04-22T15:32:01.971Z</time></trkpt><trkpt lat="45.6958213" lon="9.0575058"><ele>284.0</ele><time>2026-04-22T15:32:04.972Z</time></trkpt><trkpt lat="45.6958036" lon="9.0573977"><ele>284.0</ele><time>2026-04-22T15:32:07.971Z</time></trkpt><trkpt lat="45.6957799" lon="9.0572811"><ele>284.0</ele><time>2026-04-22T15:32:09.971Z</time></trkpt><trkpt lat="45.6957544" lon="9.0571437"><ele>284.0</ele><time>2026-04-22T15:32:11.972Z</time></trkpt><trkpt lat="45.6957294" lon="9.0569793"><ele>284.0</ele><time>2026-04-22T15:32:13.972Z</time></trkpt><trkpt lat="45.6956998" lon="9.0568202"><ele>284.0</ele><time>2026-04-22T15:32:15.971Z</time></trkpt><trkpt lat="45.695664" lon="9.0566393"><ele>284.0</ele><time>2026-04-22T15:32:17.971Z</time></trkpt><trkpt lat="45.6956578" lon="9.0564753"><ele>284.0</ele><time>2026-04-22T15:32:18.971Z</time></trkpt><trkpt lat="45.6956375" lon="9.0563616"><ele>284.0</ele><time>2026-04-22T15:32:19.971Z</time></trkpt><trkpt lat="45.6956198" lon="9.0562448"><ele>284.0</ele><time>2026-04-22T15:32:20.972Z</time></trkpt><trkpt lat="45.6955994" lon="9.056125"><ele>284.0</ele><time>2026-04-22T15:32:21.971Z</time></trkpt><trkpt lat="45.6955794" lon="9.0560061"><ele>284.0</ele><time>2026-04-22T15:32:22.971Z</time></trkpt><trkpt lat="45.6955582" lon="9.0558818"><ele>284.0</ele><time>2026-04-22T15:32:23.971Z</time></trkpt><trkpt lat="45.6955368" lon="9.0557602"><ele>284.0</ele><time>2026-04-22T15:32:24.971Z</time></trkpt><trkpt lat="45.6955125" lon="9.0556359"><ele>284.0</ele><time>2026-04-22T15:32:25.972Z</time></trkpt><trkpt lat="45.6954868" lon="9.055515"><ele>284.0</ele><time>2026-04-22T15:32:26.97Z</time></trkpt><trkpt lat="45.6954636" lon="9.0553914"><ele>284.0</ele><time>2026-04-22T15:32:27.97Z</time></trkpt><trkpt lat="45.6954399" lon="9.0552635"><ele>284.0</ele><time>2026-04-22T15:32:28.971Z</time></trkpt><trkpt lat="45.6954136" lon="9.0551341"><ele>284.0</ele><time>2026-04-22T15:32:29.971Z</time></trkpt><trkpt lat="45.6953909" lon="9.0550107"><ele>284.0</ele><time>2026-04-22T15:32:30.972Z</time></trkpt><trkpt lat="45.6953706" lon="9.0548974"><ele>284.0</ele><time>2026-04-22T15:32:31.972Z</time></trkpt><trkpt lat="45.6953502" lon="9.0547889"><ele>284.0</ele><time>2026-04-22T15:32:32.972Z</time></trkpt><trkpt lat="45.6953319" lon="9.0546829"><ele>284.2</ele><time>2026-04-22T15:32:33.971Z</time></trkpt><trkpt lat="45.6953109" lon="9.0545347"><ele>284.4</ele><time>2026-04-22T15:32:35.971Z</time></trkpt><trkpt lat="45.6952866" lon="9.0544123"><ele>284.6</ele><time>2026-04-22T15:32:37.971Z</time></trkpt><trkpt lat="45.6952702" lon="9.0542934"><ele>284.8</ele><time>2026-04-22T15:32:39.971Z</time></trkpt><trkpt lat="45.6952637" lon="9.0541362"><ele>285.0</ele><time>2026-04-22T15:32:41.972Z</time></trkpt><trkpt lat="45.6952361" lon="9.0539486"><ele>284.3333333333333</ele><time>2026-04-22T15:32:43.972Z</time></trkpt><trkpt lat="45.6952212" lon="9.0538476"><ele>283.6666666666667</ele><time>2026-04-22T15:32:44.971Z</time></trkpt><trkpt lat="45.6951979" lon="9.0537412"><ele>283.0</ele><time>2026-04-22T15:32:45.971Z</time></trkpt><trkpt lat="45.6951705" lon="9.0536459"><ele>282.33333333333337</ele><time>2026-04-22T15:32:46.972Z</time></trkpt><trkpt lat="45.6951323" lon="9.0535462"><ele>281.6666666666667</ele><time>2026-04-22T15:32:47.971Z</time></trkpt><trkpt lat="45.6950898" lon="9.0534397"><ele>281.0</ele><time>2026-04-22T15:32:48.971Z</time></trkpt><trkpt lat="45.6950569" lon="9.053327"><ele>280.8</ele><time>2026-04-22T15:32:49.972Z</time></trkpt><trkpt lat="45.6950224" lon="9.0532055"><ele>280.6</ele><time>2026-04-22T15:32:50.971Z</time></trkpt><trkpt lat="45.6949881" lon="9.0530774"><ele>280.4</ele><time>2026-04-22T15:32:51.972Z</time></trkpt><trkpt lat="45.6949587" lon="9.0529419"><ele>280.2</ele><time>2026-04-22T15:32:52.971Z</time></trkpt><trkpt lat="45.6949194" lon="9.052808"><ele>280.0</ele><time>2026-04-22T15:32:53.971Z</time></trkpt><trkpt lat="45.6948849" lon="9.0526725"><ele>280.0</ele><time>2026-04-22T15:32:54.971Z</time></trkpt><trkpt lat="45.6948467" lon="9.0525343"><ele>280.0</ele><time>2026-04-22T15:32:55.971Z</time></trkpt><trkpt lat="45.6948114" lon="9.0523936"><ele>280.0</ele><time>2026-04-22T15:32:56.972Z</time></trkpt><trkpt lat="45.6947783" lon="9.05225"><ele>280.0</ele><time>2026-04-22T15:32:57.971Z</time></trkpt><trkpt lat="45.6947416" lon="9.0521079"><ele>280.0</ele><time>2026-04-22T15:32:58.971Z</time></trkpt><trkpt lat="45.6947083" lon="9.0519654"><ele>278.4</ele><time>2026-04-22T15:32:59.972Z</time></trkpt><trkpt lat="45.694675" lon="9.0518283"><ele>276.8</ele><time>2026-04-22T15:33:00.971Z</time></trkpt><trkpt lat="45.6946396" lon="9.0516819"><ele>275.2</ele><time>2026-04-22T15:33:01.971Z</time></trkpt><trkpt lat="45.6946051" lon="9.0515371"><ele>273.6</ele><time>2026-04-22T15:33:02.972Z</time></trkpt><trkpt lat="45.6945672" lon="9.051387"><ele>272.0</ele><time>2026-04-22T15:33:03.972Z</time></trkpt><trkpt lat="45.6945303" lon="9.0512427"><ele>271.2</ele><time>2026-04-22T15:33:04.971Z</time></trkpt><trkpt lat="45.6944883" lon="9.0510969"><ele>270.4</ele><time>2026-04-22T15:33:05.971Z</time></trkpt><trkpt lat="45.6944499" lon="9.0509474"><ele>269.6</ele><time>2026-04-22T15:33:06.97Z</time></trkpt><trkpt lat="45.694412" lon="9.0507956"><ele>268.8</ele><time>2026-04-22T15:33:07.971Z</time></trkpt><trkpt lat="45.694373" lon="9.0506412"><ele>268.0</ele><time>2026-04-22T15:33:08.971Z</time></trkpt><trkpt lat="45.6943351" lon="9.050482"><ele>267.5</ele><time>2026-04-22T15:33:09.971Z</time></trkpt><trkpt lat="45.6942999" lon="9.0503261"><ele>267.0</ele><time>2026-04-22T15:33:10.971Z</time></trkpt><trkpt lat="45.6942589" lon="9.0501736"><ele>266.5</ele><time>2026-04-22T15:33:11.971Z</time></trkpt><trkpt lat="45.6942207" lon="9.0500207"><ele>266.0</ele><time>2026-04-22T15:33:12.972Z</time></trkpt><trkpt lat="45.6941807" lon="9.0498725"><ele>265.0</ele><time>2026-04-22T15:33:13.971Z</time></trkpt><trkpt lat="45.6941421" lon="9.0497234"><ele>264.0</ele><time>2026-04-22T15:33:14.972Z</time></trkpt><trkpt lat="45.6941031" lon="9.0495734"><ele>263.0</ele><time>2026-04-22T15:33:15.972Z</time></trkpt><trkpt lat="45.6940623" lon="9.0494191"><ele>262.0</ele><time>2026-04-22T15:33:16.971Z</time></trkpt><trkpt lat="45.6940184" lon="9.0492549"><ele>261.0</ele><time>2026-04-22T15:33:17.971Z</time></trkpt><trkpt lat="45.6939732" lon="9.0490825"><ele>260.0</ele><time>2026-04-22T15:33:18.971Z</time></trkpt><trkpt lat="45.6939263" lon="9.0489033"><ele>259.0</ele><time>2026-04-22T15:33:19.972Z</time></trkpt><trkpt lat="45.6938789" lon="9.0487232"><ele>258.0</ele><time>2026-04-22T15:33:20.971Z</time></trkpt><trkpt lat="45.693833" lon="9.0485442"><ele>258.0</ele><time>2026-04-22T15:33:21.972Z</time></trkpt><trkpt lat="45.6937883" lon="9.0483666"><ele>258.0</ele><time>2026-04-22T15:33:22.97Z</time></trkpt><trkpt lat="45.6937445" lon="9.0481926"><ele>258.0</ele><time>2026-04-22T15:33:23.971Z</time></trkpt><trkpt lat="45.693701" lon="9.0480202"><ele>258.0</ele><time>2026-04-22T15:33:24.972Z</time></trkpt><trkpt lat="45.6936595" lon="9.0478567"><ele>258.0</ele><time>2026-04-22T15:33:25.971Z</time></trkpt><trkpt lat="45.693615" lon="9.0477043"><ele>258.0</ele><time>2026-04-22T15:33:26.971Z</time></trkpt><trkpt lat="45.6935625" lon="9.0475615"><ele>258.0</ele><time>2026-04-22T15:33:27.971Z</time></trkpt><trkpt lat="45.6934993" lon="9.0474262"><ele>258.0</ele><time>2026-04-22T15:33:28.971Z</time></trkpt><trkpt lat="45.6934295" lon="9.0472966"><ele>257.5</ele><time>2026-04-22T15:33:29.971Z</time></trkpt><trkpt lat="45.6933555" lon="9.0471687"><ele>257.0</ele><time>2026-04-22T15:33:30.97Z</time></trkpt><trkpt lat="45.6932758" lon="9.0470464"><ele>256.5</ele><time>2026-04-22T15:33:31.972Z</time></trkpt><trkpt lat="45.6931906" lon="9.0469262"><ele>256.0</ele><time>2026-04-22T15:33:32.971Z</time></trkpt><trkpt lat="45.6931015" lon="9.0468106"><ele>256.0</ele><time>2026-04-22T15:33:33.971Z</time></trkpt><trkpt lat="45.6930044" lon="9.0466991"><ele>256.0</ele><time>2026-04-22T15:33:34.971Z</time></trkpt><trkpt lat="45.6929042" lon="9.0465912"><ele>256.0</ele><time>2026-04-22T15:33:35.972Z</time></trkpt><trkpt lat="45.6927989" lon="9.0464893"><ele>256.0</ele><time>2026-04-22T15:33:36.972Z</time></trkpt><trkpt lat="45.6926918" lon="9.0463889"><ele>257.40000000000003</ele><time>2026-04-22T15:33:37.97Z</time></trkpt><trkpt lat="45.6925915" lon="9.0462941"><ele>258.8</ele><time>2026-04-22T15:33:38.971Z</time></trkpt><trkpt lat="45.6925017" lon="9.0461981"><ele>260.20000000000005</ele><time>2026-04-22T15:33:39.972Z</time></trkpt><trkpt lat="45.6924275" lon="9.0460973"><ele>261.6</ele><time>2026-04-22T15:33:40.971Z</time></trkpt><trkpt lat="45.6923686" lon="9.0459888"><ele>263.0</ele><time>2026-04-22T15:33:41.971Z</time></trkpt><trkpt lat="45.692323" lon="9.0458678"><ele>265.6</ele><time>2026-04-22T15:33:42.972Z</time></trkpt><trkpt lat="45.6922883" lon="9.0457343"><ele>268.20000000000005</ele><time>2026-04-22T15:33:43.971Z</time></trkpt><trkpt lat="45.6922618" lon="9.0455862"><ele>270.8</ele><time>2026-04-22T15:33:44.971Z</time></trkpt><trkpt lat="45.6922397" lon="9.0454303"><ele>273.40000000000003</ele><time>2026-04-22T15:33:45.971Z</time></trkpt><trkpt lat="45.692222" lon="9.0452724"><ele>276.0</ele><time>2026-04-22T15:33:46.971Z</time></trkpt><trkpt lat="45.6922083" lon="9.04513"><ele>276.0</ele><time>2026-04-22T15:33:47.971Z</time></trkpt><trkpt lat="45.6922036" lon="9.0449942"><ele>276.0</ele><time>2026-04-22T15:33:48.972Z</time></trkpt><trkpt lat="45.692212" lon="9.0448702"><ele>276.0</ele><time>2026-04-22T15:33:49.971Z</time></trkpt><trkpt lat="45.6922352" lon="9.0447495"><ele>276.0</ele><time>2026-04-22T15:33:50.971Z</time></trkpt><trkpt lat="45.6922744" lon="9.044631"><ele>276.0</ele><time>2026-04-22T15:33:51.972Z</time></trkpt><trkpt lat="45.6923229" lon="9.0445116"><ele>276.40000000000003</ele><time>2026-04-22T15:33:52.971Z</time></trkpt><trkpt lat="45.6923762" lon="9.044388"><ele>276.8</ele><time>2026-04-22T15:33:53.971Z</time></trkpt><trkpt lat="45.6924369" lon="9.0442603"><ele>277.20000000000005</ele><time>2026-04-22T15:33:54.971Z</time></trkpt><trkpt lat="45.6925025" lon="9.0441266"><ele>277.6</ele><time>2026-04-22T15:33:55.972Z</time></trkpt><trkpt lat="45.6925723" lon="9.0439945"><ele>278.0</ele><time>2026-04-22T15:33:56.971Z</time></trkpt><trkpt lat="45.6926447" lon="9.043867"><ele>278.2</ele><time>2026-04-22T15:33:57.971Z</time></trkpt><trkpt lat="45.6927152" lon="9.0437397"><ele>278.4</ele><time>2026-04-22T15:33:58.972Z</time></trkpt><trkpt lat="45.6927845" lon="9.0436202"><ele>278.59999999999997</ele><time>2026-04-22T15:33:59.971Z</time></trkpt><trkpt lat="45.6928549" lon="9.0435065"><ele>278.8</ele><time>2026-04-22T15:34:00.971Z</time></trkpt><trkpt lat="45.6929279" lon="9.0433967"><ele>279.0</ele><time>2026-04-22T15:34:01.971Z</time></trkpt><trkpt lat="45.6930069" lon="9.043294"><ele>279.8</ele><time>2026-04-22T15:34:02.97Z</time></trkpt><trkpt lat="45.6930899" lon="9.0431971"><ele>280.59999999999997</ele><time>2026-04-22T15:34:03.971Z</time></trkpt><trkpt lat="45.6931736" lon="9.0431012"><ele>281.4</ele><time>2026-04-22T15:34:04.972Z</time></trkpt><trkpt lat="45.6932604" lon="9.0430082"><ele>282.2</ele><time>2026-04-22T15:34:05.971Z</time></trkpt><trkpt lat="45.6933472" lon="9.042916"><ele>283.0</ele><time>2026-04-22T15:34:06.971Z</time></trkpt><trkpt lat="45.6934305" lon="9.0428285"><ele>283.0</ele><time>2026-04-22T15:34:07.971Z</time></trkpt><trkpt lat="45.6935081" lon="9.0427519"><ele>283.0</ele><time>2026-04-22T15:34:08.972Z</time></trkpt><trkpt lat="45.6935781" lon="9.0426904"><ele>283.0</ele><time>2026-04-22T15:34:09.972Z</time></trkpt><trkpt lat="45.6936393" lon="9.0426294"><ele>283.0</ele><time>2026-04-22T15:34:10.971Z</time></trkpt><trkpt lat="45.6936934" lon="9.0425713"><ele>283.0</ele><time>2026-04-22T15:34:11.971Z</time></trkpt><trkpt lat="45.6937984" lon="9.0424927"><ele>283.0</ele><time>2026-04-22T15:34:13.971Z</time></trkpt><trkpt lat="45.6938624" lon="9.0424792"><ele>283.8333333333333</ele><time>2026-04-22T15:34:14.972Z</time></trkpt><trkpt lat="45.6939351" lon="9.0424784"><ele>284.66666666666663</ele><time>2026-04-22T15:34:15.97Z</time></trkpt><trkpt lat="45.6940145" lon="9.0424849"><ele>285.5</ele><time>2026-04-22T15:34:16.971Z</time></trkpt><trkpt lat="45.6940952" lon="9.0424898"><ele>286.3333333333333</ele><time>2026-04-22T15:34:17.972Z</time></trkpt><trkpt lat="45.6941608" lon="9.0424973"><ele>287.1666666666667</ele><time>2026-04-22T15:34:18.971Z</time></trkpt><trkpt lat="45.6942619" lon="9.0425197"><ele>288.0</ele><time>2026-04-22T15:34:20.97Z</time></trkpt><trkpt lat="45.6943308" lon="9.0425273"><ele>288.0</ele><time>2026-04-22T15:34:22.97Z</time></trkpt><trkpt lat="45.6944066" lon="9.0425323"><ele>288.0</ele><time>2026-04-22T15:34:24.971Z</time></trkpt><trkpt lat="45.6945032" lon="9.0425458"><ele>288.0</ele><time>2026-04-22T15:34:26.97Z</time></trkpt><trkpt lat="45.6946165" lon="9.0425579"><ele>288.0</ele><time>2026-04-22T15:34:28.971Z</time></trkpt><trkpt lat="45.6947359" lon="9.0425798"><ele>288.0</ele><time>2026-04-22T15:34:30.971Z</time></trkpt><trkpt lat="45.6948012" lon="9.0425882"><ele>288.4</ele><time>2026-04-22T15:34:31.972Z</time></trkpt><trkpt lat="45.6948786" lon="9.0425911"><ele>288.8</ele><time>2026-04-22T15:34:32.971Z</time></trkpt><trkpt lat="45.694968" lon="9.0425953"><ele>289.2</ele><time>2026-04-22T15:34:33.971Z</time></trkpt><trkpt lat="45.6950619" lon="9.0426013"><ele>289.6</ele><time>2026-04-22T15:34:34.971Z</time></trkpt><trkpt lat="45.6951634" lon="9.0426106"><ele>290.0</ele><time>2026-04-22T15:34:35.972Z</time></trkpt><trkpt lat="45.6952712" lon="9.0426217"><ele>290.8</ele><time>2026-04-22T15:34:36.971Z</time></trkpt><trkpt lat="45.6953784" lon="9.0426339"><ele>291.6</ele><time>2026-04-22T15:34:37.97Z</time></trkpt><trkpt lat="45.6954859" lon="9.0426416"><ele>292.4</ele><time>2026-04-22T15:34:38.971Z</time></trkpt><trkpt lat="45.6955918" lon="9.0426473"><ele>293.2</ele><time>2026-04-22T15:34:39.97Z</time></trkpt><trkpt lat="45.6956988" lon="9.0426535"><ele>294.0</ele><time>2026-04-22T15:34:40.971Z</time></trkpt><trkpt lat="45.6958046" lon="9.0426569"><ele>294.0</ele><time>2026-04-22T15:34:41.971Z</time></trkpt><trkpt lat="45.6959083" lon="9.0426598"><ele>294.0</ele><time>2026-04-22T15:34:42.972Z</time></trkpt><trkpt lat="45.6960097" lon="9.0426632"><ele>294.0</ele><time>2026-04-22T15:34:43.972Z</time></trkpt><trkpt lat="45.6961085" lon="9.0426706"><ele>294.0</ele><time>2026-04-22T15:34:44.972Z</time></trkpt><trkpt lat="45.6962071" lon="9.0426778"><ele>294.0</ele><time>2026-04-22T15:34:45.971Z</time></trkpt><trkpt lat="45.6962971" lon="9.0426802"><ele>293.59999999999997</ele><time>2026-04-22T15:34:46.972Z</time></trkpt><trkpt lat="45.6963862" lon="9.042673"><ele>293.2</ele><time>2026-04-22T15:34:47.971Z</time></trkpt><trkpt lat="45.6964735" lon="9.0426644"><ele>292.79999999999995</ele><time>2026-04-22T15:34:48.971Z</time></trkpt><trkpt lat="45.6965656" lon="9.0426404"><ele>292.4</ele><time>2026-04-22T15:34:49.971Z</time></trkpt><trkpt lat="45.6966574" lon="9.0426167"><ele>292.0</ele><time>2026-04-22T15:34:50.971Z</time></trkpt><trkpt lat="45.6967509" lon="9.0425916"><ele>292.0</ele><time>2026-04-22T15:34:51.972Z</time></trkpt><trkpt lat="45.6968449" lon="9.0425685"><ele>292.0</ele><time>2026-04-22T15:34:52.971Z</time></trkpt><trkpt lat="45.6969364" lon="9.0425477"><ele>292.0</ele><time>2026-04-22T15:34:53.972Z</time></trkpt><trkpt lat="45.6970275" lon="9.0425204"><ele>292.0</ele><time>2026-04-22T15:34:54.971Z</time></trkpt><trkpt lat="45.6971202" lon="9.0424955"><ele>292.0</ele><time>2026-04-22T15:34:55.972Z</time></trkpt><trkpt lat="45.697213" lon="9.0424728"><ele>292.8</ele><time>2026-04-22T15:34:56.972Z</time></trkpt><trkpt lat="45.6973063" lon="9.0424481"><ele>293.6</ele><time>2026-04-22T15:34:57.971Z</time></trkpt><trkpt lat="45.6974011" lon="9.042427"><ele>294.40000000000003</ele><time>2026-04-22T15:34:58.971Z</time></trkpt><trkpt lat="45.6974975" lon="9.0424038"><ele>295.2</ele><time>2026-04-22T15:34:59.972Z</time></trkpt><trkpt lat="45.6975955" lon="9.0423795"><ele>296.0</ele><time>2026-04-22T15:35:00.97Z</time></trkpt><trkpt lat="45.6976974" lon="9.0423516"><ele>295.8</ele><time>2026-04-22T15:35:01.971Z</time></trkpt><trkpt lat="45.6977945" lon="9.0423267"><ele>295.6</ele><time>2026-04-22T15:35:02.971Z</time></trkpt><trkpt lat="45.6978903" lon="9.0423005"><ele>295.4</ele><time>2026-04-22T15:35:03.971Z</time></trkpt><trkpt lat="45.697986" lon="9.0422757"><ele>295.2</ele><time>2026-04-22T15:35:04.971Z</time></trkpt><trkpt lat="45.6980763" lon="9.0422477"><ele>295.0</ele><time>2026-04-22T15:35:05.972Z</time></trkpt><trkpt lat="45.6981651" lon="9.0422186"><ele>295.0</ele><time>2026-04-22T15:35:06.971Z</time></trkpt><trkpt lat="45.6982482" lon="9.0421941"><ele>295.0</ele><time>2026-04-22T15:35:07.972Z</time></trkpt><trkpt lat="45.6983218" lon="9.0421693"><ele>295.0</ele><time>2026-04-22T15:35:08.972Z</time></trkpt><trkpt lat="45.6983846" lon="9.0421559"><ele>295.0</ele><time>2026-04-22T15:35:09.971Z</time></trkpt><trkpt lat="45.6984788" lon="9.0421188"><ele>295.0</ele><time>2026-04-22T15:35:11.971Z</time></trkpt><trkpt lat="45.6985301" lon="9.0420317"><ele>295.0</ele><time>2026-04-22T15:35:13.971Z</time></trkpt><trkpt lat="45.6985214" lon="9.0419054"><ele>295.0</ele><time>2026-04-22T15:35:15.971Z</time></trkpt><trkpt lat="45.6984947" lon="9.0418186"><ele>295.0</ele><time>2026-04-22T15:35:16.972Z</time></trkpt><trkpt lat="45.6984618" lon="9.0417085"><ele>295.0</ele><time>2026-04-22T15:35:17.972Z</time></trkpt><trkpt lat="45.6984286" lon="9.0415742"><ele>295.0</ele><time>2026-04-22T15:35:18.971Z</time></trkpt><trkpt lat="45.6983963" lon="9.041438"><ele>295.0</ele><time>2026-04-22T15:35:19.971Z</time></trkpt><trkpt lat="45.6983648" lon="9.0413037"><ele>295.0</ele><time>2026-04-22T15:35:20.971Z</time></trkpt><trkpt lat="45.6983337" lon="9.0411735"><ele>295.0</ele><time>2026-04-22T15:35:21.971Z</time></trkpt><trkpt lat="45.6983055" lon="9.0410514"><ele>295.0</ele><time>2026-04-22T15:35:22.971Z</time></trkpt><trkpt lat="45.6982898" lon="9.0409357"><ele>295.0</ele><time>2026-04-22T15:35:23.972Z</time></trkpt><trkpt lat="45.6982848" lon="9.0408191"><ele>295.0</ele><time>2026-04-22T15:35:24.972Z</time></trkpt><trkpt lat="45.6982808" lon="9.040701"><ele>295.0</ele><time>2026-04-22T15:35:25.971Z</time></trkpt><trkpt lat="45.6982842" lon="9.0405761"><ele>295.0</ele><time>2026-04-22T15:35:26.971Z</time></trkpt><trkpt lat="45.6982897" lon="9.0404552"><ele>295.0</ele><time>2026-04-22T15:35:27.972Z</time></trkpt><trkpt lat="45.6982923" lon="9.0403429"><ele>295.0</ele><time>2026-04-22T15:35:28.971Z</time></trkpt><trkpt lat="45.6982987" lon="9.0402375"><ele>295.0</ele><time>2026-04-22T15:35:29.972Z</time></trkpt><trkpt lat="45.6983278" lon="9.0400863"><ele>295.0</ele><time>2026-04-22T15:35:31.971Z</time></trkpt><trkpt lat="45.6983901" lon="9.0399971"><ele>295.0</ele><time>2026-04-22T15:35:33.971Z</time></trkpt><trkpt lat="45.6985032" lon="9.0399665"><ele>295.0</ele><time>2026-04-22T15:35:35.972Z</time></trkpt><trkpt lat="45.6985748" lon="9.0399556"><ele>295.0</ele><time>2026-04-22T15:35:36.971Z</time></trkpt><trkpt lat="45.6986483" lon="9.0399341"><ele>295.0</ele><time>2026-04-22T15:35:37.971Z</time></trkpt><trkpt lat="45.6987268" lon="9.0398931"><ele>295.0</ele><time>2026-04-22T15:35:38.972Z</time></trkpt><trkpt lat="45.6988049" lon="9.0398335"><ele>295.0</ele><time>2026-04-22T15:35:39.971Z</time></trkpt><trkpt lat="45.698881" lon="9.0397648"><ele>295.0</ele><time>2026-04-22T15:35:40.971Z</time></trkpt><trkpt lat="45.6989516" lon="9.0396792"><ele>294.66666666666663</ele><time>2026-04-22T15:35:41.971Z</time></trkpt><trkpt lat="45.6990245" lon="9.0395973"><ele>294.3333333333333</ele><time>2026-04-22T15:35:42.971Z</time></trkpt><trkpt lat="45.6990904" lon="9.0395196"><ele>294.0</ele><time>2026-04-22T15:35:43.971Z</time></trkpt><trkpt lat="45.699152" lon="9.0394477"><ele>293.6666666666667</ele><time>2026-04-22T15:35:44.97Z</time></trkpt><trkpt lat="45.6992089" lon="9.0393913"><ele>293.33333333333337</ele><time>2026-04-22T15:35:45.971Z</time></trkpt><trkpt lat="45.6993009" lon="9.0392987"><ele>293.0</ele><time>2026-04-22T15:35:47.971Z</time></trkpt><trkpt lat="45.6993728" lon="9.0392244"><ele>293.8</ele><time>2026-04-22T15:35:49.97Z</time></trkpt><trkpt lat="45.6994219" lon="9.039127"><ele>294.6</ele><time>2026-04-22T15:35:51.972Z</time></trkpt><trkpt lat="45.6994303" lon="9.0390123"><ele>295.4</ele><time>2026-04-22T15:35:53.972Z</time></trkpt><trkpt lat="45.6994414" lon="9.0389048"><ele>296.2</ele><time>2026-04-22T15:35:55.971Z</time></trkpt><trkpt lat="45.6994595" lon="9.038771"><ele>297.0</ele><time>2026-04-22T15:35:57.972Z</time></trkpt><trkpt lat="45.6994633" lon="9.0385917"><ele>297.0</ele><time>2026-04-22T15:35:59.972Z</time></trkpt><trkpt lat="45.6994659" lon="9.0384979"><ele>297.0</ele><time>2026-04-22T15:36:00.972Z</time></trkpt><trkpt lat="45.6994733" lon="9.0383992"><ele>297.0</ele><time>2026-04-22T15:36:01.971Z</time></trkpt><trkpt lat="45.6994808" lon="9.0383009"><ele>297.0</ele><time>2026-04-22T15:36:02.971Z</time></trkpt><trkpt lat="45.699491" lon="9.0382006"><ele>297.0</ele><time>2026-04-22T15:36:03.971Z</time></trkpt><trkpt lat="45.6995004" lon="9.0380955"><ele>297.0</ele><time>2026-04-22T15:36:04.97Z</time></trkpt><trkpt lat="45.699513" lon="9.0379823"><ele>297.0</ele><time>2026-04-22T15:36:05.971Z</time></trkpt><trkpt lat="45.6995246" lon="9.0378645"><ele>296.8333333333333</ele><time>2026-04-22T15:36:06.972Z</time></trkpt><trkpt lat="45.6995351" lon="9.0377437"><ele>296.6666666666667</ele><time>2026-04-22T15:36:07.971Z</time></trkpt><trkpt lat="45.6995418" lon="9.037616"><ele>296.5</ele><time>2026-04-22T15:36:08.972Z</time></trkpt><trkpt lat="45.6995453" lon="9.0374915"><ele>296.33333333333337</ele><time>2026-04-22T15:36:09.971Z</time></trkpt><trkpt lat="45.6995483" lon="9.0373702"><ele>296.1666666666667</ele><time>2026-04-22T15:36:10.972Z</time></trkpt><trkpt lat="45.6995513" lon="9.0372505"><ele>296.0</ele><time>2026-04-22T15:36:11.971Z</time></trkpt><trkpt lat="45.6995519" lon="9.037136"><ele>296.0</ele><time>2026-04-22T15:36:12.972Z</time></trkpt><trkpt lat="45.699553" lon="9.0370289"><ele>296.0</ele><time>2026-04-22T15:36:13.97Z</time></trkpt><trkpt lat="45.6995535" lon="9.0369281"><ele>296.0</ele><time>2026-04-22T15:36:14.97Z</time></trkpt><trkpt lat="45.6995496" lon="9.0368327"><ele>296.0</ele><time>2026-04-22T15:36:15.972Z</time></trkpt><trkpt lat="45.699544" lon="9.0366748"><ele>296.0</ele><time>2026-04-22T15:36:17.972Z</time></trkpt><trkpt lat="45.6995418" lon="9.0365499"><ele>296.0</ele><time>2026-04-22T15:36:19.972Z</time></trkpt><trkpt lat="45.6995364" lon="9.0364395"><ele>296.0</ele><time>2026-04-22T15:36:21.972Z</time></trkpt><trkpt lat="45.6995319" lon="9.0363452"><ele>296.0</ele><time>2026-04-22T15:36:24.971Z</time></trkpt><trkpt lat="45.6994638" lon="9.0362576"><ele>296.0</ele><time>2026-04-22T15:36:39.971Z</time></trkpt><trkpt lat="45.6993393" lon="9.0362929"><ele>296.0</ele><time>2026-04-22T15:36:41.972Z</time></trkpt><trkpt lat="45.699261" lon="9.0363207"><ele>296.0</ele><time>2026-04-22T15:36:42.972Z</time></trkpt><trkpt lat="45.6991838" lon="9.0363437"><ele>296.0</ele><time>2026-04-22T15:36:43.972Z</time></trkpt><trkpt lat="45.6991016" lon="9.0363693"><ele>296.0</ele><time>2026-04-22T15:36:44.971Z</time></trkpt><trkpt lat="45.6990209" lon="9.0363948"><ele>296.0</ele><time>2026-04-22T15:36:45.971Z</time></trkpt><trkpt lat="45.6989414" lon="9.036413"><ele>296.0</ele><time>2026-04-22T15:36:46.971Z</time></trkpt><trkpt lat="45.6988638" lon="9.0364257"><ele>296.0</ele><time>2026-04-22T15:36:47.97Z</time></trkpt><trkpt lat="45.6987886" lon="9.0364363"><ele>296.0</ele><time>2026-04-22T15:36:48.971Z</time></trkpt><trkpt lat="45.6987227" lon="9.0364414"><ele>296.0</ele><time>2026-04-22T15:36:49.971Z</time></trkpt><trkpt lat="45.6986279" lon="9.0364443"><ele>295.83333333333337</ele><time>2026-04-22T15:36:51.972Z</time></trkpt><trkpt lat="45.6985554" lon="9.0364269"><ele>295.6666666666667</ele><time>2026-04-22T15:36:53.972Z</time></trkpt><trkpt lat="45.6984861" lon="9.0363593"><ele>295.5</ele><time>2026-04-22T15:36:57.971Z</time></trkpt><trkpt lat="45.6984753" lon="9.0362563"><ele>295.3333333333333</ele><time>2026-04-22T15:36:59.97Z</time></trkpt><trkpt lat="45.6984887" lon="9.0361404"><ele>295.16666666666663</ele><time>2026-04-22T15:37:01.971Z</time></trkpt><trkpt lat="45.6985037" lon="9.0360174"><ele>295.0</ele><time>2026-04-22T15:37:03.971Z</time></trkpt><trkpt lat="45.6985152" lon="9.0358579"><ele>295.6</ele><time>2026-04-22T15:37:05.972Z</time></trkpt><trkpt lat="45.6985336" lon="9.0356968"><ele>296.2</ele><time>2026-04-22T15:37:07.97Z</time></trkpt><trkpt lat="45.6985458" lon="9.0355149"><ele>296.8</ele><time>2026-04-22T15:37:09.97Z</time></trkpt><trkpt lat="45.6985493" lon="9.0354132"><ele>297.4</ele><time>2026-04-22T15:37:10.971Z</time></trkpt><trkpt lat="45.6985566" lon="9.0353121"><ele>298.0</ele><time>2026-04-22T15:37:11.971Z</time></trkpt><trkpt lat="45.6985649" lon="9.0352096"><ele>298.0</ele><time>2026-04-22T15:37:12.971Z</time></trkpt><trkpt lat="45.6985744" lon="9.0351049"><ele>298.0</ele><time>2026-04-22T15:37:13.971Z</time></trkpt><trkpt lat="45.6985821" lon="9.0350018"><ele>298.0</ele><time>2026-04-22T15:37:14.972Z</time></trkpt><trkpt lat="45.6985898" lon="9.0348935"><ele>298.0</ele><time>2026-04-22T15:37:15.972Z</time></trkpt><trkpt lat="45.6985934" lon="9.0347794"><ele>298.0</ele><time>2026-04-22T15:37:16.971Z</time></trkpt><trkpt lat="45.6986002" lon="9.0346593"><ele>298.0</ele><time>2026-04-22T15:37:17.97Z</time></trkpt><trkpt lat="45.6986076" lon="9.0345372"><ele>298.0</ele><time>2026-04-22T15:37:18.97Z</time></trkpt><trkpt lat="45.6986124" lon="9.0344092"><ele>298.0</ele><time>2026-04-22T15:37:19.97Z</time></trkpt><trkpt lat="45.6986211" lon="9.0342832"><ele>298.0</ele><time>2026-04-22T15:37:20.97Z</time></trkpt><trkpt lat="45.6986325" lon="9.0341556"><ele>298.0</ele><time>2026-04-22T15:37:21.971Z</time></trkpt><trkpt lat="45.6986468" lon="9.0340308"><ele>298.0</ele><time>2026-04-22T15:37:22.971Z</time></trkpt><trkpt lat="45.6986621" lon="9.033903"><ele>298.0</ele><time>2026-04-22T15:37:23.971Z</time></trkpt><trkpt lat="45.6986758" lon="9.0337692"><ele>298.0</ele><time>2026-04-22T15:37:24.972Z</time></trkpt><trkpt lat="45.6986887" lon="9.0336266"><ele>298.0</ele><time>2026-04-22T15:37:25.971Z</time></trkpt><trkpt lat="45.6987056" lon="9.0334823"><ele>298.0</ele><time>2026-04-22T15:37:26.971Z</time></trkpt><trkpt lat="45.6987211" lon="9.0333294"><ele>298.0</ele><time>2026-04-22T15:37:27.971Z</time></trkpt><trkpt lat="45.6987326" lon="9.0331734"><ele>298.0</ele><time>2026-04-22T15:37:28.972Z</time></trkpt><trkpt lat="45.6987441" lon="9.0330138"><ele>298.0</ele><time>2026-04-22T15:37:29.971Z</time></trkpt><trkpt lat="45.6987599" lon="9.0328693"><ele>298.0</ele><time>2026-04-22T15:37:30.971Z</time></trkpt><trkpt lat="45.6987734" lon="9.0327349"><ele>298.0</ele><time>2026-04-22T15:37:31.971Z</time></trkpt><trkpt lat="45.6987862" lon="9.0326153"><ele>298.0</ele><time>2026-04-22T15:37:32.97Z</time></trkpt><trkpt lat="45.6988022" lon="9.032517"><ele>298.0</ele><time>2026-04-22T15:37:33.971Z</time></trkpt><trkpt lat="45.6988391" lon="9.0323837"><ele>298.0</ele><time>2026-04-22T15:37:35.971Z</time></trkpt><trkpt lat="45.6988811" lon="9.0322926"><ele>298.0</ele><time>2026-04-22T15:37:38.972Z</time></trkpt><trkpt lat="45.6989264" lon="9.0322062"><ele>298.0</ele><time>2026-04-22T15:37:40.971Z</time></trkpt><trkpt lat="45.6989575" lon="9.0320944"><ele>298.0</ele><time>2026-04-22T15:37:42.972Z</time></trkpt><trkpt lat="45.6989157" lon="9.031998"><ele>298.0</ele><time>2026-04-22T15:37:44.971Z</time></trkpt><trkpt lat="45.6988334" lon="9.031971"><ele>298.0</ele><time>2026-04-22T15:37:46.971Z</time></trkpt><trkpt lat="45.698713" lon="9.0320033"><ele>298.0</ele><time>2026-04-22T15:37:48.972Z</time></trkpt><trkpt lat="45.6986358" lon="9.0320116"><ele>298.0</ele><time>2026-04-22T15:37:49.971Z</time></trkpt><trkpt lat="45.6985465" lon="9.0320162"><ele>298.0</ele><time>2026-04-22T15:37:50.971Z</time></trkpt><trkpt lat="45.6984455" lon="9.0320218"><ele>298.0</ele><time>2026-04-22T15:37:51.971Z</time></trkpt><trkpt lat="45.6983371" lon="9.0320247"><ele>298.0</ele><time>2026-04-22T15:37:52.972Z</time></trkpt><trkpt lat="45.6982235" lon="9.0320256"><ele>298.0</ele><time>2026-04-22T15:37:53.971Z</time></trkpt><trkpt lat="45.6981107" lon="9.0320267"><ele>298.0</ele><time>2026-04-22T15:37:54.971Z</time></trkpt><trkpt lat="45.6979991" lon="9.0320276"><ele>298.0</ele><time>2026-04-22T15:37:55.971Z</time></trkpt><trkpt lat="45.6978925" lon="9.0320334"><ele>298.0</ele><time>2026-04-22T15:37:56.97Z</time></trkpt><trkpt lat="45.6977907" lon="9.0320373"><ele>298.0</ele><time>2026-04-22T15:37:57.972Z</time></trkpt><trkpt lat="45.6976918" lon="9.0320341"><ele>297.4</ele><time>2026-04-22T15:37:58.971Z</time></trkpt><trkpt lat="45.6975936" lon="9.0320324"><ele>296.8</ele><time>2026-04-22T15:37:59.971Z</time></trkpt><trkpt lat="45.6974972" lon="9.0320384"><ele>296.2</ele><time>2026-04-22T15:38:00.972Z</time></trkpt><trkpt lat="45.697404" lon="9.0320389"><ele>295.6</ele><time>2026-04-22T15:38:01.971Z</time></trkpt><trkpt lat="45.6973145" lon="9.0320442"><ele>295.0</ele><time>2026-04-22T15:38:02.971Z</time></trkpt><trkpt lat="45.6972288" lon="9.0320478"><ele>295.0</ele><time>2026-04-22T15:38:03.971Z</time></trkpt><trkpt lat="45.6971498" lon="9.0320497"><ele>295.0</ele><time>2026-04-22T15:38:04.972Z</time></trkpt><trkpt lat="45.6970824" lon="9.0320557"><ele>295.0</ele><time>2026-04-22T15:38:05.972Z</time></trkpt><trkpt lat="45.6969945" lon="9.0320499"><ele>295.0</ele><time>2026-04-22T15:38:07.97Z</time></trkpt><trkpt lat="45.6969451" lon="9.0319882"><ele>295.0</ele><time>2026-04-22T15:38:09.971Z</time></trkpt><trkpt lat="45.6969275" lon="9.0318751"><ele>295.0</ele><time>2026-04-22T15:38:11.972Z</time></trkpt><trkpt lat="45.6969259" lon="9.0316978"><ele>294.66666666666663</ele><time>2026-04-22T15:38:13.97Z</time></trkpt><trkpt lat="45.6969244" lon="9.0315878"><ele>294.3333333333333</ele><time>2026-04-22T15:38:14.971Z</time></trkpt><trkpt lat="45.6969218" lon="9.0314819"><ele>294.0</ele><time>2026-04-22T15:38:15.971Z</time></trkpt><trkpt lat="45.6969226" lon="9.0313792"><ele>293.6666666666667</ele><time>2026-04-22T15:38:16.972Z</time></trkpt><trkpt lat="45.6969229" lon="9.0312804"><ele>293.33333333333337</ele><time>2026-04-22T15:38:17.971Z</time></trkpt><trkpt lat="45.696923" lon="9.0311893"><ele>293.0</ele><time>2026-04-22T15:38:18.972Z</time></trkpt><trkpt lat="45.696924" lon="9.0310319"><ele>292.5</ele><time>2026-04-22T15:38:20.972Z</time></trkpt><trkpt lat="45.6969009" lon="9.0309342"><ele>292.0</ele><time>2026-04-22T15:38:22.971Z</time></trkpt><trkpt lat="45.6968429" lon="9.0308874"><ele>291.5</ele><time>2026-04-22T15:38:24.971Z</time></trkpt><trkpt lat="45.6967588" lon="9.0308913"><ele>291.0</ele><time>2026-04-22T15:38:26.971Z</time></trkpt><trkpt lat="45.6966358" lon="9.0308907"><ele>290.5</ele><time>2026-04-22T15:38:28.972Z</time></trkpt><trkpt lat="45.6965634" lon="9.0308876"><ele>290.0</ele><time>2026-04-22T15:38:29.971Z</time></trkpt><trkpt lat="45.6964937" lon="9.0308763"><ele>290.0</ele><time>2026-04-22T15:38:30.972Z</time></trkpt><trkpt lat="45.6964249" lon="9.0308671"><ele>290.0</ele><time>2026-04-22T15:38:31.971Z</time></trkpt><trkpt lat="45.6963585" lon="9.0308617"><ele>290.0</ele><time>2026-04-22T15:38:32.971Z</time></trkpt><trkpt lat="45.6962944" lon="9.0308604"><ele>290.0</ele><time>2026-04-22T15:38:33.971Z</time></trkpt><trkpt lat="45.6962295" lon="9.0308557"><ele>290.0</ele><time>2026-04-22T15:38:34.972Z</time></trkpt><trkpt lat="45.6961585" lon="9.0308485"><ele>290.0</ele><time>2026-04-22T15:38:35.972Z</time></trkpt><trkpt lat="45.6960837" lon="9.0308439"><ele>290.0</ele><time>2026-04-22T15:38:36.971Z</time></trkpt><trkpt lat="45.6960092" lon="9.0308402"><ele>289.5</ele><time>2026-04-22T15:38:37.972Z</time></trkpt><trkpt lat="45.6959383" lon="9.030846"><ele>289.0</ele><time>2026-04-22T15:38:38.972Z</time></trkpt><trkpt lat="45.6958649" lon="9.0308415"><ele>288.5</ele><time>2026-04-22T15:38:39.972Z</time></trkpt><trkpt lat="45.6957909" lon="9.0308303"><ele>288.0</ele><time>2026-04-22T15:38:40.971Z</time></trkpt><trkpt lat="45.6957144" lon="9.0308264"><ele>287.5</ele><time>2026-04-22T15:38:41.972Z</time></trkpt><trkpt lat="45.695635" lon="9.0308168"><ele>287.0</ele><time>2026-04-22T15:38:42.972Z</time></trkpt><trkpt lat="45.6955565" lon="9.0308103"><ele>287.0</ele><time>2026-04-22T15:38:43.971Z</time></trkpt><trkpt lat="45.6954809" lon="9.0308091"><ele>287.0</ele><time>2026-04-22T15:38:44.971Z</time></trkpt><trkpt lat="45.6954076" lon="9.0308061"><ele>287.0</ele><time>2026-04-22T15:38:45.971Z</time></trkpt><trkpt lat="45.695335" lon="9.0308001"><ele>287.0</ele><time>2026-04-22T15:38:46.972Z</time></trkpt><trkpt lat="45.6952601" lon="9.0307955"><ele>287.0</ele><time>2026-04-22T15:38:47.972Z</time></trkpt><trkpt lat="45.6951877" lon="9.0307923"><ele>287.0</ele><time>2026-04-22T15:38:48.972Z</time></trkpt><trkpt lat="45.6951169" lon="9.0307891"><ele>287.0</ele><time>2026-04-22T15:38:49.972Z</time></trkpt><trkpt lat="45.6950448" lon="9.0307838"><ele>286.6666666666667</ele><time>2026-04-22T15:38:50.972Z</time></trkpt><trkpt lat="45.6949776" lon="9.0307781"><ele>286.33333333333337</ele><time>2026-04-22T15:38:51.972Z</time></trkpt><trkpt lat="45.6949142" lon="9.0307759"><ele>286.0</ele><time>2026-04-22T15:38:52.972Z</time></trkpt><trkpt lat="45.6947969" lon="9.0307638"><ele>285.6666666666667</ele><time>2026-04-22T15:38:54.971Z</time></trkpt><trkpt lat="45.6946948" lon="9.0307516"><ele>285.3333333333333</ele><time>2026-04-22T15:38:56.971Z</time></trkpt><trkpt lat="45.694602" lon="9.0307368"><ele>285.0</ele><time>2026-04-22T15:38:58.972Z</time></trkpt><trkpt lat="45.6945329" lon="9.0307264"><ele>285.0</ele><time>2026-04-22T15:39:00.971Z</time></trkpt><trkpt lat="45.6944651" lon="9.0307053"><ele>285.0</ele><time>2026-04-22T15:40:15.97Z</time></trkpt><trkpt lat="45.694401" lon="9.0307103"><ele>285.0</ele><time>2026-04-22T15:40:17.971Z</time></trkpt><trkpt lat="45.694322" lon="9.0307139"><ele>285.0</ele><time>2026-04-22T15:40:19.97Z</time></trkpt><trkpt lat="45.694243" lon="9.0306886"><ele>285.0</ele><time>2026-04-22T15:40:22.97Z</time></trkpt><trkpt lat="45.6942536" lon="9.0305848"><ele>285.0</ele><time>2026-04-22T15:40:52.97Z</time></trkpt><trkpt lat="45.694261" lon="9.0304896"><ele>285.0</ele><time>2026-04-22T15:40:55.97Z</time></trkpt><trkpt lat="45.694312" lon="9.0304338"><ele>284.0</ele><time>2026-04-22T15:40:58.97Z</time></trkpt></trkseg></trk></gpx>